<?xml version="1.0" encoding="UTF-8" standalone="no" ?>
<gpx xmlns="http://www.topografix.com/GPX/1/1" xmlns:xsi="http://www.w3.org/2001/XMLSchema-instance" xsi:schemaLocation="http://www.topografix.com/GPX/1/1 http://www.topografix.com/GPX/1/1/gpx.xsd" version="1.1" creator="VisuGPX - https://www.visugpx.com">
  <metadata>
    <name>Boucle 32 km autour de Langres</name>
    <desc><![CDATA[Second jour du séjour Haute Marne
Un passage impossible a prendre autour du lac en raison des innondations]]></desc>
  </metadata>
  <trk>
    <name><![CDATA[SityTrail - Boucle 32 km autour de Langres]]></name>
    <desc><![CDATA[Second jour du séjour Haute Marne
Un passage impossible a prendre autour du lac en raison des innondations]]></desc>
    <trkseg>
      <trkpt lat="47.86825" lon="5.33374">
        <ele>441</ele>
        <time>2024-05-14T06:37:06.911Z</time>
      </trkpt>
      <trkpt lat="47.86822" lon="5.33439">
        <ele>448</ele>
        <time>2024-05-14T07:07:11.734Z</time>
      </trkpt>
      <trkpt lat="47.86819" lon="5.33483">
        <ele>458</ele>
        <time>2024-05-14T07:07:16.855Z</time>
      </trkpt>
      <trkpt lat="47.86817" lon="5.33521">
        <ele>460</ele>
        <time>2024-05-14T07:07:20.995Z</time>
      </trkpt>
      <trkpt lat="47.86817" lon="5.33562">
        <ele>458</ele>
        <time>2024-05-14T07:07:25.640Z</time>
      </trkpt>
      <trkpt lat="47.86803" lon="5.33575">
        <ele>458</ele>
        <time>2024-05-14T07:07:29.714Z</time>
      </trkpt>
      <trkpt lat="47.86801" lon="5.33551">
        <ele>458</ele>
        <time>2024-05-14T07:07:34.254Z</time>
      </trkpt>
      <trkpt lat="47.868" lon="5.33537">
        <ele>460</ele>
        <time>2024-05-14T07:07:38.335Z</time>
      </trkpt>
      <trkpt lat="47.86791" lon="5.33465">
        <ele>465</ele>
        <time>2024-05-14T07:07:42.660Z</time>
      </trkpt>
      <trkpt lat="47.86785" lon="5.33397">
        <ele>462</ele>
        <time>2024-05-14T07:07:47.114Z</time>
      </trkpt>
      <trkpt lat="47.86773" lon="5.33297">
        <ele>462</ele>
        <time>2024-05-14T07:07:51.678Z</time>
      </trkpt>
      <trkpt lat="47.86762" lon="5.33222">
        <ele>463</ele>
        <time>2024-05-14T07:07:55.793Z</time>
      </trkpt>
      <trkpt lat="47.86747" lon="5.33149">
        <ele>457</ele>
        <time>2024-05-14T07:08:00.215Z</time>
      </trkpt>
      <trkpt lat="47.86724" lon="5.33092">
        <ele>460</ele>
        <time>2024-05-14T07:08:04.538Z</time>
      </trkpt>
      <trkpt lat="47.86709" lon="5.33065">
        <ele>453</ele>
        <time>2024-05-14T07:08:08.875Z</time>
      </trkpt>
      <trkpt lat="47.86685" lon="5.33054">
        <ele>456</ele>
        <time>2024-05-14T07:08:13.294Z</time>
      </trkpt>
      <trkpt lat="47.86603" lon="5.33045">
        <ele>458</ele>
        <time>2024-05-14T07:08:17.695Z</time>
      </trkpt>
      <trkpt lat="47.86555" lon="5.33057">
        <ele>463</ele>
        <time>2024-05-14T07:08:22.217Z</time>
      </trkpt>
      <trkpt lat="47.86536" lon="5.33056">
        <ele>463</ele>
        <time>2024-05-14T07:08:26.298Z</time>
      </trkpt>
      <trkpt lat="47.86516" lon="5.33047">
        <ele>463</ele>
        <time>2024-05-14T07:08:30.717Z</time>
      </trkpt>
      <trkpt lat="47.86445" lon="5.33057">
        <ele>465</ele>
        <time>2024-05-14T07:08:34.999Z</time>
      </trkpt>
      <trkpt lat="47.86394" lon="5.33058">
        <ele>462</ele>
        <time>2024-05-14T07:08:39.359Z</time>
      </trkpt>
      <trkpt lat="47.86347" lon="5.33067">
        <ele>460</ele>
        <time>2024-05-14T07:08:43.694Z</time>
      </trkpt>
      <trkpt lat="47.86344" lon="5.3305">
        <ele>460</ele>
        <time>2024-05-14T07:08:48.007Z</time>
      </trkpt>
      <trkpt lat="47.86349" lon="5.33043">
        <ele>461</ele>
        <time>2024-05-14T07:08:52.516Z</time>
      </trkpt>
      <trkpt lat="47.86355" lon="5.33036">
        <ele>457</ele>
        <time>2024-05-14T07:08:56.799Z</time>
      </trkpt>
      <trkpt lat="47.86389" lon="5.33031">
        <ele>459</ele>
        <time>2024-05-14T07:09:01.161Z</time>
      </trkpt>
      <trkpt lat="47.86371" lon="5.33011">
        <ele>451</ele>
        <time>2024-05-14T07:09:05.638Z</time>
      </trkpt>
      <trkpt lat="47.86418" lon="5.32969">
        <ele>447</ele>
        <time>2024-05-14T07:09:09.837Z</time>
      </trkpt>
      <trkpt lat="47.8647" lon="5.32918">
        <ele>436</ele>
        <time>2024-05-14T07:09:14.116Z</time>
      </trkpt>
      <trkpt lat="47.86394" lon="5.32826">
        <ele>424</ele>
        <time>2024-05-14T07:09:18.393Z</time>
      </trkpt>
      <trkpt lat="47.86348" lon="5.32791">
        <ele>416</ele>
        <time>2024-05-14T07:09:22.617Z</time>
      </trkpt>
      <trkpt lat="47.86292" lon="5.32803">
        <ele>420</ele>
        <time>2024-05-14T07:09:27.003Z</time>
      </trkpt>
      <trkpt lat="47.86271" lon="5.32919">
        <ele>435</ele>
        <time>2024-05-14T07:09:31.679Z</time>
      </trkpt>
      <trkpt lat="47.86267" lon="5.32908">
        <ele>435</ele>
        <time>2024-05-14T07:09:36.158Z</time>
      </trkpt>
      <trkpt lat="47.86266" lon="5.32901">
        <ele>431</ele>
        <time>2024-05-14T07:09:40.534Z</time>
      </trkpt>
      <trkpt lat="47.86263" lon="5.32894">
        <ele>431</ele>
        <time>2024-05-14T07:09:44.997Z</time>
      </trkpt>
      <trkpt lat="47.86261" lon="5.32888">
        <ele>431</ele>
        <time>2024-05-14T07:09:49.459Z</time>
      </trkpt>
      <trkpt lat="47.86259" lon="5.3288">
        <ele>431</ele>
        <time>2024-05-14T07:09:53.896Z</time>
      </trkpt>
      <trkpt lat="47.86257" lon="5.32873">
        <ele>427</ele>
        <time>2024-05-14T07:09:58.196Z</time>
      </trkpt>
      <trkpt lat="47.86255" lon="5.32865">
        <ele>427</ele>
        <time>2024-05-14T07:10:02.539Z</time>
      </trkpt>
      <trkpt lat="47.86253" lon="5.32858">
        <ele>427</ele>
        <time>2024-05-14T07:10:06.558Z</time>
      </trkpt>
      <trkpt lat="47.86252" lon="5.3285">
        <ele>427</ele>
        <time>2024-05-14T07:10:10.678Z</time>
      </trkpt>
      <trkpt lat="47.8625" lon="5.32843">
        <ele>424</ele>
        <time>2024-05-14T07:10:15.378Z</time>
      </trkpt>
      <trkpt lat="47.86248" lon="5.32836">
        <ele>424</ele>
        <time>2024-05-14T07:10:19.415Z</time>
      </trkpt>
      <trkpt lat="47.86246" lon="5.32828">
        <ele>424</ele>
        <time>2024-05-14T07:10:23.979Z</time>
      </trkpt>
      <trkpt lat="47.86245" lon="5.32821">
        <ele>424</ele>
        <time>2024-05-14T07:10:28.003Z</time>
      </trkpt>
      <trkpt lat="47.86243" lon="5.32813">
        <ele>422</ele>
        <time>2024-05-14T07:10:32.554Z</time>
      </trkpt>
      <trkpt lat="47.86241" lon="5.32805">
        <ele>422</ele>
        <time>2024-05-14T07:10:36.914Z</time>
      </trkpt>
      <trkpt lat="47.8624" lon="5.32797">
        <ele>422</ele>
        <time>2024-05-14T07:10:41.477Z</time>
      </trkpt>
      <trkpt lat="47.86238" lon="5.32788">
        <ele>419</ele>
        <time>2024-05-14T07:10:46.001Z</time>
      </trkpt>
      <trkpt lat="47.86238" lon="5.32781">
        <ele>419</ele>
        <time>2024-05-14T07:10:50.003Z</time>
      </trkpt>
      <trkpt lat="47.86235" lon="5.32773">
        <ele>421</ele>
        <time>2024-05-14T07:10:55.003Z</time>
      </trkpt>
      <trkpt lat="47.86234" lon="5.32765">
        <ele>421</ele>
        <time>2024-05-14T07:10:59.482Z</time>
      </trkpt>
      <trkpt lat="47.86231" lon="5.32757">
        <ele>418</ele>
        <time>2024-05-14T07:11:03.694Z</time>
      </trkpt>
      <trkpt lat="47.86236" lon="5.32752">
        <ele>418</ele>
        <time>2024-05-14T07:11:07.893Z</time>
      </trkpt>
      <trkpt lat="47.86243" lon="5.32754">
        <ele>416</ele>
        <time>2024-05-14T07:11:12.175Z</time>
      </trkpt>
      <trkpt lat="47.86248" lon="5.32754">
        <ele>416</ele>
        <time>2024-05-14T07:11:16.554Z</time>
      </trkpt>
      <trkpt lat="47.86254" lon="5.32753">
        <ele>416</ele>
        <time>2024-05-14T07:11:21.003Z</time>
      </trkpt>
      <trkpt lat="47.86255" lon="5.32746">
        <ele>416</ele>
        <time>2024-05-14T07:11:25.004Z</time>
      </trkpt>
      <trkpt lat="47.86253" lon="5.32736">
        <ele>416</ele>
        <time>2024-05-14T07:11:29.119Z</time>
      </trkpt>
      <trkpt lat="47.86254" lon="5.32728">
        <ele>412</ele>
        <time>2024-05-14T07:11:33.360Z</time>
      </trkpt>
      <trkpt lat="47.86255" lon="5.3272">
        <ele>412</ele>
        <time>2024-05-14T07:11:37.736Z</time>
      </trkpt>
      <trkpt lat="47.86257" lon="5.32712">
        <ele>412</ele>
        <time>2024-05-14T07:11:42.004Z</time>
      </trkpt>
      <trkpt lat="47.86262" lon="5.32707">
        <ele>409</ele>
        <time>2024-05-14T07:11:46.461Z</time>
      </trkpt>
      <trkpt lat="47.86267" lon="5.32704">
        <ele>406</ele>
        <time>2024-05-14T07:11:50.517Z</time>
      </trkpt>
      <trkpt lat="47.86269" lon="5.32696">
        <ele>406</ele>
        <time>2024-05-14T07:11:55.003Z</time>
      </trkpt>
      <trkpt lat="47.86268" lon="5.32689">
        <ele>406</ele>
        <time>2024-05-14T07:11:59.637Z</time>
      </trkpt>
      <trkpt lat="47.86268" lon="5.32682">
        <ele>406</ele>
        <time>2024-05-14T07:12:04.218Z</time>
      </trkpt>
      <trkpt lat="47.86267" lon="5.32675">
        <ele>405</ele>
        <time>2024-05-14T07:12:08.715Z</time>
      </trkpt>
      <trkpt lat="47.86267" lon="5.32669">
        <ele>405</ele>
        <time>2024-05-14T07:12:13.003Z</time>
      </trkpt>
      <trkpt lat="47.86267" lon="5.32661">
        <ele>405</ele>
        <time>2024-05-14T07:12:17.118Z</time>
      </trkpt>
      <trkpt lat="47.86267" lon="5.32654">
        <ele>405</ele>
        <time>2024-05-14T07:12:21.298Z</time>
      </trkpt>
      <trkpt lat="47.86267" lon="5.32645">
        <ele>403</ele>
        <time>2024-05-14T07:12:50.003Z</time>
      </trkpt>
      <trkpt lat="47.86268" lon="5.32639">
        <ele>403</ele>
        <time>2024-05-14T07:12:54.577Z</time>
      </trkpt>
      <trkpt lat="47.86267" lon="5.32632">
        <ele>403</ele>
        <time>2024-05-14T07:12:58.853Z</time>
      </trkpt>
      <trkpt lat="47.86265" lon="5.32627">
        <ele>403</ele>
        <time>2024-05-14T07:13:03.195Z</time>
      </trkpt>
      <trkpt lat="47.86264" lon="5.32627">
        <ele>403</ele>
        <time>2024-05-14T07:13:07.495Z</time>
      </trkpt>
      <trkpt lat="47.86257" lon="5.32623">
        <ele>403</ele>
        <time>2024-05-14T07:13:12.003Z</time>
      </trkpt>
      <trkpt lat="47.86254" lon="5.32617">
        <ele>403</ele>
        <time>2024-05-14T07:13:16.855Z</time>
      </trkpt>
      <trkpt lat="47.86256" lon="5.32613">
        <ele>403</ele>
        <time>2024-05-14T07:13:20.975Z</time>
      </trkpt>
      <trkpt lat="47.86261" lon="5.3261">
        <ele>403</ele>
        <time>2024-05-14T07:13:25.558Z</time>
      </trkpt>
      <trkpt lat="47.86263" lon="5.32602">
        <ele>403</ele>
        <time>2024-05-14T07:13:29.858Z</time>
      </trkpt>
      <trkpt lat="47.86264" lon="5.32594">
        <ele>398</ele>
        <time>2024-05-14T07:13:34.935Z</time>
      </trkpt>
      <trkpt lat="47.86265" lon="5.32587">
        <ele>398</ele>
        <time>2024-05-14T07:13:39.135Z</time>
      </trkpt>
      <trkpt lat="47.86266" lon="5.3258">
        <ele>398</ele>
        <time>2024-05-14T07:13:43.194Z</time>
      </trkpt>
      <trkpt lat="47.86268" lon="5.32574">
        <ele>398</ele>
        <time>2024-05-14T07:13:47.657Z</time>
      </trkpt>
      <trkpt lat="47.8627" lon="5.32567">
        <ele>394</ele>
        <time>2024-05-14T07:13:51.823Z</time>
      </trkpt>
      <trkpt lat="47.86272" lon="5.3256">
        <ele>394</ele>
        <time>2024-05-14T07:13:55.958Z</time>
      </trkpt>
      <trkpt lat="47.86274" lon="5.32553">
        <ele>394</ele>
        <time>2024-05-14T07:14:00.004Z</time>
      </trkpt>
      <trkpt lat="47.86275" lon="5.32545">
        <ele>394</ele>
        <time>2024-05-14T07:14:04.559Z</time>
      </trkpt>
      <trkpt lat="47.86278" lon="5.32538">
        <ele>392</ele>
        <time>2024-05-14T07:14:08.619Z</time>
      </trkpt>
      <trkpt lat="47.8628" lon="5.3253">
        <ele>392</ele>
        <time>2024-05-14T07:14:13.116Z</time>
      </trkpt>
      <trkpt lat="47.86283" lon="5.32522">
        <ele>392</ele>
        <time>2024-05-14T07:14:17.640Z</time>
      </trkpt>
      <trkpt lat="47.86286" lon="5.32514">
        <ele>392</ele>
        <time>2024-05-14T07:14:21.699Z</time>
      </trkpt>
      <trkpt lat="47.86288" lon="5.32507">
        <ele>390</ele>
        <time>2024-05-14T07:14:25.717Z</time>
      </trkpt>
      <trkpt lat="47.86291" lon="5.32499">
        <ele>390</ele>
        <time>2024-05-14T07:14:29.897Z</time>
      </trkpt>
      <trkpt lat="47.86292" lon="5.32493">
        <ele>391</ele>
        <time>2024-05-14T07:14:34.360Z</time>
      </trkpt>
      <trkpt lat="47.86293" lon="5.32486">
        <ele>387</ele>
        <time>2024-05-14T07:14:38.873Z</time>
      </trkpt>
      <trkpt lat="47.86296" lon="5.3247">
        <ele>387</ele>
        <time>2024-05-14T07:14:43.318Z</time>
      </trkpt>
      <trkpt lat="47.86301" lon="5.32461">
        <ele>387</ele>
        <time>2024-05-14T07:14:47.856Z</time>
      </trkpt>
      <trkpt lat="47.86302" lon="5.32452">
        <ele>383</ele>
        <time>2024-05-14T07:14:52.259Z</time>
      </trkpt>
      <trkpt lat="47.86303" lon="5.32444">
        <ele>383</ele>
        <time>2024-05-14T07:14:56.654Z</time>
      </trkpt>
      <trkpt lat="47.86305" lon="5.32437">
        <ele>383</ele>
        <time>2024-05-14T07:15:01.003Z</time>
      </trkpt>
      <trkpt lat="47.86308" lon="5.32432">
        <ele>383</ele>
        <time>2024-05-14T07:15:05.564Z</time>
      </trkpt>
      <trkpt lat="47.86309" lon="5.32431">
        <ele>383</ele>
        <time>2024-05-14T07:15:10.003Z</time>
      </trkpt>
      <trkpt lat="47.86311" lon="5.32425">
        <ele>380</ele>
        <time>2024-05-14T07:15:14.375Z</time>
      </trkpt>
      <trkpt lat="47.86311" lon="5.3242">
        <ele>380</ele>
        <time>2024-05-14T07:15:18.537Z</time>
      </trkpt>
      <trkpt lat="47.86312" lon="5.32414">
        <ele>380</ele>
        <time>2024-05-14T07:15:22.974Z</time>
      </trkpt>
      <trkpt lat="47.86314" lon="5.32406">
        <ele>380</ele>
        <time>2024-05-14T07:15:27.520Z</time>
      </trkpt>
      <trkpt lat="47.86318" lon="5.32403">
        <ele>380</ele>
        <time>2024-05-14T07:15:32.002Z</time>
      </trkpt>
      <trkpt lat="47.86319" lon="5.32393">
        <ele>378</ele>
        <time>2024-05-14T07:15:36.375Z</time>
      </trkpt>
      <trkpt lat="47.8632" lon="5.32385">
        <ele>378</ele>
        <time>2024-05-14T07:15:40.821Z</time>
      </trkpt>
      <trkpt lat="47.8632" lon="5.32377">
        <ele>378</ele>
        <time>2024-05-14T07:15:45.257Z</time>
      </trkpt>
      <trkpt lat="47.8632" lon="5.32372">
        <ele>376</ele>
        <time>2024-05-14T07:15:49.694Z</time>
      </trkpt>
      <trkpt lat="47.86321" lon="5.32364">
        <ele>376</ele>
        <time>2024-05-14T07:15:53.958Z</time>
      </trkpt>
      <trkpt lat="47.86322" lon="5.32355">
        <ele>376</ele>
        <time>2024-05-14T07:15:58.378Z</time>
      </trkpt>
      <trkpt lat="47.86322" lon="5.32347">
        <ele>376</ele>
        <time>2024-05-14T07:16:03.002Z</time>
      </trkpt>
      <trkpt lat="47.86323" lon="5.3234">
        <ele>375</ele>
        <time>2024-05-14T07:16:07.697Z</time>
      </trkpt>
      <trkpt lat="47.86324" lon="5.32332">
        <ele>375</ele>
        <time>2024-05-14T07:16:12.216Z</time>
      </trkpt>
      <trkpt lat="47.86324" lon="5.32324">
        <ele>375</ele>
        <time>2024-05-14T07:16:16.660Z</time>
      </trkpt>
      <trkpt lat="47.86324" lon="5.32317">
        <ele>373</ele>
        <time>2024-05-14T07:16:21.028Z</time>
      </trkpt>
      <trkpt lat="47.86324" lon="5.3231">
        <ele>373</ele>
        <time>2024-05-14T07:16:25.294Z</time>
      </trkpt>
      <trkpt lat="47.86325" lon="5.32301">
        <ele>373</ele>
        <time>2024-05-14T07:16:29.714Z</time>
      </trkpt>
      <trkpt lat="47.86325" lon="5.32293">
        <ele>373</ele>
        <time>2024-05-14T07:16:34.002Z</time>
      </trkpt>
      <trkpt lat="47.86324" lon="5.32284">
        <ele>371</ele>
        <time>2024-05-14T07:16:38.458Z</time>
      </trkpt>
      <trkpt lat="47.86324" lon="5.32274">
        <ele>371</ele>
        <time>2024-05-14T07:16:42.920Z</time>
      </trkpt>
      <trkpt lat="47.86325" lon="5.32266">
        <ele>371</ele>
        <time>2024-05-14T07:17:46.819Z</time>
      </trkpt>
      <trkpt lat="47.86326" lon="5.32257">
        <ele>369</ele>
        <time>2024-05-14T07:17:51.002Z</time>
      </trkpt>
      <trkpt lat="47.86327" lon="5.32248">
        <ele>369</ele>
        <time>2024-05-14T07:17:55.002Z</time>
      </trkpt>
      <trkpt lat="47.86327" lon="5.32239">
        <ele>369</ele>
        <time>2024-05-14T07:17:59.074Z</time>
      </trkpt>
      <trkpt lat="47.86328" lon="5.32231">
        <ele>368</ele>
        <time>2024-05-14T07:18:03.655Z</time>
      </trkpt>
      <trkpt lat="47.8633" lon="5.32225">
        <ele>368</ele>
        <time>2024-05-14T07:18:07.759Z</time>
      </trkpt>
      <trkpt lat="47.86332" lon="5.32217">
        <ele>368</ele>
        <time>2024-05-14T07:18:12Z</time>
      </trkpt>
      <trkpt lat="47.86333" lon="5.32209">
        <ele>368</ele>
        <time>2024-05-14T07:18:16.453Z</time>
      </trkpt>
      <trkpt lat="47.86335" lon="5.32201">
        <ele>366</ele>
        <time>2024-05-14T07:18:21.002Z</time>
      </trkpt>
      <trkpt lat="47.86336" lon="5.32192">
        <ele>366</ele>
        <time>2024-05-14T07:18:47.280Z</time>
      </trkpt>
      <trkpt lat="47.86338" lon="5.32184">
        <ele>366</ele>
        <time>2024-05-14T07:18:51.477Z</time>
      </trkpt>
      <trkpt lat="47.8634" lon="5.32175">
        <ele>364</ele>
        <time>2024-05-14T07:18:55.675Z</time>
      </trkpt>
      <trkpt lat="47.86341" lon="5.32167">
        <ele>364</ele>
        <time>2024-05-14T07:19:00.002Z</time>
      </trkpt>
      <trkpt lat="47.86342" lon="5.32158">
        <ele>364</ele>
        <time>2024-05-14T07:19:04.576Z</time>
      </trkpt>
      <trkpt lat="47.86344" lon="5.32149">
        <ele>364</ele>
        <time>2024-05-14T07:19:08.779Z</time>
      </trkpt>
      <trkpt lat="47.86346" lon="5.32141">
        <ele>364</ele>
        <time>2024-05-14T07:19:13.002Z</time>
      </trkpt>
      <trkpt lat="47.86347" lon="5.32132">
        <ele>366</ele>
        <time>2024-05-14T07:19:17.355Z</time>
      </trkpt>
      <trkpt lat="47.86349" lon="5.32123">
        <ele>364</ele>
        <time>2024-05-14T07:19:21.815Z</time>
      </trkpt>
      <trkpt lat="47.8635" lon="5.32114">
        <ele>364</ele>
        <time>2024-05-14T07:19:25.894Z</time>
      </trkpt>
      <trkpt lat="47.86352" lon="5.32105">
        <ele>364</ele>
        <time>2024-05-14T07:19:30.356Z</time>
      </trkpt>
      <trkpt lat="47.86353" lon="5.32097">
        <ele>362</ele>
        <time>2024-05-14T07:19:34.776Z</time>
      </trkpt>
      <trkpt lat="47.86354" lon="5.32088">
        <ele>362</ele>
        <time>2024-05-14T07:19:38.819Z</time>
      </trkpt>
      <trkpt lat="47.86354" lon="5.3208">
        <ele>362</ele>
        <time>2024-05-14T07:19:43.314Z</time>
      </trkpt>
      <trkpt lat="47.86355" lon="5.32072">
        <ele>362</ele>
        <time>2024-05-14T07:19:47.368Z</time>
      </trkpt>
      <trkpt lat="47.86355" lon="5.32063">
        <ele>360</ele>
        <time>2024-05-14T07:19:52.003Z</time>
      </trkpt>
      <trkpt lat="47.86354" lon="5.32053">
        <ele>360</ele>
        <time>2024-05-14T07:19:56.334Z</time>
      </trkpt>
      <trkpt lat="47.86351" lon="5.32039">
        <ele>358</ele>
        <time>2024-05-14T07:20:00.514Z</time>
      </trkpt>
      <trkpt lat="47.86358" lon="5.3204">
        <ele>358</ele>
        <time>2024-05-14T07:20:04.814Z</time>
      </trkpt>
      <trkpt lat="47.86363" lon="5.32041">
        <ele>358</ele>
        <time>2024-05-14T07:20:09.276Z</time>
      </trkpt>
      <trkpt lat="47.86365" lon="5.32038">
        <ele>358</ele>
        <time>2024-05-14T07:20:13.894Z</time>
      </trkpt>
      <trkpt lat="47.86367" lon="5.32033">
        <ele>358</ele>
        <time>2024-05-14T07:20:18.277Z</time>
      </trkpt>
      <trkpt lat="47.86371" lon="5.32029">
        <ele>358</ele>
        <time>2024-05-14T07:20:22.638Z</time>
      </trkpt>
      <trkpt lat="47.86378" lon="5.32027">
        <ele>358</ele>
        <time>2024-05-14T07:20:26.877Z</time>
      </trkpt>
      <trkpt lat="47.86389" lon="5.32027">
        <ele>358</ele>
        <time>2024-05-14T07:20:31.314Z</time>
      </trkpt>
      <trkpt lat="47.86396" lon="5.32026">
        <ele>358</ele>
        <time>2024-05-14T07:20:35.358Z</time>
      </trkpt>
      <trkpt lat="47.86402" lon="5.32025">
        <ele>358</ele>
        <time>2024-05-14T07:20:39.820Z</time>
      </trkpt>
      <trkpt lat="47.86405" lon="5.32023">
        <ele>358</ele>
        <time>2024-05-14T07:20:43.899Z</time>
      </trkpt>
      <trkpt lat="47.86409" lon="5.3202">
        <ele>358</ele>
        <time>2024-05-14T07:20:47.976Z</time>
      </trkpt>
      <trkpt lat="47.86413" lon="5.32016">
        <ele>358</ele>
        <time>2024-05-14T07:20:52.026Z</time>
      </trkpt>
      <trkpt lat="47.86416" lon="5.32017">
        <ele>358</ele>
        <time>2024-05-14T07:20:56.576Z</time>
      </trkpt>
      <trkpt lat="47.86422" lon="5.32014">
        <ele>355</ele>
        <time>2024-05-14T07:21:01.003Z</time>
      </trkpt>
      <trkpt lat="47.86428" lon="5.32011">
        <ele>355</ele>
        <time>2024-05-14T07:21:05.280Z</time>
      </trkpt>
      <trkpt lat="47.86434" lon="5.32009">
        <ele>358</ele>
        <time>2024-05-14T07:21:09.340Z</time>
      </trkpt>
      <trkpt lat="47.86439" lon="5.32008">
        <ele>358</ele>
        <time>2024-05-14T07:21:13.800Z</time>
      </trkpt>
      <trkpt lat="47.86444" lon="5.32007">
        <ele>358</ele>
        <time>2024-05-14T07:21:17.854Z</time>
      </trkpt>
      <trkpt lat="47.86449" lon="5.32004">
        <ele>358</ele>
        <time>2024-05-14T07:21:22.314Z</time>
      </trkpt>
      <trkpt lat="47.86453" lon="5.32003">
        <ele>358</ele>
        <time>2024-05-14T07:21:26.394Z</time>
      </trkpt>
      <trkpt lat="47.86458" lon="5.32002">
        <ele>358</ele>
        <time>2024-05-14T07:21:30.660Z</time>
      </trkpt>
      <trkpt lat="47.86462" lon="5.31998">
        <ele>358</ele>
        <time>2024-05-14T07:21:34.915Z</time>
      </trkpt>
      <trkpt lat="47.86467" lon="5.31997">
        <ele>358</ele>
        <time>2024-05-14T07:21:38.959Z</time>
      </trkpt>
      <trkpt lat="47.86473" lon="5.31998">
        <ele>358</ele>
        <time>2024-05-14T07:21:43.384Z</time>
      </trkpt>
      <trkpt lat="47.86479" lon="5.31997">
        <ele>358</ele>
        <time>2024-05-14T07:21:47.935Z</time>
      </trkpt>
      <trkpt lat="47.86483" lon="5.32">
        <ele>358</ele>
        <time>2024-05-14T07:21:52.354Z</time>
      </trkpt>
      <trkpt lat="47.86489" lon="5.32">
        <ele>359</ele>
        <time>2024-05-14T07:21:56.714Z</time>
      </trkpt>
      <trkpt lat="47.86495" lon="5.31998">
        <ele>359</ele>
        <time>2024-05-14T07:22:01.002Z</time>
      </trkpt>
      <trkpt lat="47.86501" lon="5.31996">
        <ele>359</ele>
        <time>2024-05-14T07:22:05.499Z</time>
      </trkpt>
      <trkpt lat="47.86506" lon="5.31993">
        <ele>359</ele>
        <time>2024-05-14T07:22:09.859Z</time>
      </trkpt>
      <trkpt lat="47.86512" lon="5.31991">
        <ele>359</ele>
        <time>2024-05-14T07:22:14.398Z</time>
      </trkpt>
      <trkpt lat="47.86518" lon="5.31989">
        <ele>360</ele>
        <time>2024-05-14T07:22:18.759Z</time>
      </trkpt>
      <trkpt lat="47.86525" lon="5.31988">
        <ele>360</ele>
        <time>2024-05-14T07:22:23.254Z</time>
      </trkpt>
      <trkpt lat="47.8653" lon="5.31987">
        <ele>360</ele>
        <time>2024-05-14T07:22:27.818Z</time>
      </trkpt>
      <trkpt lat="47.86535" lon="5.31986">
        <ele>360</ele>
        <time>2024-05-14T07:22:32.237Z</time>
      </trkpt>
      <trkpt lat="47.8654" lon="5.31985">
        <ele>358</ele>
        <time>2024-05-14T07:22:36.856Z</time>
      </trkpt>
      <trkpt lat="47.86546" lon="5.31985">
        <ele>358</ele>
        <time>2024-05-14T07:22:41.281Z</time>
      </trkpt>
      <trkpt lat="47.8655" lon="5.31984">
        <ele>358</ele>
        <time>2024-05-14T07:22:45.776Z</time>
      </trkpt>
      <trkpt lat="47.86556" lon="5.31982">
        <ele>358</ele>
        <time>2024-05-14T07:22:50.315Z</time>
      </trkpt>
      <trkpt lat="47.86562" lon="5.31981">
        <ele>358</ele>
        <time>2024-05-14T07:22:54.640Z</time>
      </trkpt>
      <trkpt lat="47.86567" lon="5.31979">
        <ele>358</ele>
        <time>2024-05-14T07:22:56.901Z</time>
      </trkpt>
      <trkpt lat="47.86572" lon="5.31977">
        <ele>358</ele>
        <time>2024-05-14T07:23:05.521Z</time>
      </trkpt>
      <trkpt lat="47.86578" lon="5.31976">
        <ele>358</ele>
        <time>2024-05-14T07:23:10.002Z</time>
      </trkpt>
      <trkpt lat="47.86583" lon="5.31974">
        <ele>358</ele>
        <time>2024-05-14T07:23:15.002Z</time>
      </trkpt>
      <trkpt lat="47.86589" lon="5.31973">
        <ele>358</ele>
        <time>2024-05-14T07:23:20.002Z</time>
      </trkpt>
      <trkpt lat="47.86594" lon="5.31973">
        <ele>358</ele>
        <time>2024-05-14T07:23:24.003Z</time>
      </trkpt>
      <trkpt lat="47.86598" lon="5.31974">
        <ele>359</ele>
        <time>2024-05-14T07:23:29.002Z</time>
      </trkpt>
      <trkpt lat="47.86603" lon="5.31973">
        <ele>359</ele>
        <time>2024-05-14T07:23:33.559Z</time>
      </trkpt>
      <trkpt lat="47.86608" lon="5.31973">
        <ele>359</ele>
        <time>2024-05-14T07:23:37.559Z</time>
      </trkpt>
      <trkpt lat="47.86613" lon="5.31973">
        <ele>359</ele>
        <time>2024-05-14T07:23:41.836Z</time>
      </trkpt>
      <trkpt lat="47.86619" lon="5.31973">
        <ele>359</ele>
        <time>2024-05-14T07:23:45.934Z</time>
      </trkpt>
      <trkpt lat="47.86625" lon="5.31972">
        <ele>359</ele>
        <time>2024-05-14T07:23:50.221Z</time>
      </trkpt>
      <trkpt lat="47.8663" lon="5.31973">
        <ele>361</ele>
        <time>2024-05-14T07:23:54.325Z</time>
      </trkpt>
      <trkpt lat="47.86636" lon="5.31974">
        <ele>361</ele>
        <time>2024-05-14T07:23:58.942Z</time>
      </trkpt>
      <trkpt lat="47.86641" lon="5.3197">
        <ele>361</ele>
        <time>2024-05-14T07:24:03.003Z</time>
      </trkpt>
      <trkpt lat="47.86644" lon="5.3196">
        <ele>361</ele>
        <time>2024-05-14T07:24:07.797Z</time>
      </trkpt>
      <trkpt lat="47.86644" lon="5.3195">
        <ele>357</ele>
        <time>2024-05-14T07:24:13.002Z</time>
      </trkpt>
      <trkpt lat="47.86646" lon="5.31942">
        <ele>357</ele>
        <time>2024-05-14T07:24:17.841Z</time>
      </trkpt>
      <trkpt lat="47.86647" lon="5.31931">
        <ele>357</ele>
        <time>2024-05-14T07:24:22.003Z</time>
      </trkpt>
      <trkpt lat="47.86648" lon="5.31924">
        <ele>355</ele>
        <time>2024-05-14T07:24:26.084Z</time>
      </trkpt>
      <trkpt lat="47.8665" lon="5.31914">
        <ele>355</ele>
        <time>2024-05-14T07:24:30.378Z</time>
      </trkpt>
      <trkpt lat="47.86651" lon="5.31906">
        <ele>355</ele>
        <time>2024-05-14T07:24:34.561Z</time>
      </trkpt>
      <trkpt lat="47.86654" lon="5.31897">
        <ele>354</ele>
        <time>2024-05-14T07:24:38.617Z</time>
      </trkpt>
      <trkpt lat="47.86655" lon="5.31889">
        <ele>354</ele>
        <time>2024-05-14T07:24:42.978Z</time>
      </trkpt>
      <trkpt lat="47.86658" lon="5.31882">
        <ele>354</ele>
        <time>2024-05-14T07:24:47.524Z</time>
      </trkpt>
      <trkpt lat="47.86663" lon="5.31876">
        <ele>354</ele>
        <time>2024-05-14T07:24:51.599Z</time>
      </trkpt>
      <trkpt lat="47.86665" lon="5.31873">
        <ele>354</ele>
        <time>2024-05-14T07:24:56.146Z</time>
      </trkpt>
      <trkpt lat="47.86671" lon="5.31863">
        <ele>354</ele>
        <time>2024-05-14T07:25:00.402Z</time>
      </trkpt>
      <trkpt lat="47.86673" lon="5.31857">
        <ele>354</ele>
        <time>2024-05-14T07:25:04.464Z</time>
      </trkpt>
      <trkpt lat="47.86676" lon="5.31851">
        <ele>354</ele>
        <time>2024-05-14T07:25:09.003Z</time>
      </trkpt>
      <trkpt lat="47.86677" lon="5.31851">
        <ele>354</ele>
        <time>2024-05-14T07:25:13.440Z</time>
      </trkpt>
      <trkpt lat="47.86677" lon="5.31851">
        <ele>354</ele>
        <time>2024-05-14T07:25:18.003Z</time>
      </trkpt>
      <trkpt lat="47.86679" lon="5.31846">
        <ele>355</ele>
        <time>2024-05-14T07:25:22.002Z</time>
      </trkpt>
      <trkpt lat="47.86685" lon="5.31846">
        <ele>354</ele>
        <time>2024-05-14T07:25:26.799Z</time>
      </trkpt>
      <trkpt lat="47.86689" lon="5.31842">
        <ele>354</ele>
        <time>2024-05-14T07:25:31.003Z</time>
      </trkpt>
      <trkpt lat="47.86693" lon="5.31835">
        <ele>354</ele>
        <time>2024-05-14T07:25:35.003Z</time>
      </trkpt>
      <trkpt lat="47.86695" lon="5.31827">
        <ele>354</ele>
        <time>2024-05-14T07:27:48.001Z</time>
      </trkpt>
      <trkpt lat="47.86695" lon="5.3182">
        <ele>354</ele>
        <time>2024-05-14T07:27:52.001Z</time>
      </trkpt>
      <trkpt lat="47.86694" lon="5.31813">
        <ele>355</ele>
        <time>2024-05-14T07:27:56.002Z</time>
      </trkpt>
      <trkpt lat="47.86693" lon="5.31807">
        <ele>355</ele>
        <time>2024-05-14T07:28:00.002Z</time>
      </trkpt>
      <trkpt lat="47.86694" lon="5.31797">
        <ele>355</ele>
        <time>2024-05-14T07:28:04.545Z</time>
      </trkpt>
      <trkpt lat="47.86693" lon="5.31793">
        <ele>355</ele>
        <time>2024-05-14T07:28:08.961Z</time>
      </trkpt>
      <trkpt lat="47.86699" lon="5.31787">
        <ele>356</ele>
        <time>2024-05-14T07:28:13.684Z</time>
      </trkpt>
      <trkpt lat="47.86704" lon="5.31779">
        <ele>356</ele>
        <time>2024-05-14T07:28:18.144Z</time>
      </trkpt>
      <trkpt lat="47.86705" lon="5.3177">
        <ele>356</ele>
        <time>2024-05-14T07:28:22.744Z</time>
      </trkpt>
      <trkpt lat="47.86707" lon="5.31763">
        <ele>357</ele>
        <time>2024-05-14T07:28:27.001Z</time>
      </trkpt>
      <trkpt lat="47.8671" lon="5.31756">
        <ele>357</ele>
        <time>2024-05-14T07:28:32.002Z</time>
      </trkpt>
      <trkpt lat="47.86713" lon="5.31749">
        <ele>357</ele>
        <time>2024-05-14T07:28:36.002Z</time>
      </trkpt>
      <trkpt lat="47.86713" lon="5.31742">
        <ele>357</ele>
        <time>2024-05-14T07:28:40.256Z</time>
      </trkpt>
      <trkpt lat="47.86715" lon="5.31736">
        <ele>358</ele>
        <time>2024-05-14T07:28:44.615Z</time>
      </trkpt>
      <trkpt lat="47.86715" lon="5.31729">
        <ele>358</ele>
        <time>2024-05-14T07:28:48.657Z</time>
      </trkpt>
      <trkpt lat="47.86717" lon="5.31724">
        <ele>358</ele>
        <time>2024-05-14T07:28:52.857Z</time>
      </trkpt>
      <trkpt lat="47.86718" lon="5.31716">
        <ele>358</ele>
        <time>2024-05-14T07:28:56.919Z</time>
      </trkpt>
      <trkpt lat="47.86717" lon="5.31709">
        <ele>358</ele>
        <time>2024-05-14T07:29:01.240Z</time>
      </trkpt>
      <trkpt lat="47.86717" lon="5.31702">
        <ele>359</ele>
        <time>2024-05-14T07:29:05.636Z</time>
      </trkpt>
      <trkpt lat="47.86716" lon="5.31693">
        <ele>359</ele>
        <time>2024-05-14T07:29:09.698Z</time>
      </trkpt>
      <trkpt lat="47.86715" lon="5.31685">
        <ele>359</ele>
        <time>2024-05-14T07:29:14.002Z</time>
      </trkpt>
      <trkpt lat="47.86713" lon="5.31677">
        <ele>360</ele>
        <time>2024-05-14T07:29:18.400Z</time>
      </trkpt>
      <trkpt lat="47.86711" lon="5.31669">
        <ele>360</ele>
        <time>2024-05-14T07:29:23.001Z</time>
      </trkpt>
      <trkpt lat="47.86712" lon="5.31661">
        <ele>360</ele>
        <time>2024-05-14T07:29:27.622Z</time>
      </trkpt>
      <trkpt lat="47.86714" lon="5.31659">
        <ele>360</ele>
        <time>2024-05-14T07:29:32.295Z</time>
      </trkpt>
      <trkpt lat="47.86715" lon="5.31655">
        <ele>360</ele>
        <time>2024-05-14T07:29:36.919Z</time>
      </trkpt>
      <trkpt lat="47.86718" lon="5.31641">
        <ele>362</ele>
        <time>2024-05-14T07:29:40.954Z</time>
      </trkpt>
      <trkpt lat="47.86719" lon="5.3164">
        <ele>362</ele>
        <time>2024-05-14T07:29:45.154Z</time>
      </trkpt>
      <trkpt lat="47.86718" lon="5.31639">
        <ele>362</ele>
        <time>2024-05-14T07:29:49.897Z</time>
      </trkpt>
      <trkpt lat="47.86719" lon="5.31637">
        <ele>362</ele>
        <time>2024-05-14T07:29:54.615Z</time>
      </trkpt>
      <trkpt lat="47.86719" lon="5.3163">
        <ele>362</ele>
        <time>2024-05-14T07:29:58.678Z</time>
      </trkpt>
      <trkpt lat="47.86718" lon="5.31629">
        <ele>362</ele>
        <time>2024-05-14T07:30:02.800Z</time>
      </trkpt>
      <trkpt lat="47.86717" lon="5.31625">
        <ele>362</ele>
        <time>2024-05-14T07:30:06.836Z</time>
      </trkpt>
      <trkpt lat="47.86717" lon="5.31623">
        <ele>365</ele>
        <time>2024-05-14T07:30:11.822Z</time>
      </trkpt>
      <trkpt lat="47.86716" lon="5.3162">
        <ele>365</ele>
        <time>2024-05-14T07:30:16.376Z</time>
      </trkpt>
      <trkpt lat="47.86716" lon="5.3161">
        <ele>365</ele>
        <time>2024-05-14T07:30:20.617Z</time>
      </trkpt>
      <trkpt lat="47.86722" lon="5.31599">
        <ele>365</ele>
        <time>2024-05-14T07:30:24.918Z</time>
      </trkpt>
      <trkpt lat="47.86724" lon="5.31593">
        <ele>365</ele>
        <time>2024-05-14T07:30:29.834Z</time>
      </trkpt>
      <trkpt lat="47.86727" lon="5.31585">
        <ele>365</ele>
        <time>2024-05-14T07:30:34.399Z</time>
      </trkpt>
      <trkpt lat="47.86728" lon="5.31577">
        <ele>365</ele>
        <time>2024-05-14T07:30:38.460Z</time>
      </trkpt>
      <trkpt lat="47.86729" lon="5.31569">
        <ele>365</ele>
        <time>2024-05-14T07:30:42.914Z</time>
      </trkpt>
      <trkpt lat="47.86729" lon="5.31562">
        <ele>365</ele>
        <time>2024-05-14T07:30:46.959Z</time>
      </trkpt>
      <trkpt lat="47.8673" lon="5.31555">
        <ele>365</ele>
        <time>2024-05-14T07:30:51.097Z</time>
      </trkpt>
      <trkpt lat="47.86732" lon="5.31547">
        <ele>365</ele>
        <time>2024-05-14T07:30:55.858Z</time>
      </trkpt>
      <trkpt lat="47.86733" lon="5.3154">
        <ele>367</ele>
        <time>2024-05-14T07:31:00.002Z</time>
      </trkpt>
      <trkpt lat="47.86734" lon="5.31533">
        <ele>367</ele>
        <time>2024-05-14T07:31:05.001Z</time>
      </trkpt>
      <trkpt lat="47.86735" lon="5.31527">
        <ele>367</ele>
        <time>2024-05-14T07:31:10.001Z</time>
      </trkpt>
      <trkpt lat="47.86736" lon="5.3152">
        <ele>367</ele>
        <time>2024-05-14T07:31:15.002Z</time>
      </trkpt>
      <trkpt lat="47.86737" lon="5.31513">
        <ele>371</ele>
        <time>2024-05-14T07:31:20.023Z</time>
      </trkpt>
      <trkpt lat="47.86738" lon="5.31507">
        <ele>371</ele>
        <time>2024-05-14T07:31:24.579Z</time>
      </trkpt>
      <trkpt lat="47.8674" lon="5.315">
        <ele>371</ele>
        <time>2024-05-14T07:31:29.009Z</time>
      </trkpt>
      <trkpt lat="47.86741" lon="5.31493">
        <ele>371</ele>
        <time>2024-05-14T07:31:33.294Z</time>
      </trkpt>
      <trkpt lat="47.86741" lon="5.31487">
        <ele>371</ele>
        <time>2024-05-14T07:31:37.397Z</time>
      </trkpt>
      <trkpt lat="47.86742" lon="5.31482">
        <ele>376</ele>
        <time>2024-05-14T07:31:42.001Z</time>
      </trkpt>
      <trkpt lat="47.86743" lon="5.31475">
        <ele>376</ele>
        <time>2024-05-14T07:31:46.519Z</time>
      </trkpt>
      <trkpt lat="47.86744" lon="5.31468">
        <ele>376</ele>
        <time>2024-05-14T07:31:50.777Z</time>
      </trkpt>
      <trkpt lat="47.86745" lon="5.31462">
        <ele>376</ele>
        <time>2024-05-14T07:31:55.001Z</time>
      </trkpt>
      <trkpt lat="47.86746" lon="5.31456">
        <ele>380</ele>
        <time>2024-05-14T07:31:59.602Z</time>
      </trkpt>
      <trkpt lat="47.86746" lon="5.31451">
        <ele>380</ele>
        <time>2024-05-14T07:32:03.636Z</time>
      </trkpt>
      <trkpt lat="47.86747" lon="5.31446">
        <ele>380</ele>
        <time>2024-05-14T07:32:08.001Z</time>
      </trkpt>
      <trkpt lat="47.86749" lon="5.31439">
        <ele>380</ele>
        <time>2024-05-14T07:32:12.936Z</time>
      </trkpt>
      <trkpt lat="47.86751" lon="5.31433">
        <ele>380</ele>
        <time>2024-05-14T07:32:17.001Z</time>
      </trkpt>
      <trkpt lat="47.86753" lon="5.31428">
        <ele>383</ele>
        <time>2024-05-14T07:32:21.835Z</time>
      </trkpt>
      <trkpt lat="47.86755" lon="5.31422">
        <ele>383</ele>
        <time>2024-05-14T07:32:26.656Z</time>
      </trkpt>
      <trkpt lat="47.86758" lon="5.31418">
        <ele>383</ele>
        <time>2024-05-14T07:32:31Z</time>
      </trkpt>
      <trkpt lat="47.86761" lon="5.31414">
        <ele>383</ele>
        <time>2024-05-14T07:32:35.317Z</time>
      </trkpt>
      <trkpt lat="47.86764" lon="5.31409">
        <ele>383</ele>
        <time>2024-05-14T07:32:39.414Z</time>
      </trkpt>
      <trkpt lat="47.86766" lon="5.31405">
        <ele>381</ele>
        <time>2024-05-14T07:32:43.678Z</time>
      </trkpt>
      <trkpt lat="47.86768" lon="5.31399">
        <ele>384</ele>
        <time>2024-05-14T07:32:47.715Z</time>
      </trkpt>
      <trkpt lat="47.86769" lon="5.31392">
        <ele>384</ele>
        <time>2024-05-14T07:32:51.734Z</time>
      </trkpt>
      <trkpt lat="47.8677" lon="5.31388">
        <ele>384</ele>
        <time>2024-05-14T07:32:56Z</time>
      </trkpt>
      <trkpt lat="47.86769" lon="5.31383">
        <ele>384</ele>
        <time>2024-05-14T07:33:00.515Z</time>
      </trkpt>
      <trkpt lat="47.86768" lon="5.31376">
        <ele>384</ele>
        <time>2024-05-14T07:33:04.994Z</time>
      </trkpt>
      <trkpt lat="47.86769" lon="5.31369">
        <ele>388</ele>
        <time>2024-05-14T07:33:09.457Z</time>
      </trkpt>
      <trkpt lat="47.86769" lon="5.31363">
        <ele>388</ele>
        <time>2024-05-14T07:33:13.816Z</time>
      </trkpt>
      <trkpt lat="47.8677" lon="5.31358">
        <ele>388</ele>
        <time>2024-05-14T07:33:18.001Z</time>
      </trkpt>
      <trkpt lat="47.8677" lon="5.31352">
        <ele>388</ele>
        <time>2024-05-14T07:33:22.434Z</time>
      </trkpt>
      <trkpt lat="47.86769" lon="5.31346">
        <ele>391</ele>
        <time>2024-05-14T07:33:26.820Z</time>
      </trkpt>
      <trkpt lat="47.86769" lon="5.3134">
        <ele>391</ele>
        <time>2024-05-14T07:33:31Z</time>
      </trkpt>
      <trkpt lat="47.86769" lon="5.31334">
        <ele>391</ele>
        <time>2024-05-14T07:33:35.618Z</time>
      </trkpt>
      <trkpt lat="47.86769" lon="5.31328">
        <ele>391</ele>
        <time>2024-05-14T07:33:39.662Z</time>
      </trkpt>
      <trkpt lat="47.86767" lon="5.31323">
        <ele>391</ele>
        <time>2024-05-14T07:33:44Z</time>
      </trkpt>
      <trkpt lat="47.86766" lon="5.31318">
        <ele>394</ele>
        <time>2024-05-14T07:33:48.417Z</time>
      </trkpt>
      <trkpt lat="47.86766" lon="5.31312">
        <ele>394</ele>
        <time>2024-05-14T07:33:52.735Z</time>
      </trkpt>
      <trkpt lat="47.86766" lon="5.31307">
        <ele>394</ele>
        <time>2024-05-14T07:33:57.001Z</time>
      </trkpt>
      <trkpt lat="47.86764" lon="5.31301">
        <ele>394</ele>
        <time>2024-05-14T07:34:01.575Z</time>
      </trkpt>
      <trkpt lat="47.86762" lon="5.31294">
        <ele>396</ele>
        <time>2024-05-14T07:34:06Z</time>
      </trkpt>
      <trkpt lat="47.86761" lon="5.31289">
        <ele>400</ele>
        <time>2024-05-14T07:34:10.439Z</time>
      </trkpt>
      <trkpt lat="47.86759" lon="5.31283">
        <ele>400</ele>
        <time>2024-05-14T07:34:14.561Z</time>
      </trkpt>
      <trkpt lat="47.86758" lon="5.31279">
        <ele>400</ele>
        <time>2024-05-14T07:34:18.715Z</time>
      </trkpt>
      <trkpt lat="47.86757" lon="5.31277">
        <ele>400</ele>
        <time>2024-05-14T07:34:23.001Z</time>
      </trkpt>
      <trkpt lat="47.86756" lon="5.31272">
        <ele>400</ele>
        <time>2024-05-14T07:34:27.496Z</time>
      </trkpt>
      <trkpt lat="47.86755" lon="5.31265">
        <ele>400</ele>
        <time>2024-05-14T07:34:31.855Z</time>
      </trkpt>
      <trkpt lat="47.86754" lon="5.31259">
        <ele>406</ele>
        <time>2024-05-14T07:34:36.001Z</time>
      </trkpt>
      <trkpt lat="47.86752" lon="5.31255">
        <ele>406</ele>
        <time>2024-05-14T07:34:41Z</time>
      </trkpt>
      <trkpt lat="47.8675" lon="5.31249">
        <ele>406</ele>
        <time>2024-05-14T07:34:56.001Z</time>
      </trkpt>
      <trkpt lat="47.86748" lon="5.31244">
        <ele>406</ele>
        <time>2024-05-14T07:35:00Z</time>
      </trkpt>
      <trkpt lat="47.86747" lon="5.31239">
        <ele>406</ele>
        <time>2024-05-14T07:35:05.014Z</time>
      </trkpt>
      <trkpt lat="47.86745" lon="5.31234">
        <ele>411</ele>
        <time>2024-05-14T07:35:09.339Z</time>
      </trkpt>
      <trkpt lat="47.86744" lon="5.3123">
        <ele>411</ele>
        <time>2024-05-14T07:35:13.554Z</time>
      </trkpt>
      <trkpt lat="47.86742" lon="5.31226">
        <ele>411</ele>
        <time>2024-05-14T07:35:31.001Z</time>
      </trkpt>
      <trkpt lat="47.8674" lon="5.3122">
        <ele>411</ele>
        <time>2024-05-14T07:35:35.354Z</time>
      </trkpt>
      <trkpt lat="47.86738" lon="5.31215">
        <ele>411</ele>
        <time>2024-05-14T07:35:39.774Z</time>
      </trkpt>
      <trkpt lat="47.86736" lon="5.31212">
        <ele>411</ele>
        <time>2024-05-14T07:35:44Z</time>
      </trkpt>
      <trkpt lat="47.86735" lon="5.31207">
        <ele>420</ele>
        <time>2024-05-14T07:35:48.476Z</time>
      </trkpt>
      <trkpt lat="47.86733" lon="5.31203">
        <ele>420</ele>
        <time>2024-05-14T07:35:52.913Z</time>
      </trkpt>
      <trkpt lat="47.86732" lon="5.312">
        <ele>420</ele>
        <time>2024-05-14T07:35:57Z</time>
      </trkpt>
      <trkpt lat="47.8673" lon="5.31195">
        <ele>420</ele>
        <time>2024-05-14T07:36:01.234Z</time>
      </trkpt>
      <trkpt lat="47.86727" lon="5.31189">
        <ele>420</ele>
        <time>2024-05-14T07:36:05.260Z</time>
      </trkpt>
      <trkpt lat="47.86725" lon="5.31184">
        <ele>420</ele>
        <time>2024-05-14T07:36:09.637Z</time>
      </trkpt>
      <trkpt lat="47.86725" lon="5.3118">
        <ele>423</ele>
        <time>2024-05-14T07:36:13.795Z</time>
      </trkpt>
      <trkpt lat="47.86725" lon="5.31175">
        <ele>423</ele>
        <time>2024-05-14T07:36:18Z</time>
      </trkpt>
      <trkpt lat="47.86726" lon="5.31169">
        <ele>423</ele>
        <time>2024-05-14T07:36:23Z</time>
      </trkpt>
      <trkpt lat="47.86726" lon="5.31164">
        <ele>423</ele>
        <time>2024-05-14T07:36:27.975Z</time>
      </trkpt>
      <trkpt lat="47.86726" lon="5.31158">
        <ele>423</ele>
        <time>2024-05-14T07:36:32.537Z</time>
      </trkpt>
      <trkpt lat="47.86726" lon="5.31153">
        <ele>428</ele>
        <time>2024-05-14T07:36:37Z</time>
      </trkpt>
      <trkpt lat="47.86724" lon="5.31148">
        <ele>428</ele>
        <time>2024-05-14T07:36:41.694Z</time>
      </trkpt>
      <trkpt lat="47.86722" lon="5.31144">
        <ele>428</ele>
        <time>2024-05-14T07:36:46Z</time>
      </trkpt>
      <trkpt lat="47.8672" lon="5.31138">
        <ele>428</ele>
        <time>2024-05-14T07:36:50.311Z</time>
      </trkpt>
      <trkpt lat="47.86717" lon="5.31133">
        <ele>428</ele>
        <time>2024-05-14T07:36:54.799Z</time>
      </trkpt>
      <trkpt lat="47.86715" lon="5.31128">
        <ele>428</ele>
        <time>2024-05-14T07:36:59Z</time>
      </trkpt>
      <trkpt lat="47.86714" lon="5.31129">
        <ele>428</ele>
        <time>2024-05-14T07:37:28Z</time>
      </trkpt>
      <trkpt lat="47.86714" lon="5.31128">
        <ele>428</ele>
        <time>2024-05-14T07:37:32.657Z</time>
      </trkpt>
      <trkpt lat="47.86713" lon="5.31127">
        <ele>428</ele>
        <time>2024-05-14T07:37:37.878Z</time>
      </trkpt>
      <trkpt lat="47.8671" lon="5.31122">
        <ele>435</ele>
        <time>2024-05-14T07:37:42.375Z</time>
      </trkpt>
      <trkpt lat="47.86706" lon="5.31116">
        <ele>435</ele>
        <time>2024-05-14T07:37:46.420Z</time>
      </trkpt>
      <trkpt lat="47.86697" lon="5.31107">
        <ele>435</ele>
        <time>2024-05-14T07:37:50.660Z</time>
      </trkpt>
      <trkpt lat="47.86697" lon="5.31107">
        <ele>435</ele>
        <time>2024-05-14T07:37:55.276Z</time>
      </trkpt>
      <trkpt lat="47.86695" lon="5.31106">
        <ele>435</ele>
        <time>2024-05-14T07:37:59.799Z</time>
      </trkpt>
      <trkpt lat="47.86691" lon="5.31103">
        <ele>435</ele>
        <time>2024-05-14T07:38:05Z</time>
      </trkpt>
      <trkpt lat="47.86687" lon="5.31099">
        <ele>435</ele>
        <time>2024-05-14T07:38:10Z</time>
      </trkpt>
      <trkpt lat="47.86682" lon="5.31094">
        <ele>441</ele>
        <time>2024-05-14T07:38:15.001Z</time>
      </trkpt>
      <trkpt lat="47.86678" lon="5.31093">
        <ele>439</ele>
        <time>2024-05-14T07:38:20Z</time>
      </trkpt>
      <trkpt lat="47.86675" lon="5.31092">
        <ele>439</ele>
        <time>2024-05-14T07:38:24.499Z</time>
      </trkpt>
      <trkpt lat="47.86673" lon="5.31088">
        <ele>439</ele>
        <time>2024-05-14T07:38:28.502Z</time>
      </trkpt>
      <trkpt lat="47.86671" lon="5.31082">
        <ele>439</ele>
        <time>2024-05-14T07:38:32.776Z</time>
      </trkpt>
      <trkpt lat="47.8667" lon="5.31077">
        <ele>439</ele>
        <time>2024-05-14T07:38:37Z</time>
      </trkpt>
      <trkpt lat="47.86668" lon="5.31073">
        <ele>439</ele>
        <time>2024-05-14T07:38:42Z</time>
      </trkpt>
      <trkpt lat="47.86666" lon="5.31067">
        <ele>443</ele>
        <time>2024-05-14T07:38:47.001Z</time>
      </trkpt>
      <trkpt lat="47.86662" lon="5.31064">
        <ele>443</ele>
        <time>2024-05-14T07:38:51.198Z</time>
      </trkpt>
      <trkpt lat="47.86659" lon="5.3106">
        <ele>443</ele>
        <time>2024-05-14T07:38:55.277Z</time>
      </trkpt>
      <trkpt lat="47.86655" lon="5.31057">
        <ele>443</ele>
        <time>2024-05-14T07:38:59.977Z</time>
      </trkpt>
      <trkpt lat="47.86651" lon="5.31054">
        <ele>443</ele>
        <time>2024-05-14T07:39:04.099Z</time>
      </trkpt>
      <trkpt lat="47.86648" lon="5.3105">
        <ele>443</ele>
        <time>2024-05-14T07:39:08.562Z</time>
      </trkpt>
      <trkpt lat="47.86645" lon="5.31047">
        <ele>443</ele>
        <time>2024-05-14T07:39:13.399Z</time>
      </trkpt>
      <trkpt lat="47.86642" lon="5.31042">
        <ele>443</ele>
        <time>2024-05-14T07:39:17.590Z</time>
      </trkpt>
      <trkpt lat="47.8664" lon="5.31038">
        <ele>446</ele>
        <time>2024-05-14T07:39:22Z</time>
      </trkpt>
      <trkpt lat="47.86633" lon="5.31026">
        <ele>446</ele>
        <time>2024-05-14T07:39:26.334Z</time>
      </trkpt>
      <trkpt lat="47.86633" lon="5.31023">
        <ele>446</ele>
        <time>2024-05-14T07:39:30.977Z</time>
      </trkpt>
      <trkpt lat="47.86634" lon="5.31011">
        <ele>447</ele>
        <time>2024-05-14T07:39:35.001Z</time>
      </trkpt>
      <trkpt lat="47.86632" lon="5.31004">
        <ele>447</ele>
        <time>2024-05-14T07:39:39.261Z</time>
      </trkpt>
      <trkpt lat="47.8663" lon="5.30998">
        <ele>447</ele>
        <time>2024-05-14T07:39:43.758Z</time>
      </trkpt>
      <trkpt lat="47.86628" lon="5.30993">
        <ele>447</ele>
        <time>2024-05-14T07:39:48.775Z</time>
      </trkpt>
      <trkpt lat="47.86626" lon="5.30986">
        <ele>447</ele>
        <time>2024-05-14T07:39:53.356Z</time>
      </trkpt>
      <trkpt lat="47.86625" lon="5.30979">
        <ele>449</ele>
        <time>2024-05-14T07:39:58Z</time>
      </trkpt>
      <trkpt lat="47.86622" lon="5.30974">
        <ele>448</ele>
        <time>2024-05-14T07:40:02.554Z</time>
      </trkpt>
      <trkpt lat="47.86618" lon="5.30968">
        <ele>448</ele>
        <time>2024-05-14T07:40:06.615Z</time>
      </trkpt>
      <trkpt lat="47.86614" lon="5.30962">
        <ele>448</ele>
        <time>2024-05-14T07:40:11Z</time>
      </trkpt>
      <trkpt lat="47.8661" lon="5.30957">
        <ele>449</ele>
        <time>2024-05-14T07:40:15.676Z</time>
      </trkpt>
      <trkpt lat="47.86605" lon="5.30955">
        <ele>449</ele>
        <time>2024-05-14T07:40:20Z</time>
      </trkpt>
      <trkpt lat="47.86601" lon="5.30953">
        <ele>449</ele>
        <time>2024-05-14T07:40:25.001Z</time>
      </trkpt>
      <trkpt lat="47.86597" lon="5.30952">
        <ele>447</ele>
        <time>2024-05-14T07:40:29.714Z</time>
      </trkpt>
      <trkpt lat="47.86592" lon="5.3095">
        <ele>447</ele>
        <time>2024-05-14T07:40:34.396Z</time>
      </trkpt>
      <trkpt lat="47.86586" lon="5.30948">
        <ele>447</ele>
        <time>2024-05-14T07:40:38.945Z</time>
      </trkpt>
      <trkpt lat="47.86581" lon="5.30946">
        <ele>447</ele>
        <time>2024-05-14T07:40:43.001Z</time>
      </trkpt>
      <trkpt lat="47.86578" lon="5.30941">
        <ele>447</ele>
        <time>2024-05-14T07:40:47.519Z</time>
      </trkpt>
      <trkpt lat="47.86574" lon="5.30939">
        <ele>447</ele>
        <time>2024-05-14T07:40:51.797Z</time>
      </trkpt>
      <trkpt lat="47.86569" lon="5.30936">
        <ele>446</ele>
        <time>2024-05-14T07:40:56.495Z</time>
      </trkpt>
      <trkpt lat="47.86565" lon="5.30935">
        <ele>446</ele>
        <time>2024-05-14T07:41:00.999Z</time>
      </trkpt>
      <trkpt lat="47.86561" lon="5.30933">
        <ele>446</ele>
        <time>2024-05-14T07:41:05.599Z</time>
      </trkpt>
      <trkpt lat="47.86556" lon="5.30927">
        <ele>447</ele>
        <time>2024-05-14T07:41:09.999Z</time>
      </trkpt>
      <trkpt lat="47.86552" lon="5.30922">
        <ele>447</ele>
        <time>2024-05-14T07:41:14.999Z</time>
      </trkpt>
      <trkpt lat="47.86548" lon="5.30917">
        <ele>447</ele>
        <time>2024-05-14T07:41:19.798Z</time>
      </trkpt>
      <trkpt lat="47.86545" lon="5.30911">
        <ele>447</ele>
        <time>2024-05-14T07:41:24.999Z</time>
      </trkpt>
      <trkpt lat="47.86544" lon="5.30904">
        <ele>447</ele>
        <time>2024-05-14T07:41:29.617Z</time>
      </trkpt>
      <trkpt lat="47.86547" lon="5.30898">
        <ele>448</ele>
        <time>2024-05-14T07:41:33.756Z</time>
      </trkpt>
      <trkpt lat="47.86552" lon="5.30895">
        <ele>448</ele>
        <time>2024-05-14T07:41:38Z</time>
      </trkpt>
      <trkpt lat="47.86556" lon="5.30891">
        <ele>448</ele>
        <time>2024-05-14T07:41:42.674Z</time>
      </trkpt>
      <trkpt lat="47.8656" lon="5.30885">
        <ele>448</ele>
        <time>2024-05-14T07:41:46.999Z</time>
      </trkpt>
      <trkpt lat="47.86565" lon="5.30879">
        <ele>448</ele>
        <time>2024-05-14T07:41:51.460Z</time>
      </trkpt>
      <trkpt lat="47.8657" lon="5.30874">
        <ele>449</ele>
        <time>2024-05-14T07:41:56.020Z</time>
      </trkpt>
      <trkpt lat="47.86575" lon="5.30869">
        <ele>449</ele>
        <time>2024-05-14T07:42:00.634Z</time>
      </trkpt>
      <trkpt lat="47.86579" lon="5.30865">
        <ele>449</ele>
        <time>2024-05-14T07:42:05Z</time>
      </trkpt>
      <trkpt lat="47.86583" lon="5.30861">
        <ele>449</ele>
        <time>2024-05-14T07:42:09.934Z</time>
      </trkpt>
      <trkpt lat="47.86588" lon="5.30855">
        <ele>449</ele>
        <time>2024-05-14T07:42:14Z</time>
      </trkpt>
      <trkpt lat="47.86593" lon="5.30851">
        <ele>449</ele>
        <time>2024-05-14T07:42:19Z</time>
      </trkpt>
      <trkpt lat="47.86598" lon="5.30845">
        <ele>450</ele>
        <time>2024-05-14T07:42:44Z</time>
      </trkpt>
      <trkpt lat="47.86602" lon="5.3084">
        <ele>450</ele>
        <time>2024-05-14T07:42:48.654Z</time>
      </trkpt>
      <trkpt lat="47.86607" lon="5.30834">
        <ele>450</ele>
        <time>2024-05-14T07:42:53.354Z</time>
      </trkpt>
      <trkpt lat="47.86611" lon="5.3083">
        <ele>450</ele>
        <time>2024-05-14T07:42:57.999Z</time>
      </trkpt>
      <trkpt lat="47.86615" lon="5.30824">
        <ele>450</ele>
        <time>2024-05-14T07:43:02.921Z</time>
      </trkpt>
      <trkpt lat="47.86619" lon="5.30819">
        <ele>450</ele>
        <time>2024-05-14T07:43:07.605Z</time>
      </trkpt>
      <trkpt lat="47.86622" lon="5.30812">
        <ele>450</ele>
        <time>2024-05-14T07:43:12Z</time>
      </trkpt>
      <trkpt lat="47.86625" lon="5.30804">
        <ele>450</ele>
        <time>2024-05-14T07:43:16.315Z</time>
      </trkpt>
      <trkpt lat="47.86628" lon="5.30798">
        <ele>450</ele>
        <time>2024-05-14T07:43:20.562Z</time>
      </trkpt>
      <trkpt lat="47.8663" lon="5.3079">
        <ele>450</ele>
        <time>2024-05-14T07:43:24.999Z</time>
      </trkpt>
      <trkpt lat="47.86634" lon="5.30783">
        <ele>450</ele>
        <time>2024-05-14T07:43:30.001Z</time>
      </trkpt>
      <trkpt lat="47.86638" lon="5.30776">
        <ele>450</ele>
        <time>2024-05-14T07:43:33.999Z</time>
      </trkpt>
      <trkpt lat="47.86642" lon="5.30768">
        <ele>450</ele>
        <time>2024-05-14T07:43:38.515Z</time>
      </trkpt>
      <trkpt lat="47.86645" lon="5.3076">
        <ele>449</ele>
        <time>2024-05-14T07:43:42.679Z</time>
      </trkpt>
      <trkpt lat="47.86649" lon="5.30752">
        <ele>449</ele>
        <time>2024-05-14T07:43:46.999Z</time>
      </trkpt>
      <trkpt lat="47.86652" lon="5.30745">
        <ele>449</ele>
        <time>2024-05-14T07:43:51.194Z</time>
      </trkpt>
      <trkpt lat="47.86655" lon="5.30739">
        <ele>450</ele>
        <time>2024-05-14T07:43:55.639Z</time>
      </trkpt>
      <trkpt lat="47.86659" lon="5.30732">
        <ele>450</ele>
        <time>2024-05-14T07:43:59.999Z</time>
      </trkpt>
      <trkpt lat="47.86662" lon="5.30725">
        <ele>450</ele>
        <time>2024-05-14T07:44:04.695Z</time>
      </trkpt>
      <trkpt lat="47.86665" lon="5.30717">
        <ele>450</ele>
        <time>2024-05-14T07:44:09.999Z</time>
      </trkpt>
      <trkpt lat="47.86669" lon="5.30711">
        <ele>450</ele>
        <time>2024-05-14T07:44:14.602Z</time>
      </trkpt>
      <trkpt lat="47.86673" lon="5.30704">
        <ele>450</ele>
        <time>2024-05-14T07:44:18.779Z</time>
      </trkpt>
      <trkpt lat="47.86676" lon="5.30697">
        <ele>450</ele>
        <time>2024-05-14T07:44:22.999Z</time>
      </trkpt>
      <trkpt lat="47.86679" lon="5.30689">
        <ele>450</ele>
        <time>2024-05-14T07:44:27.534Z</time>
      </trkpt>
      <trkpt lat="47.86682" lon="5.30683">
        <ele>450</ele>
        <time>2024-05-14T07:44:31.936Z</time>
      </trkpt>
      <trkpt lat="47.86686" lon="5.30675">
        <ele>450</ele>
        <time>2024-05-14T07:44:36.876Z</time>
      </trkpt>
      <trkpt lat="47.86688" lon="5.30673">
        <ele>450</ele>
        <time>2024-05-14T07:44:41.936Z</time>
      </trkpt>
      <trkpt lat="47.86691" lon="5.30669">
        <ele>450</ele>
        <time>2024-05-14T07:44:46Z</time>
      </trkpt>
      <trkpt lat="47.86695" lon="5.30661">
        <ele>450</ele>
        <time>2024-05-14T07:44:50.999Z</time>
      </trkpt>
      <trkpt lat="47.86698" lon="5.30654">
        <ele>450</ele>
        <time>2024-05-14T07:44:55.554Z</time>
      </trkpt>
      <trkpt lat="47.86702" lon="5.30647">
        <ele>449</ele>
        <time>2024-05-14T07:44:59.836Z</time>
      </trkpt>
      <trkpt lat="47.86705" lon="5.3064">
        <ele>449</ele>
        <time>2024-05-14T07:45:04.836Z</time>
      </trkpt>
      <trkpt lat="47.86708" lon="5.30633">
        <ele>449</ele>
        <time>2024-05-14T07:45:08.898Z</time>
      </trkpt>
      <trkpt lat="47.8671" lon="5.30627">
        <ele>449</ele>
        <time>2024-05-14T07:45:13.377Z</time>
      </trkpt>
      <trkpt lat="47.86713" lon="5.30621">
        <ele>447</ele>
        <time>2024-05-14T07:45:17.721Z</time>
      </trkpt>
      <trkpt lat="47.86715" lon="5.30614">
        <ele>447</ele>
        <time>2024-05-14T07:45:21.999Z</time>
      </trkpt>
      <trkpt lat="47.86719" lon="5.30607">
        <ele>447</ele>
        <time>2024-05-14T07:45:26.999Z</time>
      </trkpt>
      <trkpt lat="47.86722" lon="5.30601">
        <ele>447</ele>
        <time>2024-05-14T07:45:31.697Z</time>
      </trkpt>
      <trkpt lat="47.86725" lon="5.30594">
        <ele>447</ele>
        <time>2024-05-14T07:45:35.999Z</time>
      </trkpt>
      <trkpt lat="47.86728" lon="5.30587">
        <ele>447</ele>
        <time>2024-05-14T07:45:40.734Z</time>
      </trkpt>
      <trkpt lat="47.8673" lon="5.3058">
        <ele>447</ele>
        <time>2024-05-14T07:45:44.999Z</time>
      </trkpt>
      <trkpt lat="47.86733" lon="5.30574">
        <ele>447</ele>
        <time>2024-05-14T07:45:49.999Z</time>
      </trkpt>
      <trkpt lat="47.86736" lon="5.30569">
        <ele>446</ele>
        <time>2024-05-14T07:45:54.999Z</time>
      </trkpt>
      <trkpt lat="47.86739" lon="5.30562">
        <ele>446</ele>
        <time>2024-05-14T07:45:59.358Z</time>
      </trkpt>
      <trkpt lat="47.86742" lon="5.30555">
        <ele>446</ele>
        <time>2024-05-14T07:46:03.975Z</time>
      </trkpt>
      <trkpt lat="47.86746" lon="5.30546">
        <ele>446</ele>
        <time>2024-05-14T07:46:08.633Z</time>
      </trkpt>
      <trkpt lat="47.8675" lon="5.30539">
        <ele>446</ele>
        <time>2024-05-14T07:46:12.999Z</time>
      </trkpt>
      <trkpt lat="47.86754" lon="5.30533">
        <ele>446</ele>
        <time>2024-05-14T07:46:17.999Z</time>
      </trkpt>
      <trkpt lat="47.86756" lon="5.30526">
        <ele>446</ele>
        <time>2024-05-14T07:46:22.720Z</time>
      </trkpt>
      <trkpt lat="47.8676" lon="5.3052">
        <ele>446</ele>
        <time>2024-05-14T07:46:27.414Z</time>
      </trkpt>
      <trkpt lat="47.86758" lon="5.30515">
        <ele>446</ele>
        <time>2024-05-14T07:46:32Z</time>
      </trkpt>
      <trkpt lat="47.8675" lon="5.30516">
        <ele>446</ele>
        <time>2024-05-14T07:46:36.977Z</time>
      </trkpt>
      <trkpt lat="47.86744" lon="5.30517">
        <ele>446</ele>
        <time>2024-05-14T07:46:41Z</time>
      </trkpt>
      <trkpt lat="47.8674" lon="5.30515">
        <ele>446</ele>
        <time>2024-05-14T07:46:45.535Z</time>
      </trkpt>
      <trkpt lat="47.86738" lon="5.30513">
        <ele>445</ele>
        <time>2024-05-14T07:46:49.836Z</time>
      </trkpt>
      <trkpt lat="47.86734" lon="5.30513">
        <ele>444</ele>
        <time>2024-05-14T07:46:54.477Z</time>
      </trkpt>
      <trkpt lat="47.86728" lon="5.30512">
        <ele>444</ele>
        <time>2024-05-14T07:46:58.803Z</time>
      </trkpt>
      <trkpt lat="47.86722" lon="5.30509">
        <ele>444</ele>
        <time>2024-05-14T07:47:03Z</time>
      </trkpt>
      <trkpt lat="47.86716" lon="5.30507">
        <ele>444</ele>
        <time>2024-05-14T07:47:07.513Z</time>
      </trkpt>
      <trkpt lat="47.86711" lon="5.30505">
        <ele>444</ele>
        <time>2024-05-14T07:47:11.918Z</time>
      </trkpt>
      <trkpt lat="47.86706" lon="5.30503">
        <ele>445</ele>
        <time>2024-05-14T07:47:15.999Z</time>
      </trkpt>
      <trkpt lat="47.86701" lon="5.30501">
        <ele>445</ele>
        <time>2024-05-14T07:47:20.999Z</time>
      </trkpt>
      <trkpt lat="47.86694" lon="5.30499">
        <ele>445</ele>
        <time>2024-05-14T07:47:26Z</time>
      </trkpt>
      <trkpt lat="47.86688" lon="5.30496">
        <ele>445</ele>
        <time>2024-05-14T07:47:31Z</time>
      </trkpt>
      <trkpt lat="47.86682" lon="5.30494">
        <ele>445</ele>
        <time>2024-05-14T07:47:35.560Z</time>
      </trkpt>
      <trkpt lat="47.86677" lon="5.30492">
        <ele>447</ele>
        <time>2024-05-14T07:47:39.740Z</time>
      </trkpt>
      <trkpt lat="47.86672" lon="5.30489">
        <ele>447</ele>
        <time>2024-05-14T07:47:43.794Z</time>
      </trkpt>
      <trkpt lat="47.86665" lon="5.30488">
        <ele>447</ele>
        <time>2024-05-14T07:47:48.278Z</time>
      </trkpt>
      <trkpt lat="47.86659" lon="5.30486">
        <ele>447</ele>
        <time>2024-05-14T07:47:52.739Z</time>
      </trkpt>
      <trkpt lat="47.86653" lon="5.30485">
        <ele>446</ele>
        <time>2024-05-14T07:47:57.739Z</time>
      </trkpt>
      <trkpt lat="47.86648" lon="5.30484">
        <ele>447</ele>
        <time>2024-05-14T07:48:02.015Z</time>
      </trkpt>
      <trkpt lat="47.86642" lon="5.30482">
        <ele>447</ele>
        <time>2024-05-14T07:48:06.494Z</time>
      </trkpt>
      <trkpt lat="47.86637" lon="5.3048">
        <ele>447</ele>
        <time>2024-05-14T07:48:10.819Z</time>
      </trkpt>
      <trkpt lat="47.86631" lon="5.30477">
        <ele>447</ele>
        <time>2024-05-14T07:48:15.299Z</time>
      </trkpt>
      <trkpt lat="47.86626" lon="5.30473">
        <ele>447</ele>
        <time>2024-05-14T07:48:19.655Z</time>
      </trkpt>
      <trkpt lat="47.86621" lon="5.30468">
        <ele>448</ele>
        <time>2024-05-14T07:48:23.974Z</time>
      </trkpt>
      <trkpt lat="47.86617" lon="5.30462">
        <ele>448</ele>
        <time>2024-05-14T07:48:27.999Z</time>
      </trkpt>
      <trkpt lat="47.86614" lon="5.30455">
        <ele>448</ele>
        <time>2024-05-14T07:48:32.496Z</time>
      </trkpt>
      <trkpt lat="47.86612" lon="5.30449">
        <ele>448</ele>
        <time>2024-05-14T07:48:36.498Z</time>
      </trkpt>
      <trkpt lat="47.86611" lon="5.30442">
        <ele>448</ele>
        <time>2024-05-14T07:48:40.894Z</time>
      </trkpt>
      <trkpt lat="47.8661" lon="5.30434">
        <ele>448</ele>
        <time>2024-05-14T07:48:45.134Z</time>
      </trkpt>
      <trkpt lat="47.86609" lon="5.30426">
        <ele>448</ele>
        <time>2024-05-14T07:48:49.160Z</time>
      </trkpt>
      <trkpt lat="47.86608" lon="5.3042">
        <ele>448</ele>
        <time>2024-05-14T07:48:53.277Z</time>
      </trkpt>
      <trkpt lat="47.86607" lon="5.30412">
        <ele>448</ele>
        <time>2024-05-14T07:48:57.796Z</time>
      </trkpt>
      <trkpt lat="47.86606" lon="5.30403">
        <ele>448</ele>
        <time>2024-05-14T07:49:01.814Z</time>
      </trkpt>
      <trkpt lat="47.86605" lon="5.30396">
        <ele>447</ele>
        <time>2024-05-14T07:49:06.304Z</time>
      </trkpt>
      <trkpt lat="47.86603" lon="5.30389">
        <ele>447</ele>
        <time>2024-05-14T07:49:10.696Z</time>
      </trkpt>
      <trkpt lat="47.86602" lon="5.3038">
        <ele>447</ele>
        <time>2024-05-14T07:49:15.279Z</time>
      </trkpt>
      <trkpt lat="47.866" lon="5.30371">
        <ele>446</ele>
        <time>2024-05-14T07:49:19.579Z</time>
      </trkpt>
      <trkpt lat="47.86599" lon="5.30363">
        <ele>446</ele>
        <time>2024-05-14T07:49:23.881Z</time>
      </trkpt>
      <trkpt lat="47.86598" lon="5.30356">
        <ele>446</ele>
        <time>2024-05-14T07:49:27.999Z</time>
      </trkpt>
      <trkpt lat="47.86595" lon="5.30349">
        <ele>447</ele>
        <time>2024-05-14T07:49:32.999Z</time>
      </trkpt>
      <trkpt lat="47.86593" lon="5.30342">
        <ele>445</ele>
        <time>2024-05-14T07:49:37.578Z</time>
      </trkpt>
      <trkpt lat="47.86591" lon="5.30335">
        <ele>445</ele>
        <time>2024-05-14T07:49:41.776Z</time>
      </trkpt>
      <trkpt lat="47.8659" lon="5.30327">
        <ele>445</ele>
        <time>2024-05-14T07:49:45.999Z</time>
      </trkpt>
      <trkpt lat="47.86587" lon="5.30318">
        <ele>444</ele>
        <time>2024-05-14T07:49:50.497Z</time>
      </trkpt>
      <trkpt lat="47.86586" lon="5.30311">
        <ele>444</ele>
        <time>2024-05-14T07:49:54.857Z</time>
      </trkpt>
      <trkpt lat="47.86583" lon="5.30303">
        <ele>444</ele>
        <time>2024-05-14T07:49:59.498Z</time>
      </trkpt>
      <trkpt lat="47.86581" lon="5.30295">
        <ele>444</ele>
        <time>2024-05-14T07:50:03.998Z</time>
      </trkpt>
      <trkpt lat="47.86579" lon="5.30287">
        <ele>443</ele>
        <time>2024-05-14T07:50:12.577Z</time>
      </trkpt>
      <trkpt lat="47.86577" lon="5.30279">
        <ele>443</ele>
        <time>2024-05-14T07:50:16.998Z</time>
      </trkpt>
      <trkpt lat="47.86575" lon="5.3027">
        <ele>443</ele>
        <time>2024-05-14T07:50:20.999Z</time>
      </trkpt>
      <trkpt lat="47.86575" lon="5.30264">
        <ele>442</ele>
        <time>2024-05-14T07:50:21.853Z</time>
      </trkpt>
      <trkpt lat="47.86571" lon="5.30256">
        <ele>442</ele>
        <time>2024-05-14T07:50:31.537Z</time>
      </trkpt>
      <trkpt lat="47.86569" lon="5.3025">
        <ele>442</ele>
        <time>2024-05-14T07:50:35.602Z</time>
      </trkpt>
      <trkpt lat="47.86568" lon="5.30242">
        <ele>442</ele>
        <time>2024-05-14T07:50:39.976Z</time>
      </trkpt>
      <trkpt lat="47.86566" lon="5.30233">
        <ele>441</ele>
        <time>2024-05-14T07:50:43.998Z</time>
      </trkpt>
      <trkpt lat="47.86563" lon="5.30225">
        <ele>441</ele>
        <time>2024-05-14T07:50:48.534Z</time>
      </trkpt>
      <trkpt lat="47.86561" lon="5.30218">
        <ele>441</ele>
        <time>2024-05-14T07:50:52.980Z</time>
      </trkpt>
      <trkpt lat="47.86559" lon="5.30211">
        <ele>441</ele>
        <time>2024-05-14T07:50:57.476Z</time>
      </trkpt>
      <trkpt lat="47.86557" lon="5.30203">
        <ele>441</ele>
        <time>2024-05-14T07:51:02Z</time>
      </trkpt>
      <trkpt lat="47.86555" lon="5.30196">
        <ele>441</ele>
        <time>2024-05-14T07:51:06.403Z</time>
      </trkpt>
      <trkpt lat="47.86555" lon="5.30187">
        <ele>441</ele>
        <time>2024-05-14T07:51:10.498Z</time>
      </trkpt>
      <trkpt lat="47.86553" lon="5.30179">
        <ele>441</ele>
        <time>2024-05-14T07:51:14.561Z</time>
      </trkpt>
      <trkpt lat="47.8655" lon="5.30171">
        <ele>441</ele>
        <time>2024-05-14T07:51:18.998Z</time>
      </trkpt>
      <trkpt lat="47.86548" lon="5.30164">
        <ele>441</ele>
        <time>2024-05-14T07:51:23.554Z</time>
      </trkpt>
      <trkpt lat="47.86545" lon="5.30162">
        <ele>441</ele>
        <time>2024-05-14T07:51:28.118Z</time>
      </trkpt>
      <trkpt lat="47.8655" lon="5.30158">
        <ele>441</ele>
        <time>2024-05-14T07:51:32.734Z</time>
      </trkpt>
      <trkpt lat="47.86546" lon="5.30151">
        <ele>440</ele>
        <time>2024-05-14T07:51:37.794Z</time>
      </trkpt>
      <trkpt lat="47.8654" lon="5.30138">
        <ele>440</ele>
        <time>2024-05-14T07:51:41.915Z</time>
      </trkpt>
      <trkpt lat="47.86538" lon="5.30127">
        <ele>440</ele>
        <time>2024-05-14T07:51:45.934Z</time>
      </trkpt>
      <trkpt lat="47.86538" lon="5.30117">
        <ele>440</ele>
        <time>2024-05-14T07:51:49.999Z</time>
      </trkpt>
      <trkpt lat="47.86539" lon="5.30109">
        <ele>440</ele>
        <time>2024-05-14T07:51:53.999Z</time>
      </trkpt>
      <trkpt lat="47.86539" lon="5.301">
        <ele>440</ele>
        <time>2024-05-14T07:51:58.476Z</time>
      </trkpt>
      <trkpt lat="47.8654" lon="5.30095">
        <ele>440</ele>
        <time>2024-05-14T07:52:02.941Z</time>
      </trkpt>
      <trkpt lat="47.86539" lon="5.30088">
        <ele>440</ele>
        <time>2024-05-14T07:52:06.999Z</time>
      </trkpt>
      <trkpt lat="47.86537" lon="5.3008">
        <ele>440</ele>
        <time>2024-05-14T07:52:11.677Z</time>
      </trkpt>
      <trkpt lat="47.86535" lon="5.30074">
        <ele>440</ele>
        <time>2024-05-14T07:52:15.998Z</time>
      </trkpt>
      <trkpt lat="47.86535" lon="5.30073">
        <ele>440</ele>
        <time>2024-05-14T07:52:20.559Z</time>
      </trkpt>
      <trkpt lat="47.86533" lon="5.30057">
        <ele>441</ele>
        <time>2024-05-14T07:52:24.680Z</time>
      </trkpt>
      <trkpt lat="47.86531" lon="5.30051">
        <ele>441</ele>
        <time>2024-05-14T07:52:29.339Z</time>
      </trkpt>
      <trkpt lat="47.8653" lon="5.30044">
        <ele>441</ele>
        <time>2024-05-14T07:52:33.999Z</time>
      </trkpt>
      <trkpt lat="47.86528" lon="5.30037">
        <ele>442</ele>
        <time>2024-05-14T07:52:37.998Z</time>
      </trkpt>
      <trkpt lat="47.86526" lon="5.30029">
        <ele>442</ele>
        <time>2024-05-14T07:52:41.998Z</time>
      </trkpt>
      <trkpt lat="47.86525" lon="5.30021">
        <ele>442</ele>
        <time>2024-05-14T07:52:46.497Z</time>
      </trkpt>
      <trkpt lat="47.86523" lon="5.30012">
        <ele>443</ele>
        <time>2024-05-14T07:52:50.999Z</time>
      </trkpt>
      <trkpt lat="47.86522" lon="5.30004">
        <ele>443</ele>
        <time>2024-05-14T07:52:55.474Z</time>
      </trkpt>
      <trkpt lat="47.8652" lon="5.29997">
        <ele>443</ele>
        <time>2024-05-14T07:52:59.954Z</time>
      </trkpt>
      <trkpt lat="47.8652" lon="5.29988">
        <ele>443</ele>
        <time>2024-05-14T07:53:04.238Z</time>
      </trkpt>
      <trkpt lat="47.86519" lon="5.29981">
        <ele>443</ele>
        <time>2024-05-14T07:53:08.818Z</time>
      </trkpt>
      <trkpt lat="47.8652" lon="5.29972">
        <ele>443</ele>
        <time>2024-05-14T07:53:12.879Z</time>
      </trkpt>
      <trkpt lat="47.86516" lon="5.29964">
        <ele>443</ele>
        <time>2024-05-14T07:53:17.359Z</time>
      </trkpt>
      <trkpt lat="47.86514" lon="5.29955">
        <ele>442</ele>
        <time>2024-05-14T07:53:21.676Z</time>
      </trkpt>
      <trkpt lat="47.86513" lon="5.29946">
        <ele>443</ele>
        <time>2024-05-14T07:53:26.300Z</time>
      </trkpt>
      <trkpt lat="47.86512" lon="5.29936">
        <ele>443</ele>
        <time>2024-05-14T07:53:30.610Z</time>
      </trkpt>
      <trkpt lat="47.86511" lon="5.29927">
        <ele>442</ele>
        <time>2024-05-14T07:53:34.799Z</time>
      </trkpt>
      <trkpt lat="47.8651" lon="5.2992">
        <ele>442</ele>
        <time>2024-05-14T07:53:38.999Z</time>
      </trkpt>
      <trkpt lat="47.86509" lon="5.29911">
        <ele>442</ele>
        <time>2024-05-14T07:53:43.675Z</time>
      </trkpt>
      <trkpt lat="47.86508" lon="5.29903">
        <ele>441</ele>
        <time>2024-05-14T07:53:47.776Z</time>
      </trkpt>
      <trkpt lat="47.86508" lon="5.29894">
        <ele>441</ele>
        <time>2024-05-14T07:53:52.333Z</time>
      </trkpt>
      <trkpt lat="47.86508" lon="5.29885">
        <ele>441</ele>
        <time>2024-05-14T07:53:56.914Z</time>
      </trkpt>
      <trkpt lat="47.86507" lon="5.29877">
        <ele>441</ele>
        <time>2024-05-14T07:54:00.999Z</time>
      </trkpt>
      <trkpt lat="47.86506" lon="5.29867">
        <ele>441</ele>
        <time>2024-05-14T07:54:05.277Z</time>
      </trkpt>
      <trkpt lat="47.86506" lon="5.2986">
        <ele>441</ele>
        <time>2024-05-14T07:54:09.999Z</time>
      </trkpt>
      <trkpt lat="47.86505" lon="5.2985">
        <ele>441</ele>
        <time>2024-05-14T07:54:14.055Z</time>
      </trkpt>
      <trkpt lat="47.86504" lon="5.29842">
        <ele>442</ele>
        <time>2024-05-14T07:54:18.501Z</time>
      </trkpt>
      <trkpt lat="47.86504" lon="5.29833">
        <ele>442</ele>
        <time>2024-05-14T07:54:22.998Z</time>
      </trkpt>
      <trkpt lat="47.86502" lon="5.29824">
        <ele>442</ele>
        <time>2024-05-14T07:54:27.366Z</time>
      </trkpt>
      <trkpt lat="47.86502" lon="5.29817">
        <ele>443</ele>
        <time>2024-05-14T07:54:31.999Z</time>
      </trkpt>
      <trkpt lat="47.86501" lon="5.29809">
        <ele>443</ele>
        <time>2024-05-14T07:54:36.845Z</time>
      </trkpt>
      <trkpt lat="47.86502" lon="5.29801">
        <ele>443</ele>
        <time>2024-05-14T07:54:40.998Z</time>
      </trkpt>
      <trkpt lat="47.86501" lon="5.29792">
        <ele>443</ele>
        <time>2024-05-14T07:54:45.565Z</time>
      </trkpt>
      <trkpt lat="47.86499" lon="5.29782">
        <ele>443</ele>
        <time>2024-05-14T07:54:49.882Z</time>
      </trkpt>
      <trkpt lat="47.86498" lon="5.29774">
        <ele>443</ele>
        <time>2024-05-14T07:54:54.344Z</time>
      </trkpt>
      <trkpt lat="47.86497" lon="5.29766">
        <ele>443</ele>
        <time>2024-05-14T07:54:58.901Z</time>
      </trkpt>
      <trkpt lat="47.86497" lon="5.29757">
        <ele>443</ele>
        <time>2024-05-14T07:55:02.962Z</time>
      </trkpt>
      <trkpt lat="47.86496" lon="5.29749">
        <ele>443</ele>
        <time>2024-05-14T07:55:07.501Z</time>
      </trkpt>
      <trkpt lat="47.86495" lon="5.29741">
        <ele>443</ele>
        <time>2024-05-14T07:55:11.947Z</time>
      </trkpt>
      <trkpt lat="47.86495" lon="5.29733">
        <ele>443</ele>
        <time>2024-05-14T07:55:16.425Z</time>
      </trkpt>
      <trkpt lat="47.86493" lon="5.29724">
        <ele>443</ele>
        <time>2024-05-14T07:55:20.447Z</time>
      </trkpt>
      <trkpt lat="47.86491" lon="5.29717">
        <ele>443</ele>
        <time>2024-05-14T07:55:25.004Z</time>
      </trkpt>
      <trkpt lat="47.86491" lon="5.29709">
        <ele>443</ele>
        <time>2024-05-14T07:55:29.505Z</time>
      </trkpt>
      <trkpt lat="47.8649" lon="5.29703">
        <ele>442</ele>
        <time>2024-05-14T07:55:33.626Z</time>
      </trkpt>
      <trkpt lat="47.86489" lon="5.29695">
        <ele>442</ele>
        <time>2024-05-14T07:55:38.141Z</time>
      </trkpt>
      <trkpt lat="47.86489" lon="5.29687">
        <ele>442</ele>
        <time>2024-05-14T07:55:42.645Z</time>
      </trkpt>
      <trkpt lat="47.86488" lon="5.29679">
        <ele>442</ele>
        <time>2024-05-14T07:55:46.800Z</time>
      </trkpt>
      <trkpt lat="47.86488" lon="5.2967">
        <ele>442</ele>
        <time>2024-05-14T07:55:51.339Z</time>
      </trkpt>
      <trkpt lat="47.86487" lon="5.29663">
        <ele>442</ele>
        <time>2024-05-14T07:55:55.366Z</time>
      </trkpt>
      <trkpt lat="47.86486" lon="5.29656">
        <ele>442</ele>
        <time>2024-05-14T07:55:59.904Z</time>
      </trkpt>
      <trkpt lat="47.86485" lon="5.29647">
        <ele>441</ele>
        <time>2024-05-14T07:56:03.966Z</time>
      </trkpt>
      <trkpt lat="47.86484" lon="5.2964">
        <ele>441</ele>
        <time>2024-05-14T07:56:08.363Z</time>
      </trkpt>
      <trkpt lat="47.86484" lon="5.29632">
        <ele>441</ele>
        <time>2024-05-14T07:56:12.805Z</time>
      </trkpt>
      <trkpt lat="47.86482" lon="5.29624">
        <ele>440</ele>
        <time>2024-05-14T07:56:17.362Z</time>
      </trkpt>
      <trkpt lat="47.86482" lon="5.29616">
        <ele>440</ele>
        <time>2024-05-14T07:56:21.525Z</time>
      </trkpt>
      <trkpt lat="47.86481" lon="5.29608">
        <ele>440</ele>
        <time>2024-05-14T07:56:25.545Z</time>
      </trkpt>
      <trkpt lat="47.8648" lon="5.29598">
        <ele>440</ele>
        <time>2024-05-14T07:56:29.605Z</time>
      </trkpt>
      <trkpt lat="47.8648" lon="5.2959">
        <ele>439</ele>
        <time>2024-05-14T07:56:34.127Z</time>
      </trkpt>
      <trkpt lat="47.86479" lon="5.29581">
        <ele>439</ele>
        <time>2024-05-14T07:56:38.265Z</time>
      </trkpt>
      <trkpt lat="47.86477" lon="5.29572">
        <ele>439</ele>
        <time>2024-05-14T07:56:42.684Z</time>
      </trkpt>
      <trkpt lat="47.86476" lon="5.29564">
        <ele>439</ele>
        <time>2024-05-14T07:56:46.864Z</time>
      </trkpt>
      <trkpt lat="47.86475" lon="5.29555">
        <ele>439</ele>
        <time>2024-05-14T07:56:50.926Z</time>
      </trkpt>
      <trkpt lat="47.86474" lon="5.29547">
        <ele>439</ele>
        <time>2024-05-14T07:56:55.499Z</time>
      </trkpt>
      <trkpt lat="47.86473" lon="5.29538">
        <ele>438</ele>
        <time>2024-05-14T07:56:59.998Z</time>
      </trkpt>
      <trkpt lat="47.86472" lon="5.2953">
        <ele>438</ele>
        <time>2024-05-14T07:57:04.142Z</time>
      </trkpt>
      <trkpt lat="47.86471" lon="5.29521">
        <ele>438</ele>
        <time>2024-05-14T07:57:08.545Z</time>
      </trkpt>
      <trkpt lat="47.8647" lon="5.29513">
        <ele>437</ele>
        <time>2024-05-14T07:57:12.742Z</time>
      </trkpt>
      <trkpt lat="47.86469" lon="5.29505">
        <ele>437</ele>
        <time>2024-05-14T07:57:16.846Z</time>
      </trkpt>
      <trkpt lat="47.86468" lon="5.29496">
        <ele>437</ele>
        <time>2024-05-14T07:57:20.983Z</time>
      </trkpt>
      <trkpt lat="47.86467" lon="5.29488">
        <ele>437</ele>
        <time>2024-05-14T07:57:25.581Z</time>
      </trkpt>
      <trkpt lat="47.86466" lon="5.2948">
        <ele>438</ele>
        <time>2024-05-14T07:57:29.686Z</time>
      </trkpt>
      <trkpt lat="47.86464" lon="5.29471">
        <ele>438</ele>
        <time>2024-05-14T07:57:34.262Z</time>
      </trkpt>
      <trkpt lat="47.86464" lon="5.29463">
        <ele>438</ele>
        <time>2024-05-14T07:57:38.900Z</time>
      </trkpt>
      <trkpt lat="47.86463" lon="5.29454">
        <ele>438</ele>
        <time>2024-05-14T07:57:43.499Z</time>
      </trkpt>
      <trkpt lat="47.86462" lon="5.29446">
        <ele>438</ele>
        <time>2024-05-14T07:57:47.645Z</time>
      </trkpt>
      <trkpt lat="47.86461" lon="5.29438">
        <ele>438</ele>
        <time>2024-05-14T07:57:51.843Z</time>
      </trkpt>
      <trkpt lat="47.86459" lon="5.29431">
        <ele>438</ele>
        <time>2024-05-14T07:57:56.482Z</time>
      </trkpt>
      <trkpt lat="47.86458" lon="5.29422">
        <ele>437</ele>
        <time>2024-05-14T07:58:00.998Z</time>
      </trkpt>
      <trkpt lat="47.86457" lon="5.29414">
        <ele>438</ele>
        <time>2024-05-14T07:58:05.659Z</time>
      </trkpt>
      <trkpt lat="47.86457" lon="5.29405">
        <ele>438</ele>
        <time>2024-05-14T07:58:09.763Z</time>
      </trkpt>
      <trkpt lat="47.86456" lon="5.29397">
        <ele>437</ele>
        <time>2024-05-14T07:58:14.166Z</time>
      </trkpt>
      <trkpt lat="47.86455" lon="5.2939">
        <ele>437</ele>
        <time>2024-05-14T07:58:18.260Z</time>
      </trkpt>
      <trkpt lat="47.86453" lon="5.29382">
        <ele>437</ele>
        <time>2024-05-14T07:58:22.800Z</time>
      </trkpt>
      <trkpt lat="47.86452" lon="5.29374">
        <ele>437</ele>
        <time>2024-05-14T07:58:27.245Z</time>
      </trkpt>
      <trkpt lat="47.86451" lon="5.29367">
        <ele>437</ele>
        <time>2024-05-14T07:58:31.340Z</time>
      </trkpt>
      <trkpt lat="47.8645" lon="5.29358">
        <ele>437</ele>
        <time>2024-05-14T07:58:35.389Z</time>
      </trkpt>
      <trkpt lat="47.86449" lon="5.2935">
        <ele>437</ele>
        <time>2024-05-14T07:58:39.905Z</time>
      </trkpt>
      <trkpt lat="47.86448" lon="5.29342">
        <ele>436</ele>
        <time>2024-05-14T07:58:43.998Z</time>
      </trkpt>
      <trkpt lat="47.86446" lon="5.29334">
        <ele>436</ele>
        <time>2024-05-14T07:58:48.540Z</time>
      </trkpt>
      <trkpt lat="47.86445" lon="5.29325">
        <ele>436</ele>
        <time>2024-05-14T07:58:53.001Z</time>
      </trkpt>
      <trkpt lat="47.86444" lon="5.29317">
        <ele>436</ele>
        <time>2024-05-14T07:58:57.184Z</time>
      </trkpt>
      <trkpt lat="47.86443" lon="5.2931">
        <ele>436</ele>
        <time>2024-05-14T07:59:01.259Z</time>
      </trkpt>
      <trkpt lat="47.86442" lon="5.29301">
        <ele>436</ele>
        <time>2024-05-14T07:59:05.998Z</time>
      </trkpt>
      <trkpt lat="47.86441" lon="5.29294">
        <ele>436</ele>
        <time>2024-05-14T07:59:10.484Z</time>
      </trkpt>
      <trkpt lat="47.86441" lon="5.29286">
        <ele>435</ele>
        <time>2024-05-14T07:59:14.526Z</time>
      </trkpt>
      <trkpt lat="47.8644" lon="5.29277">
        <ele>435</ele>
        <time>2024-05-14T07:59:18.681Z</time>
      </trkpt>
      <trkpt lat="47.8644" lon="5.2927">
        <ele>435</ele>
        <time>2024-05-14T07:59:22.785Z</time>
      </trkpt>
      <trkpt lat="47.86441" lon="5.2926">
        <ele>435</ele>
        <time>2024-05-14T07:59:26.998Z</time>
      </trkpt>
      <trkpt lat="47.8644" lon="5.29251">
        <ele>435</ele>
        <time>2024-05-14T07:59:31.145Z</time>
      </trkpt>
      <trkpt lat="47.8644" lon="5.29243">
        <ele>435</ele>
        <time>2024-05-14T07:59:35.163Z</time>
      </trkpt>
      <trkpt lat="47.8644" lon="5.29236">
        <ele>436</ele>
        <time>2024-05-14T07:59:39.182Z</time>
      </trkpt>
      <trkpt lat="47.8644" lon="5.29228">
        <ele>436</ele>
        <time>2024-05-14T07:59:43.286Z</time>
      </trkpt>
      <trkpt lat="47.8644" lon="5.29219">
        <ele>436</ele>
        <time>2024-05-14T07:59:47.885Z</time>
      </trkpt>
      <trkpt lat="47.86441" lon="5.2921">
        <ele>436</ele>
        <time>2024-05-14T07:59:52.464Z</time>
      </trkpt>
      <trkpt lat="47.8644" lon="5.29201">
        <ele>435</ele>
        <time>2024-05-14T07:59:56.502Z</time>
      </trkpt>
      <trkpt lat="47.86441" lon="5.29193">
        <ele>435</ele>
        <time>2024-05-14T08:00:01.027Z</time>
      </trkpt>
      <trkpt lat="47.86441" lon="5.29184">
        <ele>435</ele>
        <time>2024-05-14T08:00:05.126Z</time>
      </trkpt>
      <trkpt lat="47.86441" lon="5.29177">
        <ele>435</ele>
        <time>2024-05-14T08:00:09.264Z</time>
      </trkpt>
      <trkpt lat="47.8644" lon="5.29168">
        <ele>435</ele>
        <time>2024-05-14T08:00:13.802Z</time>
      </trkpt>
      <trkpt lat="47.8644" lon="5.29159">
        <ele>435</ele>
        <time>2024-05-14T08:00:18.383Z</time>
      </trkpt>
      <trkpt lat="47.86439" lon="5.29152">
        <ele>435</ele>
        <time>2024-05-14T08:00:22.403Z</time>
      </trkpt>
      <trkpt lat="47.86439" lon="5.29144">
        <ele>435</ele>
        <time>2024-05-14T08:00:26.925Z</time>
      </trkpt>
      <trkpt lat="47.86438" lon="5.29135">
        <ele>435</ele>
        <time>2024-05-14T08:00:31.611Z</time>
      </trkpt>
      <trkpt lat="47.86438" lon="5.29127">
        <ele>435</ele>
        <time>2024-05-14T08:00:35.997Z</time>
      </trkpt>
      <trkpt lat="47.86438" lon="5.29119">
        <ele>435</ele>
        <time>2024-05-14T08:00:40.080Z</time>
      </trkpt>
      <trkpt lat="47.86438" lon="5.2911">
        <ele>435</ele>
        <time>2024-05-14T08:00:44.687Z</time>
      </trkpt>
      <trkpt lat="47.86438" lon="5.29102">
        <ele>435</ele>
        <time>2024-05-14T08:00:48.807Z</time>
      </trkpt>
      <trkpt lat="47.86438" lon="5.29094">
        <ele>436</ele>
        <time>2024-05-14T08:00:53.422Z</time>
      </trkpt>
      <trkpt lat="47.86438" lon="5.29086">
        <ele>436</ele>
        <time>2024-05-14T08:00:57.962Z</time>
      </trkpt>
      <trkpt lat="47.86438" lon="5.29077">
        <ele>436</ele>
        <time>2024-05-14T08:01:01.979Z</time>
      </trkpt>
      <trkpt lat="47.86437" lon="5.2907">
        <ele>436</ele>
        <time>2024-05-14T08:01:06.500Z</time>
      </trkpt>
      <trkpt lat="47.86436" lon="5.29064">
        <ele>436</ele>
        <time>2024-05-14T08:01:10.920Z</time>
      </trkpt>
      <trkpt lat="47.86435" lon="5.29057">
        <ele>436</ele>
        <time>2024-05-14T08:01:14.998Z</time>
      </trkpt>
      <trkpt lat="47.86434" lon="5.2905">
        <ele>436</ele>
        <time>2024-05-14T08:01:18.998Z</time>
      </trkpt>
      <trkpt lat="47.86432" lon="5.29043">
        <ele>436</ele>
        <time>2024-05-14T08:01:23.606Z</time>
      </trkpt>
      <trkpt lat="47.86431" lon="5.29036">
        <ele>436</ele>
        <time>2024-05-14T08:01:27.743Z</time>
      </trkpt>
      <trkpt lat="47.86428" lon="5.29031">
        <ele>435</ele>
        <time>2024-05-14T08:01:31.781Z</time>
      </trkpt>
      <trkpt lat="47.86426" lon="5.29024">
        <ele>435</ele>
        <time>2024-05-14T08:01:35.998Z</time>
      </trkpt>
      <trkpt lat="47.86422" lon="5.29016">
        <ele>435</ele>
        <time>2024-05-14T08:01:39.997Z</time>
      </trkpt>
      <trkpt lat="47.86419" lon="5.29008">
        <ele>435</ele>
        <time>2024-05-14T08:01:44.618Z</time>
      </trkpt>
      <trkpt lat="47.86417" lon="5.29002">
        <ele>435</ele>
        <time>2024-05-14T08:01:48.998Z</time>
      </trkpt>
      <trkpt lat="47.86415" lon="5.28994">
        <ele>435</ele>
        <time>2024-05-14T08:01:52.997Z</time>
      </trkpt>
      <trkpt lat="47.86412" lon="5.28987">
        <ele>435</ele>
        <time>2024-05-14T08:01:57.099Z</time>
      </trkpt>
      <trkpt lat="47.8641" lon="5.2898">
        <ele>435</ele>
        <time>2024-05-14T08:02:01.186Z</time>
      </trkpt>
      <trkpt lat="47.86407" lon="5.28973">
        <ele>435</ele>
        <time>2024-05-14T08:02:05.622Z</time>
      </trkpt>
      <trkpt lat="47.86407" lon="5.28964">
        <ele>435</ele>
        <time>2024-05-14T08:02:09.998Z</time>
      </trkpt>
      <trkpt lat="47.86404" lon="5.28957">
        <ele>435</ele>
        <time>2024-05-14T08:02:14.563Z</time>
      </trkpt>
      <trkpt lat="47.86402" lon="5.28949">
        <ele>434</ele>
        <time>2024-05-14T08:02:18.997Z</time>
      </trkpt>
      <trkpt lat="47.86399" lon="5.28941">
        <ele>434</ele>
        <time>2024-05-14T08:02:23.521Z</time>
      </trkpt>
      <trkpt lat="47.86397" lon="5.28934">
        <ele>434</ele>
        <time>2024-05-14T08:02:27.997Z</time>
      </trkpt>
      <trkpt lat="47.86396" lon="5.28927">
        <ele>435</ele>
        <time>2024-05-14T08:02:31.997Z</time>
      </trkpt>
      <trkpt lat="47.86393" lon="5.28919">
        <ele>435</ele>
        <time>2024-05-14T08:02:36.506Z</time>
      </trkpt>
      <trkpt lat="47.86392" lon="5.28912">
        <ele>435</ele>
        <time>2024-05-14T08:02:40.643Z</time>
      </trkpt>
      <trkpt lat="47.8639" lon="5.28903">
        <ele>435</ele>
        <time>2024-05-14T08:02:45.166Z</time>
      </trkpt>
      <trkpt lat="47.86388" lon="5.28894">
        <ele>436</ele>
        <time>2024-05-14T08:02:49.841Z</time>
      </trkpt>
      <trkpt lat="47.86387" lon="5.28888">
        <ele>436</ele>
        <time>2024-05-14T08:02:53.884Z</time>
      </trkpt>
      <trkpt lat="47.86384" lon="5.28879">
        <ele>436</ele>
        <time>2024-05-14T08:02:58.499Z</time>
      </trkpt>
      <trkpt lat="47.86383" lon="5.28871">
        <ele>436</ele>
        <time>2024-05-14T08:03:02.781Z</time>
      </trkpt>
      <trkpt lat="47.86379" lon="5.28865">
        <ele>436</ele>
        <time>2024-05-14T08:03:07.440Z</time>
      </trkpt>
      <trkpt lat="47.86376" lon="5.28858">
        <ele>436</ele>
        <time>2024-05-14T08:03:11.998Z</time>
      </trkpt>
      <trkpt lat="47.86373" lon="5.2885">
        <ele>435</ele>
        <time>2024-05-14T08:03:16.322Z</time>
      </trkpt>
      <trkpt lat="47.86371" lon="5.28843">
        <ele>434</ele>
        <time>2024-05-14T08:03:20.741Z</time>
      </trkpt>
      <trkpt lat="47.86368" lon="5.28837">
        <ele>434</ele>
        <time>2024-05-14T08:03:25.219Z</time>
      </trkpt>
      <trkpt lat="47.86365" lon="5.28831">
        <ele>434</ele>
        <time>2024-05-14T08:03:29.860Z</time>
      </trkpt>
      <trkpt lat="47.86362" lon="5.28824">
        <ele>434</ele>
        <time>2024-05-14T08:03:33.878Z</time>
      </trkpt>
      <trkpt lat="47.86359" lon="5.28817">
        <ele>434</ele>
        <time>2024-05-14T08:03:38.460Z</time>
      </trkpt>
      <trkpt lat="47.86356" lon="5.2881">
        <ele>434</ele>
        <time>2024-05-14T08:03:42.880Z</time>
      </trkpt>
      <trkpt lat="47.86353" lon="5.28804">
        <ele>434</ele>
        <time>2024-05-14T08:03:47Z</time>
      </trkpt>
      <trkpt lat="47.8635" lon="5.28799">
        <ele>434</ele>
        <time>2024-05-14T08:03:51.728Z</time>
      </trkpt>
      <trkpt lat="47.86347" lon="5.28793">
        <ele>432</ele>
        <time>2024-05-14T08:03:55.762Z</time>
      </trkpt>
      <trkpt lat="47.86343" lon="5.28787">
        <ele>430</ele>
        <time>2024-05-14T08:04:00.342Z</time>
      </trkpt>
      <trkpt lat="47.8634" lon="5.2878">
        <ele>430</ele>
        <time>2024-05-14T08:04:04.361Z</time>
      </trkpt>
      <trkpt lat="47.86337" lon="5.28773">
        <ele>430</ele>
        <time>2024-05-14T08:04:08.925Z</time>
      </trkpt>
      <trkpt lat="47.86333" lon="5.28766">
        <ele>430</ele>
        <time>2024-05-14T08:04:13.481Z</time>
      </trkpt>
      <trkpt lat="47.86329" lon="5.2876">
        <ele>429</ele>
        <time>2024-05-14T08:04:17.998Z</time>
      </trkpt>
      <trkpt lat="47.86326" lon="5.28753">
        <ele>429</ele>
        <time>2024-05-14T08:04:22.626Z</time>
      </trkpt>
      <trkpt lat="47.86323" lon="5.28747">
        <ele>429</ele>
        <time>2024-05-14T08:04:26.704Z</time>
      </trkpt>
      <trkpt lat="47.86322" lon="5.28738">
        <ele>429</ele>
        <time>2024-05-14T08:04:30.765Z</time>
      </trkpt>
      <trkpt lat="47.86319" lon="5.28731">
        <ele>429</ele>
        <time>2024-05-14T08:04:34.783Z</time>
      </trkpt>
      <trkpt lat="47.86316" lon="5.28724">
        <ele>429</ele>
        <time>2024-05-14T08:04:39.304Z</time>
      </trkpt>
      <trkpt lat="47.86313" lon="5.28717">
        <ele>429</ele>
        <time>2024-05-14T08:04:43.903Z</time>
      </trkpt>
      <trkpt lat="47.86312" lon="5.2871">
        <ele>429</ele>
        <time>2024-05-14T08:04:47.999Z</time>
      </trkpt>
      <trkpt lat="47.86311" lon="5.28702">
        <ele>430</ele>
        <time>2024-05-14T08:04:52.682Z</time>
      </trkpt>
      <trkpt lat="47.86307" lon="5.28699">
        <ele>430</ele>
        <time>2024-05-14T08:04:56.785Z</time>
      </trkpt>
      <trkpt lat="47.86306" lon="5.28691">
        <ele>430</ele>
        <time>2024-05-14T08:05:00.864Z</time>
      </trkpt>
      <trkpt lat="47.86304" lon="5.28685">
        <ele>430</ele>
        <time>2024-05-14T08:05:05.403Z</time>
      </trkpt>
      <trkpt lat="47.86303" lon="5.28677">
        <ele>431</ele>
        <time>2024-05-14T08:05:09.505Z</time>
      </trkpt>
      <trkpt lat="47.86303" lon="5.28669">
        <ele>431</ele>
        <time>2024-05-14T08:05:13.528Z</time>
      </trkpt>
      <trkpt lat="47.86302" lon="5.28662">
        <ele>431</ele>
        <time>2024-05-14T08:05:17.705Z</time>
      </trkpt>
      <trkpt lat="47.863" lon="5.28653">
        <ele>431</ele>
        <time>2024-05-14T08:05:21.740Z</time>
      </trkpt>
      <trkpt lat="47.86298" lon="5.28646">
        <ele>431</ele>
        <time>2024-05-14T08:05:26.278Z</time>
      </trkpt>
      <trkpt lat="47.86297" lon="5.28638">
        <ele>431</ele>
        <time>2024-05-14T08:05:30.843Z</time>
      </trkpt>
      <trkpt lat="47.86294" lon="5.28629">
        <ele>431</ele>
        <time>2024-05-14T08:05:34.997Z</time>
      </trkpt>
      <trkpt lat="47.86292" lon="5.28623">
        <ele>431</ele>
        <time>2024-05-14T08:05:39.626Z</time>
      </trkpt>
      <trkpt lat="47.8629" lon="5.28615">
        <ele>431</ele>
        <time>2024-05-14T08:05:43.997Z</time>
      </trkpt>
      <trkpt lat="47.86289" lon="5.28606">
        <ele>431</ele>
        <time>2024-05-14T08:05:48.204Z</time>
      </trkpt>
      <trkpt lat="47.86289" lon="5.28598">
        <ele>431</ele>
        <time>2024-05-14T08:05:52.239Z</time>
      </trkpt>
      <trkpt lat="47.86289" lon="5.28591">
        <ele>430</ele>
        <time>2024-05-14T08:05:56.785Z</time>
      </trkpt>
      <trkpt lat="47.86289" lon="5.28583">
        <ele>430</ele>
        <time>2024-05-14T08:06:01.325Z</time>
      </trkpt>
      <trkpt lat="47.86289" lon="5.28575">
        <ele>430</ele>
        <time>2024-05-14T08:06:05.940Z</time>
      </trkpt>
      <trkpt lat="47.86289" lon="5.28566">
        <ele>430</ele>
        <time>2024-05-14T08:06:10.503Z</time>
      </trkpt>
      <trkpt lat="47.86289" lon="5.28557">
        <ele>430</ele>
        <time>2024-05-14T08:06:14.998Z</time>
      </trkpt>
      <trkpt lat="47.8629" lon="5.2855">
        <ele>430</ele>
        <time>2024-05-14T08:06:19.666Z</time>
      </trkpt>
      <trkpt lat="47.8629" lon="5.28542">
        <ele>429</ele>
        <time>2024-05-14T08:06:23.702Z</time>
      </trkpt>
      <trkpt lat="47.8629" lon="5.28535">
        <ele>429</ele>
        <time>2024-05-14T08:06:27.779Z</time>
      </trkpt>
      <trkpt lat="47.86291" lon="5.28527">
        <ele>429</ele>
        <time>2024-05-14T08:06:31.926Z</time>
      </trkpt>
      <trkpt lat="47.86291" lon="5.28519">
        <ele>429</ele>
        <time>2024-05-14T08:06:35.985Z</time>
      </trkpt>
      <trkpt lat="47.8629" lon="5.28511">
        <ele>428</ele>
        <time>2024-05-14T08:06:39.997Z</time>
      </trkpt>
      <trkpt lat="47.86289" lon="5.28502">
        <ele>428</ele>
        <time>2024-05-14T08:06:44.599Z</time>
      </trkpt>
      <trkpt lat="47.86287" lon="5.28495">
        <ele>428</ele>
        <time>2024-05-14T08:06:48.749Z</time>
      </trkpt>
      <trkpt lat="47.86285" lon="5.28488">
        <ele>428</ele>
        <time>2024-05-14T08:06:53.305Z</time>
      </trkpt>
      <trkpt lat="47.86283" lon="5.28481">
        <ele>426</ele>
        <time>2024-05-14T08:06:57.528Z</time>
      </trkpt>
      <trkpt lat="47.86282" lon="5.28474">
        <ele>426</ele>
        <time>2024-05-14T08:07:01.595Z</time>
      </trkpt>
      <trkpt lat="47.86281" lon="5.28467">
        <ele>426</ele>
        <time>2024-05-14T08:07:05.666Z</time>
      </trkpt>
      <trkpt lat="47.86278" lon="5.28461">
        <ele>426</ele>
        <time>2024-05-14T08:07:09.744Z</time>
      </trkpt>
      <trkpt lat="47.86275" lon="5.28456">
        <ele>424</ele>
        <time>2024-05-14T08:07:13.790Z</time>
      </trkpt>
      <trkpt lat="47.86273" lon="5.28448">
        <ele>424</ele>
        <time>2024-05-14T08:07:17.969Z</time>
      </trkpt>
      <trkpt lat="47.86271" lon="5.2844">
        <ele>424</ele>
        <time>2024-05-14T08:07:21.997Z</time>
      </trkpt>
      <trkpt lat="47.8627" lon="5.28433">
        <ele>424</ele>
        <time>2024-05-14T08:07:26.611Z</time>
      </trkpt>
      <trkpt lat="47.86267" lon="5.28425">
        <ele>423</ele>
        <time>2024-05-14T08:07:30.690Z</time>
      </trkpt>
      <trkpt lat="47.86265" lon="5.28417">
        <ele>423</ele>
        <time>2024-05-14T08:07:35.168Z</time>
      </trkpt>
      <trkpt lat="47.86263" lon="5.2841">
        <ele>423</ele>
        <time>2024-05-14T08:07:39.391Z</time>
      </trkpt>
      <trkpt lat="47.8626" lon="5.28403">
        <ele>423</ele>
        <time>2024-05-14T08:07:43.826Z</time>
      </trkpt>
      <trkpt lat="47.86257" lon="5.28395">
        <ele>423</ele>
        <time>2024-05-14T08:07:47.990Z</time>
      </trkpt>
      <trkpt lat="47.86254" lon="5.28388">
        <ele>423</ele>
        <time>2024-05-14T08:07:52.086Z</time>
      </trkpt>
      <trkpt lat="47.86251" lon="5.2838">
        <ele>423</ele>
        <time>2024-05-14T08:07:56.624Z</time>
      </trkpt>
      <trkpt lat="47.86248" lon="5.28372">
        <ele>423</ele>
        <time>2024-05-14T08:08:00.686Z</time>
      </trkpt>
      <trkpt lat="47.86245" lon="5.28364">
        <ele>423</ele>
        <time>2024-05-14T08:08:04.866Z</time>
      </trkpt>
      <trkpt lat="47.86242" lon="5.28355">
        <ele>423</ele>
        <time>2024-05-14T08:08:08.997Z</time>
      </trkpt>
      <trkpt lat="47.8624" lon="5.28347">
        <ele>424</ele>
        <time>2024-05-14T08:08:13.550Z</time>
      </trkpt>
      <trkpt lat="47.86239" lon="5.28339">
        <ele>424</ele>
        <time>2024-05-14T08:08:17.998Z</time>
      </trkpt>
      <trkpt lat="47.86238" lon="5.28331">
        <ele>424</ele>
        <time>2024-05-14T08:08:22.585Z</time>
      </trkpt>
      <trkpt lat="47.86238" lon="5.28323">
        <ele>424</ele>
        <time>2024-05-14T08:08:26.998Z</time>
      </trkpt>
      <trkpt lat="47.8624" lon="5.28317">
        <ele>424</ele>
        <time>2024-05-14T08:08:31.670Z</time>
      </trkpt>
      <trkpt lat="47.8624" lon="5.28309">
        <ele>424</ele>
        <time>2024-05-14T08:08:35.998Z</time>
      </trkpt>
      <trkpt lat="47.86241" lon="5.28301">
        <ele>424</ele>
        <time>2024-05-14T08:08:40.738Z</time>
      </trkpt>
      <trkpt lat="47.86241" lon="5.28293">
        <ele>424</ele>
        <time>2024-05-14T08:08:45.066Z</time>
      </trkpt>
      <trkpt lat="47.86241" lon="5.28285">
        <ele>424</ele>
        <time>2024-05-14T08:08:49.601Z</time>
      </trkpt>
      <trkpt lat="47.86242" lon="5.28277">
        <ele>424</ele>
        <time>2024-05-14T08:08:53.750Z</time>
      </trkpt>
      <trkpt lat="47.86243" lon="5.2827">
        <ele>424</ele>
        <time>2024-05-14T08:08:57.998Z</time>
      </trkpt>
      <trkpt lat="47.86244" lon="5.28263">
        <ele>425</ele>
        <time>2024-05-14T08:09:02.631Z</time>
      </trkpt>
      <trkpt lat="47.86244" lon="5.28256">
        <ele>425</ele>
        <time>2024-05-14T08:09:06.997Z</time>
      </trkpt>
      <trkpt lat="47.86246" lon="5.28248">
        <ele>425</ele>
        <time>2024-05-14T08:09:11.693Z</time>
      </trkpt>
      <trkpt lat="47.86247" lon="5.2824">
        <ele>425</ele>
        <time>2024-05-14T08:09:15.997Z</time>
      </trkpt>
      <trkpt lat="47.86249" lon="5.28232">
        <ele>426</ele>
        <time>2024-05-14T08:09:20.710Z</time>
      </trkpt>
      <trkpt lat="47.8625" lon="5.28224">
        <ele>426</ele>
        <time>2024-05-14T08:09:24.997Z</time>
      </trkpt>
      <trkpt lat="47.86253" lon="5.28216">
        <ele>426</ele>
        <time>2024-05-14T08:09:29.770Z</time>
      </trkpt>
      <trkpt lat="47.86256" lon="5.2821">
        <ele>426</ele>
        <time>2024-05-14T08:09:33.997Z</time>
      </trkpt>
      <trkpt lat="47.86255" lon="5.28207">
        <ele>427</ele>
        <time>2024-05-14T08:09:38.685Z</time>
      </trkpt>
      <trkpt lat="47.86256" lon="5.282">
        <ele>427</ele>
        <time>2024-05-14T08:09:42.998Z</time>
      </trkpt>
      <trkpt lat="47.86258" lon="5.28193">
        <ele>427</ele>
        <time>2024-05-14T08:09:47.728Z</time>
      </trkpt>
      <trkpt lat="47.86261" lon="5.28184">
        <ele>427</ele>
        <time>2024-05-14T08:09:51.997Z</time>
      </trkpt>
      <trkpt lat="47.86262" lon="5.28176">
        <ele>428</ele>
        <time>2024-05-14T08:09:56.850Z</time>
      </trkpt>
      <trkpt lat="47.86264" lon="5.28169">
        <ele>426</ele>
        <time>2024-05-14T08:10:00.998Z</time>
      </trkpt>
      <trkpt lat="47.86266" lon="5.28162">
        <ele>426</ele>
        <time>2024-05-14T08:10:05.747Z</time>
      </trkpt>
      <trkpt lat="47.86269" lon="5.28154">
        <ele>426</ele>
        <time>2024-05-14T08:10:09.997Z</time>
      </trkpt>
      <trkpt lat="47.86274" lon="5.28148">
        <ele>428</ele>
        <time>2024-05-14T08:10:14.151Z</time>
      </trkpt>
      <trkpt lat="47.86278" lon="5.2814">
        <ele>428</ele>
        <time>2024-05-14T08:10:18.544Z</time>
      </trkpt>
      <trkpt lat="47.86281" lon="5.28134">
        <ele>428</ele>
        <time>2024-05-14T08:10:22.691Z</time>
      </trkpt>
      <trkpt lat="47.86286" lon="5.28128">
        <ele>428</ele>
        <time>2024-05-14T08:10:26.998Z</time>
      </trkpt>
      <trkpt lat="47.8629" lon="5.28122">
        <ele>430</ele>
        <time>2024-05-14T08:10:31.829Z</time>
      </trkpt>
      <trkpt lat="47.86294" lon="5.28115">
        <ele>426</ele>
        <time>2024-05-14T08:10:36.384Z</time>
      </trkpt>
      <trkpt lat="47.86297" lon="5.28109">
        <ele>426</ele>
        <time>2024-05-14T08:10:40.997Z</time>
      </trkpt>
      <trkpt lat="47.86303" lon="5.28103">
        <ele>426</ele>
        <time>2024-05-14T08:10:45.530Z</time>
      </trkpt>
      <trkpt lat="47.86308" lon="5.281">
        <ele>426</ele>
        <time>2024-05-14T08:10:49.997Z</time>
      </trkpt>
      <trkpt lat="47.86312" lon="5.28095">
        <ele>428</ele>
        <time>2024-05-14T08:10:54.746Z</time>
      </trkpt>
      <trkpt lat="47.86318" lon="5.28091">
        <ele>428</ele>
        <time>2024-05-14T08:10:59.445Z</time>
      </trkpt>
      <trkpt lat="47.86324" lon="5.28088">
        <ele>423</ele>
        <time>2024-05-14T08:11:04.010Z</time>
      </trkpt>
      <trkpt lat="47.86329" lon="5.28085">
        <ele>423</ele>
        <time>2024-05-14T08:11:08.625Z</time>
      </trkpt>
      <trkpt lat="47.86334" lon="5.28083">
        <ele>423</ele>
        <time>2024-05-14T08:11:12.998Z</time>
      </trkpt>
      <trkpt lat="47.8634" lon="5.28081">
        <ele>423</ele>
        <time>2024-05-14T08:11:17.831Z</time>
      </trkpt>
      <trkpt lat="47.86346" lon="5.28078">
        <ele>423</ele>
        <time>2024-05-14T08:11:21.997Z</time>
      </trkpt>
      <trkpt lat="47.86351" lon="5.28076">
        <ele>422</ele>
        <time>2024-05-14T08:11:26.997Z</time>
      </trkpt>
      <trkpt lat="47.86357" lon="5.28075">
        <ele>422</ele>
        <time>2024-05-14T08:11:31.711Z</time>
      </trkpt>
      <trkpt lat="47.86363" lon="5.28072">
        <ele>422</ele>
        <time>2024-05-14T08:11:35.997Z</time>
      </trkpt>
      <trkpt lat="47.86369" lon="5.28071">
        <ele>422</ele>
        <time>2024-05-14T08:11:40.951Z</time>
      </trkpt>
      <trkpt lat="47.86375" lon="5.28069">
        <ele>424</ele>
        <time>2024-05-14T08:11:44.998Z</time>
      </trkpt>
      <trkpt lat="47.8638" lon="5.28064">
        <ele>424</ele>
        <time>2024-05-14T08:11:49.997Z</time>
      </trkpt>
      <trkpt lat="47.86385" lon="5.2806">
        <ele>424</ele>
        <time>2024-05-14T08:11:54.704Z</time>
      </trkpt>
      <trkpt lat="47.86389" lon="5.28053">
        <ele>424</ele>
        <time>2024-05-14T08:11:59.387Z</time>
      </trkpt>
      <trkpt lat="47.86393" lon="5.28047">
        <ele>424</ele>
        <time>2024-05-14T08:12:03.424Z</time>
      </trkpt>
      <trkpt lat="47.86397" lon="5.28039">
        <ele>426</ele>
        <time>2024-05-14T08:12:07.569Z</time>
      </trkpt>
      <trkpt lat="47.864" lon="5.28033">
        <ele>426</ele>
        <time>2024-05-14T08:12:11.997Z</time>
      </trkpt>
      <trkpt lat="47.86403" lon="5.28025">
        <ele>426</ele>
        <time>2024-05-14T08:12:16.271Z</time>
      </trkpt>
      <trkpt lat="47.86405" lon="5.28018">
        <ele>423</ele>
        <time>2024-05-14T08:12:20.367Z</time>
      </trkpt>
      <trkpt lat="47.86408" lon="5.2801">
        <ele>424</ele>
        <time>2024-05-14T08:12:25.010Z</time>
      </trkpt>
      <trkpt lat="47.86412" lon="5.28003">
        <ele>424</ele>
        <time>2024-05-14T08:12:29.726Z</time>
      </trkpt>
      <trkpt lat="47.86415" lon="5.27995">
        <ele>424</ele>
        <time>2024-05-14T08:12:34.350Z</time>
      </trkpt>
      <trkpt lat="47.86417" lon="5.27987">
        <ele>424</ele>
        <time>2024-05-14T08:12:38.968Z</time>
      </trkpt>
      <trkpt lat="47.86419" lon="5.27979">
        <ele>424</ele>
        <time>2024-05-14T08:12:42.997Z</time>
      </trkpt>
      <trkpt lat="47.86421" lon="5.27972">
        <ele>424</ele>
        <time>2024-05-14T08:12:47.489Z</time>
      </trkpt>
      <trkpt lat="47.86424" lon="5.27964">
        <ele>424</ele>
        <time>2024-05-14T08:12:51.998Z</time>
      </trkpt>
      <trkpt lat="47.86427" lon="5.27956">
        <ele>424</ele>
        <time>2024-05-14T08:12:56.865Z</time>
      </trkpt>
      <trkpt lat="47.86428" lon="5.27949">
        <ele>424</ele>
        <time>2024-05-14T08:13:00.997Z</time>
      </trkpt>
      <trkpt lat="47.86432" lon="5.27941">
        <ele>421</ele>
        <time>2024-05-14T08:13:05.998Z</time>
      </trkpt>
      <trkpt lat="47.86435" lon="5.27934">
        <ele>421</ele>
        <time>2024-05-14T08:13:10.703Z</time>
      </trkpt>
      <trkpt lat="47.86438" lon="5.27927">
        <ele>423</ele>
        <time>2024-05-14T08:13:14.997Z</time>
      </trkpt>
      <trkpt lat="47.8644" lon="5.2792">
        <ele>423</ele>
        <time>2024-05-14T08:13:19.943Z</time>
      </trkpt>
      <trkpt lat="47.86443" lon="5.27912">
        <ele>423</ele>
        <time>2024-05-14T08:13:24.508Z</time>
      </trkpt>
      <trkpt lat="47.86446" lon="5.27904">
        <ele>423</ele>
        <time>2024-05-14T08:13:28.997Z</time>
      </trkpt>
      <trkpt lat="47.86448" lon="5.27897">
        <ele>425</ele>
        <time>2024-05-14T08:13:33.645Z</time>
      </trkpt>
      <trkpt lat="47.86452" lon="5.27889">
        <ele>425</ele>
        <time>2024-05-14T08:13:37.997Z</time>
      </trkpt>
      <trkpt lat="47.86454" lon="5.27881">
        <ele>425</ele>
        <time>2024-05-14T08:13:42.885Z</time>
      </trkpt>
      <trkpt lat="47.86457" lon="5.27873">
        <ele>426</ele>
        <time>2024-05-14T08:13:47.407Z</time>
      </trkpt>
      <trkpt lat="47.86459" lon="5.27865">
        <ele>423</ele>
        <time>2024-05-14T08:13:51.562Z</time>
      </trkpt>
      <trkpt lat="47.86461" lon="5.27858">
        <ele>423</ele>
        <time>2024-05-14T08:13:55.997Z</time>
      </trkpt>
      <trkpt lat="47.86464" lon="5.27851">
        <ele>423</ele>
        <time>2024-05-14T08:14:00.998Z</time>
      </trkpt>
      <trkpt lat="47.86466" lon="5.27844">
        <ele>424</ele>
        <time>2024-05-14T08:14:05.869Z</time>
      </trkpt>
      <trkpt lat="47.86469" lon="5.27837">
        <ele>424</ele>
        <time>2024-05-14T08:14:10.393Z</time>
      </trkpt>
      <trkpt lat="47.86472" lon="5.27831">
        <ele>424</ele>
        <time>2024-05-14T08:14:14.870Z</time>
      </trkpt>
      <trkpt lat="47.86474" lon="5.27824">
        <ele>424</ele>
        <time>2024-05-14T08:14:19.367Z</time>
      </trkpt>
      <trkpt lat="47.86476" lon="5.27816">
        <ele>424</ele>
        <time>2024-05-14T08:14:23.410Z</time>
      </trkpt>
      <trkpt lat="47.86479" lon="5.27809">
        <ele>424</ele>
        <time>2024-05-14T08:14:27.566Z</time>
      </trkpt>
      <trkpt lat="47.86482" lon="5.278">
        <ele>424</ele>
        <time>2024-05-14T08:14:31.772Z</time>
      </trkpt>
      <trkpt lat="47.86485" lon="5.27793">
        <ele>424</ele>
        <time>2024-05-14T08:14:36.789Z</time>
      </trkpt>
      <trkpt lat="47.86487" lon="5.27786">
        <ele>423</ele>
        <time>2024-05-14T08:14:41.430Z</time>
      </trkpt>
      <trkpt lat="47.86489" lon="5.27779">
        <ele>423</ele>
        <time>2024-05-14T08:14:45.988Z</time>
      </trkpt>
      <trkpt lat="47.86492" lon="5.27772">
        <ele>423</ele>
        <time>2024-05-14T08:14:49.997Z</time>
      </trkpt>
      <trkpt lat="47.86495" lon="5.27766">
        <ele>423</ele>
        <time>2024-05-14T08:14:54.996Z</time>
      </trkpt>
      <trkpt lat="47.86497" lon="5.27763">
        <ele>424</ele>
        <time>2024-05-14T08:14:59.703Z</time>
      </trkpt>
      <trkpt lat="47.865" lon="5.27756">
        <ele>424</ele>
        <time>2024-05-14T08:15:03.996Z</time>
      </trkpt>
      <trkpt lat="47.86503" lon="5.27749">
        <ele>424</ele>
        <time>2024-05-14T08:15:08.227Z</time>
      </trkpt>
      <trkpt lat="47.86504" lon="5.27742">
        <ele>424</ele>
        <time>2024-05-14T08:15:12.630Z</time>
      </trkpt>
      <trkpt lat="47.86507" lon="5.27733">
        <ele>424</ele>
        <time>2024-05-14T08:15:16.997Z</time>
      </trkpt>
      <trkpt lat="47.86509" lon="5.27726">
        <ele>424</ele>
        <time>2024-05-14T08:15:21.222Z</time>
      </trkpt>
      <trkpt lat="47.86511" lon="5.27718">
        <ele>424</ele>
        <time>2024-05-14T08:15:25.429Z</time>
      </trkpt>
      <trkpt lat="47.86514" lon="5.2771">
        <ele>424</ele>
        <time>2024-05-14T08:15:29.906Z</time>
      </trkpt>
      <trkpt lat="47.86515" lon="5.27703">
        <ele>423</ele>
        <time>2024-05-14T08:15:34.505Z</time>
      </trkpt>
      <trkpt lat="47.86518" lon="5.27694">
        <ele>423</ele>
        <time>2024-05-14T08:15:38.997Z</time>
      </trkpt>
      <trkpt lat="47.86521" lon="5.27687">
        <ele>423</ele>
        <time>2024-05-14T08:15:43.865Z</time>
      </trkpt>
      <trkpt lat="47.86523" lon="5.27681">
        <ele>423</ele>
        <time>2024-05-14T08:15:47.996Z</time>
      </trkpt>
      <trkpt lat="47.86526" lon="5.27673">
        <ele>424</ele>
        <time>2024-05-14T08:15:52.997Z</time>
      </trkpt>
      <trkpt lat="47.86529" lon="5.27665">
        <ele>424</ele>
        <time>2024-05-14T08:15:57.925Z</time>
      </trkpt>
      <trkpt lat="47.86534" lon="5.27659">
        <ele>424</ele>
        <time>2024-05-14T08:16:01.996Z</time>
      </trkpt>
      <trkpt lat="47.86536" lon="5.27652">
        <ele>425</ele>
        <time>2024-05-14T08:16:06.474Z</time>
      </trkpt>
      <trkpt lat="47.86535" lon="5.27644">
        <ele>425</ele>
        <time>2024-05-14T08:16:10.884Z</time>
      </trkpt>
      <trkpt lat="47.86533" lon="5.27636">
        <ele>425</ele>
        <time>2024-05-14T08:16:14.996Z</time>
      </trkpt>
      <trkpt lat="47.86533" lon="5.27628">
        <ele>425</ele>
        <time>2024-05-14T08:16:19.783Z</time>
      </trkpt>
      <trkpt lat="47.86531" lon="5.2762">
        <ele>425</ele>
        <time>2024-05-14T08:16:23.997Z</time>
      </trkpt>
      <trkpt lat="47.86529" lon="5.27613">
        <ele>425</ele>
        <time>2024-05-14T08:16:28.630Z</time>
      </trkpt>
      <trkpt lat="47.86528" lon="5.27603">
        <ele>425</ele>
        <time>2024-05-14T08:16:32.931Z</time>
      </trkpt>
      <trkpt lat="47.86527" lon="5.27593">
        <ele>426</ele>
        <time>2024-05-14T08:16:36.996Z</time>
      </trkpt>
      <trkpt lat="47.86528" lon="5.27584">
        <ele>426</ele>
        <time>2024-05-14T08:16:41.591Z</time>
      </trkpt>
      <trkpt lat="47.86529" lon="5.27577">
        <ele>426</ele>
        <time>2024-05-14T08:16:45.996Z</time>
      </trkpt>
      <trkpt lat="47.8653" lon="5.27567">
        <ele>426</ele>
        <time>2024-05-14T08:16:50.997Z</time>
      </trkpt>
      <trkpt lat="47.86532" lon="5.27558">
        <ele>426</ele>
        <time>2024-05-14T08:16:55.890Z</time>
      </trkpt>
      <trkpt lat="47.86534" lon="5.27551">
        <ele>426</ele>
        <time>2024-05-14T08:16:59.997Z</time>
      </trkpt>
      <trkpt lat="47.86536" lon="5.27543">
        <ele>426</ele>
        <time>2024-05-14T08:17:04.524Z</time>
      </trkpt>
      <trkpt lat="47.86538" lon="5.27535">
        <ele>427</ele>
        <time>2024-05-14T08:17:08.730Z</time>
      </trkpt>
      <trkpt lat="47.8654" lon="5.27527">
        <ele>427</ele>
        <time>2024-05-14T08:17:13.406Z</time>
      </trkpt>
      <trkpt lat="47.86541" lon="5.27519">
        <ele>427</ele>
        <time>2024-05-14T08:17:17.996Z</time>
      </trkpt>
      <trkpt lat="47.86542" lon="5.27511">
        <ele>425</ele>
        <time>2024-05-14T08:17:22.552Z</time>
      </trkpt>
      <trkpt lat="47.86544" lon="5.27503">
        <ele>425</ele>
        <time>2024-05-14T08:17:26.997Z</time>
      </trkpt>
      <trkpt lat="47.86544" lon="5.27494">
        <ele>425</ele>
        <time>2024-05-14T08:17:31.151Z</time>
      </trkpt>
      <trkpt lat="47.86543" lon="5.27487">
        <ele>425</ele>
        <time>2024-05-14T08:17:35.649Z</time>
      </trkpt>
      <trkpt lat="47.86542" lon="5.27477">
        <ele>426</ele>
        <time>2024-05-14T08:17:39.812Z</time>
      </trkpt>
      <trkpt lat="47.86543" lon="5.27469">
        <ele>426</ele>
        <time>2024-05-14T08:17:43.996Z</time>
      </trkpt>
      <trkpt lat="47.86542" lon="5.2746">
        <ele>426</ele>
        <time>2024-05-14T08:17:48.353Z</time>
      </trkpt>
      <trkpt lat="47.86541" lon="5.2745">
        <ele>429</ele>
        <time>2024-05-14T08:17:52.549Z</time>
      </trkpt>
      <trkpt lat="47.86541" lon="5.27442">
        <ele>429</ele>
        <time>2024-05-14T08:17:56.944Z</time>
      </trkpt>
      <trkpt lat="47.86542" lon="5.27434">
        <ele>427</ele>
        <time>2024-05-14T08:18:00.997Z</time>
      </trkpt>
      <trkpt lat="47.86542" lon="5.27425">
        <ele>428</ele>
        <time>2024-05-14T08:18:05.510Z</time>
      </trkpt>
      <trkpt lat="47.86542" lon="5.27418">
        <ele>428</ele>
        <time>2024-05-14T08:18:09.997Z</time>
      </trkpt>
      <trkpt lat="47.86543" lon="5.27409">
        <ele>428</ele>
        <time>2024-05-14T08:18:14.629Z</time>
      </trkpt>
      <trkpt lat="47.86544" lon="5.27402">
        <ele>428</ele>
        <time>2024-05-14T08:18:19.348Z</time>
      </trkpt>
      <trkpt lat="47.86546" lon="5.27394">
        <ele>428</ele>
        <time>2024-05-14T08:18:24.007Z</time>
      </trkpt>
      <trkpt lat="47.86548" lon="5.27387">
        <ele>428</ele>
        <time>2024-05-14T08:18:28.425Z</time>
      </trkpt>
      <trkpt lat="47.86549" lon="5.27379">
        <ele>428</ele>
        <time>2024-05-14T08:18:32.888Z</time>
      </trkpt>
      <trkpt lat="47.86551" lon="5.27372">
        <ele>428</ele>
        <time>2024-05-14T08:18:36.996Z</time>
      </trkpt>
      <trkpt lat="47.86552" lon="5.27363">
        <ele>428</ele>
        <time>2024-05-14T08:18:41.996Z</time>
      </trkpt>
      <trkpt lat="47.86553" lon="5.27354">
        <ele>428</ele>
        <time>2024-05-14T08:18:46.624Z</time>
      </trkpt>
      <trkpt lat="47.86554" lon="5.27344">
        <ele>428</ele>
        <time>2024-05-14T08:18:50.997Z</time>
      </trkpt>
      <trkpt lat="47.86555" lon="5.27337">
        <ele>428</ele>
        <time>2024-05-14T08:18:55.770Z</time>
      </trkpt>
      <trkpt lat="47.86555" lon="5.27329">
        <ele>428</ele>
        <time>2024-05-14T08:19:00.369Z</time>
      </trkpt>
      <trkpt lat="47.86555" lon="5.2732">
        <ele>428</ele>
        <time>2024-05-14T08:19:05.012Z</time>
      </trkpt>
      <trkpt lat="47.86555" lon="5.27312">
        <ele>429</ele>
        <time>2024-05-14T08:19:09.489Z</time>
      </trkpt>
      <trkpt lat="47.86556" lon="5.27303">
        <ele>429</ele>
        <time>2024-05-14T08:19:13.996Z</time>
      </trkpt>
      <trkpt lat="47.86558" lon="5.27295">
        <ele>429</ele>
        <time>2024-05-14T08:19:14.650Z</time>
      </trkpt>
      <trkpt lat="47.86558" lon="5.27286">
        <ele>430</ele>
        <time>2024-05-14T08:19:23.833Z</time>
      </trkpt>
      <trkpt lat="47.86559" lon="5.27279">
        <ele>430</ele>
        <time>2024-05-14T08:19:28.007Z</time>
      </trkpt>
      <trkpt lat="47.86559" lon="5.27271">
        <ele>430</ele>
        <time>2024-05-14T08:19:32.953Z</time>
      </trkpt>
      <trkpt lat="47.86559" lon="5.27264">
        <ele>430</ele>
        <time>2024-05-14T08:19:36.997Z</time>
      </trkpt>
      <trkpt lat="47.86561" lon="5.27257">
        <ele>430</ele>
        <time>2024-05-14T08:19:41.997Z</time>
      </trkpt>
      <trkpt lat="47.86562" lon="5.27249">
        <ele>430</ele>
        <time>2024-05-14T08:19:46.996Z</time>
      </trkpt>
      <trkpt lat="47.86561" lon="5.27241">
        <ele>430</ele>
        <time>2024-05-14T08:19:51.749Z</time>
      </trkpt>
      <trkpt lat="47.86561" lon="5.27233">
        <ele>430</ele>
        <time>2024-05-14T08:19:55.996Z</time>
      </trkpt>
      <trkpt lat="47.8656" lon="5.27226">
        <ele>430</ele>
        <time>2024-05-14T08:20:00.733Z</time>
      </trkpt>
      <trkpt lat="47.8656" lon="5.27218">
        <ele>430</ele>
        <time>2024-05-14T08:20:05.007Z</time>
      </trkpt>
      <trkpt lat="47.86559" lon="5.2721">
        <ele>430</ele>
        <time>2024-05-14T08:20:09.394Z</time>
      </trkpt>
      <trkpt lat="47.86559" lon="5.27201">
        <ele>429</ele>
        <time>2024-05-14T08:20:13.996Z</time>
      </trkpt>
      <trkpt lat="47.86558" lon="5.27192">
        <ele>429</ele>
        <time>2024-05-14T08:20:18.947Z</time>
      </trkpt>
      <trkpt lat="47.86557" lon="5.27184">
        <ele>429</ele>
        <time>2024-05-14T08:20:22.996Z</time>
      </trkpt>
      <trkpt lat="47.86557" lon="5.27175">
        <ele>429</ele>
        <time>2024-05-14T08:20:27.636Z</time>
      </trkpt>
      <trkpt lat="47.86556" lon="5.27167">
        <ele>429</ele>
        <time>2024-05-14T08:20:31.996Z</time>
      </trkpt>
      <trkpt lat="47.86555" lon="5.27158">
        <ele>429</ele>
        <time>2024-05-14T08:20:36.995Z</time>
      </trkpt>
      <trkpt lat="47.86554" lon="5.27149">
        <ele>428</ele>
        <time>2024-05-14T08:20:40.997Z</time>
      </trkpt>
      <trkpt lat="47.86554" lon="5.27139">
        <ele>428</ele>
        <time>2024-05-14T08:20:45.707Z</time>
      </trkpt>
      <trkpt lat="47.86553" lon="5.27131">
        <ele>428</ele>
        <time>2024-05-14T08:20:49.871Z</time>
      </trkpt>
      <trkpt lat="47.86552" lon="5.27122">
        <ele>427</ele>
        <time>2024-05-14T08:20:53.997Z</time>
      </trkpt>
      <trkpt lat="47.86552" lon="5.27113">
        <ele>427</ele>
        <time>2024-05-14T08:25:09.996Z</time>
      </trkpt>
      <trkpt lat="47.86552" lon="5.27105">
        <ele>427</ele>
        <time>2024-05-14T08:25:14.330Z</time>
      </trkpt>
      <trkpt lat="47.86552" lon="5.27096">
        <ele>426</ele>
        <time>2024-05-14T08:25:18.995Z</time>
      </trkpt>
      <trkpt lat="47.86551" lon="5.27088">
        <ele>426</ele>
        <time>2024-05-14T08:25:20.605Z</time>
      </trkpt>
      <trkpt lat="47.86552" lon="5.27087">
        <ele>426</ele>
        <time>2024-05-14T08:25:28.995Z</time>
      </trkpt>
      <trkpt lat="47.8655" lon="5.27074">
        <ele>426</ele>
        <time>2024-05-14T08:25:32.995Z</time>
      </trkpt>
      <trkpt lat="47.86551" lon="5.27069">
        <ele>424</ele>
        <time>2024-05-14T08:25:37.492Z</time>
      </trkpt>
      <trkpt lat="47.86551" lon="5.27061">
        <ele>424</ele>
        <time>2024-05-14T08:25:41.953Z</time>
      </trkpt>
      <trkpt lat="47.86551" lon="5.27056">
        <ele>424</ele>
        <time>2024-05-14T08:25:46.456Z</time>
      </trkpt>
      <trkpt lat="47.86551" lon="5.27049">
        <ele>424</ele>
        <time>2024-05-14T08:25:50.770Z</time>
      </trkpt>
      <trkpt lat="47.86551" lon="5.27042">
        <ele>424</ele>
        <time>2024-05-14T08:25:55.020Z</time>
      </trkpt>
      <trkpt lat="47.86549" lon="5.27035">
        <ele>422</ele>
        <time>2024-05-14T08:25:59.390Z</time>
      </trkpt>
      <trkpt lat="47.86549" lon="5.27029">
        <ele>422</ele>
        <time>2024-05-14T08:26:03.914Z</time>
      </trkpt>
      <trkpt lat="47.8655" lon="5.27021">
        <ele>422</ele>
        <time>2024-05-14T08:26:08.244Z</time>
      </trkpt>
      <trkpt lat="47.86552" lon="5.27014">
        <ele>422</ele>
        <time>2024-05-14T08:26:12.708Z</time>
      </trkpt>
      <trkpt lat="47.86554" lon="5.27009">
        <ele>420</ele>
        <time>2024-05-14T08:26:15.995Z</time>
      </trkpt>
      <trkpt lat="47.86557" lon="5.27002">
        <ele>420</ele>
        <time>2024-05-14T08:26:24.411Z</time>
      </trkpt>
      <trkpt lat="47.86558" lon="5.26995">
        <ele>420</ele>
        <time>2024-05-14T08:26:29.368Z</time>
      </trkpt>
      <trkpt lat="47.8656" lon="5.26989">
        <ele>420</ele>
        <time>2024-05-14T08:26:33.891Z</time>
      </trkpt>
      <trkpt lat="47.86563" lon="5.26981">
        <ele>417</ele>
        <time>2024-05-14T08:26:37.995Z</time>
      </trkpt>
      <trkpt lat="47.86564" lon="5.26974">
        <ele>417</ele>
        <time>2024-05-14T08:26:42.110Z</time>
      </trkpt>
      <trkpt lat="47.86566" lon="5.26965">
        <ele>417</ele>
        <time>2024-05-14T08:26:46.145Z</time>
      </trkpt>
      <trkpt lat="47.86567" lon="5.26958">
        <ele>415</ele>
        <time>2024-05-14T08:26:50.154Z</time>
      </trkpt>
      <trkpt lat="47.86569" lon="5.2695">
        <ele>415</ele>
        <time>2024-05-14T08:26:54.995Z</time>
      </trkpt>
      <trkpt lat="47.8657" lon="5.26944">
        <ele>415</ele>
        <time>2024-05-14T08:26:59.689Z</time>
      </trkpt>
      <trkpt lat="47.86572" lon="5.26937">
        <ele>415</ele>
        <time>2024-05-14T08:27:03.754Z</time>
      </trkpt>
      <trkpt lat="47.86573" lon="5.26919">
        <ele>412</ele>
        <time>2024-05-14T08:27:07.830Z</time>
      </trkpt>
      <trkpt lat="47.86575" lon="5.26916">
        <ele>412</ele>
        <time>2024-05-14T08:27:10.731Z</time>
      </trkpt>
      <trkpt lat="47.86583" lon="5.2692">
        <ele>412</ele>
        <time>2024-05-14T08:27:20.001Z</time>
      </trkpt>
      <trkpt lat="47.86584" lon="5.26921">
        <ele>412</ele>
        <time>2024-05-14T08:27:23.910Z</time>
      </trkpt>
      <trkpt lat="47.8659" lon="5.26923">
        <ele>412</ele>
        <time>2024-05-14T08:27:32.995Z</time>
      </trkpt>
      <trkpt lat="47.86594" lon="5.26918">
        <ele>412</ele>
        <time>2024-05-14T08:27:36.996Z</time>
      </trkpt>
      <trkpt lat="47.866" lon="5.26913">
        <ele>411</ele>
        <time>2024-05-14T08:27:41.995Z</time>
      </trkpt>
      <trkpt lat="47.86605" lon="5.26912">
        <ele>411</ele>
        <time>2024-05-14T08:27:46.470Z</time>
      </trkpt>
      <trkpt lat="47.8661" lon="5.26908">
        <ele>411</ele>
        <time>2024-05-14T08:27:48.528Z</time>
      </trkpt>
      <trkpt lat="47.86615" lon="5.26906">
        <ele>411</ele>
        <time>2024-05-14T08:27:57.949Z</time>
      </trkpt>
      <trkpt lat="47.86619" lon="5.26902">
        <ele>407</ele>
        <time>2024-05-14T08:28:01.995Z</time>
      </trkpt>
      <trkpt lat="47.86624" lon="5.269">
        <ele>407</ele>
        <time>2024-05-14T08:28:44.667Z</time>
      </trkpt>
      <trkpt lat="47.86628" lon="5.26897">
        <ele>408</ele>
        <time>2024-05-14T08:28:49.829Z</time>
      </trkpt>
      <trkpt lat="47.86632" lon="5.26894">
        <ele>408</ele>
        <time>2024-05-14T08:28:53.969Z</time>
      </trkpt>
      <trkpt lat="47.86635" lon="5.26887">
        <ele>408</ele>
        <time>2024-05-14T08:28:58.365Z</time>
      </trkpt>
      <trkpt lat="47.86632" lon="5.26884">
        <ele>408</ele>
        <time>2024-05-14T08:29:02.709Z</time>
      </trkpt>
      <trkpt lat="47.86625" lon="5.26873">
        <ele>403</ele>
        <time>2024-05-14T08:29:06.831Z</time>
      </trkpt>
      <trkpt lat="47.8662" lon="5.26868">
        <ele>401</ele>
        <time>2024-05-14T08:29:10.995Z</time>
      </trkpt>
      <trkpt lat="47.86615" lon="5.26865">
        <ele>401</ele>
        <time>2024-05-14T08:29:15.211Z</time>
      </trkpt>
      <trkpt lat="47.8661" lon="5.26863">
        <ele>401</ele>
        <time>2024-05-14T08:29:19.328Z</time>
      </trkpt>
      <trkpt lat="47.86605" lon="5.26864">
        <ele>401</ele>
        <time>2024-05-14T08:29:23.688Z</time>
      </trkpt>
      <trkpt lat="47.86599" lon="5.26864">
        <ele>401</ele>
        <time>2024-05-14T08:29:27.808Z</time>
      </trkpt>
      <trkpt lat="47.86595" lon="5.26866">
        <ele>401</ele>
        <time>2024-05-14T08:29:31.826Z</time>
      </trkpt>
      <trkpt lat="47.8659" lon="5.26867">
        <ele>401</ele>
        <time>2024-05-14T08:29:36.426Z</time>
      </trkpt>
      <trkpt lat="47.86584" lon="5.2687">
        <ele>401</ele>
        <time>2024-05-14T08:29:53.327Z</time>
      </trkpt>
      <trkpt lat="47.86579" lon="5.26873">
        <ele>401</ele>
        <time>2024-05-14T08:29:57.909Z</time>
      </trkpt>
      <trkpt lat="47.86575" lon="5.26874">
        <ele>401</ele>
        <time>2024-05-14T08:30:02.253Z</time>
      </trkpt>
      <trkpt lat="47.86572" lon="5.26876">
        <ele>407</ele>
        <time>2024-05-14T08:30:06.700Z</time>
      </trkpt>
      <trkpt lat="47.86561" lon="5.26876">
        <ele>404</ele>
        <time>2024-05-14T08:30:10.694Z</time>
      </trkpt>
      <trkpt lat="47.86557" lon="5.26876">
        <ele>404</ele>
        <time>2024-05-14T08:30:14.994Z</time>
      </trkpt>
      <trkpt lat="47.86555" lon="5.26877">
        <ele>404</ele>
        <time>2024-05-14T08:30:19.534Z</time>
      </trkpt>
      <trkpt lat="47.86555" lon="5.26877">
        <ele>404</ele>
        <time>2024-05-14T08:30:23.829Z</time>
      </trkpt>
      <trkpt lat="47.86547" lon="5.26876">
        <ele>404</ele>
        <time>2024-05-14T08:30:28.154Z</time>
      </trkpt>
      <trkpt lat="47.86543" lon="5.2687">
        <ele>398</ele>
        <time>2024-05-14T08:30:32.491Z</time>
      </trkpt>
      <trkpt lat="47.86542" lon="5.26867">
        <ele>398</ele>
        <time>2024-05-14T08:30:36.809Z</time>
      </trkpt>
      <trkpt lat="47.86538" lon="5.26861">
        <ele>395</ele>
        <time>2024-05-14T08:30:41.743Z</time>
      </trkpt>
      <trkpt lat="47.86535" lon="5.26861">
        <ele>395</ele>
        <time>2024-05-14T08:30:46.188Z</time>
      </trkpt>
      <trkpt lat="47.86529" lon="5.26858">
        <ele>395</ele>
        <time>2024-05-14T08:30:50.687Z</time>
      </trkpt>
      <trkpt lat="47.86531" lon="5.26851">
        <ele>395</ele>
        <time>2024-05-14T08:30:55.150Z</time>
      </trkpt>
      <trkpt lat="47.86532" lon="5.26847">
        <ele>392</ele>
        <time>2024-05-14T08:30:59.171Z</time>
      </trkpt>
      <trkpt lat="47.86534" lon="5.26841">
        <ele>392</ele>
        <time>2024-05-14T08:31:03.529Z</time>
      </trkpt>
      <trkpt lat="47.86539" lon="5.26835">
        <ele>392</ele>
        <time>2024-05-14T08:31:07.848Z</time>
      </trkpt>
      <trkpt lat="47.86542" lon="5.26829">
        <ele>394</ele>
        <time>2024-05-14T08:31:12.371Z</time>
      </trkpt>
      <trkpt lat="47.86546" lon="5.26824">
        <ele>394</ele>
        <time>2024-05-14T08:31:16.868Z</time>
      </trkpt>
      <trkpt lat="47.86551" lon="5.26822">
        <ele>394</ele>
        <time>2024-05-14T08:31:21.295Z</time>
      </trkpt>
      <trkpt lat="47.86555" lon="5.26821">
        <ele>394</ele>
        <time>2024-05-14T08:31:25.696Z</time>
      </trkpt>
      <trkpt lat="47.86559" lon="5.26818">
        <ele>390</ele>
        <time>2024-05-14T08:31:30.231Z</time>
      </trkpt>
      <trkpt lat="47.86562" lon="5.26813">
        <ele>390</ele>
        <time>2024-05-14T08:31:34.610Z</time>
      </trkpt>
      <trkpt lat="47.86566" lon="5.26808">
        <ele>390</ele>
        <time>2024-05-14T08:31:38.994Z</time>
      </trkpt>
      <trkpt lat="47.86571" lon="5.26805">
        <ele>392</ele>
        <time>2024-05-14T08:31:43.408Z</time>
      </trkpt>
      <trkpt lat="47.86582" lon="5.26799">
        <ele>392</ele>
        <time>2024-05-14T08:31:47.870Z</time>
      </trkpt>
      <trkpt lat="47.86587" lon="5.26795">
        <ele>392</ele>
        <time>2024-05-14T08:31:52.384Z</time>
      </trkpt>
      <trkpt lat="47.86591" lon="5.26786">
        <ele>387</ele>
        <time>2024-05-14T08:31:56.404Z</time>
      </trkpt>
      <trkpt lat="47.8659" lon="5.26776">
        <ele>387</ele>
        <time>2024-05-14T08:32:00.807Z</time>
      </trkpt>
      <trkpt lat="47.86588" lon="5.26769">
        <ele>387</ele>
        <time>2024-05-14T08:32:04.945Z</time>
      </trkpt>
      <trkpt lat="47.86585" lon="5.26761">
        <ele>384</ele>
        <time>2024-05-14T08:32:09.409Z</time>
      </trkpt>
      <trkpt lat="47.86583" lon="5.26754">
        <ele>384</ele>
        <time>2024-05-14T08:32:13.786Z</time>
      </trkpt>
      <trkpt lat="47.86582" lon="5.26745">
        <ele>384</ele>
        <time>2024-05-14T08:32:18.104Z</time>
      </trkpt>
      <trkpt lat="47.8658" lon="5.26738">
        <ele>384</ele>
        <time>2024-05-14T08:32:22.549Z</time>
      </trkpt>
      <trkpt lat="47.86578" lon="5.2673">
        <ele>380</ele>
        <time>2024-05-14T08:32:26.995Z</time>
      </trkpt>
      <trkpt lat="47.86577" lon="5.26724">
        <ele>380</ele>
        <time>2024-05-14T08:32:31.613Z</time>
      </trkpt>
      <trkpt lat="47.86577" lon="5.26715">
        <ele>380</ele>
        <time>2024-05-14T08:32:36.126Z</time>
      </trkpt>
      <trkpt lat="47.86578" lon="5.26707">
        <ele>378</ele>
        <time>2024-05-14T08:32:40.545Z</time>
      </trkpt>
      <trkpt lat="47.86576" lon="5.26699">
        <ele>378</ele>
        <time>2024-05-14T08:32:44.949Z</time>
      </trkpt>
      <trkpt lat="47.86573" lon="5.26692">
        <ele>378</ele>
        <time>2024-05-14T08:32:49.386Z</time>
      </trkpt>
      <trkpt lat="47.86571" lon="5.26686">
        <ele>378</ele>
        <time>2024-05-14T08:32:53.926Z</time>
      </trkpt>
      <trkpt lat="47.86571" lon="5.26677">
        <ele>375</ele>
        <time>2024-05-14T08:32:58.431Z</time>
      </trkpt>
      <trkpt lat="47.8657" lon="5.2667">
        <ele>375</ele>
        <time>2024-05-14T08:33:02.442Z</time>
      </trkpt>
      <trkpt lat="47.8657" lon="5.26661">
        <ele>375</ele>
        <time>2024-05-14T08:33:06.546Z</time>
      </trkpt>
      <trkpt lat="47.86571" lon="5.26653">
        <ele>375</ele>
        <time>2024-05-14T08:33:10.594Z</time>
      </trkpt>
      <trkpt lat="47.86572" lon="5.26645">
        <ele>373</ele>
        <time>2024-05-14T08:33:14.711Z</time>
      </trkpt>
      <trkpt lat="47.86573" lon="5.26639">
        <ele>373</ele>
        <time>2024-05-14T08:33:18.909Z</time>
      </trkpt>
      <trkpt lat="47.86573" lon="5.2663">
        <ele>373</ele>
        <time>2024-05-14T08:33:23.184Z</time>
      </trkpt>
      <trkpt lat="47.86573" lon="5.26622">
        <ele>371</ele>
        <time>2024-05-14T08:33:27.528Z</time>
      </trkpt>
      <trkpt lat="47.86573" lon="5.26614">
        <ele>371</ele>
        <time>2024-05-14T08:33:31.995Z</time>
      </trkpt>
      <trkpt lat="47.86573" lon="5.26607">
        <ele>371</ele>
        <time>2024-05-14T08:33:36.290Z</time>
      </trkpt>
      <trkpt lat="47.86573" lon="5.26598">
        <ele>371</ele>
        <time>2024-05-14T08:33:40.995Z</time>
      </trkpt>
      <trkpt lat="47.86574" lon="5.2659">
        <ele>368</ele>
        <time>2024-05-14T08:33:45.994Z</time>
      </trkpt>
      <trkpt lat="47.86573" lon="5.26584">
        <ele>368</ele>
        <time>2024-05-14T08:33:50.994Z</time>
      </trkpt>
      <trkpt lat="47.86569" lon="5.26579">
        <ele>366</ele>
        <time>2024-05-14T08:33:59.994Z</time>
      </trkpt>
      <trkpt lat="47.86565" lon="5.26574">
        <ele>366</ele>
        <time>2024-05-14T08:34:04.994Z</time>
      </trkpt>
      <trkpt lat="47.86559" lon="5.26567">
        <ele>365</ele>
        <time>2024-05-14T08:34:09.005Z</time>
      </trkpt>
      <trkpt lat="47.86554" lon="5.26561">
        <ele>365</ele>
        <time>2024-05-14T08:34:13.994Z</time>
      </trkpt>
      <trkpt lat="47.8655" lon="5.26554">
        <ele>365</ele>
        <time>2024-05-14T08:35:02.994Z</time>
      </trkpt>
      <trkpt lat="47.86546" lon="5.26546">
        <ele>365</ele>
        <time>2024-05-14T08:35:07.667Z</time>
      </trkpt>
      <trkpt lat="47.86544" lon="5.26539">
        <ele>363</ele>
        <time>2024-05-14T08:35:11.977Z</time>
      </trkpt>
      <trkpt lat="47.8654" lon="5.26532">
        <ele>362</ele>
        <time>2024-05-14T08:35:15.994Z</time>
      </trkpt>
      <trkpt lat="47.86538" lon="5.26524">
        <ele>362</ele>
        <time>2024-05-14T08:35:20.390Z</time>
      </trkpt>
      <trkpt lat="47.86534" lon="5.26517">
        <ele>362</ele>
        <time>2024-05-14T08:35:24.633Z</time>
      </trkpt>
      <trkpt lat="47.86531" lon="5.2651">
        <ele>360</ele>
        <time>2024-05-14T08:35:28.928Z</time>
      </trkpt>
      <trkpt lat="47.86529" lon="5.26502">
        <ele>360</ele>
        <time>2024-05-14T08:35:33.593Z</time>
      </trkpt>
      <trkpt lat="47.86527" lon="5.26494">
        <ele>360</ele>
        <time>2024-05-14T08:35:37.897Z</time>
      </trkpt>
      <trkpt lat="47.86526" lon="5.26486">
        <ele>357</ele>
        <time>2024-05-14T08:35:41.994Z</time>
      </trkpt>
      <trkpt lat="47.86525" lon="5.26479">
        <ele>357</ele>
        <time>2024-05-14T08:35:46.288Z</time>
      </trkpt>
      <trkpt lat="47.86522" lon="5.26471">
        <ele>357</ele>
        <time>2024-05-14T08:35:50.365Z</time>
      </trkpt>
      <trkpt lat="47.8652" lon="5.26463">
        <ele>357</ele>
        <time>2024-05-14T08:35:54.652Z</time>
      </trkpt>
      <trkpt lat="47.86518" lon="5.26456">
        <ele>355</ele>
        <time>2024-05-14T08:35:58.989Z</time>
      </trkpt>
      <trkpt lat="47.86516" lon="5.26449">
        <ele>355</ele>
        <time>2024-05-14T08:36:03.386Z</time>
      </trkpt>
      <trkpt lat="47.86515" lon="5.26442">
        <ele>355</ele>
        <time>2024-05-14T08:36:07.994Z</time>
      </trkpt>
      <trkpt lat="47.86513" lon="5.26436">
        <ele>356</ele>
        <time>2024-05-14T08:36:12.411Z</time>
      </trkpt>
      <trkpt lat="47.86511" lon="5.26429">
        <ele>355</ele>
        <time>2024-05-14T08:36:16.815Z</time>
      </trkpt>
      <trkpt lat="47.8651" lon="5.26425">
        <ele>355</ele>
        <time>2024-05-14T08:36:20.994Z</time>
      </trkpt>
      <trkpt lat="47.86509" lon="5.26425">
        <ele>355</ele>
        <time>2024-05-14T08:36:25.648Z</time>
      </trkpt>
      <trkpt lat="47.86503" lon="5.26426">
        <ele>355</ele>
        <time>2024-05-14T08:36:28.259Z</time>
      </trkpt>
      <trkpt lat="47.86505" lon="5.26418">
        <ele>355</ele>
        <time>2024-05-14T08:36:37.285Z</time>
      </trkpt>
      <trkpt lat="47.86505" lon="5.26412">
        <ele>355</ele>
        <time>2024-05-14T08:36:41.423Z</time>
      </trkpt>
      <trkpt lat="47.86503" lon="5.26407">
        <ele>355</ele>
        <time>2024-05-14T08:36:46.016Z</time>
      </trkpt>
      <trkpt lat="47.86503" lon="5.26405">
        <ele>355</ele>
        <time>2024-05-14T08:36:50.590Z</time>
      </trkpt>
      <trkpt lat="47.86503" lon="5.26403">
        <ele>353</ele>
        <time>2024-05-14T08:36:54.865Z</time>
      </trkpt>
      <trkpt lat="47.86503" lon="5.26403">
        <ele>353</ele>
        <time>2024-05-14T08:36:59.328Z</time>
      </trkpt>
      <trkpt lat="47.86504" lon="5.26408">
        <ele>355</ele>
        <time>2024-05-14T08:37:03.527Z</time>
      </trkpt>
      <trkpt lat="47.86505" lon="5.26417">
        <ele>355</ele>
        <time>2024-05-14T08:37:07.828Z</time>
      </trkpt>
      <trkpt lat="47.86508" lon="5.26424">
        <ele>355</ele>
        <time>2024-05-14T08:37:11.993Z</time>
      </trkpt>
      <trkpt lat="47.86509" lon="5.26432">
        <ele>356</ele>
        <time>2024-05-14T08:37:16.651Z</time>
      </trkpt>
      <trkpt lat="47.86512" lon="5.2644">
        <ele>356</ele>
        <time>2024-05-14T08:37:20.993Z</time>
      </trkpt>
      <trkpt lat="47.86515" lon="5.26447">
        <ele>355</ele>
        <time>2024-05-14T08:37:25.329Z</time>
      </trkpt>
      <trkpt lat="47.86516" lon="5.26454">
        <ele>355</ele>
        <time>2024-05-14T08:37:29.769Z</time>
      </trkpt>
      <trkpt lat="47.86521" lon="5.2646">
        <ele>357</ele>
        <time>2024-05-14T08:37:34.008Z</time>
      </trkpt>
      <trkpt lat="47.86522" lon="5.26467">
        <ele>357</ele>
        <time>2024-05-14T08:37:38.709Z</time>
      </trkpt>
      <trkpt lat="47.86524" lon="5.26475">
        <ele>357</ele>
        <time>2024-05-14T08:37:43.634Z</time>
      </trkpt>
      <trkpt lat="47.86525" lon="5.26482">
        <ele>357</ele>
        <time>2024-05-14T08:37:47.993Z</time>
      </trkpt>
      <trkpt lat="47.86526" lon="5.26489">
        <ele>360</ele>
        <time>2024-05-14T08:37:52.993Z</time>
      </trkpt>
      <trkpt lat="47.86527" lon="5.26496">
        <ele>360</ele>
        <time>2024-05-14T08:37:57.227Z</time>
      </trkpt>
      <trkpt lat="47.86527" lon="5.26502">
        <ele>360</ele>
        <time>2024-05-14T08:38:01.886Z</time>
      </trkpt>
      <trkpt lat="47.86529" lon="5.26511">
        <ele>360</ele>
        <time>2024-05-14T08:38:05.931Z</time>
      </trkpt>
      <trkpt lat="47.86532" lon="5.26518">
        <ele>362</ele>
        <time>2024-05-14T08:38:10.619Z</time>
      </trkpt>
      <trkpt lat="47.86535" lon="5.26526">
        <ele>362</ele>
        <time>2024-05-14T08:38:14.686Z</time>
      </trkpt>
      <trkpt lat="47.86539" lon="5.26529">
        <ele>362</ele>
        <time>2024-05-14T08:38:18.790Z</time>
      </trkpt>
      <trkpt lat="47.86542" lon="5.2654">
        <ele>363</ele>
        <time>2024-05-14T08:38:22.993Z</time>
      </trkpt>
      <trkpt lat="47.86544" lon="5.26543">
        <ele>365</ele>
        <time>2024-05-14T08:38:27.690Z</time>
      </trkpt>
      <trkpt lat="47.8655" lon="5.26555">
        <ele>365</ele>
        <time>2024-05-14T08:38:31.846Z</time>
      </trkpt>
      <trkpt lat="47.86554" lon="5.26559">
        <ele>365</ele>
        <time>2024-05-14T08:38:36.190Z</time>
      </trkpt>
      <trkpt lat="47.86557" lon="5.26566">
        <ele>365</ele>
        <time>2024-05-14T08:38:40.474Z</time>
      </trkpt>
      <trkpt lat="47.86559" lon="5.26572">
        <ele>366</ele>
        <time>2024-05-14T08:38:44.993Z</time>
      </trkpt>
      <trkpt lat="47.86556" lon="5.26577">
        <ele>366</ele>
        <time>2024-05-14T08:38:49.091Z</time>
      </trkpt>
      <trkpt lat="47.86546" lon="5.26573">
        <ele>366</ele>
        <time>2024-05-14T08:38:53.570Z</time>
      </trkpt>
      <trkpt lat="47.86541" lon="5.26574">
        <ele>364</ele>
        <time>2024-05-14T08:38:57.608Z</time>
      </trkpt>
      <trkpt lat="47.86537" lon="5.26577">
        <ele>364</ele>
        <time>2024-05-14T08:39:01.993Z</time>
      </trkpt>
      <trkpt lat="47.86529" lon="5.26572">
        <ele>364</ele>
        <time>2024-05-14T08:39:06.690Z</time>
      </trkpt>
      <trkpt lat="47.86522" lon="5.26572">
        <ele>364</ele>
        <time>2024-05-14T08:39:10.993Z</time>
      </trkpt>
      <trkpt lat="47.86517" lon="5.26571">
        <ele>364</ele>
        <time>2024-05-14T08:39:15.360Z</time>
      </trkpt>
      <trkpt lat="47.86511" lon="5.2657">
        <ele>364</ele>
        <time>2024-05-14T08:39:19.994Z</time>
      </trkpt>
      <trkpt lat="47.86506" lon="5.26569">
        <ele>363</ele>
        <time>2024-05-14T08:39:24.532Z</time>
      </trkpt>
      <trkpt lat="47.865" lon="5.26568">
        <ele>363</ele>
        <time>2024-05-14T08:39:28.627Z</time>
      </trkpt>
      <trkpt lat="47.86494" lon="5.26569">
        <ele>363</ele>
        <time>2024-05-14T08:39:32.993Z</time>
      </trkpt>
      <trkpt lat="47.86487" lon="5.2657">
        <ele>364</ele>
        <time>2024-05-14T08:39:37.569Z</time>
      </trkpt>
      <trkpt lat="47.86482" lon="5.2657">
        <ele>364</ele>
        <time>2024-05-14T08:39:41.993Z</time>
      </trkpt>
      <trkpt lat="47.86475" lon="5.2657">
        <ele>364</ele>
        <time>2024-05-14T08:39:46.993Z</time>
      </trkpt>
      <trkpt lat="47.86469" lon="5.26572">
        <ele>364</ele>
        <time>2024-05-14T08:39:51.994Z</time>
      </trkpt>
      <trkpt lat="47.86464" lon="5.26574">
        <ele>364</ele>
        <time>2024-05-14T08:39:56.366Z</time>
      </trkpt>
      <trkpt lat="47.86458" lon="5.26574">
        <ele>364</ele>
        <time>2024-05-14T08:40:00.993Z</time>
      </trkpt>
      <trkpt lat="47.86452" lon="5.26575">
        <ele>362</ele>
        <time>2024-05-14T08:40:05.429Z</time>
      </trkpt>
      <trkpt lat="47.86446" lon="5.26574">
        <ele>362</ele>
        <time>2024-05-14T08:40:09.933Z</time>
      </trkpt>
      <trkpt lat="47.8644" lon="5.26576">
        <ele>362</ele>
        <time>2024-05-14T08:40:14.728Z</time>
      </trkpt>
      <trkpt lat="47.86434" lon="5.26579">
        <ele>362</ele>
        <time>2024-05-14T08:40:18.993Z</time>
      </trkpt>
      <trkpt lat="47.86427" lon="5.2658">
        <ele>362</ele>
        <time>2024-05-14T08:40:23.791Z</time>
      </trkpt>
      <trkpt lat="47.86422" lon="5.26582">
        <ele>362</ele>
        <time>2024-05-14T08:40:28.646Z</time>
      </trkpt>
      <trkpt lat="47.86416" lon="5.26583">
        <ele>362</ele>
        <time>2024-05-14T08:40:32.993Z</time>
      </trkpt>
      <trkpt lat="47.86411" lon="5.26582">
        <ele>362</ele>
        <time>2024-05-14T08:40:37.333Z</time>
      </trkpt>
      <trkpt lat="47.86405" lon="5.2658">
        <ele>362</ele>
        <time>2024-05-14T08:40:41.694Z</time>
      </trkpt>
      <trkpt lat="47.86401" lon="5.26579">
        <ele>363</ele>
        <time>2024-05-14T08:40:45.891Z</time>
      </trkpt>
      <trkpt lat="47.86396" lon="5.26575">
        <ele>363</ele>
        <time>2024-05-14T08:40:49.994Z</time>
      </trkpt>
      <trkpt lat="47.86392" lon="5.26569">
        <ele>360</ele>
        <time>2024-05-14T08:40:54.586Z</time>
      </trkpt>
      <trkpt lat="47.86388" lon="5.26563">
        <ele>360</ele>
        <time>2024-05-14T08:40:58.993Z</time>
      </trkpt>
      <trkpt lat="47.86384" lon="5.26556">
        <ele>360</ele>
        <time>2024-05-14T08:41:03.529Z</time>
      </trkpt>
      <trkpt lat="47.86383" lon="5.26549">
        <ele>360</ele>
        <time>2024-05-14T08:41:07.814Z</time>
      </trkpt>
      <trkpt lat="47.86384" lon="5.26547">
        <ele>360</ele>
        <time>2024-05-14T08:41:11.993Z</time>
      </trkpt>
      <trkpt lat="47.86381" lon="5.26533">
        <ele>358</ele>
        <time>2024-05-14T08:41:16.534Z</time>
      </trkpt>
      <trkpt lat="47.86377" lon="5.26524">
        <ele>358</ele>
        <time>2024-05-14T08:41:20.993Z</time>
      </trkpt>
      <trkpt lat="47.86375" lon="5.26517">
        <ele>358</ele>
        <time>2024-05-14T08:41:25.569Z</time>
      </trkpt>
      <trkpt lat="47.86373" lon="5.26509">
        <ele>357</ele>
        <time>2024-05-14T08:41:29.989Z</time>
      </trkpt>
      <trkpt lat="47.8637" lon="5.26501">
        <ele>357</ele>
        <time>2024-05-14T08:41:34.750Z</time>
      </trkpt>
      <trkpt lat="47.86366" lon="5.26494">
        <ele>357</ele>
        <time>2024-05-14T08:41:39.691Z</time>
      </trkpt>
      <trkpt lat="47.86365" lon="5.26486">
        <ele>357</ele>
        <time>2024-05-14T08:41:43.850Z</time>
      </trkpt>
      <trkpt lat="47.86364" lon="5.26477">
        <ele>357</ele>
        <time>2024-05-14T08:41:47.993Z</time>
      </trkpt>
      <trkpt lat="47.86363" lon="5.26469">
        <ele>357</ele>
        <time>2024-05-14T08:41:52.594Z</time>
      </trkpt>
      <trkpt lat="47.86364" lon="5.26462">
        <ele>357</ele>
        <time>2024-05-14T08:41:56.993Z</time>
      </trkpt>
      <trkpt lat="47.86362" lon="5.26457">
        <ele>357</ele>
        <time>2024-05-14T08:42:01.553Z</time>
      </trkpt>
      <trkpt lat="47.8636" lon="5.26451">
        <ele>357</ele>
        <time>2024-05-14T08:42:05.990Z</time>
      </trkpt>
      <trkpt lat="47.86359" lon="5.26443">
        <ele>357</ele>
        <time>2024-05-14T08:42:10.334Z</time>
      </trkpt>
      <trkpt lat="47.86358" lon="5.26436">
        <ele>357</ele>
        <time>2024-05-14T08:42:14.846Z</time>
      </trkpt>
      <trkpt lat="47.86356" lon="5.26427">
        <ele>358</ele>
        <time>2024-05-14T08:42:19.351Z</time>
      </trkpt>
      <trkpt lat="47.86354" lon="5.26419">
        <ele>358</ele>
        <time>2024-05-14T08:42:23.711Z</time>
      </trkpt>
      <trkpt lat="47.86352" lon="5.26412">
        <ele>358</ele>
        <time>2024-05-14T08:42:27.993Z</time>
      </trkpt>
      <trkpt lat="47.86351" lon="5.26404">
        <ele>358</ele>
        <time>2024-05-14T08:42:32.374Z</time>
      </trkpt>
      <trkpt lat="47.86348" lon="5.26396">
        <ele>361</ele>
        <time>2024-05-14T08:42:37.015Z</time>
      </trkpt>
      <trkpt lat="47.86346" lon="5.26388">
        <ele>362</ele>
        <time>2024-05-14T08:42:41.529Z</time>
      </trkpt>
      <trkpt lat="47.86344" lon="5.26381">
        <ele>362</ele>
        <time>2024-05-14T08:42:45.797Z</time>
      </trkpt>
      <trkpt lat="47.86342" lon="5.26372">
        <ele>364</ele>
        <time>2024-05-14T08:42:49.892Z</time>
      </trkpt>
      <trkpt lat="47.8634" lon="5.26365">
        <ele>364</ele>
        <time>2024-05-14T08:42:53.993Z</time>
      </trkpt>
      <trkpt lat="47.86336" lon="5.26357">
        <ele>364</ele>
        <time>2024-05-14T08:42:58.449Z</time>
      </trkpt>
      <trkpt lat="47.86333" lon="5.26351">
        <ele>364</ele>
        <time>2024-05-14T08:43:02.629Z</time>
      </trkpt>
      <trkpt lat="47.86329" lon="5.26345">
        <ele>366</ele>
        <time>2024-05-14T08:43:06.809Z</time>
      </trkpt>
      <trkpt lat="47.86325" lon="5.26338">
        <ele>366</ele>
        <time>2024-05-14T08:43:10.948Z</time>
      </trkpt>
      <trkpt lat="47.86321" lon="5.26331">
        <ele>366</ele>
        <time>2024-05-14T08:43:15.993Z</time>
      </trkpt>
      <trkpt lat="47.86318" lon="5.26324">
        <ele>367</ele>
        <time>2024-05-14T08:43:20.769Z</time>
      </trkpt>
      <trkpt lat="47.8632" lon="5.26316">
        <ele>368</ele>
        <time>2024-05-14T08:43:24.993Z</time>
      </trkpt>
      <trkpt lat="47.86325" lon="5.26313">
        <ele>368</ele>
        <time>2024-05-14T08:43:29.562Z</time>
      </trkpt>
      <trkpt lat="47.86332" lon="5.26314">
        <ele>368</ele>
        <time>2024-05-14T08:43:33.774Z</time>
      </trkpt>
      <trkpt lat="47.86338" lon="5.26317">
        <ele>368</ele>
        <time>2024-05-14T08:43:38.329Z</time>
      </trkpt>
      <trkpt lat="47.86344" lon="5.26317">
        <ele>368</ele>
        <time>2024-05-14T08:43:42.993Z</time>
      </trkpt>
      <trkpt lat="47.8635" lon="5.26318">
        <ele>371</ele>
        <time>2024-05-14T08:43:47.007Z</time>
      </trkpt>
      <trkpt lat="47.86356" lon="5.26321">
        <ele>367</ele>
        <time>2024-05-14T08:43:51.214Z</time>
      </trkpt>
      <trkpt lat="47.86362" lon="5.26323">
        <ele>367</ele>
        <time>2024-05-14T08:43:55.994Z</time>
      </trkpt>
      <trkpt lat="47.86367" lon="5.26324">
        <ele>367</ele>
        <time>2024-05-14T08:44:00.326Z</time>
      </trkpt>
      <trkpt lat="47.86373" lon="5.26325">
        <ele>367</ele>
        <time>2024-05-14T08:44:04.993Z</time>
      </trkpt>
      <trkpt lat="47.86379" lon="5.26325">
        <ele>368</ele>
        <time>2024-05-14T08:44:09.448Z</time>
      </trkpt>
      <trkpt lat="47.86383" lon="5.26317">
        <ele>372</ele>
        <time>2024-05-14T08:44:13.993Z</time>
      </trkpt>
      <trkpt lat="47.86384" lon="5.26309">
        <ele>372</ele>
        <time>2024-05-14T08:44:18.611Z</time>
      </trkpt>
      <trkpt lat="47.8638" lon="5.26301">
        <ele>372</ele>
        <time>2024-05-14T08:44:22.992Z</time>
      </trkpt>
      <trkpt lat="47.86378" lon="5.26295">
        <ele>372</ele>
        <time>2024-05-14T08:44:27.809Z</time>
      </trkpt>
      <trkpt lat="47.86375" lon="5.26289">
        <ele>375</ele>
        <time>2024-05-14T08:44:31.992Z</time>
      </trkpt>
      <trkpt lat="47.86376" lon="5.26282">
        <ele>375</ele>
        <time>2024-05-14T08:44:36.349Z</time>
      </trkpt>
      <trkpt lat="47.86378" lon="5.26276">
        <ele>375</ele>
        <time>2024-05-14T08:44:40.992Z</time>
      </trkpt>
      <trkpt lat="47.86381" lon="5.2627">
        <ele>375</ele>
        <time>2024-05-14T08:44:45.814Z</time>
      </trkpt>
      <trkpt lat="47.86383" lon="5.26268">
        <ele>375</ele>
        <time>2024-05-14T08:44:50.992Z</time>
      </trkpt>
      <trkpt lat="47.86385" lon="5.26263">
        <ele>377</ele>
        <time>2024-05-14T08:45:36.469Z</time>
      </trkpt>
      <trkpt lat="47.86388" lon="5.26259">
        <ele>377</ele>
        <time>2024-05-14T08:45:40.650Z</time>
      </trkpt>
      <trkpt lat="47.8639" lon="5.26256">
        <ele>377</ele>
        <time>2024-05-14T08:45:44.729Z</time>
      </trkpt>
      <trkpt lat="47.86393" lon="5.26253">
        <ele>377</ele>
        <time>2024-05-14T08:45:48.993Z</time>
      </trkpt>
      <trkpt lat="47.86397" lon="5.26249">
        <ele>377</ele>
        <time>2024-05-14T08:45:53.449Z</time>
      </trkpt>
      <trkpt lat="47.86401" lon="5.26245">
        <ele>377</ele>
        <time>2024-05-14T08:45:57.992Z</time>
      </trkpt>
      <trkpt lat="47.86403" lon="5.26238">
        <ele>374</ele>
        <time>2024-05-14T08:46:02.993Z</time>
      </trkpt>
      <trkpt lat="47.86405" lon="5.26231">
        <ele>378</ele>
        <time>2024-05-14T08:46:07.835Z</time>
      </trkpt>
      <trkpt lat="47.86406" lon="5.26224">
        <ele>378</ele>
        <time>2024-05-14T08:46:11.993Z</time>
      </trkpt>
      <trkpt lat="47.86407" lon="5.26216">
        <ele>378</ele>
        <time>2024-05-14T08:46:16.993Z</time>
      </trkpt>
      <trkpt lat="47.86407" lon="5.26208">
        <ele>383</ele>
        <time>2024-05-14T08:46:21.571Z</time>
      </trkpt>
      <trkpt lat="47.86406" lon="5.26201">
        <ele>383</ele>
        <time>2024-05-14T08:46:25.607Z</time>
      </trkpt>
      <trkpt lat="47.86401" lon="5.26198">
        <ele>386</ele>
        <time>2024-05-14T08:46:29.934Z</time>
      </trkpt>
      <trkpt lat="47.86394" lon="5.26197">
        <ele>386</ele>
        <time>2024-05-14T08:46:33.992Z</time>
      </trkpt>
      <trkpt lat="47.86388" lon="5.26199">
        <ele>386</ele>
        <time>2024-05-14T08:46:38.610Z</time>
      </trkpt>
      <trkpt lat="47.86382" lon="5.26203">
        <ele>386</ele>
        <time>2024-05-14T08:46:42.928Z</time>
      </trkpt>
      <trkpt lat="47.86377" lon="5.26205">
        <ele>386</ele>
        <time>2024-05-14T08:46:46.992Z</time>
      </trkpt>
      <trkpt lat="47.86372" lon="5.26207">
        <ele>389</ele>
        <time>2024-05-14T08:46:51.992Z</time>
      </trkpt>
      <trkpt lat="47.86366" lon="5.26205">
        <ele>389</ele>
        <time>2024-05-14T08:46:56.591Z</time>
      </trkpt>
      <trkpt lat="47.86361" lon="5.26202">
        <ele>389</ele>
        <time>2024-05-14T08:47:01.008Z</time>
      </trkpt>
      <trkpt lat="47.86356" lon="5.262">
        <ele>389</ele>
        <time>2024-05-14T08:47:05.334Z</time>
      </trkpt>
      <trkpt lat="47.86354" lon="5.26196">
        <ele>389</ele>
        <time>2024-05-14T08:47:09.505Z</time>
      </trkpt>
      <trkpt lat="47.86351" lon="5.26195">
        <ele>389</ele>
        <time>2024-05-14T08:47:13.626Z</time>
      </trkpt>
      <trkpt lat="47.86345" lon="5.26194">
        <ele>391</ele>
        <time>2024-05-14T08:47:17.671Z</time>
      </trkpt>
      <trkpt lat="47.86339" lon="5.26192">
        <ele>391</ele>
        <time>2024-05-14T08:47:21.912Z</time>
      </trkpt>
      <trkpt lat="47.86334" lon="5.26189">
        <ele>391</ele>
        <time>2024-05-14T08:47:25.992Z</time>
      </trkpt>
      <trkpt lat="47.86329" lon="5.26173">
        <ele>398</ele>
        <time>2024-05-14T08:47:29.993Z</time>
      </trkpt>
      <trkpt lat="47.86325" lon="5.2617">
        <ele>398</ele>
        <time>2024-05-14T08:47:34.966Z</time>
      </trkpt>
      <trkpt lat="47.86322" lon="5.26171">
        <ele>398</ele>
        <time>2024-05-14T08:47:38.993Z</time>
      </trkpt>
      <trkpt lat="47.86317" lon="5.26174">
        <ele>401</ele>
        <time>2024-05-14T08:47:43.549Z</time>
      </trkpt>
      <trkpt lat="47.86312" lon="5.26176">
        <ele>401</ele>
        <time>2024-05-14T08:47:47.688Z</time>
      </trkpt>
      <trkpt lat="47.86306" lon="5.26178">
        <ele>401</ele>
        <time>2024-05-14T08:47:52.406Z</time>
      </trkpt>
      <trkpt lat="47.863" lon="5.2618">
        <ele>401</ele>
        <time>2024-05-14T08:47:56.554Z</time>
      </trkpt>
      <trkpt lat="47.86295" lon="5.26184">
        <ele>393</ele>
        <time>2024-05-14T08:48:00.653Z</time>
      </trkpt>
      <trkpt lat="47.86289" lon="5.26185">
        <ele>396</ele>
        <time>2024-05-14T08:48:04.871Z</time>
      </trkpt>
      <trkpt lat="47.86283" lon="5.26187">
        <ele>396</ele>
        <time>2024-05-14T08:48:08.992Z</time>
      </trkpt>
      <trkpt lat="47.86277" lon="5.26189">
        <ele>396</ele>
        <time>2024-05-14T08:48:13.992Z</time>
      </trkpt>
      <trkpt lat="47.86271" lon="5.26191">
        <ele>396</ele>
        <time>2024-05-14T08:48:18.992Z</time>
      </trkpt>
      <trkpt lat="47.86266" lon="5.26188">
        <ele>396</ele>
        <time>2024-05-14T08:48:23.992Z</time>
      </trkpt>
      <trkpt lat="47.86261" lon="5.26187">
        <ele>397</ele>
        <time>2024-05-14T08:48:28.770Z</time>
      </trkpt>
      <trkpt lat="47.86255" lon="5.26186">
        <ele>397</ele>
        <time>2024-05-14T08:48:32.992Z</time>
      </trkpt>
      <trkpt lat="47.86249" lon="5.26185">
        <ele>397</ele>
        <time>2024-05-14T08:48:37.789Z</time>
      </trkpt>
      <trkpt lat="47.86244" lon="5.26184">
        <ele>397</ele>
        <time>2024-05-14T08:48:41.992Z</time>
      </trkpt>
      <trkpt lat="47.86238" lon="5.26185">
        <ele>397</ele>
        <time>2024-05-14T08:48:46.970Z</time>
      </trkpt>
      <trkpt lat="47.86232" lon="5.26183">
        <ele>396</ele>
        <time>2024-05-14T08:48:51.048Z</time>
      </trkpt>
      <trkpt lat="47.86225" lon="5.26182">
        <ele>396</ele>
        <time>2024-05-14T08:48:55.647Z</time>
      </trkpt>
      <trkpt lat="47.8622" lon="5.26181">
        <ele>396</ele>
        <time>2024-05-14T08:48:59.751Z</time>
      </trkpt>
      <trkpt lat="47.86215" lon="5.26179">
        <ele>404</ele>
        <time>2024-05-14T08:49:03.993Z</time>
      </trkpt>
      <trkpt lat="47.86209" lon="5.26176">
        <ele>404</ele>
        <time>2024-05-14T08:49:08.351Z</time>
      </trkpt>
      <trkpt lat="47.86204" lon="5.26176">
        <ele>403</ele>
        <time>2024-05-14T08:49:12.771Z</time>
      </trkpt>
      <trkpt lat="47.86198" lon="5.26175">
        <ele>403</ele>
        <time>2024-05-14T08:49:58.993Z</time>
      </trkpt>
      <trkpt lat="47.86193" lon="5.26174">
        <ele>403</ele>
        <time>2024-05-14T08:50:02.992Z</time>
      </trkpt>
      <trkpt lat="47.86189" lon="5.26172">
        <ele>403</ele>
        <time>2024-05-14T08:50:07.905Z</time>
      </trkpt>
      <trkpt lat="47.86182" lon="5.26169">
        <ele>403</ele>
        <time>2024-05-14T08:50:11.993Z</time>
      </trkpt>
      <trkpt lat="47.86178" lon="5.26168">
        <ele>399</ele>
        <time>2024-05-14T08:50:16.992Z</time>
      </trkpt>
      <trkpt lat="47.86172" lon="5.26165">
        <ele>399</ele>
        <time>2024-05-14T08:50:22.001Z</time>
      </trkpt>
      <trkpt lat="47.86167" lon="5.26162">
        <ele>399</ele>
        <time>2024-05-14T08:50:26.993Z</time>
      </trkpt>
      <trkpt lat="47.86161" lon="5.26159">
        <ele>399</ele>
        <time>2024-05-14T08:50:31.574Z</time>
      </trkpt>
      <trkpt lat="47.86156" lon="5.26156">
        <ele>399</ele>
        <time>2024-05-14T08:50:35.626Z</time>
      </trkpt>
      <trkpt lat="47.86151" lon="5.26154">
        <ele>395</ele>
        <time>2024-05-14T08:50:39.954Z</time>
      </trkpt>
      <trkpt lat="47.86146" lon="5.26152">
        <ele>400</ele>
        <time>2024-05-14T08:51:01.974Z</time>
      </trkpt>
      <trkpt lat="47.86142" lon="5.26149">
        <ele>400</ele>
        <time>2024-05-14T08:51:05.993Z</time>
      </trkpt>
      <trkpt lat="47.86137" lon="5.26145">
        <ele>400</ele>
        <time>2024-05-14T08:51:10.890Z</time>
      </trkpt>
      <trkpt lat="47.86137" lon="5.26146">
        <ele>400</ele>
        <time>2024-05-14T08:51:15.354Z</time>
      </trkpt>
      <trkpt lat="47.86138" lon="5.26146">
        <ele>400</ele>
        <time>2024-05-14T08:51:19.992Z</time>
      </trkpt>
      <trkpt lat="47.86136" lon="5.26144">
        <ele>400</ele>
        <time>2024-05-14T08:51:24.992Z</time>
      </trkpt>
      <trkpt lat="47.86131" lon="5.2614">
        <ele>400</ele>
        <time>2024-05-14T08:51:29.355Z</time>
      </trkpt>
      <trkpt lat="47.86126" lon="5.26135">
        <ele>400</ele>
        <time>2024-05-14T08:51:33.389Z</time>
      </trkpt>
      <trkpt lat="47.86122" lon="5.26132">
        <ele>395</ele>
        <time>2024-05-14T08:51:37.437Z</time>
      </trkpt>
      <trkpt lat="47.86117" lon="5.26128">
        <ele>395</ele>
        <time>2024-05-14T08:51:41.734Z</time>
      </trkpt>
      <trkpt lat="47.86113" lon="5.26125">
        <ele>399</ele>
        <time>2024-05-14T08:51:45.769Z</time>
      </trkpt>
      <trkpt lat="47.86108" lon="5.2612">
        <ele>399</ele>
        <time>2024-05-14T08:51:50.214Z</time>
      </trkpt>
      <trkpt lat="47.86105" lon="5.26115">
        <ele>399</ele>
        <time>2024-05-14T08:51:54.992Z</time>
      </trkpt>
      <trkpt lat="47.86101" lon="5.26111">
        <ele>399</ele>
        <time>2024-05-14T08:51:59.634Z</time>
      </trkpt>
      <trkpt lat="47.86098" lon="5.26107">
        <ele>399</ele>
        <time>2024-05-14T08:52:03.992Z</time>
      </trkpt>
      <trkpt lat="47.86095" lon="5.26103">
        <ele>395</ele>
        <time>2024-05-14T08:52:08.610Z</time>
      </trkpt>
      <trkpt lat="47.86088" lon="5.26094">
        <ele>400</ele>
        <time>2024-05-14T08:52:12.993Z</time>
      </trkpt>
      <trkpt lat="47.86087" lon="5.26089">
        <ele>400</ele>
        <time>2024-05-14T08:52:17.654Z</time>
      </trkpt>
      <trkpt lat="47.86083" lon="5.26085">
        <ele>400</ele>
        <time>2024-05-14T08:52:21.993Z</time>
      </trkpt>
      <trkpt lat="47.86079" lon="5.26082">
        <ele>400</ele>
        <time>2024-05-14T08:52:26.297Z</time>
      </trkpt>
      <trkpt lat="47.86076" lon="5.26085">
        <ele>400</ele>
        <time>2024-05-14T08:52:30.511Z</time>
      </trkpt>
      <trkpt lat="47.86076" lon="5.26085">
        <ele>400</ele>
        <time>2024-05-14T08:52:34.993Z</time>
      </trkpt>
      <trkpt lat="47.86076" lon="5.26085">
        <ele>400</ele>
        <time>2024-05-14T08:52:39.112Z</time>
      </trkpt>
      <trkpt lat="47.86076" lon="5.26085">
        <ele>400</ele>
        <time>2024-05-14T08:52:43.992Z</time>
      </trkpt>
      <trkpt lat="47.86074" lon="5.26085">
        <ele>400</ele>
        <time>2024-05-14T08:52:48.992Z</time>
      </trkpt>
      <trkpt lat="47.86065" lon="5.26074">
        <ele>396</ele>
        <time>2024-05-14T08:52:53.874Z</time>
      </trkpt>
      <trkpt lat="47.86058" lon="5.26064">
        <ele>400</ele>
        <time>2024-05-14T08:52:57.908Z</time>
      </trkpt>
      <trkpt lat="47.86056" lon="5.26059">
        <ele>400</ele>
        <time>2024-05-14T08:53:02.013Z</time>
      </trkpt>
      <trkpt lat="47.8605" lon="5.26054">
        <ele>400</ele>
        <time>2024-05-14T08:53:06.134Z</time>
      </trkpt>
      <trkpt lat="47.86044" lon="5.26057">
        <ele>400</ele>
        <time>2024-05-14T08:53:10.211Z</time>
      </trkpt>
      <trkpt lat="47.86039" lon="5.26055">
        <ele>395</ele>
        <time>2024-05-14T08:53:14.306Z</time>
      </trkpt>
      <trkpt lat="47.86037" lon="5.26051">
        <ele>395</ele>
        <time>2024-05-14T08:53:18.872Z</time>
      </trkpt>
      <trkpt lat="47.86032" lon="5.26048">
        <ele>395</ele>
        <time>2024-05-14T08:53:22.907Z</time>
      </trkpt>
      <trkpt lat="47.86029" lon="5.26044">
        <ele>395</ele>
        <time>2024-05-14T08:53:27.934Z</time>
      </trkpt>
      <trkpt lat="47.86026" lon="5.2604">
        <ele>400</ele>
        <time>2024-05-14T08:53:31.993Z</time>
      </trkpt>
      <trkpt lat="47.86023" lon="5.26035">
        <ele>400</ele>
        <time>2024-05-14T08:53:36.562Z</time>
      </trkpt>
      <trkpt lat="47.8602" lon="5.26031">
        <ele>400</ele>
        <time>2024-05-14T08:53:40.654Z</time>
      </trkpt>
      <trkpt lat="47.86019" lon="5.26026">
        <ele>400</ele>
        <time>2024-05-14T08:53:45.194Z</time>
      </trkpt>
      <trkpt lat="47.86018" lon="5.26024">
        <ele>400</ele>
        <time>2024-05-14T08:53:49.228Z</time>
      </trkpt>
      <trkpt lat="47.86014" lon="5.26017">
        <ele>400</ele>
        <time>2024-05-14T08:53:53.992Z</time>
      </trkpt>
      <trkpt lat="47.8601" lon="5.26011">
        <ele>400</ele>
        <time>2024-05-14T08:53:58.274Z</time>
      </trkpt>
      <trkpt lat="47.86007" lon="5.26005">
        <ele>400</ele>
        <time>2024-05-14T08:54:12.231Z</time>
      </trkpt>
      <trkpt lat="47.86002" lon="5.25999">
        <ele>400</ele>
        <time>2024-05-14T08:54:16.471Z</time>
      </trkpt>
      <trkpt lat="47.85998" lon="5.25991">
        <ele>400</ele>
        <time>2024-05-14T08:54:20.992Z</time>
      </trkpt>
      <trkpt lat="47.85995" lon="5.25985">
        <ele>405</ele>
        <time>2024-05-14T08:54:25.991Z</time>
      </trkpt>
      <trkpt lat="47.85992" lon="5.25979">
        <ele>405</ele>
        <time>2024-05-14T08:54:30.134Z</time>
      </trkpt>
      <trkpt lat="47.85988" lon="5.25973">
        <ele>405</ele>
        <time>2024-05-14T08:54:34.991Z</time>
      </trkpt>
      <trkpt lat="47.85985" lon="5.25966">
        <ele>400</ele>
        <time>2024-05-14T08:54:39.730Z</time>
      </trkpt>
      <trkpt lat="47.85982" lon="5.2596">
        <ele>400</ele>
        <time>2024-05-14T08:54:44.372Z</time>
      </trkpt>
      <trkpt lat="47.85978" lon="5.25953">
        <ele>405</ele>
        <time>2024-05-14T08:54:48.569Z</time>
      </trkpt>
      <trkpt lat="47.85975" lon="5.25946">
        <ele>405</ele>
        <time>2024-05-14T08:54:52.675Z</time>
      </trkpt>
      <trkpt lat="47.8597" lon="5.2594">
        <ele>405</ele>
        <time>2024-05-14T08:54:56.692Z</time>
      </trkpt>
      <trkpt lat="47.85967" lon="5.25934">
        <ele>405</ele>
        <time>2024-05-14T08:55:00.992Z</time>
      </trkpt>
      <trkpt lat="47.85963" lon="5.25928">
        <ele>408</ele>
        <time>2024-05-14T08:55:05.174Z</time>
      </trkpt>
      <trkpt lat="47.8596" lon="5.25923">
        <ele>408</ele>
        <time>2024-05-14T08:55:09.991Z</time>
      </trkpt>
      <trkpt lat="47.85957" lon="5.25916">
        <ele>405</ele>
        <time>2024-05-14T08:55:14.538Z</time>
      </trkpt>
      <trkpt lat="47.85953" lon="5.2591">
        <ele>405</ele>
        <time>2024-05-14T08:55:18.991Z</time>
      </trkpt>
      <trkpt lat="47.8595" lon="5.25903">
        <ele>405</ele>
        <time>2024-05-14T08:55:23.491Z</time>
      </trkpt>
      <trkpt lat="47.85947" lon="5.25897">
        <ele>409</ele>
        <time>2024-05-14T08:55:27.895Z</time>
      </trkpt>
      <trkpt lat="47.85942" lon="5.2589">
        <ele>409</ele>
        <time>2024-05-14T08:55:31.946Z</time>
      </trkpt>
      <trkpt lat="47.85939" lon="5.25884">
        <ele>409</ele>
        <time>2024-05-14T08:55:35.991Z</time>
      </trkpt>
      <trkpt lat="47.85935" lon="5.25878">
        <ele>409</ele>
        <time>2024-05-14T08:55:40.470Z</time>
      </trkpt>
      <trkpt lat="47.85931" lon="5.25872">
        <ele>412</ele>
        <time>2024-05-14T08:55:44.991Z</time>
      </trkpt>
      <trkpt lat="47.85926" lon="5.25867">
        <ele>411</ele>
        <time>2024-05-14T08:55:49.709Z</time>
      </trkpt>
      <trkpt lat="47.85921" lon="5.25863">
        <ele>411</ele>
        <time>2024-05-14T08:55:53.991Z</time>
      </trkpt>
      <trkpt lat="47.85915" lon="5.25859">
        <ele>411</ele>
        <time>2024-05-14T08:55:58.132Z</time>
      </trkpt>
      <trkpt lat="47.85909" lon="5.25856">
        <ele>411</ele>
        <time>2024-05-14T08:56:02.534Z</time>
      </trkpt>
      <trkpt lat="47.85906" lon="5.25854">
        <ele>411</ele>
        <time>2024-05-14T08:56:06.630Z</time>
      </trkpt>
      <trkpt lat="47.85902" lon="5.25851">
        <ele>408</ele>
        <time>2024-05-14T08:56:10.989Z</time>
      </trkpt>
      <trkpt lat="47.85895" lon="5.25847">
        <ele>410</ele>
        <time>2024-05-14T08:56:15.854Z</time>
      </trkpt>
      <trkpt lat="47.85889" lon="5.25845">
        <ele>410</ele>
        <time>2024-05-14T08:56:20.869Z</time>
      </trkpt>
      <trkpt lat="47.85884" lon="5.25843">
        <ele>410</ele>
        <time>2024-05-14T08:56:24.992Z</time>
      </trkpt>
      <trkpt lat="47.85877" lon="5.2584">
        <ele>410</ele>
        <time>2024-05-14T08:56:29.394Z</time>
      </trkpt>
      <trkpt lat="47.85871" lon="5.25837">
        <ele>409</ele>
        <time>2024-05-14T08:56:33.471Z</time>
      </trkpt>
      <trkpt lat="47.85865" lon="5.25835">
        <ele>409</ele>
        <time>2024-05-14T08:56:37.991Z</time>
      </trkpt>
      <trkpt lat="47.8586" lon="5.25833">
        <ele>409</ele>
        <time>2024-05-14T08:56:42.506Z</time>
      </trkpt>
      <trkpt lat="47.85856" lon="5.2583">
        <ele>409</ele>
        <time>2024-05-14T08:56:46.991Z</time>
      </trkpt>
      <trkpt lat="47.85851" lon="5.25829">
        <ele>409</ele>
        <time>2024-05-14T08:56:51.567Z</time>
      </trkpt>
      <trkpt lat="47.85845" lon="5.25827">
        <ele>408</ele>
        <time>2024-05-14T08:56:55.992Z</time>
      </trkpt>
      <trkpt lat="47.85839" lon="5.25824">
        <ele>408</ele>
        <time>2024-05-14T08:57:00.467Z</time>
      </trkpt>
      <trkpt lat="47.85833" lon="5.2582">
        <ele>408</ele>
        <time>2024-05-14T08:57:04.987Z</time>
      </trkpt>
      <trkpt lat="47.85827" lon="5.25816">
        <ele>411</ele>
        <time>2024-05-14T08:57:08.992Z</time>
      </trkpt>
      <trkpt lat="47.85821" lon="5.25814">
        <ele>411</ele>
        <time>2024-05-14T08:57:13.999Z</time>
      </trkpt>
      <trkpt lat="47.85815" lon="5.25811">
        <ele>411</ele>
        <time>2024-05-14T08:57:18.614Z</time>
      </trkpt>
      <trkpt lat="47.85809" lon="5.25808">
        <ele>411</ele>
        <time>2024-05-14T08:57:22.991Z</time>
      </trkpt>
      <trkpt lat="47.85805" lon="5.25807">
        <ele>411</ele>
        <time>2024-05-14T08:57:27.709Z</time>
      </trkpt>
      <trkpt lat="47.858" lon="5.25805">
        <ele>411</ele>
        <time>2024-05-14T08:57:31.991Z</time>
      </trkpt>
      <trkpt lat="47.85794" lon="5.25802">
        <ele>411</ele>
        <time>2024-05-14T08:57:36.729Z</time>
      </trkpt>
      <trkpt lat="47.85788" lon="5.258">
        <ele>411</ele>
        <time>2024-05-14T08:57:40.991Z</time>
      </trkpt>
      <trkpt lat="47.85782" lon="5.25798">
        <ele>411</ele>
        <time>2024-05-14T08:57:45.669Z</time>
      </trkpt>
      <trkpt lat="47.85777" lon="5.25795">
        <ele>411</ele>
        <time>2024-05-14T08:57:49.992Z</time>
      </trkpt>
      <trkpt lat="47.85771" lon="5.25792">
        <ele>414</ele>
        <time>2024-05-14T08:57:54.551Z</time>
      </trkpt>
      <trkpt lat="47.85765" lon="5.25789">
        <ele>414</ele>
        <time>2024-05-14T08:57:58.991Z</time>
      </trkpt>
      <trkpt lat="47.8576" lon="5.25785">
        <ele>411</ele>
        <time>2024-05-14T08:58:03.674Z</time>
      </trkpt>
      <trkpt lat="47.85754" lon="5.2578">
        <ele>411</ele>
        <time>2024-05-14T08:58:07.991Z</time>
      </trkpt>
      <trkpt lat="47.85748" lon="5.25775">
        <ele>411</ele>
        <time>2024-05-14T08:58:12.854Z</time>
      </trkpt>
      <trkpt lat="47.85742" lon="5.25769">
        <ele>411</ele>
        <time>2024-05-14T08:58:17.109Z</time>
      </trkpt>
      <trkpt lat="47.85737" lon="5.25765">
        <ele>411</ele>
        <time>2024-05-14T08:58:21.666Z</time>
      </trkpt>
      <trkpt lat="47.85732" lon="5.25761">
        <ele>411</ele>
        <time>2024-05-14T08:58:26.215Z</time>
      </trkpt>
      <trkpt lat="47.85727" lon="5.25757">
        <ele>411</ele>
        <time>2024-05-14T08:58:30.755Z</time>
      </trkpt>
      <trkpt lat="47.85723" lon="5.25751">
        <ele>411</ele>
        <time>2024-05-14T08:58:34.991Z</time>
      </trkpt>
      <trkpt lat="47.85718" lon="5.25745">
        <ele>411</ele>
        <time>2024-05-14T08:58:39.874Z</time>
      </trkpt>
      <trkpt lat="47.85713" lon="5.25739">
        <ele>411</ele>
        <time>2024-05-14T08:58:44.534Z</time>
      </trkpt>
      <trkpt lat="47.85709" lon="5.25733">
        <ele>414</ele>
        <time>2024-05-14T08:58:48.991Z</time>
      </trkpt>
      <trkpt lat="47.85704" lon="5.25728">
        <ele>415</ele>
        <time>2024-05-14T08:58:53.474Z</time>
      </trkpt>
      <trkpt lat="47.85699" lon="5.25722">
        <ele>415</ele>
        <time>2024-05-14T08:58:57.987Z</time>
      </trkpt>
      <trkpt lat="47.85694" lon="5.25716">
        <ele>415</ele>
        <time>2024-05-14T08:59:01.991Z</time>
      </trkpt>
      <trkpt lat="47.85691" lon="5.2571">
        <ele>415</ele>
        <time>2024-05-14T08:59:06.494Z</time>
      </trkpt>
      <trkpt lat="47.85687" lon="5.25703">
        <ele>416</ele>
        <time>2024-05-14T08:59:10.593Z</time>
      </trkpt>
      <trkpt lat="47.85682" lon="5.25696">
        <ele>416</ele>
        <time>2024-05-14T08:59:14.932Z</time>
      </trkpt>
      <trkpt lat="47.85678" lon="5.2569">
        <ele>414</ele>
        <time>2024-05-14T08:59:47.991Z</time>
      </trkpt>
      <trkpt lat="47.85673" lon="5.25683">
        <ele>414</ele>
        <time>2024-05-14T08:59:52.992Z</time>
      </trkpt>
      <trkpt lat="47.85669" lon="5.25677">
        <ele>414</ele>
        <time>2024-05-14T08:59:57.309Z</time>
      </trkpt>
      <trkpt lat="47.85665" lon="5.2567">
        <ele>414</ele>
        <time>2024-05-14T09:00:01.730Z</time>
      </trkpt>
      <trkpt lat="47.85661" lon="5.25664">
        <ele>414</ele>
        <time>2024-05-14T09:00:05.991Z</time>
      </trkpt>
      <trkpt lat="47.85657" lon="5.25656">
        <ele>414</ele>
        <time>2024-05-14T09:00:10.494Z</time>
      </trkpt>
      <trkpt lat="47.85653" lon="5.25649">
        <ele>416</ele>
        <time>2024-05-14T09:00:14.929Z</time>
      </trkpt>
      <trkpt lat="47.8565" lon="5.25641">
        <ele>414</ele>
        <time>2024-05-14T09:00:19.333Z</time>
      </trkpt>
      <trkpt lat="47.85647" lon="5.25633">
        <ele>414</ele>
        <time>2024-05-14T09:00:23.649Z</time>
      </trkpt>
      <trkpt lat="47.85644" lon="5.25625">
        <ele>416</ele>
        <time>2024-05-14T09:00:27.991Z</time>
      </trkpt>
      <trkpt lat="47.85643" lon="5.25616">
        <ele>416</ele>
        <time>2024-05-14T09:00:31.992Z</time>
      </trkpt>
      <trkpt lat="47.85641" lon="5.25607">
        <ele>416</ele>
        <time>2024-05-14T09:00:36.595Z</time>
      </trkpt>
      <trkpt lat="47.8564" lon="5.25601">
        <ele>416</ele>
        <time>2024-05-14T09:00:40.991Z</time>
      </trkpt>
      <trkpt lat="47.85638" lon="5.25593">
        <ele>417</ele>
        <time>2024-05-14T09:00:45.747Z</time>
      </trkpt>
      <trkpt lat="47.85638" lon="5.25584">
        <ele>417</ele>
        <time>2024-05-14T09:00:49.851Z</time>
      </trkpt>
      <trkpt lat="47.85637" lon="5.25577">
        <ele>417</ele>
        <time>2024-05-14T09:00:53.991Z</time>
      </trkpt>
      <trkpt lat="47.85637" lon="5.25567">
        <ele>418</ele>
        <time>2024-05-14T09:00:58.673Z</time>
      </trkpt>
      <trkpt lat="47.85638" lon="5.25558">
        <ele>418</ele>
        <time>2024-05-14T09:01:02.991Z</time>
      </trkpt>
      <trkpt lat="47.85638" lon="5.25549">
        <ele>418</ele>
        <time>2024-05-14T09:01:07.631Z</time>
      </trkpt>
      <trkpt lat="47.8564" lon="5.25541">
        <ele>419</ele>
        <time>2024-05-14T09:01:11.991Z</time>
      </trkpt>
      <trkpt lat="47.85641" lon="5.25532">
        <ele>419</ele>
        <time>2024-05-14T09:01:16.846Z</time>
      </trkpt>
      <trkpt lat="47.85642" lon="5.25524">
        <ele>419</ele>
        <time>2024-05-14T09:01:21.931Z</time>
      </trkpt>
      <trkpt lat="47.85641" lon="5.25516">
        <ele>419</ele>
        <time>2024-05-14T09:01:26.350Z</time>
      </trkpt>
      <trkpt lat="47.85636" lon="5.25513">
        <ele>419</ele>
        <time>2024-05-14T09:01:30.935Z</time>
      </trkpt>
      <trkpt lat="47.8563" lon="5.25511">
        <ele>419</ele>
        <time>2024-05-14T09:01:35.471Z</time>
      </trkpt>
      <trkpt lat="47.85624" lon="5.25508">
        <ele>417</ele>
        <time>2024-05-14T09:01:39.994Z</time>
      </trkpt>
      <trkpt lat="47.85611" lon="5.25502">
        <ele>417</ele>
        <time>2024-05-14T09:01:44.549Z</time>
      </trkpt>
      <trkpt lat="47.85607" lon="5.255">
        <ele>417</ele>
        <time>2024-05-14T09:01:48.654Z</time>
      </trkpt>
      <trkpt lat="47.85599" lon="5.25497">
        <ele>417</ele>
        <time>2024-05-14T09:01:52.991Z</time>
      </trkpt>
      <trkpt lat="47.85594" lon="5.25494">
        <ele>416</ele>
        <time>2024-05-14T09:01:57.288Z</time>
      </trkpt>
      <trkpt lat="47.85587" lon="5.25495">
        <ele>416</ele>
        <time>2024-05-14T09:02:01.854Z</time>
      </trkpt>
      <trkpt lat="47.85581" lon="5.25494">
        <ele>416</ele>
        <time>2024-05-14T09:02:05.990Z</time>
      </trkpt>
      <trkpt lat="47.85575" lon="5.25494">
        <ele>416</ele>
        <time>2024-05-14T09:02:10.112Z</time>
      </trkpt>
      <trkpt lat="47.85569" lon="5.25493">
        <ele>414</ele>
        <time>2024-05-14T09:02:14.207Z</time>
      </trkpt>
      <trkpt lat="47.85564" lon="5.25493">
        <ele>414</ele>
        <time>2024-05-14T09:02:18.848Z</time>
      </trkpt>
      <trkpt lat="47.85558" lon="5.25493">
        <ele>414</ele>
        <time>2024-05-14T09:02:22.991Z</time>
      </trkpt>
      <trkpt lat="47.85552" lon="5.25494">
        <ele>414</ele>
        <time>2024-05-14T09:02:27.670Z</time>
      </trkpt>
      <trkpt lat="47.85547" lon="5.25495">
        <ele>414</ele>
        <time>2024-05-14T09:02:31.991Z</time>
      </trkpt>
      <trkpt lat="47.85541" lon="5.25495">
        <ele>415</ele>
        <time>2024-05-14T09:02:36.509Z</time>
      </trkpt>
      <trkpt lat="47.85534" lon="5.25495">
        <ele>415</ele>
        <time>2024-05-14T09:02:40.991Z</time>
      </trkpt>
      <trkpt lat="47.85529" lon="5.25495">
        <ele>415</ele>
        <time>2024-05-14T09:02:45.614Z</time>
      </trkpt>
      <trkpt lat="47.85524" lon="5.25495">
        <ele>415</ele>
        <time>2024-05-14T09:02:49.992Z</time>
      </trkpt>
      <trkpt lat="47.85517" lon="5.25494">
        <ele>415</ele>
        <time>2024-05-14T09:02:54.811Z</time>
      </trkpt>
      <trkpt lat="47.85511" lon="5.25495">
        <ele>418</ele>
        <time>2024-05-14T09:02:58.991Z</time>
      </trkpt>
      <trkpt lat="47.85504" lon="5.25494">
        <ele>418</ele>
        <time>2024-05-14T09:03:03.455Z</time>
      </trkpt>
      <trkpt lat="47.85499" lon="5.25492">
        <ele>418</ele>
        <time>2024-05-14T09:03:07.890Z</time>
      </trkpt>
      <trkpt lat="47.85492" lon="5.25492">
        <ele>418</ele>
        <time>2024-05-14T09:03:11.991Z</time>
      </trkpt>
      <trkpt lat="47.85485" lon="5.25491">
        <ele>419</ele>
        <time>2024-05-14T09:03:16.627Z</time>
      </trkpt>
      <trkpt lat="47.85478" lon="5.25491">
        <ele>419</ele>
        <time>2024-05-14T09:03:20.991Z</time>
      </trkpt>
      <trkpt lat="47.85472" lon="5.25489">
        <ele>419</ele>
        <time>2024-05-14T09:03:25.928Z</time>
      </trkpt>
      <trkpt lat="47.85465" lon="5.25488">
        <ele>419</ele>
        <time>2024-05-14T09:03:30.347Z</time>
      </trkpt>
      <trkpt lat="47.85459" lon="5.25487">
        <ele>419</ele>
        <time>2024-05-14T09:03:34.809Z</time>
      </trkpt>
      <trkpt lat="47.85453" lon="5.25486">
        <ele>418</ele>
        <time>2024-05-14T09:03:38.991Z</time>
      </trkpt>
      <trkpt lat="47.85449" lon="5.25484">
        <ele>421</ele>
        <time>2024-05-14T09:03:43.991Z</time>
      </trkpt>
      <trkpt lat="47.85444" lon="5.25481">
        <ele>421</ele>
        <time>2024-05-14T09:03:48.571Z</time>
      </trkpt>
      <trkpt lat="47.85439" lon="5.25478">
        <ele>421</ele>
        <time>2024-05-14T09:03:52.990Z</time>
      </trkpt>
      <trkpt lat="47.85435" lon="5.25473">
        <ele>421</ele>
        <time>2024-05-14T09:03:57.607Z</time>
      </trkpt>
      <trkpt lat="47.85432" lon="5.25468">
        <ele>421</ele>
        <time>2024-05-14T09:04:01.990Z</time>
      </trkpt>
      <trkpt lat="47.85429" lon="5.25463">
        <ele>420</ele>
        <time>2024-05-14T09:04:06.199Z</time>
      </trkpt>
      <trkpt lat="47.85425" lon="5.25459">
        <ele>420</ele>
        <time>2024-05-14T09:04:10.990Z</time>
      </trkpt>
      <trkpt lat="47.85419" lon="5.25457">
        <ele>422</ele>
        <time>2024-05-14T09:04:15.192Z</time>
      </trkpt>
      <trkpt lat="47.85414" lon="5.25455">
        <ele>422</ele>
        <time>2024-05-14T09:04:19.689Z</time>
      </trkpt>
      <trkpt lat="47.85407" lon="5.25453">
        <ele>422</ele>
        <time>2024-05-14T09:04:23.987Z</time>
      </trkpt>
      <trkpt lat="47.85402" lon="5.25452">
        <ele>421</ele>
        <time>2024-05-14T09:04:28.332Z</time>
      </trkpt>
      <trkpt lat="47.85396" lon="5.25451">
        <ele>421</ele>
        <time>2024-05-14T09:04:32.795Z</time>
      </trkpt>
      <trkpt lat="47.85391" lon="5.25453">
        <ele>421</ele>
        <time>2024-05-14T09:04:36.990Z</time>
      </trkpt>
      <trkpt lat="47.85385" lon="5.25454">
        <ele>421</ele>
        <time>2024-05-14T09:04:40.991Z</time>
      </trkpt>
      <trkpt lat="47.85379" lon="5.25454">
        <ele>421</ele>
        <time>2024-05-14T09:04:45.949Z</time>
      </trkpt>
      <trkpt lat="47.85374" lon="5.25455">
        <ele>419</ele>
        <time>2024-05-14T09:04:50.429Z</time>
      </trkpt>
      <trkpt lat="47.85369" lon="5.25455">
        <ele>419</ele>
        <time>2024-05-14T09:04:54.849Z</time>
      </trkpt>
      <trkpt lat="47.85364" lon="5.25456">
        <ele>419</ele>
        <time>2024-05-14T09:04:59.269Z</time>
      </trkpt>
      <trkpt lat="47.8536" lon="5.25455">
        <ele>419</ele>
        <time>2024-05-14T09:05:03.714Z</time>
      </trkpt>
      <trkpt lat="47.85355" lon="5.25455">
        <ele>419</ele>
        <time>2024-05-14T09:05:07.990Z</time>
      </trkpt>
      <trkpt lat="47.85349" lon="5.25455">
        <ele>419</ele>
        <time>2024-05-14T09:05:12.774Z</time>
      </trkpt>
      <trkpt lat="47.85344" lon="5.25458">
        <ele>418</ele>
        <time>2024-05-14T09:05:16.990Z</time>
      </trkpt>
      <trkpt lat="47.85337" lon="5.25459">
        <ele>415</ele>
        <time>2024-05-14T09:05:21.690Z</time>
      </trkpt>
      <trkpt lat="47.85332" lon="5.25458">
        <ele>418</ele>
        <time>2024-05-14T09:05:25.990Z</time>
      </trkpt>
      <trkpt lat="47.85326" lon="5.25457">
        <ele>418</ele>
        <time>2024-05-14T09:05:30.594Z</time>
      </trkpt>
      <trkpt lat="47.8532" lon="5.25457">
        <ele>418</ele>
        <time>2024-05-14T09:05:34.991Z</time>
      </trkpt>
      <trkpt lat="47.85314" lon="5.25457">
        <ele>416</ele>
        <time>2024-05-14T09:05:39.369Z</time>
      </trkpt>
      <trkpt lat="47.85307" lon="5.25459">
        <ele>413</ele>
        <time>2024-05-14T09:05:43.893Z</time>
      </trkpt>
      <trkpt lat="47.85301" lon="5.25456">
        <ele>416</ele>
        <time>2024-05-14T09:05:48.386Z</time>
      </trkpt>
      <trkpt lat="47.85295" lon="5.25457">
        <ele>416</ele>
        <time>2024-05-14T09:05:52.714Z</time>
      </trkpt>
      <trkpt lat="47.85289" lon="5.25455">
        <ele>414</ele>
        <time>2024-05-14T09:05:56.991Z</time>
      </trkpt>
      <trkpt lat="47.85283" lon="5.25455">
        <ele>414</ele>
        <time>2024-05-14T09:06:01.850Z</time>
      </trkpt>
      <trkpt lat="47.85277" lon="5.25453">
        <ele>414</ele>
        <time>2024-05-14T09:06:07.018Z</time>
      </trkpt>
      <trkpt lat="47.85272" lon="5.25453">
        <ele>414</ele>
        <time>2024-05-14T09:06:11.793Z</time>
      </trkpt>
      <trkpt lat="47.85266" lon="5.25453">
        <ele>414</ele>
        <time>2024-05-14T09:06:16.150Z</time>
      </trkpt>
      <trkpt lat="47.85261" lon="5.25453">
        <ele>413</ele>
        <time>2024-05-14T09:06:20.990Z</time>
      </trkpt>
      <trkpt lat="47.85256" lon="5.25453">
        <ele>413</ele>
        <time>2024-05-14T09:06:25.511Z</time>
      </trkpt>
      <trkpt lat="47.8525" lon="5.25453">
        <ele>413</ele>
        <time>2024-05-14T09:06:29.640Z</time>
      </trkpt>
      <trkpt lat="47.85245" lon="5.25454">
        <ele>413</ele>
        <time>2024-05-14T09:06:34.369Z</time>
      </trkpt>
      <trkpt lat="47.85241" lon="5.25456">
        <ele>413</ele>
        <time>2024-05-14T09:06:38.888Z</time>
      </trkpt>
      <trkpt lat="47.85235" lon="5.2546">
        <ele>407</ele>
        <time>2024-05-14T09:06:42.990Z</time>
      </trkpt>
      <trkpt lat="47.85228" lon="5.25461">
        <ele>407</ele>
        <time>2024-05-14T09:06:47.991Z</time>
      </trkpt>
      <trkpt lat="47.85223" lon="5.25462">
        <ele>407</ele>
        <time>2024-05-14T09:06:52.547Z</time>
      </trkpt>
      <trkpt lat="47.85218" lon="5.25464">
        <ele>407</ele>
        <time>2024-05-14T09:06:56.816Z</time>
      </trkpt>
      <trkpt lat="47.85212" lon="5.25464">
        <ele>407</ele>
        <time>2024-05-14T09:07:01.296Z</time>
      </trkpt>
      <trkpt lat="47.85206" lon="5.25462">
        <ele>402</ele>
        <time>2024-05-14T09:07:05.534Z</time>
      </trkpt>
      <trkpt lat="47.85199" lon="5.25458">
        <ele>402</ele>
        <time>2024-05-14T09:07:09.957Z</time>
      </trkpt>
      <trkpt lat="47.85194" lon="5.25455">
        <ele>408</ele>
        <time>2024-05-14T09:07:14.314Z</time>
      </trkpt>
      <trkpt lat="47.85188" lon="5.25452">
        <ele>408</ele>
        <time>2024-05-14T09:08:03.990Z</time>
      </trkpt>
      <trkpt lat="47.85183" lon="5.2545">
        <ele>408</ele>
        <time>2024-05-14T09:08:08.604Z</time>
      </trkpt>
      <trkpt lat="47.85177" lon="5.25447">
        <ele>403</ele>
        <time>2024-05-14T09:08:12.670Z</time>
      </trkpt>
      <trkpt lat="47.85171" lon="5.25445">
        <ele>403</ele>
        <time>2024-05-14T09:08:16.854Z</time>
      </trkpt>
      <trkpt lat="47.85165" lon="5.25444">
        <ele>403</ele>
        <time>2024-05-14T09:08:20.990Z</time>
      </trkpt>
      <trkpt lat="47.85159" lon="5.25443">
        <ele>403</ele>
        <time>2024-05-14T09:08:24.991Z</time>
      </trkpt>
      <trkpt lat="47.85153" lon="5.25442">
        <ele>403</ele>
        <time>2024-05-14T09:08:29.855Z</time>
      </trkpt>
      <trkpt lat="47.85147" lon="5.25442">
        <ele>397</ele>
        <time>2024-05-14T09:08:34.648Z</time>
      </trkpt>
      <trkpt lat="47.85141" lon="5.25441">
        <ele>397</ele>
        <time>2024-05-14T09:08:38.991Z</time>
      </trkpt>
      <trkpt lat="47.85135" lon="5.25441">
        <ele>397</ele>
        <time>2024-05-14T09:08:39.990Z</time>
      </trkpt>
      <trkpt lat="47.85128" lon="5.2544">
        <ele>397</ele>
        <time>2024-05-14T09:08:48.991Z</time>
      </trkpt>
      <trkpt lat="47.85122" lon="5.25441">
        <ele>394</ele>
        <time>2024-05-14T09:08:53.299Z</time>
      </trkpt>
      <trkpt lat="47.85117" lon="5.25443">
        <ele>394</ele>
        <time>2024-05-14T09:08:57.518Z</time>
      </trkpt>
      <trkpt lat="47.85111" lon="5.25445">
        <ele>394</ele>
        <time>2024-05-14T09:09:01.979Z</time>
      </trkpt>
      <trkpt lat="47.85106" lon="5.25449">
        <ele>394</ele>
        <time>2024-05-14T09:09:06.810Z</time>
      </trkpt>
      <trkpt lat="47.85102" lon="5.25452">
        <ele>394</ele>
        <time>2024-05-14T09:09:10.981Z</time>
      </trkpt>
      <trkpt lat="47.85097" lon="5.25455">
        <ele>389</ele>
        <time>2024-05-14T09:09:15.175Z</time>
      </trkpt>
      <trkpt lat="47.85092" lon="5.25459">
        <ele>383</ele>
        <time>2024-05-14T09:09:19.572Z</time>
      </trkpt>
      <trkpt lat="47.85088" lon="5.25462">
        <ele>383</ele>
        <time>2024-05-14T09:09:23.991Z</time>
      </trkpt>
      <trkpt lat="47.85083" lon="5.25465">
        <ele>383</ele>
        <time>2024-05-14T09:09:28.851Z</time>
      </trkpt>
      <trkpt lat="47.85078" lon="5.25468">
        <ele>383</ele>
        <time>2024-05-14T09:09:32.990Z</time>
      </trkpt>
      <trkpt lat="47.85074" lon="5.25472">
        <ele>383</ele>
        <time>2024-05-14T09:20:37.629Z</time>
      </trkpt>
      <trkpt lat="47.8507" lon="5.25478">
        <ele>383</ele>
        <time>2024-05-14T09:20:41.914Z</time>
      </trkpt>
      <trkpt lat="47.85067" lon="5.25484">
        <ele>381</ele>
        <time>2024-05-14T09:20:45.988Z</time>
      </trkpt>
      <trkpt lat="47.85064" lon="5.25489">
        <ele>378</ele>
        <time>2024-05-14T09:20:49.989Z</time>
      </trkpt>
      <trkpt lat="47.85061" lon="5.25489">
        <ele>378</ele>
        <time>2024-05-14T09:20:52.989Z</time>
      </trkpt>
      <trkpt lat="47.85066" lon="5.25493">
        <ele>378</ele>
        <time>2024-05-14T09:21:01.714Z</time>
      </trkpt>
      <trkpt lat="47.85067" lon="5.25495">
        <ele>378</ele>
        <time>2024-05-14T09:21:05.813Z</time>
      </trkpt>
      <trkpt lat="47.8507" lon="5.255">
        <ele>378</ele>
        <time>2024-05-14T09:21:10.229Z</time>
      </trkpt>
      <trkpt lat="47.85069" lon="5.25509">
        <ele>378</ele>
        <time>2024-05-14T09:21:14.791Z</time>
      </trkpt>
      <trkpt lat="47.85067" lon="5.25517">
        <ele>375</ele>
        <time>2024-05-14T09:21:19.177Z</time>
      </trkpt>
      <trkpt lat="47.85065" lon="5.25524">
        <ele>375</ele>
        <time>2024-05-14T09:21:23.535Z</time>
      </trkpt>
      <trkpt lat="47.85064" lon="5.25532">
        <ele>375</ele>
        <time>2024-05-14T09:21:27.988Z</time>
      </trkpt>
      <trkpt lat="47.85064" lon="5.25542">
        <ele>373</ele>
        <time>2024-05-14T09:21:32.315Z</time>
      </trkpt>
      <trkpt lat="47.85061" lon="5.25547">
        <ele>373</ele>
        <time>2024-05-14T09:21:36.647Z</time>
      </trkpt>
      <trkpt lat="47.85061" lon="5.25549">
        <ele>373</ele>
        <time>2024-05-14T09:21:40.811Z</time>
      </trkpt>
      <trkpt lat="47.85059" lon="5.25567">
        <ele>373</ele>
        <time>2024-05-14T09:21:45.515Z</time>
      </trkpt>
      <trkpt lat="47.85059" lon="5.25574">
        <ele>373</ele>
        <time>2024-05-14T09:21:49.988Z</time>
      </trkpt>
      <trkpt lat="47.85057" lon="5.2558">
        <ele>373</ele>
        <time>2024-05-14T09:22:22.989Z</time>
      </trkpt>
      <trkpt lat="47.85056" lon="5.2559">
        <ele>373</ele>
        <time>2024-05-14T09:22:26.988Z</time>
      </trkpt>
      <trkpt lat="47.85056" lon="5.25599">
        <ele>373</ele>
        <time>2024-05-14T09:22:30.989Z</time>
      </trkpt>
      <trkpt lat="47.85054" lon="5.25608">
        <ele>373</ele>
        <time>2024-05-14T09:22:34.992Z</time>
      </trkpt>
      <trkpt lat="47.85053" lon="5.25615">
        <ele>373</ele>
        <time>2024-05-14T09:22:39.770Z</time>
      </trkpt>
      <trkpt lat="47.85049" lon="5.25622">
        <ele>373</ele>
        <time>2024-05-14T09:22:44.275Z</time>
      </trkpt>
      <trkpt lat="47.85042" lon="5.25621">
        <ele>373</ele>
        <time>2024-05-14T09:22:48.295Z</time>
      </trkpt>
      <trkpt lat="47.85036" lon="5.25624">
        <ele>372</ele>
        <time>2024-05-14T09:22:52.510Z</time>
      </trkpt>
      <trkpt lat="47.85033" lon="5.25627">
        <ele>372</ele>
        <time>2024-05-14T09:22:56.988Z</time>
      </trkpt>
      <trkpt lat="47.85032" lon="5.25626">
        <ele>372</ele>
        <time>2024-05-14T09:23:01.634Z</time>
      </trkpt>
      <trkpt lat="47.85032" lon="5.25623">
        <ele>372</ele>
        <time>2024-05-14T09:23:05.989Z</time>
      </trkpt>
      <trkpt lat="47.8503" lon="5.25628">
        <ele>372</ele>
        <time>2024-05-14T09:23:10.311Z</time>
      </trkpt>
      <trkpt lat="47.85028" lon="5.25635">
        <ele>372</ele>
        <time>2024-05-14T09:23:14.355Z</time>
      </trkpt>
      <trkpt lat="47.85025" lon="5.25637">
        <ele>372</ele>
        <time>2024-05-14T09:23:18.836Z</time>
      </trkpt>
      <trkpt lat="47.85019" lon="5.25635">
        <ele>372</ele>
        <time>2024-05-14T09:23:22.988Z</time>
      </trkpt>
      <trkpt lat="47.85013" lon="5.25635">
        <ele>372</ele>
        <time>2024-05-14T09:23:27.455Z</time>
      </trkpt>
      <trkpt lat="47.85008" lon="5.25639">
        <ele>372</ele>
        <time>2024-05-14T09:23:31.830Z</time>
      </trkpt>
      <trkpt lat="47.85004" lon="5.25645">
        <ele>372</ele>
        <time>2024-05-14T09:23:36.234Z</time>
      </trkpt>
      <trkpt lat="47.85002" lon="5.2565">
        <ele>372</ele>
        <time>2024-05-14T09:23:40.628Z</time>
      </trkpt>
      <trkpt lat="47.84997" lon="5.25649">
        <ele>372</ele>
        <time>2024-05-14T09:23:44.989Z</time>
      </trkpt>
      <trkpt lat="47.84991" lon="5.25658">
        <ele>372</ele>
        <time>2024-05-14T09:23:48.988Z</time>
      </trkpt>
      <trkpt lat="47.84985" lon="5.25662">
        <ele>371</ele>
        <time>2024-05-14T09:23:53.650Z</time>
      </trkpt>
      <trkpt lat="47.8498" lon="5.25668">
        <ele>371</ele>
        <time>2024-05-14T09:23:58.054Z</time>
      </trkpt>
      <trkpt lat="47.84975" lon="5.25672">
        <ele>371</ele>
        <time>2024-05-14T09:24:02.654Z</time>
      </trkpt>
      <trkpt lat="47.84972" lon="5.25679">
        <ele>371</ele>
        <time>2024-05-14T09:24:06.731Z</time>
      </trkpt>
      <trkpt lat="47.8497" lon="5.25687">
        <ele>373</ele>
        <time>2024-05-14T09:24:11.098Z</time>
      </trkpt>
      <trkpt lat="47.8497" lon="5.25686">
        <ele>373</ele>
        <time>2024-05-14T09:24:15.215Z</time>
      </trkpt>
      <trkpt lat="47.8497" lon="5.25686">
        <ele>373</ele>
        <time>2024-05-14T09:24:19.714Z</time>
      </trkpt>
      <trkpt lat="47.84967" lon="5.25684">
        <ele>373</ele>
        <time>2024-05-14T09:24:23.988Z</time>
      </trkpt>
      <trkpt lat="47.84962" lon="5.25685">
        <ele>373</ele>
        <time>2024-05-14T09:24:28.192Z</time>
      </trkpt>
      <trkpt lat="47.84956" lon="5.2568">
        <ele>373</ele>
        <time>2024-05-14T09:24:32.632Z</time>
      </trkpt>
      <trkpt lat="47.8495" lon="5.25674">
        <ele>373</ele>
        <time>2024-05-14T09:24:36.897Z</time>
      </trkpt>
      <trkpt lat="47.84946" lon="5.25671">
        <ele>373</ele>
        <time>2024-05-14T09:24:41.155Z</time>
      </trkpt>
      <trkpt lat="47.84942" lon="5.25668">
        <ele>373</ele>
        <time>2024-05-14T09:24:45.547Z</time>
      </trkpt>
      <trkpt lat="47.84937" lon="5.25665">
        <ele>373</ele>
        <time>2024-05-14T09:24:49.988Z</time>
      </trkpt>
      <trkpt lat="47.84931" lon="5.25661">
        <ele>373</ele>
        <time>2024-05-14T09:24:54.132Z</time>
      </trkpt>
      <trkpt lat="47.84926" lon="5.25657">
        <ele>375</ele>
        <time>2024-05-14T09:24:58.228Z</time>
      </trkpt>
      <trkpt lat="47.8492" lon="5.25654">
        <ele>375</ele>
        <time>2024-05-14T09:25:02.928Z</time>
      </trkpt>
      <trkpt lat="47.84915" lon="5.25651">
        <ele>374</ele>
        <time>2024-05-14T09:25:06.988Z</time>
      </trkpt>
      <trkpt lat="47.84909" lon="5.25648">
        <ele>374</ele>
        <time>2024-05-14T09:25:10.989Z</time>
      </trkpt>
      <trkpt lat="47.84904" lon="5.25645">
        <ele>374</ele>
        <time>2024-05-14T09:25:15.473Z</time>
      </trkpt>
      <trkpt lat="47.84897" lon="5.25641">
        <ele>374</ele>
        <time>2024-05-14T09:25:19.988Z</time>
      </trkpt>
      <trkpt lat="47.84892" lon="5.2564">
        <ele>374</ele>
        <time>2024-05-14T09:25:24.654Z</time>
      </trkpt>
      <trkpt lat="47.84887" lon="5.25636">
        <ele>374</ele>
        <time>2024-05-14T09:25:28.997Z</time>
      </trkpt>
      <trkpt lat="47.84882" lon="5.25634">
        <ele>374</ele>
        <time>2024-05-14T09:25:33.570Z</time>
      </trkpt>
      <trkpt lat="47.84877" lon="5.25632">
        <ele>374</ele>
        <time>2024-05-14T09:25:35.988Z</time>
      </trkpt>
      <trkpt lat="47.84875" lon="5.25626">
        <ele>375</ele>
        <time>2024-05-14T09:25:44.988Z</time>
      </trkpt>
      <trkpt lat="47.84873" lon="5.25618">
        <ele>375</ele>
        <time>2024-05-14T09:25:49.989Z</time>
      </trkpt>
      <trkpt lat="47.84874" lon="5.25609">
        <ele>375</ele>
        <time>2024-05-14T09:25:54.454Z</time>
      </trkpt>
      <trkpt lat="47.84877" lon="5.25601">
        <ele>374</ele>
        <time>2024-05-14T09:25:58.534Z</time>
      </trkpt>
      <trkpt lat="47.84881" lon="5.25597">
        <ele>374</ele>
        <time>2024-05-14T09:26:02.988Z</time>
      </trkpt>
      <trkpt lat="47.84886" lon="5.25596">
        <ele>374</ele>
        <time>2024-05-14T09:26:07.988Z</time>
      </trkpt>
      <trkpt lat="47.8489" lon="5.25596">
        <ele>374</ele>
        <time>2024-05-14T09:26:11.988Z</time>
      </trkpt>
      <trkpt lat="47.84896" lon="5.25596">
        <ele>374</ele>
        <time>2024-05-14T09:26:16.555Z</time>
      </trkpt>
      <trkpt lat="47.849" lon="5.25598">
        <ele>374</ele>
        <time>2024-05-14T09:26:20.616Z</time>
      </trkpt>
      <trkpt lat="47.84905" lon="5.25595">
        <ele>374</ele>
        <time>2024-05-14T09:26:24.989Z</time>
      </trkpt>
      <trkpt lat="47.8491" lon="5.25589">
        <ele>374</ele>
        <time>2024-05-14T09:26:29.628Z</time>
      </trkpt>
      <trkpt lat="47.84913" lon="5.25579">
        <ele>374</ele>
        <time>2024-05-14T09:26:33.970Z</time>
      </trkpt>
      <trkpt lat="47.84915" lon="5.25571">
        <ele>374</ele>
        <time>2024-05-14T09:26:38.288Z</time>
      </trkpt>
      <trkpt lat="47.84916" lon="5.25562">
        <ele>375</ele>
        <time>2024-05-14T09:26:41.649Z</time>
      </trkpt>
      <trkpt lat="47.84918" lon="5.25554">
        <ele>375</ele>
        <time>2024-05-14T09:26:50.988Z</time>
      </trkpt>
      <trkpt lat="47.8492" lon="5.25546">
        <ele>375</ele>
        <time>2024-05-14T09:26:55.794Z</time>
      </trkpt>
      <trkpt lat="47.84918" lon="5.25538">
        <ele>375</ele>
        <time>2024-05-14T09:27:00.248Z</time>
      </trkpt>
      <trkpt lat="47.84914" lon="5.2553">
        <ele>375</ele>
        <time>2024-05-14T09:27:04.754Z</time>
      </trkpt>
      <trkpt lat="47.84909" lon="5.25528">
        <ele>375</ele>
        <time>2024-05-14T09:27:08.834Z</time>
      </trkpt>
      <trkpt lat="47.84908" lon="5.25528">
        <ele>375</ele>
        <time>2024-05-14T09:27:12.858Z</time>
      </trkpt>
      <trkpt lat="47.84907" lon="5.25526">
        <ele>375</ele>
        <time>2024-05-14T09:27:16.988Z</time>
      </trkpt>
      <trkpt lat="47.84901" lon="5.25521">
        <ele>374</ele>
        <time>2024-05-14T09:27:21.096Z</time>
      </trkpt>
      <trkpt lat="47.84895" lon="5.25519">
        <ele>374</ele>
        <time>2024-05-14T09:27:25.251Z</time>
      </trkpt>
      <trkpt lat="47.84889" lon="5.25517">
        <ele>374</ele>
        <time>2024-05-14T09:27:29.508Z</time>
      </trkpt>
      <trkpt lat="47.84884" lon="5.25514">
        <ele>374</ele>
        <time>2024-05-14T09:27:33.767Z</time>
      </trkpt>
      <trkpt lat="47.8488" lon="5.2551">
        <ele>373</ele>
        <time>2024-05-14T09:27:37.987Z</time>
      </trkpt>
      <trkpt lat="47.84872" lon="5.255">
        <ele>373</ele>
        <time>2024-05-14T09:27:42.454Z</time>
      </trkpt>
      <trkpt lat="47.84866" lon="5.255">
        <ele>373</ele>
        <time>2024-05-14T09:27:46.987Z</time>
      </trkpt>
      <trkpt lat="47.8486" lon="5.25496">
        <ele>373</ele>
        <time>2024-05-14T09:27:51.312Z</time>
      </trkpt>
      <trkpt lat="47.84855" lon="5.25494">
        <ele>373</ele>
        <time>2024-05-14T09:27:55.834Z</time>
      </trkpt>
      <trkpt lat="47.84851" lon="5.25491">
        <ele>373</ele>
        <time>2024-05-14T09:27:59.930Z</time>
      </trkpt>
      <trkpt lat="47.84847" lon="5.25487">
        <ele>373</ele>
        <time>2024-05-14T09:28:03.988Z</time>
      </trkpt>
      <trkpt lat="47.84843" lon="5.25485">
        <ele>373</ele>
        <time>2024-05-14T09:28:08.174Z</time>
      </trkpt>
      <trkpt lat="47.84838" lon="5.25482">
        <ele>373</ele>
        <time>2024-05-14T09:28:12.490Z</time>
      </trkpt>
      <trkpt lat="47.84834" lon="5.25478">
        <ele>373</ele>
        <time>2024-05-14T09:28:16.987Z</time>
      </trkpt>
      <trkpt lat="47.84829" lon="5.25474">
        <ele>373</ele>
        <time>2024-05-14T09:28:21.134Z</time>
      </trkpt>
      <trkpt lat="47.84824" lon="5.2547">
        <ele>373</ele>
        <time>2024-05-14T09:28:25.573Z</time>
      </trkpt>
      <trkpt lat="47.8482" lon="5.25466">
        <ele>373</ele>
        <time>2024-05-14T09:28:29.855Z</time>
      </trkpt>
      <trkpt lat="47.84816" lon="5.25462">
        <ele>374</ele>
        <time>2024-05-14T09:28:33.874Z</time>
      </trkpt>
      <trkpt lat="47.84812" lon="5.25459">
        <ele>374</ele>
        <time>2024-05-14T09:28:38.388Z</time>
      </trkpt>
      <trkpt lat="47.84807" lon="5.25455">
        <ele>373</ele>
        <time>2024-05-14T09:28:42.834Z</time>
      </trkpt>
      <trkpt lat="47.84802" lon="5.25451">
        <ele>373</ele>
        <time>2024-05-14T09:28:47.269Z</time>
      </trkpt>
      <trkpt lat="47.84797" lon="5.25445">
        <ele>373</ele>
        <time>2024-05-14T09:28:51.609Z</time>
      </trkpt>
      <trkpt lat="47.84792" lon="5.25439">
        <ele>373</ele>
        <time>2024-05-14T09:28:55.948Z</time>
      </trkpt>
      <trkpt lat="47.84788" lon="5.25433">
        <ele>374</ele>
        <time>2024-05-14T09:29:00.472Z</time>
      </trkpt>
      <trkpt lat="47.84783" lon="5.25426">
        <ele>373</ele>
        <time>2024-05-14T09:29:04.574Z</time>
      </trkpt>
      <trkpt lat="47.84779" lon="5.25421">
        <ele>373</ele>
        <time>2024-05-14T09:29:08.935Z</time>
      </trkpt>
      <trkpt lat="47.84775" lon="5.25415">
        <ele>373</ele>
        <time>2024-05-14T09:29:12.987Z</time>
      </trkpt>
      <trkpt lat="47.8477" lon="5.25409">
        <ele>373</ele>
        <time>2024-05-14T09:29:17.450Z</time>
      </trkpt>
      <trkpt lat="47.84766" lon="5.25403">
        <ele>373</ele>
        <time>2024-05-14T09:29:21.751Z</time>
      </trkpt>
      <trkpt lat="47.84761" lon="5.25397">
        <ele>375</ele>
        <time>2024-05-14T09:29:26.127Z</time>
      </trkpt>
      <trkpt lat="47.84758" lon="5.25391">
        <ele>375</ele>
        <time>2024-05-14T09:29:30.650Z</time>
      </trkpt>
      <trkpt lat="47.84753" lon="5.25385">
        <ele>375</ele>
        <time>2024-05-14T09:29:35.155Z</time>
      </trkpt>
      <trkpt lat="47.84749" lon="5.25379">
        <ele>375</ele>
        <time>2024-05-14T09:29:39.574Z</time>
      </trkpt>
      <trkpt lat="47.84745" lon="5.25372">
        <ele>374</ele>
        <time>2024-05-14T09:29:43.952Z</time>
      </trkpt>
      <trkpt lat="47.8474" lon="5.25366">
        <ele>374</ele>
        <time>2024-05-14T09:29:47.987Z</time>
      </trkpt>
      <trkpt lat="47.84736" lon="5.2536">
        <ele>374</ele>
        <time>2024-05-14T09:29:52.991Z</time>
      </trkpt>
      <trkpt lat="47.84732" lon="5.25355">
        <ele>374</ele>
        <time>2024-05-14T09:29:57.394Z</time>
      </trkpt>
      <trkpt lat="47.84729" lon="5.25351">
        <ele>374</ele>
        <time>2024-05-14T09:30:01.755Z</time>
      </trkpt>
      <trkpt lat="47.84724" lon="5.25346">
        <ele>373</ele>
        <time>2024-05-14T09:30:06.695Z</time>
      </trkpt>
      <trkpt lat="47.84719" lon="5.25347">
        <ele>373</ele>
        <time>2024-05-14T09:30:10.774Z</time>
      </trkpt>
      <trkpt lat="47.84715" lon="5.25339">
        <ele>373</ele>
        <time>2024-05-14T09:30:14.997Z</time>
      </trkpt>
      <trkpt lat="47.84708" lon="5.25336">
        <ele>376</ele>
        <time>2024-05-14T09:30:19.510Z</time>
      </trkpt>
      <trkpt lat="47.84703" lon="5.25332">
        <ele>376</ele>
        <time>2024-05-14T09:30:23.930Z</time>
      </trkpt>
      <trkpt lat="47.84699" lon="5.25328">
        <ele>376</ele>
        <time>2024-05-14T09:30:27.987Z</time>
      </trkpt>
      <trkpt lat="47.84693" lon="5.25324">
        <ele>376</ele>
        <time>2024-05-14T09:30:32.198Z</time>
      </trkpt>
      <trkpt lat="47.84689" lon="5.25318">
        <ele>375</ele>
        <time>2024-05-14T09:30:36.574Z</time>
      </trkpt>
      <trkpt lat="47.84684" lon="5.25314">
        <ele>375</ele>
        <time>2024-05-14T09:30:40.717Z</time>
      </trkpt>
      <trkpt lat="47.84679" lon="5.25308">
        <ele>378</ele>
        <time>2024-05-14T09:30:44.987Z</time>
      </trkpt>
      <trkpt lat="47.84674" lon="5.25303">
        <ele>378</ele>
        <time>2024-05-14T09:30:49.554Z</time>
      </trkpt>
      <trkpt lat="47.84669" lon="5.25297">
        <ele>378</ele>
        <time>2024-05-14T09:30:53.973Z</time>
      </trkpt>
      <trkpt lat="47.84665" lon="5.25292">
        <ele>378</ele>
        <time>2024-05-14T09:30:57.988Z</time>
      </trkpt>
      <trkpt lat="47.84661" lon="5.25286">
        <ele>378</ele>
        <time>2024-05-14T09:31:02.751Z</time>
      </trkpt>
      <trkpt lat="47.84657" lon="5.2528">
        <ele>378</ele>
        <time>2024-05-14T09:31:06.987Z</time>
      </trkpt>
      <trkpt lat="47.84652" lon="5.25275">
        <ele>378</ele>
        <time>2024-05-14T09:31:11.728Z</time>
      </trkpt>
      <trkpt lat="47.84647" lon="5.25269">
        <ele>378</ele>
        <time>2024-05-14T09:31:15.988Z</time>
      </trkpt>
      <trkpt lat="47.84644" lon="5.25262">
        <ele>376</ele>
        <time>2024-05-14T09:31:20.634Z</time>
      </trkpt>
      <trkpt lat="47.84639" lon="5.25255">
        <ele>376</ele>
        <time>2024-05-14T09:31:24.987Z</time>
      </trkpt>
      <trkpt lat="47.84635" lon="5.25249">
        <ele>376</ele>
        <time>2024-05-14T09:31:29.747Z</time>
      </trkpt>
      <trkpt lat="47.8463" lon="5.25242">
        <ele>376</ele>
        <time>2024-05-14T09:31:34.269Z</time>
      </trkpt>
      <trkpt lat="47.84625" lon="5.25237">
        <ele>376</ele>
        <time>2024-05-14T09:31:38.774Z</time>
      </trkpt>
      <trkpt lat="47.84621" lon="5.25231">
        <ele>373</ele>
        <time>2024-05-14T09:31:42.987Z</time>
      </trkpt>
      <trkpt lat="47.84615" lon="5.25223">
        <ele>373</ele>
        <time>2024-05-14T09:31:47.248Z</time>
      </trkpt>
      <trkpt lat="47.8461" lon="5.25219">
        <ele>373</ele>
        <time>2024-05-14T09:31:51.454Z</time>
      </trkpt>
      <trkpt lat="47.84605" lon="5.25213">
        <ele>373</ele>
        <time>2024-05-14T09:31:55.474Z</time>
      </trkpt>
      <trkpt lat="47.846" lon="5.25204">
        <ele>373</ele>
        <time>2024-05-14T09:31:59.952Z</time>
      </trkpt>
      <trkpt lat="47.84595" lon="5.252">
        <ele>372</ele>
        <time>2024-05-14T09:32:04.389Z</time>
      </trkpt>
      <trkpt lat="47.8459" lon="5.25194">
        <ele>372</ele>
        <time>2024-05-14T09:32:08.807Z</time>
      </trkpt>
      <trkpt lat="47.84585" lon="5.25188">
        <ele>372</ele>
        <time>2024-05-14T09:32:12.988Z</time>
      </trkpt>
      <trkpt lat="47.84581" lon="5.25183">
        <ele>372</ele>
        <time>2024-05-14T09:32:17.573Z</time>
      </trkpt>
      <trkpt lat="47.84576" lon="5.25178">
        <ele>373</ele>
        <time>2024-05-14T09:32:21.987Z</time>
      </trkpt>
      <trkpt lat="47.84572" lon="5.25172">
        <ele>373</ele>
        <time>2024-05-14T09:32:26.573Z</time>
      </trkpt>
      <trkpt lat="47.84567" lon="5.25167">
        <ele>375</ele>
        <time>2024-05-14T09:32:30.987Z</time>
      </trkpt>
      <trkpt lat="47.84563" lon="5.25162">
        <ele>375</ele>
        <time>2024-05-14T09:32:35.634Z</time>
      </trkpt>
      <trkpt lat="47.84558" lon="5.25156">
        <ele>375</ele>
        <time>2024-05-14T09:32:39.987Z</time>
      </trkpt>
      <trkpt lat="47.84554" lon="5.2515">
        <ele>375</ele>
        <time>2024-05-14T09:32:44.995Z</time>
      </trkpt>
      <trkpt lat="47.84549" lon="5.25143">
        <ele>375</ele>
        <time>2024-05-14T09:32:48.987Z</time>
      </trkpt>
      <trkpt lat="47.84545" lon="5.25137">
        <ele>375</ele>
        <time>2024-05-14T09:32:53.714Z</time>
      </trkpt>
      <trkpt lat="47.84541" lon="5.2513">
        <ele>374</ele>
        <time>2024-05-14T09:32:58.313Z</time>
      </trkpt>
      <trkpt lat="47.84537" lon="5.25124">
        <ele>372</ele>
        <time>2024-05-14T09:33:02.895Z</time>
      </trkpt>
      <trkpt lat="47.84532" lon="5.25117">
        <ele>372</ele>
        <time>2024-05-14T09:33:06.988Z</time>
      </trkpt>
      <trkpt lat="47.84528" lon="5.25109">
        <ele>372</ele>
        <time>2024-05-14T09:33:11.751Z</time>
      </trkpt>
      <trkpt lat="47.84524" lon="5.25103">
        <ele>372</ele>
        <time>2024-05-14T09:33:15.871Z</time>
      </trkpt>
      <trkpt lat="47.84519" lon="5.25097">
        <ele>372</ele>
        <time>2024-05-14T09:33:20.368Z</time>
      </trkpt>
      <trkpt lat="47.84515" lon="5.25092">
        <ele>373</ele>
        <time>2024-05-14T09:33:24.976Z</time>
      </trkpt>
      <trkpt lat="47.8451" lon="5.25086">
        <ele>372</ele>
        <time>2024-05-14T09:33:29.533Z</time>
      </trkpt>
      <trkpt lat="47.84505" lon="5.2508">
        <ele>372</ele>
        <time>2024-05-14T09:33:33.988Z</time>
      </trkpt>
      <trkpt lat="47.84501" lon="5.25074">
        <ele>372</ele>
        <time>2024-05-14T09:33:38.550Z</time>
      </trkpt>
      <trkpt lat="47.84497" lon="5.25069">
        <ele>374</ele>
        <time>2024-05-14T09:33:42.988Z</time>
      </trkpt>
      <trkpt lat="47.84492" lon="5.25063">
        <ele>374</ele>
        <time>2024-05-14T09:33:47.434Z</time>
      </trkpt>
      <trkpt lat="47.84487" lon="5.25058">
        <ele>374</ele>
        <time>2024-05-14T09:33:51.571Z</time>
      </trkpt>
      <trkpt lat="47.84483" lon="5.25051">
        <ele>376</ele>
        <time>2024-05-14T09:33:55.633Z</time>
      </trkpt>
      <trkpt lat="47.84479" lon="5.25045">
        <ele>376</ele>
        <time>2024-05-14T09:34:00.215Z</time>
      </trkpt>
      <trkpt lat="47.84474" lon="5.25038">
        <ele>377</ele>
        <time>2024-05-14T09:34:04.310Z</time>
      </trkpt>
      <trkpt lat="47.84469" lon="5.25031">
        <ele>377</ele>
        <time>2024-05-14T09:34:08.371Z</time>
      </trkpt>
      <trkpt lat="47.84465" lon="5.25024">
        <ele>377</ele>
        <time>2024-05-14T09:34:12.330Z</time>
      </trkpt>
      <trkpt lat="47.84462" lon="5.25016">
        <ele>377</ele>
        <time>2024-05-14T09:34:16.468Z</time>
      </trkpt>
      <trkpt lat="47.84461" lon="5.25008">
        <ele>377</ele>
        <time>2024-05-14T09:34:20.514Z</time>
      </trkpt>
      <trkpt lat="47.84462" lon="5.24999">
        <ele>377</ele>
        <time>2024-05-14T09:34:24.988Z</time>
      </trkpt>
      <trkpt lat="47.84464" lon="5.2499">
        <ele>377</ele>
        <time>2024-05-14T09:34:29.514Z</time>
      </trkpt>
      <trkpt lat="47.84466" lon="5.24982">
        <ele>379</ele>
        <time>2024-05-14T09:34:33.988Z</time>
      </trkpt>
      <trkpt lat="47.84467" lon="5.24973">
        <ele>379</ele>
        <time>2024-05-14T09:34:38.729Z</time>
      </trkpt>
      <trkpt lat="47.84469" lon="5.24966">
        <ele>379</ele>
        <time>2024-05-14T09:34:42.987Z</time>
      </trkpt>
      <trkpt lat="47.84471" lon="5.24958">
        <ele>384</ele>
        <time>2024-05-14T09:34:47.091Z</time>
      </trkpt>
      <trkpt lat="47.84473" lon="5.2495">
        <ele>384</ele>
        <time>2024-05-14T09:34:51.734Z</time>
      </trkpt>
      <trkpt lat="47.84475" lon="5.24941">
        <ele>384</ele>
        <time>2024-05-14T09:34:56.288Z</time>
      </trkpt>
      <trkpt lat="47.84474" lon="5.24934">
        <ele>384</ele>
        <time>2024-05-14T09:35:00.494Z</time>
      </trkpt>
      <trkpt lat="47.84468" lon="5.2493">
        <ele>388</ele>
        <time>2024-05-14T09:35:04.987Z</time>
      </trkpt>
      <trkpt lat="47.84463" lon="5.24925">
        <ele>388</ele>
        <time>2024-05-14T09:35:09.987Z</time>
      </trkpt>
      <trkpt lat="47.84459" lon="5.2492">
        <ele>388</ele>
        <time>2024-05-14T09:35:14.488Z</time>
      </trkpt>
      <trkpt lat="47.84453" lon="5.24915">
        <ele>381</ele>
        <time>2024-05-14T09:35:18.987Z</time>
      </trkpt>
      <trkpt lat="47.84448" lon="5.24909">
        <ele>381</ele>
        <time>2024-05-14T09:35:23.456Z</time>
      </trkpt>
      <trkpt lat="47.84443" lon="5.24903">
        <ele>381</ele>
        <time>2024-05-14T09:35:27.875Z</time>
      </trkpt>
      <trkpt lat="47.84438" lon="5.24898">
        <ele>386</ele>
        <time>2024-05-14T09:35:31.988Z</time>
      </trkpt>
      <trkpt lat="47.84435" lon="5.24892">
        <ele>386</ele>
        <time>2024-05-14T09:35:36.511Z</time>
      </trkpt>
      <trkpt lat="47.8443" lon="5.24888">
        <ele>384</ele>
        <time>2024-05-14T09:35:40.528Z</time>
      </trkpt>
      <trkpt lat="47.84425" lon="5.24882">
        <ele>384</ele>
        <time>2024-05-14T09:35:44.991Z</time>
      </trkpt>
      <trkpt lat="47.84421" lon="5.24879">
        <ele>384</ele>
        <time>2024-05-14T09:35:49.155Z</time>
      </trkpt>
      <trkpt lat="47.84416" lon="5.24874">
        <ele>391</ele>
        <time>2024-05-14T09:35:53.609Z</time>
      </trkpt>
      <trkpt lat="47.84412" lon="5.24868">
        <ele>391</ele>
        <time>2024-05-14T09:35:57.670Z</time>
      </trkpt>
      <trkpt lat="47.84408" lon="5.24862">
        <ele>391</ele>
        <time>2024-05-14T09:36:01.988Z</time>
      </trkpt>
      <trkpt lat="47.84403" lon="5.24859">
        <ele>391</ele>
        <time>2024-05-14T09:36:06.474Z</time>
      </trkpt>
      <trkpt lat="47.84397" lon="5.24858">
        <ele>391</ele>
        <time>2024-05-14T09:36:10.895Z</time>
      </trkpt>
      <trkpt lat="47.84392" lon="5.24854">
        <ele>391</ele>
        <time>2024-05-14T09:36:14.990Z</time>
      </trkpt>
      <trkpt lat="47.84387" lon="5.24848">
        <ele>391</ele>
        <time>2024-05-14T09:36:19.649Z</time>
      </trkpt>
      <trkpt lat="47.84381" lon="5.24843">
        <ele>395</ele>
        <time>2024-05-14T09:36:24.155Z</time>
      </trkpt>
      <trkpt lat="47.84375" lon="5.2484">
        <ele>395</ele>
        <time>2024-05-14T09:36:28.650Z</time>
      </trkpt>
      <trkpt lat="47.84369" lon="5.24835">
        <ele>391</ele>
        <time>2024-05-14T09:36:32.986Z</time>
      </trkpt>
      <trkpt lat="47.84364" lon="5.2483">
        <ele>391</ele>
        <time>2024-05-14T09:36:37.474Z</time>
      </trkpt>
      <trkpt lat="47.8436" lon="5.24825">
        <ele>391</ele>
        <time>2024-05-14T09:36:41.954Z</time>
      </trkpt>
      <trkpt lat="47.84354" lon="5.24821">
        <ele>391</ele>
        <time>2024-05-14T09:36:45.986Z</time>
      </trkpt>
      <trkpt lat="47.8435" lon="5.24815">
        <ele>393</ele>
        <time>2024-05-14T09:36:50.254Z</time>
      </trkpt>
      <trkpt lat="47.84345" lon="5.2481">
        <ele>390</ele>
        <time>2024-05-14T09:36:54.754Z</time>
      </trkpt>
      <trkpt lat="47.84341" lon="5.24806">
        <ele>390</ele>
        <time>2024-05-14T09:36:58.756Z</time>
      </trkpt>
      <trkpt lat="47.84341" lon="5.24806">
        <ele>390</ele>
        <time>2024-05-14T09:37:03.224Z</time>
      </trkpt>
      <trkpt lat="47.84341" lon="5.24805">
        <ele>390</ele>
        <time>2024-05-14T09:37:07.987Z</time>
      </trkpt>
      <trkpt lat="47.84335" lon="5.24798">
        <ele>390</ele>
        <time>2024-05-14T09:37:12.555Z</time>
      </trkpt>
      <trkpt lat="47.8433" lon="5.24793">
        <ele>390</ele>
        <time>2024-05-14T09:37:16.986Z</time>
      </trkpt>
      <trkpt lat="47.84323" lon="5.24789">
        <ele>395</ele>
        <time>2024-05-14T09:37:21.554Z</time>
      </trkpt>
      <trkpt lat="47.84319" lon="5.24787">
        <ele>395</ele>
        <time>2024-05-14T09:37:25.933Z</time>
      </trkpt>
      <trkpt lat="47.84314" lon="5.24782">
        <ele>395</ele>
        <time>2024-05-14T09:37:29.986Z</time>
      </trkpt>
      <trkpt lat="47.84309" lon="5.24777">
        <ele>395</ele>
        <time>2024-05-14T09:37:34.959Z</time>
      </trkpt>
      <trkpt lat="47.84304" lon="5.24772">
        <ele>395</ele>
        <time>2024-05-14T09:37:39.498Z</time>
      </trkpt>
      <trkpt lat="47.84299" lon="5.24769">
        <ele>395</ele>
        <time>2024-05-14T09:37:44.008Z</time>
      </trkpt>
      <trkpt lat="47.84294" lon="5.24765">
        <ele>395</ele>
        <time>2024-05-14T09:37:48.455Z</time>
      </trkpt>
      <trkpt lat="47.84289" lon="5.24764">
        <ele>392</ele>
        <time>2024-05-14T09:37:52.893Z</time>
      </trkpt>
      <trkpt lat="47.84283" lon="5.24763">
        <ele>397</ele>
        <time>2024-05-14T09:37:56.987Z</time>
      </trkpt>
      <trkpt lat="47.84277" lon="5.2476">
        <ele>397</ele>
        <time>2024-05-14T09:38:01.773Z</time>
      </trkpt>
      <trkpt lat="47.84271" lon="5.24757">
        <ele>397</ele>
        <time>2024-05-14T09:38:06.311Z</time>
      </trkpt>
      <trkpt lat="47.84265" lon="5.24756">
        <ele>397</ele>
        <time>2024-05-14T09:38:10.913Z</time>
      </trkpt>
      <trkpt lat="47.84258" lon="5.24754">
        <ele>394</ele>
        <time>2024-05-14T09:38:14.989Z</time>
      </trkpt>
      <trkpt lat="47.84252" lon="5.2475">
        <ele>394</ele>
        <time>2024-05-14T09:38:19.571Z</time>
      </trkpt>
      <trkpt lat="47.84246" lon="5.24745">
        <ele>394</ele>
        <time>2024-05-14T09:38:23.987Z</time>
      </trkpt>
      <trkpt lat="47.8424" lon="5.2474">
        <ele>394</ele>
        <time>2024-05-14T09:38:28.674Z</time>
      </trkpt>
      <trkpt lat="47.84234" lon="5.24737">
        <ele>392</ele>
        <time>2024-05-14T09:38:32.986Z</time>
      </trkpt>
      <trkpt lat="47.84228" lon="5.24735">
        <ele>395</ele>
        <time>2024-05-14T09:38:37.637Z</time>
      </trkpt>
      <trkpt lat="47.84222" lon="5.24732">
        <ele>395</ele>
        <time>2024-05-14T09:38:41.986Z</time>
      </trkpt>
      <trkpt lat="47.84217" lon="5.24729">
        <ele>395</ele>
        <time>2024-05-14T09:38:46.514Z</time>
      </trkpt>
      <trkpt lat="47.84211" lon="5.24726">
        <ele>395</ele>
        <time>2024-05-14T09:38:50.986Z</time>
      </trkpt>
      <trkpt lat="47.84206" lon="5.24722">
        <ele>391</ele>
        <time>2024-05-14T09:38:55.491Z</time>
      </trkpt>
      <trkpt lat="47.84201" lon="5.24715">
        <ele>391</ele>
        <time>2024-05-14T09:38:59.987Z</time>
      </trkpt>
      <trkpt lat="47.84198" lon="5.24708">
        <ele>392</ele>
        <time>2024-05-14T09:39:04.476Z</time>
      </trkpt>
      <trkpt lat="47.84197" lon="5.24705">
        <ele>392</ele>
        <time>2024-05-14T09:39:08.691Z</time>
      </trkpt>
      <trkpt lat="47.84192" lon="5.24698">
        <ele>392</ele>
        <time>2024-05-14T09:39:12.986Z</time>
      </trkpt>
      <trkpt lat="47.84188" lon="5.24692">
        <ele>392</ele>
        <time>2024-05-14T09:39:17.394Z</time>
      </trkpt>
      <trkpt lat="47.84183" lon="5.24687">
        <ele>392</ele>
        <time>2024-05-14T09:39:21.815Z</time>
      </trkpt>
      <trkpt lat="47.84178" lon="5.24684">
        <ele>385</ele>
        <time>2024-05-14T09:39:25.987Z</time>
      </trkpt>
      <trkpt lat="47.84172" lon="5.2468">
        <ele>388</ele>
        <time>2024-05-14T09:39:29.986Z</time>
      </trkpt>
      <trkpt lat="47.84167" lon="5.24675">
        <ele>388</ele>
        <time>2024-05-14T09:39:34.534Z</time>
      </trkpt>
      <trkpt lat="47.84162" lon="5.2467">
        <ele>388</ele>
        <time>2024-05-14T09:39:38.733Z</time>
      </trkpt>
      <trkpt lat="47.84157" lon="5.24664">
        <ele>388</ele>
        <time>2024-05-14T09:39:42.986Z</time>
      </trkpt>
      <trkpt lat="47.84152" lon="5.24659">
        <ele>384</ele>
        <time>2024-05-14T09:39:47.871Z</time>
      </trkpt>
      <trkpt lat="47.84148" lon="5.24653">
        <ele>384</ele>
        <time>2024-05-14T09:39:52.214Z</time>
      </trkpt>
      <trkpt lat="47.84145" lon="5.24643">
        <ele>389</ele>
        <time>2024-05-14T09:39:56.411Z</time>
      </trkpt>
      <trkpt lat="47.84144" lon="5.24632">
        <ele>389</ele>
        <time>2024-05-14T09:40:00.967Z</time>
      </trkpt>
      <trkpt lat="47.84141" lon="5.24624">
        <ele>395</ele>
        <time>2024-05-14T09:40:05.848Z</time>
      </trkpt>
      <trkpt lat="47.84137" lon="5.24619">
        <ele>395</ele>
        <time>2024-05-14T09:40:10.311Z</time>
      </trkpt>
      <trkpt lat="47.84132" lon="5.24612">
        <ele>395</ele>
        <time>2024-05-14T09:40:14.670Z</time>
      </trkpt>
      <trkpt lat="47.84129" lon="5.24606">
        <ele>395</ele>
        <time>2024-05-14T09:40:18.987Z</time>
      </trkpt>
      <trkpt lat="47.84125" lon="5.24603">
        <ele>390</ele>
        <time>2024-05-14T09:40:23.407Z</time>
      </trkpt>
      <trkpt lat="47.84119" lon="5.24598">
        <ele>390</ele>
        <time>2024-05-14T09:40:27.990Z</time>
      </trkpt>
      <trkpt lat="47.84115" lon="5.24592">
        <ele>395</ele>
        <time>2024-05-14T09:40:32.256Z</time>
      </trkpt>
      <trkpt lat="47.84112" lon="5.24585">
        <ele>395</ele>
        <time>2024-05-14T09:40:36.455Z</time>
      </trkpt>
      <trkpt lat="47.84108" lon="5.24578">
        <ele>395</ele>
        <time>2024-05-14T09:40:40.934Z</time>
      </trkpt>
      <trkpt lat="47.84103" lon="5.24573">
        <ele>395</ele>
        <time>2024-05-14T09:40:44.987Z</time>
      </trkpt>
      <trkpt lat="47.84099" lon="5.24566">
        <ele>399</ele>
        <time>2024-05-14T09:40:49.986Z</time>
      </trkpt>
      <trkpt lat="47.84098" lon="5.2456">
        <ele>399</ele>
        <time>2024-05-14T09:40:54.654Z</time>
      </trkpt>
      <trkpt lat="47.84099" lon="5.24561">
        <ele>399</ele>
        <time>2024-05-14T09:40:58.986Z</time>
      </trkpt>
      <trkpt lat="47.84096" lon="5.24553">
        <ele>392</ele>
        <time>2024-05-14T09:41:03.956Z</time>
      </trkpt>
      <trkpt lat="47.84091" lon="5.24547">
        <ele>392</ele>
        <time>2024-05-14T09:41:07.986Z</time>
      </trkpt>
      <trkpt lat="47.84084" lon="5.24542">
        <ele>392</ele>
        <time>2024-05-14T09:41:12.911Z</time>
      </trkpt>
      <trkpt lat="47.84078" lon="5.24538">
        <ele>398</ele>
        <time>2024-05-14T09:41:17.375Z</time>
      </trkpt>
      <trkpt lat="47.84073" lon="5.24534">
        <ele>398</ele>
        <time>2024-05-14T09:41:21.987Z</time>
      </trkpt>
      <trkpt lat="47.84069" lon="5.24529">
        <ele>391</ele>
        <time>2024-05-14T09:41:26.453Z</time>
      </trkpt>
      <trkpt lat="47.84064" lon="5.2453">
        <ele>391</ele>
        <time>2024-05-14T09:41:30.948Z</time>
      </trkpt>
      <trkpt lat="47.84057" lon="5.2453">
        <ele>391</ele>
        <time>2024-05-14T09:41:34.986Z</time>
      </trkpt>
      <trkpt lat="47.8405" lon="5.24528">
        <ele>391</ele>
        <time>2024-05-14T09:41:39.455Z</time>
      </trkpt>
      <trkpt lat="47.84046" lon="5.24523">
        <ele>391</ele>
        <time>2024-05-14T09:41:43.717Z</time>
      </trkpt>
      <trkpt lat="47.84042" lon="5.24515">
        <ele>391</ele>
        <time>2024-05-14T09:41:48.987Z</time>
      </trkpt>
      <trkpt lat="47.84041" lon="5.24506">
        <ele>389</ele>
        <time>2024-05-14T09:41:53.453Z</time>
      </trkpt>
      <trkpt lat="47.8404" lon="5.24497">
        <ele>389</ele>
        <time>2024-05-14T09:41:57.556Z</time>
      </trkpt>
      <trkpt lat="47.84035" lon="5.2449">
        <ele>389</ele>
        <time>2024-05-14T09:42:01.696Z</time>
      </trkpt>
      <trkpt lat="47.84032" lon="5.24484">
        <ele>395</ele>
        <time>2024-05-14T09:42:05.987Z</time>
      </trkpt>
      <trkpt lat="47.84026" lon="5.2448">
        <ele>395</ele>
        <time>2024-05-14T09:42:10.857Z</time>
      </trkpt>
      <trkpt lat="47.8402" lon="5.24476">
        <ele>395</ele>
        <time>2024-05-14T09:42:14.986Z</time>
      </trkpt>
      <trkpt lat="47.84016" lon="5.24471">
        <ele>395</ele>
        <time>2024-05-14T09:42:19.697Z</time>
      </trkpt>
      <trkpt lat="47.84012" lon="5.24463">
        <ele>389</ele>
        <time>2024-05-14T09:42:23.987Z</time>
      </trkpt>
      <trkpt lat="47.84009" lon="5.24458">
        <ele>395</ele>
        <time>2024-05-14T09:42:28.758Z</time>
      </trkpt>
      <trkpt lat="47.84003" lon="5.24455">
        <ele>395</ele>
        <time>2024-05-14T09:42:32.987Z</time>
      </trkpt>
      <trkpt lat="47.83997" lon="5.2445">
        <ele>395</ele>
        <time>2024-05-14T09:42:37.632Z</time>
      </trkpt>
      <trkpt lat="47.83992" lon="5.24447">
        <ele>395</ele>
        <time>2024-05-14T09:42:41.974Z</time>
      </trkpt>
      <trkpt lat="47.83986" lon="5.24443">
        <ele>388</ele>
        <time>2024-05-14T09:42:45.986Z</time>
      </trkpt>
      <trkpt lat="47.83982" lon="5.24439">
        <ele>388</ele>
        <time>2024-05-14T09:42:50.986Z</time>
      </trkpt>
      <trkpt lat="47.83977" lon="5.24436">
        <ele>388</ele>
        <time>2024-05-14T09:42:55.498Z</time>
      </trkpt>
      <trkpt lat="47.83971" lon="5.24433">
        <ele>388</ele>
        <time>2024-05-14T09:42:59.616Z</time>
      </trkpt>
      <trkpt lat="47.83967" lon="5.24429">
        <ele>392</ele>
        <time>2024-05-14T09:43:03.987Z</time>
      </trkpt>
      <trkpt lat="47.83964" lon="5.24423">
        <ele>392</ele>
        <time>2024-05-14T09:43:08.799Z</time>
      </trkpt>
      <trkpt lat="47.83962" lon="5.24416">
        <ele>392</ele>
        <time>2024-05-14T09:43:13.295Z</time>
      </trkpt>
      <trkpt lat="47.83959" lon="5.24408">
        <ele>392</ele>
        <time>2024-05-14T09:43:17.715Z</time>
      </trkpt>
      <trkpt lat="47.83955" lon="5.24402">
        <ele>390</ele>
        <time>2024-05-14T09:43:21.854Z</time>
      </trkpt>
      <trkpt lat="47.83951" lon="5.24395">
        <ele>390</ele>
        <time>2024-05-14T09:43:25.987Z</time>
      </trkpt>
      <trkpt lat="47.83948" lon="5.24388">
        <ele>390</ele>
        <time>2024-05-14T09:43:30.620Z</time>
      </trkpt>
      <trkpt lat="47.83946" lon="5.24381">
        <ele>390</ele>
        <time>2024-05-14T09:43:34.987Z</time>
      </trkpt>
      <trkpt lat="47.83943" lon="5.24375">
        <ele>394</ele>
        <time>2024-05-14T09:43:39.635Z</time>
      </trkpt>
      <trkpt lat="47.83941" lon="5.24365">
        <ele>394</ele>
        <time>2024-05-14T09:43:43.736Z</time>
      </trkpt>
      <trkpt lat="47.83939" lon="5.24357">
        <ele>394</ele>
        <time>2024-05-14T09:43:47.986Z</time>
      </trkpt>
      <trkpt lat="47.83935" lon="5.24352">
        <ele>394</ele>
        <time>2024-05-14T09:43:52.932Z</time>
      </trkpt>
      <trkpt lat="47.83931" lon="5.24346">
        <ele>398</ele>
        <time>2024-05-14T09:43:56.986Z</time>
      </trkpt>
      <trkpt lat="47.83929" lon="5.24337">
        <ele>390</ele>
        <time>2024-05-14T09:44:01.950Z</time>
      </trkpt>
      <trkpt lat="47.83926" lon="5.24329">
        <ele>390</ele>
        <time>2024-05-14T09:44:05.987Z</time>
      </trkpt>
      <trkpt lat="47.83923" lon="5.24322">
        <ele>390</ele>
        <time>2024-05-14T09:44:10.627Z</time>
      </trkpt>
      <trkpt lat="47.8392" lon="5.24314">
        <ele>393</ele>
        <time>2024-05-14T09:44:14.774Z</time>
      </trkpt>
      <trkpt lat="47.83916" lon="5.24308">
        <ele>393</ele>
        <time>2024-05-14T09:44:19.314Z</time>
      </trkpt>
      <trkpt lat="47.83911" lon="5.24302">
        <ele>393</ele>
        <time>2024-05-14T09:44:23.895Z</time>
      </trkpt>
      <trkpt lat="47.83907" lon="5.243">
        <ele>393</ele>
        <time>2024-05-14T09:44:28.435Z</time>
      </trkpt>
      <trkpt lat="47.83904" lon="5.24293">
        <ele>393</ele>
        <time>2024-05-14T09:44:32.987Z</time>
      </trkpt>
      <trkpt lat="47.83901" lon="5.24284">
        <ele>391</ele>
        <time>2024-05-14T09:44:37.987Z</time>
      </trkpt>
      <trkpt lat="47.83899" lon="5.24278">
        <ele>391</ele>
        <time>2024-05-14T09:44:42.215Z</time>
      </trkpt>
      <trkpt lat="47.83895" lon="5.2427">
        <ele>391</ele>
        <time>2024-05-14T09:44:46.354Z</time>
      </trkpt>
      <trkpt lat="47.83891" lon="5.24264">
        <ele>391</ele>
        <time>2024-05-14T09:44:50.733Z</time>
      </trkpt>
      <trkpt lat="47.83888" lon="5.24259">
        <ele>391</ele>
        <time>2024-05-14T09:44:55.175Z</time>
      </trkpt>
      <trkpt lat="47.83885" lon="5.24253">
        <ele>391</ele>
        <time>2024-05-14T09:44:59.537Z</time>
      </trkpt>
      <trkpt lat="47.83882" lon="5.24246">
        <ele>391</ele>
        <time>2024-05-14T09:45:03.988Z</time>
      </trkpt>
      <trkpt lat="47.8388" lon="5.2424">
        <ele>391</ele>
        <time>2024-05-14T09:45:08.614Z</time>
      </trkpt>
      <trkpt lat="47.83879" lon="5.24235">
        <ele>392</ele>
        <time>2024-05-14T09:45:12.987Z</time>
      </trkpt>
      <trkpt lat="47.83879" lon="5.24228">
        <ele>392</ele>
        <time>2024-05-14T09:45:17.053Z</time>
      </trkpt>
      <trkpt lat="47.83881" lon="5.24221">
        <ele>392</ele>
        <time>2024-05-14T09:45:21.987Z</time>
      </trkpt>
      <trkpt lat="47.83884" lon="5.24214">
        <ele>392</ele>
        <time>2024-05-14T09:45:26.608Z</time>
      </trkpt>
      <trkpt lat="47.83887" lon="5.24208">
        <ele>393</ele>
        <time>2024-05-14T09:45:30.986Z</time>
      </trkpt>
      <trkpt lat="47.83891" lon="5.24203">
        <ele>393</ele>
        <time>2024-05-14T09:45:35.550Z</time>
      </trkpt>
      <trkpt lat="47.83894" lon="5.24196">
        <ele>393</ele>
        <time>2024-05-14T09:45:39.986Z</time>
      </trkpt>
      <trkpt lat="47.83895" lon="5.24189">
        <ele>393</ele>
        <time>2024-05-14T09:45:44.090Z</time>
      </trkpt>
      <trkpt lat="47.83896" lon="5.24179">
        <ele>395</ele>
        <time>2024-05-14T09:45:48.529Z</time>
      </trkpt>
      <trkpt lat="47.83897" lon="5.24172">
        <ele>395</ele>
        <time>2024-05-14T09:45:52.986Z</time>
      </trkpt>
      <trkpt lat="47.83899" lon="5.24163">
        <ele>395</ele>
        <time>2024-05-14T09:45:57.615Z</time>
      </trkpt>
      <trkpt lat="47.83899" lon="5.24157">
        <ele>395</ele>
        <time>2024-05-14T09:46:01.711Z</time>
      </trkpt>
      <trkpt lat="47.83899" lon="5.24148">
        <ele>396</ele>
        <time>2024-05-14T09:46:05.934Z</time>
      </trkpt>
      <trkpt lat="47.83898" lon="5.2414">
        <ele>396</ele>
        <time>2024-05-14T09:46:09.986Z</time>
      </trkpt>
      <trkpt lat="47.83899" lon="5.24132">
        <ele>396</ele>
        <time>2024-05-14T09:46:14.850Z</time>
      </trkpt>
      <trkpt lat="47.83899" lon="5.24123">
        <ele>397</ele>
        <time>2024-05-14T09:46:19.374Z</time>
      </trkpt>
      <trkpt lat="47.83901" lon="5.24114">
        <ele>397</ele>
        <time>2024-05-14T09:46:23.690Z</time>
      </trkpt>
      <trkpt lat="47.83901" lon="5.24106">
        <ele>397</ele>
        <time>2024-05-14T09:46:28.215Z</time>
      </trkpt>
      <trkpt lat="47.839" lon="5.24096">
        <ele>399</ele>
        <time>2024-05-14T09:46:32.871Z</time>
      </trkpt>
      <trkpt lat="47.83899" lon="5.24088">
        <ele>399</ele>
        <time>2024-05-14T09:46:36.985Z</time>
      </trkpt>
      <trkpt lat="47.83897" lon="5.2408">
        <ele>399</ele>
        <time>2024-05-14T09:46:41.396Z</time>
      </trkpt>
      <trkpt lat="47.83896" lon="5.24071">
        <ele>399</ele>
        <time>2024-05-14T09:46:45.568Z</time>
      </trkpt>
      <trkpt lat="47.83896" lon="5.24062">
        <ele>401</ele>
        <time>2024-05-14T09:46:49.985Z</time>
      </trkpt>
      <trkpt lat="47.83894" lon="5.24052">
        <ele>401</ele>
        <time>2024-05-14T09:46:54.933Z</time>
      </trkpt>
      <trkpt lat="47.83891" lon="5.24045">
        <ele>401</ele>
        <time>2024-05-14T09:46:59.408Z</time>
      </trkpt>
      <trkpt lat="47.83886" lon="5.24037">
        <ele>404</ele>
        <time>2024-05-14T09:47:03.956Z</time>
      </trkpt>
      <trkpt lat="47.83882" lon="5.24029">
        <ele>404</ele>
        <time>2024-05-14T09:47:08.530Z</time>
      </trkpt>
      <trkpt lat="47.83879" lon="5.24022">
        <ele>404</ele>
        <time>2024-05-14T09:47:12.608Z</time>
      </trkpt>
      <trkpt lat="47.83876" lon="5.24013">
        <ele>408</ele>
        <time>2024-05-14T09:47:17.755Z</time>
      </trkpt>
      <trkpt lat="47.83874" lon="5.24003">
        <ele>400</ele>
        <time>2024-05-14T09:47:21.985Z</time>
      </trkpt>
      <trkpt lat="47.83872" lon="5.23995">
        <ele>400</ele>
        <time>2024-05-14T09:47:26.562Z</time>
      </trkpt>
      <trkpt lat="47.8387" lon="5.23986">
        <ele>400</ele>
        <time>2024-05-14T09:47:30.986Z</time>
      </trkpt>
      <trkpt lat="47.83868" lon="5.23978">
        <ele>404</ele>
        <time>2024-05-14T09:47:35.671Z</time>
      </trkpt>
      <trkpt lat="47.83866" lon="5.2397">
        <ele>404</ele>
        <time>2024-05-14T09:47:40.210Z</time>
      </trkpt>
      <trkpt lat="47.83863" lon="5.23962">
        <ele>404</ele>
        <time>2024-05-14T09:47:44.469Z</time>
      </trkpt>
      <trkpt lat="47.83859" lon="5.23955">
        <ele>408</ele>
        <time>2024-05-14T09:47:48.691Z</time>
      </trkpt>
      <trkpt lat="47.83855" lon="5.23947">
        <ele>408</ele>
        <time>2024-05-14T09:47:52.985Z</time>
      </trkpt>
      <trkpt lat="47.83851" lon="5.23939">
        <ele>408</ele>
        <time>2024-05-14T09:47:57.574Z</time>
      </trkpt>
      <trkpt lat="47.83848" lon="5.23933">
        <ele>408</ele>
        <time>2024-05-14T09:48:01.568Z</time>
      </trkpt>
      <trkpt lat="47.83845" lon="5.23926">
        <ele>402</ele>
        <time>2024-05-14T09:48:05.985Z</time>
      </trkpt>
      <trkpt lat="47.83843" lon="5.23917">
        <ele>402</ele>
        <time>2024-05-14T09:48:09.985Z</time>
      </trkpt>
      <trkpt lat="47.83841" lon="5.23909">
        <ele>402</ele>
        <time>2024-05-14T09:48:13.986Z</time>
      </trkpt>
      <trkpt lat="47.83838" lon="5.23901">
        <ele>402</ele>
        <time>2024-05-14T09:48:18.618Z</time>
      </trkpt>
      <trkpt lat="47.83834" lon="5.23894">
        <ele>402</ele>
        <time>2024-05-14T09:48:22.650Z</time>
      </trkpt>
      <trkpt lat="47.83831" lon="5.23885">
        <ele>402</ele>
        <time>2024-05-14T09:48:27.216Z</time>
      </trkpt>
      <trkpt lat="47.83828" lon="5.23878">
        <ele>402</ele>
        <time>2024-05-14T09:48:31.985Z</time>
      </trkpt>
      <trkpt lat="47.83825" lon="5.23871">
        <ele>405</ele>
        <time>2024-05-14T09:48:36.670Z</time>
      </trkpt>
      <trkpt lat="47.83822" lon="5.23864">
        <ele>405</ele>
        <time>2024-05-14T09:48:41.056Z</time>
      </trkpt>
      <trkpt lat="47.83819" lon="5.23857">
        <ele>398</ele>
        <time>2024-05-14T09:48:45.433Z</time>
      </trkpt>
      <trkpt lat="47.83816" lon="5.23851">
        <ele>398</ele>
        <time>2024-05-14T09:48:49.955Z</time>
      </trkpt>
      <trkpt lat="47.83814" lon="5.23846">
        <ele>403</ele>
        <time>2024-05-14T09:48:53.985Z</time>
      </trkpt>
      <trkpt lat="47.83811" lon="5.23839">
        <ele>403</ele>
        <time>2024-05-14T09:48:58.547Z</time>
      </trkpt>
      <trkpt lat="47.83808" lon="5.23833">
        <ele>403</ele>
        <time>2024-05-14T09:49:02.694Z</time>
      </trkpt>
      <trkpt lat="47.83802" lon="5.23829">
        <ele>403</ele>
        <time>2024-05-14T09:49:06.985Z</time>
      </trkpt>
      <trkpt lat="47.83796" lon="5.23825">
        <ele>403</ele>
        <time>2024-05-14T09:49:11.814Z</time>
      </trkpt>
      <trkpt lat="47.83791" lon="5.23821">
        <ele>396</ele>
        <time>2024-05-14T09:49:15.985Z</time>
      </trkpt>
      <trkpt lat="47.83786" lon="5.23818">
        <ele>402</ele>
        <time>2024-05-14T09:49:20.673Z</time>
      </trkpt>
      <trkpt lat="47.83782" lon="5.23813">
        <ele>402</ele>
        <time>2024-05-14T09:49:24.985Z</time>
      </trkpt>
      <trkpt lat="47.83777" lon="5.23808">
        <ele>402</ele>
        <time>2024-05-14T09:49:29.588Z</time>
      </trkpt>
      <trkpt lat="47.83774" lon="5.23801">
        <ele>402</ele>
        <time>2024-05-14T09:49:33.985Z</time>
      </trkpt>
      <trkpt lat="47.8377" lon="5.23797">
        <ele>402</ele>
        <time>2024-05-14T09:49:38.515Z</time>
      </trkpt>
      <trkpt lat="47.83765" lon="5.23794">
        <ele>402</ele>
        <time>2024-05-14T09:49:42.985Z</time>
      </trkpt>
      <trkpt lat="47.8376" lon="5.23792">
        <ele>398</ele>
        <time>2024-05-14T09:49:47.815Z</time>
      </trkpt>
      <trkpt lat="47.83755" lon="5.23789">
        <ele>405</ele>
        <time>2024-05-14T09:49:51.986Z</time>
      </trkpt>
      <trkpt lat="47.83751" lon="5.23787">
        <ele>405</ele>
        <time>2024-05-14T09:49:56.996Z</time>
      </trkpt>
      <trkpt lat="47.83746" lon="5.23781">
        <ele>405</ele>
        <time>2024-05-14T09:50:00.986Z</time>
      </trkpt>
      <trkpt lat="47.83742" lon="5.23775">
        <ele>405</ele>
        <time>2024-05-14T09:50:05.734Z</time>
      </trkpt>
      <trkpt lat="47.83738" lon="5.2377">
        <ele>405</ele>
        <time>2024-05-14T09:50:09.855Z</time>
      </trkpt>
      <trkpt lat="47.83734" lon="5.23765">
        <ele>401</ele>
        <time>2024-05-14T09:50:13.985Z</time>
      </trkpt>
      <trkpt lat="47.8373" lon="5.23761">
        <ele>405</ele>
        <time>2024-05-14T09:50:18.369Z</time>
      </trkpt>
      <trkpt lat="47.83726" lon="5.23756">
        <ele>405</ele>
        <time>2024-05-14T09:50:22.508Z</time>
      </trkpt>
      <trkpt lat="47.83721" lon="5.23751">
        <ele>405</ele>
        <time>2024-05-14T09:50:26.867Z</time>
      </trkpt>
      <trkpt lat="47.83717" lon="5.23744">
        <ele>405</ele>
        <time>2024-05-14T09:50:30.986Z</time>
      </trkpt>
      <trkpt lat="47.83715" lon="5.23737">
        <ele>405</ele>
        <time>2024-05-14T09:50:35.708Z</time>
      </trkpt>
      <trkpt lat="47.83711" lon="5.23729">
        <ele>410</ele>
        <time>2024-05-14T09:50:39.986Z</time>
      </trkpt>
      <trkpt lat="47.83707" lon="5.23723">
        <ele>403</ele>
        <time>2024-05-14T09:50:44.398Z</time>
      </trkpt>
      <trkpt lat="47.83703" lon="5.23718">
        <ele>403</ele>
        <time>2024-05-14T09:50:48.971Z</time>
      </trkpt>
      <trkpt lat="47.83699" lon="5.23713">
        <ele>403</ele>
        <time>2024-05-14T09:50:52.985Z</time>
      </trkpt>
      <trkpt lat="47.83695" lon="5.23709">
        <ele>403</ele>
        <time>2024-05-14T09:50:57.616Z</time>
      </trkpt>
      <trkpt lat="47.83691" lon="5.23703">
        <ele>408</ele>
        <time>2024-05-14T09:51:02.197Z</time>
      </trkpt>
      <trkpt lat="47.83686" lon="5.23697">
        <ele>408</ele>
        <time>2024-05-14T09:51:23.813Z</time>
      </trkpt>
      <trkpt lat="47.83682" lon="5.23691">
        <ele>408</ele>
        <time>2024-05-14T09:51:28.196Z</time>
      </trkpt>
      <trkpt lat="47.83677" lon="5.23684">
        <ele>402</ele>
        <time>2024-05-14T09:51:32.797Z</time>
      </trkpt>
      <trkpt lat="47.83673" lon="5.23678">
        <ele>405</ele>
        <time>2024-05-14T09:51:36.985Z</time>
      </trkpt>
      <trkpt lat="47.83669" lon="5.23672">
        <ele>405</ele>
        <time>2024-05-14T09:51:41.986Z</time>
      </trkpt>
      <trkpt lat="47.83664" lon="5.23666">
        <ele>405</ele>
        <time>2024-05-14T09:51:54.985Z</time>
      </trkpt>
      <trkpt lat="47.83659" lon="5.2366">
        <ele>405</ele>
        <time>2024-05-14T09:51:59.934Z</time>
      </trkpt>
      <trkpt lat="47.83654" lon="5.23653">
        <ele>405</ele>
        <time>2024-05-14T09:52:03.985Z</time>
      </trkpt>
      <trkpt lat="47.8365" lon="5.23647">
        <ele>400</ele>
        <time>2024-05-14T09:52:08.986Z</time>
      </trkpt>
      <trkpt lat="47.83645" lon="5.23648">
        <ele>400</ele>
        <time>2024-05-14T09:52:13.775Z</time>
      </trkpt>
      <trkpt lat="47.83638" lon="5.23649">
        <ele>400</ele>
        <time>2024-05-14T09:52:22.985Z</time>
      </trkpt>
      <trkpt lat="47.83634" lon="5.23647">
        <ele>400</ele>
        <time>2024-05-14T09:52:27.625Z</time>
      </trkpt>
      <trkpt lat="47.83629" lon="5.23641">
        <ele>400</ele>
        <time>2024-05-14T09:52:31.813Z</time>
      </trkpt>
      <trkpt lat="47.83632" lon="5.23634">
        <ele>400</ele>
        <time>2024-05-14T09:52:35.984Z</time>
      </trkpt>
      <trkpt lat="47.83633" lon="5.23631">
        <ele>400</ele>
        <time>2024-05-14T09:52:40.986Z</time>
      </trkpt>
      <trkpt lat="47.83633" lon="5.23628">
        <ele>400</ele>
        <time>2024-05-14T09:53:24.568Z</time>
      </trkpt>
      <trkpt lat="47.83636" lon="5.23621">
        <ele>401</ele>
        <time>2024-05-14T09:53:28.985Z</time>
      </trkpt>
      <trkpt lat="47.83636" lon="5.23613">
        <ele>401</ele>
        <time>2024-05-14T09:53:33.402Z</time>
      </trkpt>
      <trkpt lat="47.83633" lon="5.23606">
        <ele>401</ele>
        <time>2024-05-14T09:53:37.984Z</time>
      </trkpt>
      <trkpt lat="47.83629" lon="5.23598">
        <ele>401</ele>
        <time>2024-05-14T09:53:41.984Z</time>
      </trkpt>
      <trkpt lat="47.83627" lon="5.23591">
        <ele>402</ele>
        <time>2024-05-14T09:53:59.627Z</time>
      </trkpt>
      <trkpt lat="47.83625" lon="5.23583">
        <ele>394</ele>
        <time>2024-05-14T09:54:03.647Z</time>
      </trkpt>
      <trkpt lat="47.83622" lon="5.23576">
        <ele>394</ele>
        <time>2024-05-14T09:54:07.985Z</time>
      </trkpt>
      <trkpt lat="47.83621" lon="5.23571">
        <ele>394</ele>
        <time>2024-05-14T09:54:12.628Z</time>
      </trkpt>
      <trkpt lat="47.8362" lon="5.23564">
        <ele>396</ele>
        <time>2024-05-14T09:54:17.326Z</time>
      </trkpt>
      <trkpt lat="47.83619" lon="5.2356">
        <ele>396</ele>
        <time>2024-05-14T09:54:21.985Z</time>
      </trkpt>
      <trkpt lat="47.83616" lon="5.23557">
        <ele>396</ele>
        <time>2024-05-14T09:54:26.627Z</time>
      </trkpt>
      <trkpt lat="47.83616" lon="5.23566">
        <ele>396</ele>
        <time>2024-05-14T09:54:30.985Z</time>
      </trkpt>
      <trkpt lat="47.83617" lon="5.23569">
        <ele>396</ele>
        <time>2024-05-14T09:54:35.985Z</time>
      </trkpt>
      <trkpt lat="47.8362" lon="5.23576">
        <ele>394</ele>
        <time>2024-05-14T09:54:40.102Z</time>
      </trkpt>
      <trkpt lat="47.83625" lon="5.23576">
        <ele>394</ele>
        <time>2024-05-14T09:54:44.951Z</time>
      </trkpt>
      <trkpt lat="47.83627" lon="5.23564">
        <ele>404</ele>
        <time>2024-05-14T09:54:49.490Z</time>
      </trkpt>
      <trkpt lat="47.83629" lon="5.23558">
        <ele>404</ele>
        <time>2024-05-14T09:54:53.984Z</time>
      </trkpt>
      <trkpt lat="47.8363" lon="5.23554">
        <ele>404</ele>
        <time>2024-05-14T09:54:58.245Z</time>
      </trkpt>
      <trkpt lat="47.8363" lon="5.23552">
        <ele>404</ele>
        <time>2024-05-14T09:55:10.985Z</time>
      </trkpt>
      <trkpt lat="47.83628" lon="5.23548">
        <ele>404</ele>
        <time>2024-05-14T09:55:15.985Z</time>
      </trkpt>
      <trkpt lat="47.83629" lon="5.23541">
        <ele>407</ele>
        <time>2024-05-14T09:55:20.985Z</time>
      </trkpt>
      <trkpt lat="47.83629" lon="5.2354">
        <ele>407</ele>
        <time>2024-05-14T09:55:25.570Z</time>
      </trkpt>
      <trkpt lat="47.83628" lon="5.23535">
        <ele>407</ele>
        <time>2024-05-14T09:55:33.984Z</time>
      </trkpt>
      <trkpt lat="47.83626" lon="5.23531">
        <ele>407</ele>
        <time>2024-05-14T09:55:38.451Z</time>
      </trkpt>
      <trkpt lat="47.83623" lon="5.2353">
        <ele>399</ele>
        <time>2024-05-14T09:55:42.984Z</time>
      </trkpt>
      <trkpt lat="47.83618" lon="5.23527">
        <ele>399</ele>
        <time>2024-05-14T09:55:47.225Z</time>
      </trkpt>
      <trkpt lat="47.83619" lon="5.23526">
        <ele>399</ele>
        <time>2024-05-14T09:55:51.391Z</time>
      </trkpt>
      <trkpt lat="47.83619" lon="5.23523">
        <ele>399</ele>
        <time>2024-05-14T09:55:55.984Z</time>
      </trkpt>
      <trkpt lat="47.83615" lon="5.23512">
        <ele>403</ele>
        <time>2024-05-14T09:56:00.668Z</time>
      </trkpt>
      <trkpt lat="47.83611" lon="5.23507">
        <ele>403</ele>
        <time>2024-05-14T09:56:04.690Z</time>
      </trkpt>
      <trkpt lat="47.83609" lon="5.23493">
        <ele>403</ele>
        <time>2024-05-14T09:56:08.984Z</time>
      </trkpt>
      <trkpt lat="47.83607" lon="5.23494">
        <ele>403</ele>
        <time>2024-05-14T09:56:13.613Z</time>
      </trkpt>
      <trkpt lat="47.83605" lon="5.23491">
        <ele>403</ele>
        <time>2024-05-14T09:56:17.728Z</time>
      </trkpt>
      <trkpt lat="47.83605" lon="5.23485">
        <ele>406</ele>
        <time>2024-05-14T09:56:21.984Z</time>
      </trkpt>
      <trkpt lat="47.83603" lon="5.23477">
        <ele>406</ele>
        <time>2024-05-14T09:56:25.985Z</time>
      </trkpt>
      <trkpt lat="47.83601" lon="5.2347">
        <ele>406</ele>
        <time>2024-05-14T09:56:30.366Z</time>
      </trkpt>
      <trkpt lat="47.83599" lon="5.23463">
        <ele>406</ele>
        <time>2024-05-14T09:56:34.769Z</time>
      </trkpt>
      <trkpt lat="47.83597" lon="5.23457">
        <ele>408</ele>
        <time>2024-05-14T09:56:39.250Z</time>
      </trkpt>
      <trkpt lat="47.83596" lon="5.23448">
        <ele>400</ele>
        <time>2024-05-14T09:56:43.268Z</time>
      </trkpt>
      <trkpt lat="47.83593" lon="5.23442">
        <ele>400</ele>
        <time>2024-05-14T09:56:47.689Z</time>
      </trkpt>
      <trkpt lat="47.83596" lon="5.23441">
        <ele>400</ele>
        <time>2024-05-14T09:56:51.828Z</time>
      </trkpt>
      <trkpt lat="47.83596" lon="5.23435">
        <ele>400</ele>
        <time>2024-05-14T09:56:55.984Z</time>
      </trkpt>
      <trkpt lat="47.83591" lon="5.23433">
        <ele>400</ele>
        <time>2024-05-14T09:57:00.550Z</time>
      </trkpt>
      <trkpt lat="47.83588" lon="5.2343">
        <ele>402</ele>
        <time>2024-05-14T09:57:04.927Z</time>
      </trkpt>
      <trkpt lat="47.83583" lon="5.23425">
        <ele>402</ele>
        <time>2024-05-14T09:57:09.902Z</time>
      </trkpt>
      <trkpt lat="47.83583" lon="5.23425">
        <ele>402</ele>
        <time>2024-05-14T09:57:14.366Z</time>
      </trkpt>
      <trkpt lat="47.83581" lon="5.23423">
        <ele>402</ele>
        <time>2024-05-14T09:57:18.710Z</time>
      </trkpt>
      <trkpt lat="47.83575" lon="5.23422">
        <ele>402</ele>
        <time>2024-05-14T09:57:22.984Z</time>
      </trkpt>
      <trkpt lat="47.83568" lon="5.23424">
        <ele>400</ele>
        <time>2024-05-14T09:57:27.926Z</time>
      </trkpt>
      <trkpt lat="47.83564" lon="5.23427">
        <ele>400</ele>
        <time>2024-05-14T09:57:31.985Z</time>
      </trkpt>
      <trkpt lat="47.83559" lon="5.23429">
        <ele>400</ele>
        <time>2024-05-14T09:57:36.366Z</time>
      </trkpt>
      <trkpt lat="47.83554" lon="5.2343">
        <ele>400</ele>
        <time>2024-05-14T09:57:40.985Z</time>
      </trkpt>
      <trkpt lat="47.8355" lon="5.23432">
        <ele>400</ele>
        <time>2024-05-14T09:57:45.582Z</time>
      </trkpt>
      <trkpt lat="47.83548" lon="5.23438">
        <ele>400</ele>
        <time>2024-05-14T09:57:49.984Z</time>
      </trkpt>
      <trkpt lat="47.83545" lon="5.23444">
        <ele>400</ele>
        <time>2024-05-14T09:57:54.467Z</time>
      </trkpt>
      <trkpt lat="47.83542" lon="5.23451">
        <ele>405</ele>
        <time>2024-05-14T09:57:58.984Z</time>
      </trkpt>
      <trkpt lat="47.83537" lon="5.23457">
        <ele>405</ele>
        <time>2024-05-14T09:58:03.427Z</time>
      </trkpt>
      <trkpt lat="47.83533" lon="5.23463">
        <ele>403</ele>
        <time>2024-05-14T09:58:07.984Z</time>
      </trkpt>
      <trkpt lat="47.83529" lon="5.23468">
        <ele>403</ele>
        <time>2024-05-14T09:58:12.703Z</time>
      </trkpt>
      <trkpt lat="47.83525" lon="5.23474">
        <ele>403</ele>
        <time>2024-05-14T09:58:16.985Z</time>
      </trkpt>
      <trkpt lat="47.83521" lon="5.23478">
        <ele>403</ele>
        <time>2024-05-14T09:59:01.984Z</time>
      </trkpt>
      <trkpt lat="47.83516" lon="5.23482">
        <ele>403</ele>
        <time>2024-05-14T09:59:05.984Z</time>
      </trkpt>
      <trkpt lat="47.83512" lon="5.23486">
        <ele>403</ele>
        <time>2024-05-14T09:59:09.984Z</time>
      </trkpt>
      <trkpt lat="47.83506" lon="5.23484">
        <ele>405</ele>
        <time>2024-05-14T09:59:14.985Z</time>
      </trkpt>
      <trkpt lat="47.83502" lon="5.23481">
        <ele>405</ele>
        <time>2024-05-14T09:59:19.984Z</time>
      </trkpt>
      <trkpt lat="47.83497" lon="5.23479">
        <ele>405</ele>
        <time>2024-05-14T09:59:46.809Z</time>
      </trkpt>
      <trkpt lat="47.83492" lon="5.23477">
        <ele>405</ele>
        <time>2024-05-14T09:59:50.990Z</time>
      </trkpt>
      <trkpt lat="47.83487" lon="5.23477">
        <ele>405</ele>
        <time>2024-05-14T09:59:55.828Z</time>
      </trkpt>
      <trkpt lat="47.83482" lon="5.23476">
        <ele>405</ele>
        <time>2024-05-14T09:59:59.848Z</time>
      </trkpt>
      <trkpt lat="47.83477" lon="5.23474">
        <ele>405</ele>
        <time>2024-05-14T10:00:03.983Z</time>
      </trkpt>
      <trkpt lat="47.83473" lon="5.23468">
        <ele>405</ele>
        <time>2024-05-14T10:01:57.605Z</time>
      </trkpt>
      <trkpt lat="47.83469" lon="5.23464">
        <ele>405</ele>
        <time>2024-05-14T10:02:02.605Z</time>
      </trkpt>
      <trkpt lat="47.83464" lon="5.23464">
        <ele>405</ele>
        <time>2024-05-14T10:02:06.983Z</time>
      </trkpt>
      <trkpt lat="47.83458" lon="5.23465">
        <ele>407</ele>
        <time>2024-05-14T10:02:10.984Z</time>
      </trkpt>
      <trkpt lat="47.83452" lon="5.23463">
        <ele>407</ele>
        <time>2024-05-14T10:02:15.526Z</time>
      </trkpt>
      <trkpt lat="47.83447" lon="5.23461">
        <ele>407</ele>
        <time>2024-05-14T10:02:19.684Z</time>
      </trkpt>
      <trkpt lat="47.83443" lon="5.23457">
        <ele>408</ele>
        <time>2024-05-14T10:02:23.888Z</time>
      </trkpt>
      <trkpt lat="47.83438" lon="5.23456">
        <ele>408</ele>
        <time>2024-05-14T10:02:28.129Z</time>
      </trkpt>
      <trkpt lat="47.83437" lon="5.2346">
        <ele>407</ele>
        <time>2024-05-14T10:02:32.328Z</time>
      </trkpt>
      <trkpt lat="47.83435" lon="5.23466">
        <ele>407</ele>
        <time>2024-05-14T10:02:36.467Z</time>
      </trkpt>
      <trkpt lat="47.83431" lon="5.23471">
        <ele>407</ele>
        <time>2024-05-14T10:02:40.983Z</time>
      </trkpt>
      <trkpt lat="47.83429" lon="5.23478">
        <ele>408</ele>
        <time>2024-05-14T10:02:45.325Z</time>
      </trkpt>
      <trkpt lat="47.8343" lon="5.23483">
        <ele>408</ele>
        <time>2024-05-14T10:02:49.790Z</time>
      </trkpt>
      <trkpt lat="47.8343" lon="5.23486">
        <ele>412</ele>
        <time>2024-05-14T10:02:54.327Z</time>
      </trkpt>
      <trkpt lat="47.83431" lon="5.23488">
        <ele>410</ele>
        <time>2024-05-14T10:02:58.423Z</time>
      </trkpt>
      <trkpt lat="47.83432" lon="5.23492">
        <ele>410</ele>
        <time>2024-05-14T10:03:02.983Z</time>
      </trkpt>
      <trkpt lat="47.83428" lon="5.23502">
        <ele>412</ele>
        <time>2024-05-14T10:03:07.563Z</time>
      </trkpt>
      <trkpt lat="47.83427" lon="5.23502">
        <ele>412</ele>
        <time>2024-05-14T10:03:11.992Z</time>
      </trkpt>
      <trkpt lat="47.83427" lon="5.23503">
        <ele>412</ele>
        <time>2024-05-14T10:03:16.847Z</time>
      </trkpt>
      <trkpt lat="47.83427" lon="5.23504">
        <ele>412</ele>
        <time>2024-05-14T10:03:21.387Z</time>
      </trkpt>
      <trkpt lat="47.83426" lon="5.23505">
        <ele>412</ele>
        <time>2024-05-14T10:03:25.983Z</time>
      </trkpt>
      <trkpt lat="47.83422" lon="5.23516">
        <ele>417</ele>
        <time>2024-05-14T10:03:30.984Z</time>
      </trkpt>
      <trkpt lat="47.83421" lon="5.23517">
        <ele>417</ele>
        <time>2024-05-14T10:03:35.689Z</time>
      </trkpt>
      <trkpt lat="47.83421" lon="5.23521">
        <ele>417</ele>
        <time>2024-05-14T10:03:39.983Z</time>
      </trkpt>
      <trkpt lat="47.83422" lon="5.23524">
        <ele>417</ele>
        <time>2024-05-14T10:03:44.983Z</time>
      </trkpt>
      <trkpt lat="47.83423" lon="5.23526">
        <ele>417</ele>
        <time>2024-05-14T10:03:49.743Z</time>
      </trkpt>
      <trkpt lat="47.8342" lon="5.23546">
        <ele>422</ele>
        <time>2024-05-14T10:03:54.461Z</time>
      </trkpt>
      <trkpt lat="47.83418" lon="5.23559">
        <ele>422</ele>
        <time>2024-05-14T10:03:58.983Z</time>
      </trkpt>
      <trkpt lat="47.83416" lon="5.23567">
        <ele>422</ele>
        <time>2024-05-14T10:04:03.704Z</time>
      </trkpt>
      <trkpt lat="47.83415" lon="5.23574">
        <ele>424</ele>
        <time>2024-05-14T10:04:08.465Z</time>
      </trkpt>
      <trkpt lat="47.83413" lon="5.23582">
        <ele>424</ele>
        <time>2024-05-14T10:04:12.983Z</time>
      </trkpt>
      <trkpt lat="47.83412" lon="5.23588">
        <ele>424</ele>
        <time>2024-05-14T10:04:17.983Z</time>
      </trkpt>
      <trkpt lat="47.8341" lon="5.23595">
        <ele>424</ele>
        <time>2024-05-14T10:04:22.983Z</time>
      </trkpt>
      <trkpt lat="47.83409" lon="5.23601">
        <ele>427</ele>
        <time>2024-05-14T10:04:27.889Z</time>
      </trkpt>
      <trkpt lat="47.83407" lon="5.23608">
        <ele>427</ele>
        <time>2024-05-14T10:04:32.862Z</time>
      </trkpt>
      <trkpt lat="47.83405" lon="5.23615">
        <ele>427</ele>
        <time>2024-05-14T10:04:36.985Z</time>
      </trkpt>
      <trkpt lat="47.83404" lon="5.23622">
        <ele>427</ele>
        <time>2024-05-14T10:04:41.464Z</time>
      </trkpt>
      <trkpt lat="47.83402" lon="5.23626">
        <ele>432</ele>
        <time>2024-05-14T10:04:45.984Z</time>
      </trkpt>
      <trkpt lat="47.83402" lon="5.23628">
        <ele>432</ele>
        <time>2024-05-14T10:04:50.466Z</time>
      </trkpt>
      <trkpt lat="47.834" lon="5.23636">
        <ele>432</ele>
        <time>2024-05-14T10:04:54.643Z</time>
      </trkpt>
      <trkpt lat="47.83398" lon="5.23642">
        <ele>432</ele>
        <time>2024-05-14T10:04:59.448Z</time>
      </trkpt>
      <trkpt lat="47.83398" lon="5.23646">
        <ele>432</ele>
        <time>2024-05-14T10:05:03.706Z</time>
      </trkpt>
      <trkpt lat="47.834" lon="5.2365">
        <ele>432</ele>
        <time>2024-05-14T10:05:07.785Z</time>
      </trkpt>
      <trkpt lat="47.83405" lon="5.23656">
        <ele>431</ele>
        <time>2024-05-14T10:05:11.864Z</time>
      </trkpt>
      <trkpt lat="47.8341" lon="5.23661">
        <ele>431</ele>
        <time>2024-05-14T10:05:15.984Z</time>
      </trkpt>
      <trkpt lat="47.83414" lon="5.23665">
        <ele>431</ele>
        <time>2024-05-14T10:05:20.201Z</time>
      </trkpt>
      <trkpt lat="47.83418" lon="5.23668">
        <ele>431</ele>
        <time>2024-05-14T10:05:24.984Z</time>
      </trkpt>
      <trkpt lat="47.83417" lon="5.23668">
        <ele>431</ele>
        <time>2024-05-14T10:05:29.647Z</time>
      </trkpt>
      <trkpt lat="47.83417" lon="5.23669">
        <ele>431</ele>
        <time>2024-05-14T10:05:34.544Z</time>
      </trkpt>
      <trkpt lat="47.83421" lon="5.23672">
        <ele>431</ele>
        <time>2024-05-14T10:05:38.983Z</time>
      </trkpt>
      <trkpt lat="47.83428" lon="5.23676">
        <ele>431</ele>
        <time>2024-05-14T10:05:43.829Z</time>
      </trkpt>
      <trkpt lat="47.83433" lon="5.23679">
        <ele>427</ele>
        <time>2024-05-14T10:05:47.982Z</time>
      </trkpt>
      <trkpt lat="47.83439" lon="5.23683">
        <ele>430</ele>
        <time>2024-05-14T10:05:52.982Z</time>
      </trkpt>
      <trkpt lat="47.83443" lon="5.23687">
        <ele>430</ele>
        <time>2024-05-14T10:05:57.908Z</time>
      </trkpt>
      <trkpt lat="47.83448" lon="5.23692">
        <ele>430</ele>
        <time>2024-05-14T10:06:02.721Z</time>
      </trkpt>
      <trkpt lat="47.83452" lon="5.23698">
        <ele>430</ele>
        <time>2024-05-14T10:06:07.287Z</time>
      </trkpt>
      <trkpt lat="47.83455" lon="5.23705">
        <ele>430</ele>
        <time>2024-05-14T10:06:11.810Z</time>
      </trkpt>
      <trkpt lat="47.83458" lon="5.23712">
        <ele>432</ele>
        <time>2024-05-14T10:06:15.982Z</time>
      </trkpt>
      <trkpt lat="47.83461" lon="5.23719">
        <ele>428</ele>
        <time>2024-05-14T10:06:20.514Z</time>
      </trkpt>
      <trkpt lat="47.83464" lon="5.23727">
        <ele>428</ele>
        <time>2024-05-14T10:06:24.983Z</time>
      </trkpt>
      <trkpt lat="47.83466" lon="5.23735">
        <ele>428</ele>
        <time>2024-05-14T10:06:29.982Z</time>
      </trkpt>
      <trkpt lat="47.83469" lon="5.23741">
        <ele>430</ele>
        <time>2024-05-14T10:06:34.687Z</time>
      </trkpt>
      <trkpt lat="47.83471" lon="5.23749">
        <ele>430</ele>
        <time>2024-05-14T10:06:38.983Z</time>
      </trkpt>
      <trkpt lat="47.83473" lon="5.23757">
        <ele>430</ele>
        <time>2024-05-14T10:06:43.614Z</time>
      </trkpt>
      <trkpt lat="47.83476" lon="5.23764">
        <ele>431</ele>
        <time>2024-05-14T10:06:47.982Z</time>
      </trkpt>
      <trkpt lat="47.83478" lon="5.2377">
        <ele>431</ele>
        <time>2024-05-14T10:06:52.445Z</time>
      </trkpt>
      <trkpt lat="47.83481" lon="5.23777">
        <ele>431</ele>
        <time>2024-05-14T10:06:56.982Z</time>
      </trkpt>
      <trkpt lat="47.83484" lon="5.23784">
        <ele>431</ele>
        <time>2024-05-14T10:07:01.942Z</time>
      </trkpt>
      <trkpt lat="47.83487" lon="5.23791">
        <ele>427</ele>
        <time>2024-05-14T10:07:06.133Z</time>
      </trkpt>
      <trkpt lat="47.83489" lon="5.23798">
        <ele>428</ele>
        <time>2024-05-14T10:07:10.834Z</time>
      </trkpt>
      <trkpt lat="47.83492" lon="5.23805">
        <ele>428</ele>
        <time>2024-05-14T10:07:14.982Z</time>
      </trkpt>
      <trkpt lat="47.83495" lon="5.23811">
        <ele>428</ele>
        <time>2024-05-14T10:07:19.990Z</time>
      </trkpt>
      <trkpt lat="47.83499" lon="5.23819">
        <ele>428</ele>
        <time>2024-05-14T10:07:24.632Z</time>
      </trkpt>
      <trkpt lat="47.83503" lon="5.23826">
        <ele>429</ele>
        <time>2024-05-14T10:07:28.983Z</time>
      </trkpt>
      <trkpt lat="47.83506" lon="5.23834">
        <ele>429</ele>
        <time>2024-05-14T10:07:33.710Z</time>
      </trkpt>
      <trkpt lat="47.83509" lon="5.23841">
        <ele>429</ele>
        <time>2024-05-14T10:07:37.982Z</time>
      </trkpt>
      <trkpt lat="47.83512" lon="5.2385">
        <ele>431</ele>
        <time>2024-05-14T10:07:42.432Z</time>
      </trkpt>
      <trkpt lat="47.83515" lon="5.23857">
        <ele>430</ele>
        <time>2024-05-14T10:07:46.732Z</time>
      </trkpt>
      <trkpt lat="47.83518" lon="5.23866">
        <ele>430</ele>
        <time>2024-05-14T10:07:50.982Z</time>
      </trkpt>
      <trkpt lat="47.83521" lon="5.23874">
        <ele>430</ele>
        <time>2024-05-14T10:07:55.648Z</time>
      </trkpt>
      <trkpt lat="47.83524" lon="5.23882">
        <ele>432</ele>
        <time>2024-05-14T10:07:59.982Z</time>
      </trkpt>
      <trkpt lat="47.83526" lon="5.2389">
        <ele>432</ele>
        <time>2024-05-14T10:08:04.983Z</time>
      </trkpt>
      <trkpt lat="47.83528" lon="5.23897">
        <ele>432</ele>
        <time>2024-05-14T10:08:09.669Z</time>
      </trkpt>
      <trkpt lat="47.8353" lon="5.23905">
        <ele>431</ele>
        <time>2024-05-14T10:08:13.982Z</time>
      </trkpt>
      <trkpt lat="47.83532" lon="5.23912">
        <ele>431</ele>
        <time>2024-05-14T10:08:18.492Z</time>
      </trkpt>
      <trkpt lat="47.83534" lon="5.23919">
        <ele>431</ele>
        <time>2024-05-14T10:08:22.571Z</time>
      </trkpt>
      <trkpt lat="47.83537" lon="5.23927">
        <ele>431</ele>
        <time>2024-05-14T10:08:26.982Z</time>
      </trkpt>
      <trkpt lat="47.8354" lon="5.23935">
        <ele>431</ele>
        <time>2024-05-14T10:08:31.674Z</time>
      </trkpt>
      <trkpt lat="47.83543" lon="5.23941">
        <ele>430</ele>
        <time>2024-05-14T10:08:35.984Z</time>
      </trkpt>
      <trkpt lat="47.83547" lon="5.23947">
        <ele>430</ele>
        <time>2024-05-14T10:08:40.372Z</time>
      </trkpt>
      <trkpt lat="47.83549" lon="5.23954">
        <ele>430</ele>
        <time>2024-05-14T10:08:44.996Z</time>
      </trkpt>
      <trkpt lat="47.83551" lon="5.23962">
        <ele>430</ele>
        <time>2024-05-14T10:08:49.875Z</time>
      </trkpt>
      <trkpt lat="47.83555" lon="5.23968">
        <ele>430</ele>
        <time>2024-05-14T10:08:54.332Z</time>
      </trkpt>
      <trkpt lat="47.83558" lon="5.23974">
        <ele>430</ele>
        <time>2024-05-14T10:08:58.434Z</time>
      </trkpt>
      <trkpt lat="47.83561" lon="5.23981">
        <ele>430</ele>
        <time>2024-05-14T10:09:02.602Z</time>
      </trkpt>
      <trkpt lat="47.83563" lon="5.23989">
        <ele>430</ele>
        <time>2024-05-14T10:09:06.982Z</time>
      </trkpt>
      <trkpt lat="47.83566" lon="5.23996">
        <ele>430</ele>
        <time>2024-05-14T10:09:11.515Z</time>
      </trkpt>
      <trkpt lat="47.83569" lon="5.24003">
        <ele>430</ele>
        <time>2024-05-14T10:09:15.833Z</time>
      </trkpt>
      <trkpt lat="47.83573" lon="5.2401">
        <ele>430</ele>
        <time>2024-05-14T10:09:19.954Z</time>
      </trkpt>
      <trkpt lat="47.83577" lon="5.24016">
        <ele>430</ele>
        <time>2024-05-14T10:09:23.982Z</time>
      </trkpt>
      <trkpt lat="47.83582" lon="5.24021">
        <ele>430</ele>
        <time>2024-05-14T10:09:28.376Z</time>
      </trkpt>
      <trkpt lat="47.83586" lon="5.24027">
        <ele>430</ele>
        <time>2024-05-14T10:09:32.755Z</time>
      </trkpt>
      <trkpt lat="47.83589" lon="5.24033">
        <ele>430</ele>
        <time>2024-05-14T10:09:37.215Z</time>
      </trkpt>
      <trkpt lat="47.83592" lon="5.2404">
        <ele>430</ele>
        <time>2024-05-14T10:09:41.982Z</time>
      </trkpt>
      <trkpt lat="47.83595" lon="5.24047">
        <ele>429</ele>
        <time>2024-05-14T10:09:46.474Z</time>
      </trkpt>
      <trkpt lat="47.83597" lon="5.24055">
        <ele>429</ele>
        <time>2024-05-14T10:09:50.983Z</time>
      </trkpt>
      <trkpt lat="47.836" lon="5.24062">
        <ele>429</ele>
        <time>2024-05-14T10:09:55.569Z</time>
      </trkpt>
      <trkpt lat="47.83604" lon="5.24069">
        <ele>429</ele>
        <time>2024-05-14T10:09:59.690Z</time>
      </trkpt>
      <trkpt lat="47.83606" lon="5.24076">
        <ele>430</ele>
        <time>2024-05-14T10:10:03.982Z</time>
      </trkpt>
      <trkpt lat="47.83609" lon="5.24084">
        <ele>430</ele>
        <time>2024-05-14T10:10:08.036Z</time>
      </trkpt>
      <trkpt lat="47.83612" lon="5.24092">
        <ele>430</ele>
        <time>2024-05-14T10:10:12.429Z</time>
      </trkpt>
      <trkpt lat="47.83615" lon="5.24098">
        <ele>430</ele>
        <time>2024-05-14T10:10:16.756Z</time>
      </trkpt>
      <trkpt lat="47.83619" lon="5.24105">
        <ele>430</ele>
        <time>2024-05-14T10:10:20.853Z</time>
      </trkpt>
      <trkpt lat="47.83623" lon="5.24112">
        <ele>430</ele>
        <time>2024-05-14T10:10:30.982Z</time>
      </trkpt>
      <trkpt lat="47.83625" lon="5.2412">
        <ele>430</ele>
        <time>2024-05-14T10:10:39.983Z</time>
      </trkpt>
      <trkpt lat="47.83626" lon="5.24128">
        <ele>429</ele>
        <time>2024-05-14T10:10:44.943Z</time>
      </trkpt>
      <trkpt lat="47.83628" lon="5.24136">
        <ele>429</ele>
        <time>2024-05-14T10:10:48.982Z</time>
      </trkpt>
      <trkpt lat="47.83629" lon="5.24146">
        <ele>429</ele>
        <time>2024-05-14T10:10:53.982Z</time>
      </trkpt>
      <trkpt lat="47.8363" lon="5.24155">
        <ele>429</ele>
        <time>2024-05-14T10:12:15.983Z</time>
      </trkpt>
      <trkpt lat="47.83632" lon="5.24163">
        <ele>429</ele>
        <time>2024-05-14T10:12:20.983Z</time>
      </trkpt>
      <trkpt lat="47.83633" lon="5.24171">
        <ele>429</ele>
        <time>2024-05-14T10:12:25.899Z</time>
      </trkpt>
      <trkpt lat="47.83638" lon="5.24169">
        <ele>429</ele>
        <time>2024-05-14T10:12:30.982Z</time>
      </trkpt>
      <trkpt lat="47.83641" lon="5.24161">
        <ele>429</ele>
        <time>2024-05-14T10:12:35.983Z</time>
      </trkpt>
      <trkpt lat="47.83646" lon="5.24157">
        <ele>429</ele>
        <time>2024-05-14T10:12:49.982Z</time>
      </trkpt>
      <trkpt lat="47.83651" lon="5.24154">
        <ele>429</ele>
        <time>2024-05-14T10:12:51.982Z</time>
      </trkpt>
      <trkpt lat="47.83656" lon="5.24152">
        <ele>428</ele>
        <time>2024-05-14T10:13:01.981Z</time>
      </trkpt>
      <trkpt lat="47.83661" lon="5.24154">
        <ele>426</ele>
        <time>2024-05-14T10:13:06.255Z</time>
      </trkpt>
      <trkpt lat="47.83667" lon="5.24156">
        <ele>426</ele>
        <time>2024-05-14T10:13:14.982Z</time>
      </trkpt>
      <trkpt lat="47.83671" lon="5.24162">
        <ele>426</ele>
        <time>2024-05-14T10:13:19.780Z</time>
      </trkpt>
      <trkpt lat="47.83672" lon="5.24171">
        <ele>426</ele>
        <time>2024-05-14T10:13:23.981Z</time>
      </trkpt>
      <trkpt lat="47.83673" lon="5.24179">
        <ele>426</ele>
        <time>2024-05-14T10:13:28.445Z</time>
      </trkpt>
      <trkpt lat="47.83672" lon="5.24187">
        <ele>426</ele>
        <time>2024-05-14T10:13:32.717Z</time>
      </trkpt>
      <trkpt lat="47.83678" lon="5.2419">
        <ele>426</ele>
        <time>2024-05-14T10:13:36.981Z</time>
      </trkpt>
      <trkpt lat="47.83683" lon="5.24184">
        <ele>420</ele>
        <time>2024-05-14T10:13:41.981Z</time>
      </trkpt>
      <trkpt lat="47.83686" lon="5.24176">
        <ele>420</ele>
        <time>2024-05-14T10:13:46.355Z</time>
      </trkpt>
      <trkpt lat="47.83686" lon="5.24169">
        <ele>420</ele>
        <time>2024-05-14T10:13:50.981Z</time>
      </trkpt>
      <trkpt lat="47.83687" lon="5.24163">
        <ele>420</ele>
        <time>2024-05-14T10:13:55.982Z</time>
      </trkpt>
      <trkpt lat="47.83686" lon="5.24156">
        <ele>420</ele>
        <time>2024-05-14T10:14:00.811Z</time>
      </trkpt>
      <trkpt lat="47.83686" lon="5.24152">
        <ele>420</ele>
        <time>2024-05-14T10:14:04.975Z</time>
      </trkpt>
      <trkpt lat="47.83684" lon="5.24147">
        <ele>420</ele>
        <time>2024-05-14T10:14:09.268Z</time>
      </trkpt>
      <trkpt lat="47.83683" lon="5.24147">
        <ele>420</ele>
        <time>2024-05-14T10:14:13.672Z</time>
      </trkpt>
      <trkpt lat="47.83683" lon="5.24142">
        <ele>420</ele>
        <time>2024-05-14T10:14:17.680Z</time>
      </trkpt>
      <trkpt lat="47.83683" lon="5.2414">
        <ele>420</ele>
        <time>2024-05-14T10:14:25.981Z</time>
      </trkpt>
      <trkpt lat="47.83681" lon="5.24136">
        <ele>420</ele>
        <time>2024-05-14T10:14:30.257Z</time>
      </trkpt>
      <trkpt lat="47.8368" lon="5.24123">
        <ele>427</ele>
        <time>2024-05-14T10:14:34.610Z</time>
      </trkpt>
      <trkpt lat="47.83672" lon="5.24125">
        <ele>428</ele>
        <time>2024-05-14T10:14:38.981Z</time>
      </trkpt>
      <trkpt lat="47.83672" lon="5.24125">
        <ele>428</ele>
        <time>2024-05-14T10:14:43.509Z</time>
      </trkpt>
      <trkpt lat="47.83671" lon="5.24124">
        <ele>427</ele>
        <time>2024-05-14T10:14:47.955Z</time>
      </trkpt>
      <trkpt lat="47.83668" lon="5.24118">
        <ele>427</ele>
        <time>2024-05-14T10:14:52.069Z</time>
      </trkpt>
      <trkpt lat="47.83676" lon="5.24128">
        <ele>428</ele>
        <time>2024-05-14T10:14:56.574Z</time>
      </trkpt>
      <trkpt lat="47.83685" lon="5.24131">
        <ele>420</ele>
        <time>2024-05-14T10:15:00.695Z</time>
      </trkpt>
      <trkpt lat="47.83685" lon="5.24129">
        <ele>420</ele>
        <time>2024-05-14T10:15:04.809Z</time>
      </trkpt>
      <trkpt lat="47.83686" lon="5.2413">
        <ele>420</ele>
        <time>2024-05-14T10:15:08.880Z</time>
      </trkpt>
      <trkpt lat="47.83685" lon="5.24133">
        <ele>420</ele>
        <time>2024-05-14T10:15:13.753Z</time>
      </trkpt>
      <trkpt lat="47.83684" lon="5.24134">
        <ele>420</ele>
        <time>2024-05-14T10:15:18.932Z</time>
      </trkpt>
      <trkpt lat="47.83684" lon="5.24142">
        <ele>420</ele>
        <time>2024-05-14T10:15:23.795Z</time>
      </trkpt>
      <trkpt lat="47.83684" lon="5.24144">
        <ele>420</ele>
        <time>2024-05-14T10:15:28.676Z</time>
      </trkpt>
      <trkpt lat="47.83684" lon="5.24148">
        <ele>420</ele>
        <time>2024-05-14T10:15:32.981Z</time>
      </trkpt>
      <trkpt lat="47.83687" lon="5.24148">
        <ele>420</ele>
        <time>2024-05-14T10:15:37.981Z</time>
      </trkpt>
      <trkpt lat="47.83689" lon="5.24149">
        <ele>420</ele>
        <time>2024-05-14T10:15:42.875Z</time>
      </trkpt>
      <trkpt lat="47.83692" lon="5.24151">
        <ele>420</ele>
        <time>2024-05-14T10:15:47.315Z</time>
      </trkpt>
      <trkpt lat="47.83693" lon="5.24156">
        <ele>420</ele>
        <time>2024-05-14T10:15:51.981Z</time>
      </trkpt>
      <trkpt lat="47.83692" lon="5.2416">
        <ele>420</ele>
        <time>2024-05-14T10:15:56.981Z</time>
      </trkpt>
      <trkpt lat="47.83691" lon="5.24165">
        <ele>420</ele>
        <time>2024-05-14T10:16:01.474Z</time>
      </trkpt>
      <trkpt lat="47.8369" lon="5.24168">
        <ele>420</ele>
        <time>2024-05-14T10:16:05.981Z</time>
      </trkpt>
      <trkpt lat="47.83687" lon="5.2418">
        <ele>420</ele>
        <time>2024-05-14T10:16:10.796Z</time>
      </trkpt>
      <trkpt lat="47.83685" lon="5.24186">
        <ele>420</ele>
        <time>2024-05-14T10:16:14.981Z</time>
      </trkpt>
      <trkpt lat="47.83683" lon="5.24192">
        <ele>420</ele>
        <time>2024-05-14T10:16:19.450Z</time>
      </trkpt>
      <trkpt lat="47.83671" lon="5.24173">
        <ele>426</ele>
        <time>2024-05-14T10:16:23.750Z</time>
      </trkpt>
      <trkpt lat="47.83671" lon="5.24167">
        <ele>426</ele>
        <time>2024-05-14T10:16:27.981Z</time>
      </trkpt>
      <trkpt lat="47.8367" lon="5.2416">
        <ele>426</ele>
        <time>2024-05-14T10:16:32.514Z</time>
      </trkpt>
      <trkpt lat="47.83666" lon="5.24156">
        <ele>426</ele>
        <time>2024-05-14T10:16:36.996Z</time>
      </trkpt>
      <trkpt lat="47.83662" lon="5.24155">
        <ele>426</ele>
        <time>2024-05-14T10:16:41.887Z</time>
      </trkpt>
      <trkpt lat="47.83657" lon="5.24154">
        <ele>426</ele>
        <time>2024-05-14T10:16:45.982Z</time>
      </trkpt>
      <trkpt lat="47.83652" lon="5.24153">
        <ele>429</ele>
        <time>2024-05-14T10:16:50.628Z</time>
      </trkpt>
      <trkpt lat="47.83649" lon="5.24156">
        <ele>429</ele>
        <time>2024-05-14T10:16:54.982Z</time>
      </trkpt>
      <trkpt lat="47.83643" lon="5.24159">
        <ele>429</ele>
        <time>2024-05-14T10:16:59.289Z</time>
      </trkpt>
      <trkpt lat="47.8364" lon="5.24157">
        <ele>429</ele>
        <time>2024-05-14T10:17:03.650Z</time>
      </trkpt>
      <trkpt lat="47.83639" lon="5.24159">
        <ele>429</ele>
        <time>2024-05-14T10:17:07.856Z</time>
      </trkpt>
      <trkpt lat="47.83632" lon="5.24161">
        <ele>429</ele>
        <time>2024-05-14T10:17:11.981Z</time>
      </trkpt>
      <trkpt lat="47.83629" lon="5.24175">
        <ele>429</ele>
        <time>2024-05-14T10:17:16.552Z</time>
      </trkpt>
      <trkpt lat="47.83631" lon="5.24189">
        <ele>428</ele>
        <time>2024-05-14T10:17:20.689Z</time>
      </trkpt>
      <trkpt lat="47.83633" lon="5.242">
        <ele>428</ele>
        <time>2024-05-14T10:17:24.982Z</time>
      </trkpt>
      <trkpt lat="47.83636" lon="5.24209">
        <ele>428</ele>
        <time>2024-05-14T10:17:29.487Z</time>
      </trkpt>
      <trkpt lat="47.83639" lon="5.24217">
        <ele>428</ele>
        <time>2024-05-14T10:17:33.915Z</time>
      </trkpt>
      <trkpt lat="47.83642" lon="5.24222">
        <ele>428</ele>
        <time>2024-05-14T10:17:37.981Z</time>
      </trkpt>
      <trkpt lat="47.83646" lon="5.24226">
        <ele>428</ele>
        <time>2024-05-14T10:17:42.269Z</time>
      </trkpt>
      <trkpt lat="47.83647" lon="5.24236">
        <ele>428</ele>
        <time>2024-05-14T10:17:46.971Z</time>
      </trkpt>
      <trkpt lat="47.83648" lon="5.24245">
        <ele>428</ele>
        <time>2024-05-14T10:17:50.982Z</time>
      </trkpt>
      <trkpt lat="47.8365" lon="5.24253">
        <ele>428</ele>
        <time>2024-05-14T10:17:55.981Z</time>
      </trkpt>
      <trkpt lat="47.83654" lon="5.2426">
        <ele>424</ele>
        <time>2024-05-14T10:18:00.274Z</time>
      </trkpt>
      <trkpt lat="47.83656" lon="5.24269">
        <ele>425</ele>
        <time>2024-05-14T10:18:04.436Z</time>
      </trkpt>
      <trkpt lat="47.83658" lon="5.24277">
        <ele>425</ele>
        <time>2024-05-14T10:18:08.615Z</time>
      </trkpt>
      <trkpt lat="47.8366" lon="5.24286">
        <ele>425</ele>
        <time>2024-05-14T10:18:13.215Z</time>
      </trkpt>
      <trkpt lat="47.83663" lon="5.24292">
        <ele>427</ele>
        <time>2024-05-14T10:18:17.790Z</time>
      </trkpt>
      <trkpt lat="47.83665" lon="5.24299">
        <ele>427</ele>
        <time>2024-05-14T10:18:21.808Z</time>
      </trkpt>
      <trkpt lat="47.83668" lon="5.24307">
        <ele>427</ele>
        <time>2024-05-14T10:18:25.981Z</time>
      </trkpt>
      <trkpt lat="47.8367" lon="5.24315">
        <ele>427</ele>
        <time>2024-05-14T10:18:30.631Z</time>
      </trkpt>
      <trkpt lat="47.83673" lon="5.24323">
        <ele>428</ele>
        <time>2024-05-14T10:18:35.334Z</time>
      </trkpt>
      <trkpt lat="47.83676" lon="5.24329">
        <ele>428</ele>
        <time>2024-05-14T10:18:39.981Z</time>
      </trkpt>
      <trkpt lat="47.83679" lon="5.24337">
        <ele>428</ele>
        <time>2024-05-14T10:18:44.628Z</time>
      </trkpt>
      <trkpt lat="47.83681" lon="5.24347">
        <ele>426</ele>
        <time>2024-05-14T10:18:48.981Z</time>
      </trkpt>
      <trkpt lat="47.83683" lon="5.24356">
        <ele>426</ele>
        <time>2024-05-14T10:18:53.831Z</time>
      </trkpt>
      <trkpt lat="47.83686" lon="5.24364">
        <ele>426</ele>
        <time>2024-05-14T10:18:58.396Z</time>
      </trkpt>
      <trkpt lat="47.83689" lon="5.24373">
        <ele>426</ele>
        <time>2024-05-14T10:19:02.969Z</time>
      </trkpt>
      <trkpt lat="47.83692" lon="5.2438">
        <ele>424</ele>
        <time>2024-05-14T10:19:07.969Z</time>
      </trkpt>
      <trkpt lat="47.83696" lon="5.24389">
        <ele>424</ele>
        <time>2024-05-14T10:19:11.981Z</time>
      </trkpt>
      <trkpt lat="47.83699" lon="5.24397">
        <ele>424</ele>
        <time>2024-05-14T10:19:16.510Z</time>
      </trkpt>
      <trkpt lat="47.83702" lon="5.24406">
        <ele>423</ele>
        <time>2024-05-14T10:19:20.982Z</time>
      </trkpt>
      <trkpt lat="47.83705" lon="5.24415">
        <ele>423</ele>
        <time>2024-05-14T10:19:25.529Z</time>
      </trkpt>
      <trkpt lat="47.83707" lon="5.24424">
        <ele>423</ele>
        <time>2024-05-14T10:19:29.981Z</time>
      </trkpt>
      <trkpt lat="47.8371" lon="5.24432">
        <ele>421</ele>
        <time>2024-05-14T10:19:34.735Z</time>
      </trkpt>
      <trkpt lat="47.83712" lon="5.24441">
        <ele>421</ele>
        <time>2024-05-14T10:19:38.856Z</time>
      </trkpt>
      <trkpt lat="47.83714" lon="5.2445">
        <ele>421</ele>
        <time>2024-05-14T10:19:42.981Z</time>
      </trkpt>
      <trkpt lat="47.83714" lon="5.24459">
        <ele>422</ele>
        <time>2024-05-14T10:19:47.934Z</time>
      </trkpt>
      <trkpt lat="47.83712" lon="5.24469">
        <ele>422</ele>
        <time>2024-05-14T10:19:51.981Z</time>
      </trkpt>
      <trkpt lat="47.83711" lon="5.24478">
        <ele>422</ele>
        <time>2024-05-14T10:19:56.981Z</time>
      </trkpt>
      <trkpt lat="47.83709" lon="5.24486">
        <ele>422</ele>
        <time>2024-05-14T10:20:01.594Z</time>
      </trkpt>
      <trkpt lat="47.83707" lon="5.24493">
        <ele>426</ele>
        <time>2024-05-14T10:20:05.982Z</time>
      </trkpt>
      <trkpt lat="47.83705" lon="5.24501">
        <ele>426</ele>
        <time>2024-05-14T10:20:10.136Z</time>
      </trkpt>
      <trkpt lat="47.83704" lon="5.2451">
        <ele>426</ele>
        <time>2024-05-14T10:20:14.529Z</time>
      </trkpt>
      <trkpt lat="47.83704" lon="5.24517">
        <ele>428</ele>
        <time>2024-05-14T10:20:18.634Z</time>
      </trkpt>
      <trkpt lat="47.83702" lon="5.24525">
        <ele>428</ele>
        <time>2024-05-14T10:20:22.981Z</time>
      </trkpt>
      <trkpt lat="47.83701" lon="5.24534">
        <ele>428</ele>
        <time>2024-05-14T10:20:27.850Z</time>
      </trkpt>
      <trkpt lat="47.83699" lon="5.24543">
        <ele>429</ele>
        <time>2024-05-14T10:20:32.431Z</time>
      </trkpt>
      <trkpt lat="47.83698" lon="5.24552">
        <ele>429</ele>
        <time>2024-05-14T10:20:36.997Z</time>
      </trkpt>
      <trkpt lat="47.83697" lon="5.2456">
        <ele>429</ele>
        <time>2024-05-14T10:20:41.416Z</time>
      </trkpt>
      <trkpt lat="47.83696" lon="5.24568">
        <ele>429</ele>
        <time>2024-05-14T10:20:45.929Z</time>
      </trkpt>
      <trkpt lat="47.83695" lon="5.24578">
        <ele>428</ele>
        <time>2024-05-14T10:20:49.981Z</time>
      </trkpt>
      <trkpt lat="47.83693" lon="5.24586">
        <ele>428</ele>
        <time>2024-05-14T10:20:54.956Z</time>
      </trkpt>
      <trkpt lat="47.83691" lon="5.24594">
        <ele>428</ele>
        <time>2024-05-14T10:20:58.981Z</time>
      </trkpt>
      <trkpt lat="47.83689" lon="5.24603">
        <ele>427</ele>
        <time>2024-05-14T10:21:03.866Z</time>
      </trkpt>
      <trkpt lat="47.83687" lon="5.2461">
        <ele>427</ele>
        <time>2024-05-14T10:21:08.975Z</time>
      </trkpt>
      <trkpt lat="47.83685" lon="5.24619">
        <ele>427</ele>
        <time>2024-05-14T10:21:13.770Z</time>
      </trkpt>
      <trkpt lat="47.83683" lon="5.24627">
        <ele>428</ele>
        <time>2024-05-14T10:21:17.788Z</time>
      </trkpt>
      <trkpt lat="47.83682" lon="5.24636">
        <ele>428</ele>
        <time>2024-05-14T10:21:21.954Z</time>
      </trkpt>
      <trkpt lat="47.8368" lon="5.24643">
        <ele>427</ele>
        <time>2024-05-14T10:21:25.980Z</time>
      </trkpt>
      <trkpt lat="47.83678" lon="5.24652">
        <ele>427</ele>
        <time>2024-05-14T10:21:30.510Z</time>
      </trkpt>
      <trkpt lat="47.83677" lon="5.2466">
        <ele>428</ele>
        <time>2024-05-14T10:21:35.562Z</time>
      </trkpt>
      <trkpt lat="47.83675" lon="5.24668">
        <ele>428</ele>
        <time>2024-05-14T10:21:39.980Z</time>
      </trkpt>
      <trkpt lat="47.83674" lon="5.24677">
        <ele>428</ele>
        <time>2024-05-14T10:21:44.528Z</time>
      </trkpt>
      <trkpt lat="47.83672" lon="5.24685">
        <ele>428</ele>
        <time>2024-05-14T10:21:48.981Z</time>
      </trkpt>
      <trkpt lat="47.8367" lon="5.24694">
        <ele>428</ele>
        <time>2024-05-14T10:21:53.980Z</time>
      </trkpt>
      <trkpt lat="47.83668" lon="5.24703">
        <ele>428</ele>
        <time>2024-05-14T10:21:57.981Z</time>
      </trkpt>
      <trkpt lat="47.83665" lon="5.2471">
        <ele>425</ele>
        <time>2024-05-14T10:22:02.758Z</time>
      </trkpt>
      <trkpt lat="47.83662" lon="5.24717">
        <ele>425</ele>
        <time>2024-05-14T10:22:06.980Z</time>
      </trkpt>
      <trkpt lat="47.83657" lon="5.2472">
        <ele>425</ele>
        <time>2024-05-14T10:22:11.831Z</time>
      </trkpt>
      <trkpt lat="47.83651" lon="5.24722">
        <ele>427</ele>
        <time>2024-05-14T10:22:16.370Z</time>
      </trkpt>
      <trkpt lat="47.83646" lon="5.24725">
        <ele>427</ele>
        <time>2024-05-14T10:22:20.782Z</time>
      </trkpt>
      <trkpt lat="47.8364" lon="5.24729">
        <ele>427</ele>
        <time>2024-05-14T10:22:24.981Z</time>
      </trkpt>
      <trkpt lat="47.83635" lon="5.24732">
        <ele>427</ele>
        <time>2024-05-14T10:22:29.954Z</time>
      </trkpt>
      <trkpt lat="47.83629" lon="5.24734">
        <ele>427</ele>
        <time>2024-05-14T10:22:33.980Z</time>
      </trkpt>
      <trkpt lat="47.83624" lon="5.24735">
        <ele>428</ele>
        <time>2024-05-14T10:22:38.980Z</time>
      </trkpt>
      <trkpt lat="47.83618" lon="5.24739">
        <ele>425</ele>
        <time>2024-05-14T10:22:43.989Z</time>
      </trkpt>
      <trkpt lat="47.83613" lon="5.24741">
        <ele>425</ele>
        <time>2024-05-14T10:22:48.794Z</time>
      </trkpt>
      <trkpt lat="47.83607" lon="5.24743">
        <ele>425</ele>
        <time>2024-05-14T10:22:52.980Z</time>
      </trkpt>
      <trkpt lat="47.83603" lon="5.24744">
        <ele>425</ele>
        <time>2024-05-14T10:22:57.991Z</time>
      </trkpt>
      <trkpt lat="47.83596" lon="5.24746">
        <ele>428</ele>
        <time>2024-05-14T10:23:02.980Z</time>
      </trkpt>
      <trkpt lat="47.8359" lon="5.24749">
        <ele>428</ele>
        <time>2024-05-14T10:23:07.796Z</time>
      </trkpt>
      <trkpt lat="47.83584" lon="5.24754">
        <ele>428</ele>
        <time>2024-05-14T10:23:11.980Z</time>
      </trkpt>
      <trkpt lat="47.83579" lon="5.24758">
        <ele>428</ele>
        <time>2024-05-14T10:23:16.454Z</time>
      </trkpt>
      <trkpt lat="47.83574" lon="5.24762">
        <ele>428</ele>
        <time>2024-05-14T10:23:20.980Z</time>
      </trkpt>
      <trkpt lat="47.83569" lon="5.24766">
        <ele>423</ele>
        <time>2024-05-14T10:23:25.917Z</time>
      </trkpt>
      <trkpt lat="47.83565" lon="5.2477">
        <ele>427</ele>
        <time>2024-05-14T10:23:30.981Z</time>
      </trkpt>
      <trkpt lat="47.8356" lon="5.24775">
        <ele>427</ele>
        <time>2024-05-14T10:23:35.613Z</time>
      </trkpt>
      <trkpt lat="47.83555" lon="5.24778">
        <ele>427</ele>
        <time>2024-05-14T10:23:39.772Z</time>
      </trkpt>
      <trkpt lat="47.8355" lon="5.24783">
        <ele>427</ele>
        <time>2024-05-14T10:23:44.415Z</time>
      </trkpt>
      <trkpt lat="47.83545" lon="5.24789">
        <ele>427</ele>
        <time>2024-05-14T10:23:48.893Z</time>
      </trkpt>
      <trkpt lat="47.8354" lon="5.24794">
        <ele>424</ele>
        <time>2024-05-14T10:23:53.849Z</time>
      </trkpt>
      <trkpt lat="47.83535" lon="5.24798">
        <ele>424</ele>
        <time>2024-05-14T10:23:57.980Z</time>
      </trkpt>
      <trkpt lat="47.8353" lon="5.24804">
        <ele>424</ele>
        <time>2024-05-14T10:24:02.878Z</time>
      </trkpt>
      <trkpt lat="47.83525" lon="5.24809">
        <ele>424</ele>
        <time>2024-05-14T10:24:07.955Z</time>
      </trkpt>
      <trkpt lat="47.83521" lon="5.24815">
        <ele>424</ele>
        <time>2024-05-14T10:24:11.981Z</time>
      </trkpt>
      <trkpt lat="47.83516" lon="5.24821">
        <ele>418</ele>
        <time>2024-05-14T10:24:16.980Z</time>
      </trkpt>
      <trkpt lat="47.83512" lon="5.24825">
        <ele>423</ele>
        <time>2024-05-14T10:24:21.475Z</time>
      </trkpt>
      <trkpt lat="47.83506" lon="5.24829">
        <ele>423</ele>
        <time>2024-05-14T10:24:25.980Z</time>
      </trkpt>
      <trkpt lat="47.835" lon="5.24834">
        <ele>423</ele>
        <time>2024-05-14T10:24:30.750Z</time>
      </trkpt>
      <trkpt lat="47.83495" lon="5.24837">
        <ele>423</ele>
        <time>2024-05-14T10:24:34.981Z</time>
      </trkpt>
      <trkpt lat="47.83489" lon="5.24841">
        <ele>423</ele>
        <time>2024-05-14T10:24:39.435Z</time>
      </trkpt>
      <trkpt lat="47.83484" lon="5.24844">
        <ele>426</ele>
        <time>2024-05-14T10:24:43.677Z</time>
      </trkpt>
      <trkpt lat="47.83478" lon="5.24847">
        <ele>426</ele>
        <time>2024-05-14T10:24:47.917Z</time>
      </trkpt>
      <trkpt lat="47.83473" lon="5.24849">
        <ele>425</ele>
        <time>2024-05-14T10:24:51.981Z</time>
      </trkpt>
      <trkpt lat="47.83467" lon="5.24851">
        <ele>425</ele>
        <time>2024-05-14T10:24:56.636Z</time>
      </trkpt>
      <trkpt lat="47.83461" lon="5.24852">
        <ele>425</ele>
        <time>2024-05-14T10:25:01.475Z</time>
      </trkpt>
      <trkpt lat="47.83455" lon="5.24852">
        <ele>427</ele>
        <time>2024-05-14T10:25:05.980Z</time>
      </trkpt>
      <trkpt lat="47.8345" lon="5.24854">
        <ele>427</ele>
        <time>2024-05-14T10:25:10.475Z</time>
      </trkpt>
      <trkpt lat="47.83444" lon="5.24855">
        <ele>427</ele>
        <time>2024-05-14T10:25:14.835Z</time>
      </trkpt>
      <trkpt lat="47.83439" lon="5.24855">
        <ele>427</ele>
        <time>2024-05-14T10:25:19.673Z</time>
      </trkpt>
      <trkpt lat="47.83433" lon="5.24855">
        <ele>427</ele>
        <time>2024-05-14T10:25:23.691Z</time>
      </trkpt>
      <trkpt lat="47.83427" lon="5.24854">
        <ele>427</ele>
        <time>2024-05-14T10:25:27.980Z</time>
      </trkpt>
      <trkpt lat="47.83423" lon="5.24854">
        <ele>427</ele>
        <time>2024-05-14T10:25:32.751Z</time>
      </trkpt>
      <trkpt lat="47.83419" lon="5.24858">
        <ele>427</ele>
        <time>2024-05-14T10:25:36.797Z</time>
      </trkpt>
      <trkpt lat="47.83414" lon="5.24862">
        <ele>427</ele>
        <time>2024-05-14T10:25:40.980Z</time>
      </trkpt>
      <trkpt lat="47.8341" lon="5.24868">
        <ele>427</ele>
        <time>2024-05-14T10:25:45.654Z</time>
      </trkpt>
      <trkpt lat="47.83406" lon="5.24875">
        <ele>427</ele>
        <time>2024-05-14T10:25:49.982Z</time>
      </trkpt>
      <trkpt lat="47.83403" lon="5.24879">
        <ele>427</ele>
        <time>2024-05-14T10:25:54.555Z</time>
      </trkpt>
      <trkpt lat="47.83399" lon="5.24885">
        <ele>426</ele>
        <time>2024-05-14T10:25:58.979Z</time>
      </trkpt>
      <trkpt lat="47.83393" lon="5.24891">
        <ele>426</ele>
        <time>2024-05-14T10:26:02.978Z</time>
      </trkpt>
      <trkpt lat="47.83388" lon="5.24895">
        <ele>426</ele>
        <time>2024-05-14T10:26:07.934Z</time>
      </trkpt>
      <trkpt lat="47.83383" lon="5.249">
        <ele>426</ele>
        <time>2024-05-14T10:26:11.983Z</time>
      </trkpt>
      <trkpt lat="47.83378" lon="5.24904">
        <ele>426</ele>
        <time>2024-05-14T10:26:16.982Z</time>
      </trkpt>
      <trkpt lat="47.83373" lon="5.24908">
        <ele>427</ele>
        <time>2024-05-14T10:26:21.780Z</time>
      </trkpt>
      <trkpt lat="47.83367" lon="5.24912">
        <ele>427</ele>
        <time>2024-05-14T10:26:25.986Z</time>
      </trkpt>
      <trkpt lat="47.83361" lon="5.24913">
        <ele>427</ele>
        <time>2024-05-14T10:26:30.918Z</time>
      </trkpt>
      <trkpt lat="47.83356" lon="5.24916">
        <ele>427</ele>
        <time>2024-05-14T10:26:34.997Z</time>
      </trkpt>
      <trkpt lat="47.83351" lon="5.24918">
        <ele>427</ele>
        <time>2024-05-14T10:26:39.608Z</time>
      </trkpt>
      <trkpt lat="47.83345" lon="5.24921">
        <ele>427</ele>
        <time>2024-05-14T10:26:43.759Z</time>
      </trkpt>
      <trkpt lat="47.8334" lon="5.24923">
        <ele>427</ele>
        <time>2024-05-14T10:26:47.971Z</time>
      </trkpt>
      <trkpt lat="47.83334" lon="5.24925">
        <ele>427</ele>
        <time>2024-05-14T10:26:52.986Z</time>
      </trkpt>
      <trkpt lat="47.83328" lon="5.24927">
        <ele>427</ele>
        <time>2024-05-14T10:26:57.423Z</time>
      </trkpt>
      <trkpt lat="47.83322" lon="5.24929">
        <ele>427</ele>
        <time>2024-05-14T10:27:01.983Z</time>
      </trkpt>
      <trkpt lat="47.83316" lon="5.2493">
        <ele>427</ele>
        <time>2024-05-14T10:27:06.689Z</time>
      </trkpt>
      <trkpt lat="47.8331" lon="5.24932">
        <ele>425</ele>
        <time>2024-05-14T10:27:10.715Z</time>
      </trkpt>
      <trkpt lat="47.83304" lon="5.24933">
        <ele>425</ele>
        <time>2024-05-14T10:27:14.987Z</time>
      </trkpt>
      <trkpt lat="47.83298" lon="5.24934">
        <ele>425</ele>
        <time>2024-05-14T10:27:19.494Z</time>
      </trkpt>
      <trkpt lat="47.83293" lon="5.24936">
        <ele>425</ele>
        <time>2024-05-14T10:27:23.974Z</time>
      </trkpt>
      <trkpt lat="47.83286" lon="5.24937">
        <ele>424</ele>
        <time>2024-05-14T10:27:27.976Z</time>
      </trkpt>
      <trkpt lat="47.83281" lon="5.24939">
        <ele>424</ele>
        <time>2024-05-14T10:27:32.989Z</time>
      </trkpt>
      <trkpt lat="47.83276" lon="5.24943">
        <ele>424</ele>
        <time>2024-05-14T10:27:37.754Z</time>
      </trkpt>
      <trkpt lat="47.8327" lon="5.24947">
        <ele>424</ele>
        <time>2024-05-14T10:27:41.978Z</time>
      </trkpt>
      <trkpt lat="47.83264" lon="5.24949">
        <ele>424</ele>
        <time>2024-05-14T10:27:46.875Z</time>
      </trkpt>
      <trkpt lat="47.83258" lon="5.24953">
        <ele>425</ele>
        <time>2024-05-14T10:27:48.978Z</time>
      </trkpt>
      <trkpt lat="47.83253" lon="5.24956">
        <ele>425</ele>
        <time>2024-05-14T10:27:58.214Z</time>
      </trkpt>
      <trkpt lat="47.83247" lon="5.2496">
        <ele>423</ele>
        <time>2024-05-14T10:28:02.537Z</time>
      </trkpt>
      <trkpt lat="47.83241" lon="5.24963">
        <ele>423</ele>
        <time>2024-05-14T10:28:06.978Z</time>
      </trkpt>
      <trkpt lat="47.83236" lon="5.24966">
        <ele>423</ele>
        <time>2024-05-14T10:28:25.614Z</time>
      </trkpt>
      <trkpt lat="47.8323" lon="5.2497">
        <ele>424</ele>
        <time>2024-05-14T10:28:29.978Z</time>
      </trkpt>
      <trkpt lat="47.83225" lon="5.24973">
        <ele>424</ele>
        <time>2024-05-14T10:28:34.978Z</time>
      </trkpt>
      <trkpt lat="47.8322" lon="5.24976">
        <ele>424</ele>
        <time>2024-05-14T10:28:38.978Z</time>
      </trkpt>
      <trkpt lat="47.83214" lon="5.24979">
        <ele>424</ele>
        <time>2024-05-14T10:28:43.555Z</time>
      </trkpt>
      <trkpt lat="47.83209" lon="5.24981">
        <ele>424</ele>
        <time>2024-05-14T10:28:47.814Z</time>
      </trkpt>
      <trkpt lat="47.83204" lon="5.24984">
        <ele>426</ele>
        <time>2024-05-14T10:28:51.978Z</time>
      </trkpt>
      <trkpt lat="47.83199" lon="5.24987">
        <ele>420</ele>
        <time>2024-05-14T10:28:56.789Z</time>
      </trkpt>
      <trkpt lat="47.83194" lon="5.2499">
        <ele>420</ele>
        <time>2024-05-14T10:29:00.978Z</time>
      </trkpt>
      <trkpt lat="47.83189" lon="5.24994">
        <ele>420</ele>
        <time>2024-05-14T10:29:05.229Z</time>
      </trkpt>
      <trkpt lat="47.83184" lon="5.24999">
        <ele>420</ele>
        <time>2024-05-14T10:29:09.837Z</time>
      </trkpt>
      <trkpt lat="47.83179" lon="5.25003">
        <ele>422</ele>
        <time>2024-05-14T10:29:13.978Z</time>
      </trkpt>
      <trkpt lat="47.83174" lon="5.25009">
        <ele>422</ele>
        <time>2024-05-14T10:29:18.574Z</time>
      </trkpt>
      <trkpt lat="47.8317" lon="5.25013">
        <ele>422</ele>
        <time>2024-05-14T10:29:22.697Z</time>
      </trkpt>
      <trkpt lat="47.83165" lon="5.25018">
        <ele>413</ele>
        <time>2024-05-14T10:29:26.978Z</time>
      </trkpt>
      <trkpt lat="47.8316" lon="5.25022">
        <ele>413</ele>
        <time>2024-05-14T10:29:31.672Z</time>
      </trkpt>
      <trkpt lat="47.83155" lon="5.25026">
        <ele>413</ele>
        <time>2024-05-14T10:29:36.330Z</time>
      </trkpt>
      <trkpt lat="47.8315" lon="5.25029">
        <ele>416</ele>
        <time>2024-05-14T10:29:40.273Z</time>
      </trkpt>
      <trkpt lat="47.83145" lon="5.25032">
        <ele>416</ele>
        <time>2024-05-14T10:29:44.428Z</time>
      </trkpt>
      <trkpt lat="47.83141" lon="5.25036">
        <ele>416</ele>
        <time>2024-05-14T10:29:48.772Z</time>
      </trkpt>
      <trkpt lat="47.83138" lon="5.25039">
        <ele>416</ele>
        <time>2024-05-14T10:29:53.191Z</time>
      </trkpt>
      <trkpt lat="47.83135" lon="5.25044">
        <ele>407</ele>
        <time>2024-05-14T10:29:57.629Z</time>
      </trkpt>
      <trkpt lat="47.83134" lon="5.25046">
        <ele>407</ele>
        <time>2024-05-14T10:30:01.895Z</time>
      </trkpt>
      <trkpt lat="47.83133" lon="5.25045">
        <ele>407</ele>
        <time>2024-05-14T10:30:06.288Z</time>
      </trkpt>
      <trkpt lat="47.83129" lon="5.25049">
        <ele>407</ele>
        <time>2024-05-14T10:30:10.769Z</time>
      </trkpt>
      <trkpt lat="47.83124" lon="5.25054">
        <ele>409</ele>
        <time>2024-05-14T10:30:15.768Z</time>
      </trkpt>
      <trkpt lat="47.8311" lon="5.25072">
        <ele>400</ele>
        <time>2024-05-14T10:30:19.978Z</time>
      </trkpt>
      <trkpt lat="47.83104" lon="5.25081">
        <ele>400</ele>
        <time>2024-05-14T10:30:24.175Z</time>
      </trkpt>
      <trkpt lat="47.83096" lon="5.25085">
        <ele>405</ele>
        <time>2024-05-14T10:30:28.355Z</time>
      </trkpt>
      <trkpt lat="47.83091" lon="5.25088">
        <ele>405</ele>
        <time>2024-05-14T10:30:32.876Z</time>
      </trkpt>
      <trkpt lat="47.83085" lon="5.25091">
        <ele>405</ele>
        <time>2024-05-14T10:30:36.971Z</time>
      </trkpt>
      <trkpt lat="47.8308" lon="5.25094">
        <ele>405</ele>
        <time>2024-05-14T10:30:41.570Z</time>
      </trkpt>
      <trkpt lat="47.83074" lon="5.25097">
        <ele>405</ele>
        <time>2024-05-14T10:30:45.978Z</time>
      </trkpt>
      <trkpt lat="47.83068" lon="5.251">
        <ele>406</ele>
        <time>2024-05-14T10:30:49.911Z</time>
      </trkpt>
      <trkpt lat="47.83063" lon="5.25104">
        <ele>406</ele>
        <time>2024-05-14T10:30:58.262Z</time>
      </trkpt>
      <trkpt lat="47.83057" lon="5.25108">
        <ele>406</ele>
        <time>2024-05-14T10:31:02.855Z</time>
      </trkpt>
      <trkpt lat="47.83052" lon="5.25112">
        <ele>406</ele>
        <time>2024-05-14T10:31:07.974Z</time>
      </trkpt>
      <trkpt lat="47.83046" lon="5.25117">
        <ele>406</ele>
        <time>2024-05-14T10:31:12.556Z</time>
      </trkpt>
      <trkpt lat="47.83041" lon="5.25122">
        <ele>413</ele>
        <time>2024-05-14T10:31:16.634Z</time>
      </trkpt>
      <trkpt lat="47.83037" lon="5.25128">
        <ele>406</ele>
        <time>2024-05-14T10:31:20.670Z</time>
      </trkpt>
      <trkpt lat="47.83033" lon="5.25136">
        <ele>406</ele>
        <time>2024-05-14T10:31:25.135Z</time>
      </trkpt>
      <trkpt lat="47.83032" lon="5.25137">
        <ele>406</ele>
        <time>2024-05-14T10:31:29.255Z</time>
      </trkpt>
      <trkpt lat="47.8303" lon="5.25142">
        <ele>406</ele>
        <time>2024-05-14T10:31:33.813Z</time>
      </trkpt>
      <trkpt lat="47.83033" lon="5.25147">
        <ele>406</ele>
        <time>2024-05-14T10:31:37.889Z</time>
      </trkpt>
      <trkpt lat="47.83034" lon="5.25156">
        <ele>400</ele>
        <time>2024-05-14T10:31:41.950Z</time>
      </trkpt>
      <trkpt lat="47.83033" lon="5.25162">
        <ele>400</ele>
        <time>2024-05-14T10:31:55.874Z</time>
      </trkpt>
      <trkpt lat="47.83034" lon="5.25166">
        <ele>400</ele>
        <time>2024-05-14T10:31:58.978Z</time>
      </trkpt>
      <trkpt lat="47.83031" lon="5.25166">
        <ele>400</ele>
        <time>2024-05-14T10:32:07.514Z</time>
      </trkpt>
      <trkpt lat="47.83037" lon="5.25185">
        <ele>396</ele>
        <time>2024-05-14T10:32:11.957Z</time>
      </trkpt>
      <trkpt lat="47.8304" lon="5.25196">
        <ele>396</ele>
        <time>2024-05-14T10:32:16.558Z</time>
      </trkpt>
      <trkpt lat="47.8304" lon="5.25205">
        <ele>396</ele>
        <time>2024-05-14T10:32:20.613Z</time>
      </trkpt>
      <trkpt lat="47.8304" lon="5.25216">
        <ele>394</ele>
        <time>2024-05-14T10:32:25.653Z</time>
      </trkpt>
      <trkpt lat="47.8304" lon="5.2522">
        <ele>394</ele>
        <time>2024-05-14T10:32:30.201Z</time>
      </trkpt>
      <trkpt lat="47.83041" lon="5.25226">
        <ele>394</ele>
        <time>2024-05-14T10:32:34.752Z</time>
      </trkpt>
      <trkpt lat="47.83042" lon="5.25233">
        <ele>392</ele>
        <time>2024-05-14T10:32:38.812Z</time>
      </trkpt>
      <trkpt lat="47.83042" lon="5.25242">
        <ele>391</ele>
        <time>2024-05-14T10:32:43.295Z</time>
      </trkpt>
      <trkpt lat="47.83043" lon="5.25249">
        <ele>391</ele>
        <time>2024-05-14T10:32:47.859Z</time>
      </trkpt>
      <trkpt lat="47.83043" lon="5.25257">
        <ele>391</ele>
        <time>2024-05-14T10:32:51.978Z</time>
      </trkpt>
      <trkpt lat="47.83043" lon="5.25265">
        <ele>390</ele>
        <time>2024-05-14T10:32:55.989Z</time>
      </trkpt>
      <trkpt lat="47.83045" lon="5.25271">
        <ele>390</ele>
        <time>2024-05-14T10:33:00.978Z</time>
      </trkpt>
      <trkpt lat="47.8305" lon="5.25276">
        <ele>390</ele>
        <time>2024-05-14T10:33:05.556Z</time>
      </trkpt>
      <trkpt lat="47.83045" lon="5.25291">
        <ele>390</ele>
        <time>2024-05-14T10:33:09.755Z</time>
      </trkpt>
      <trkpt lat="47.83041" lon="5.25298">
        <ele>391</ele>
        <time>2024-05-14T10:33:14.088Z</time>
      </trkpt>
      <trkpt lat="47.83034" lon="5.25298">
        <ele>391</ele>
        <time>2024-05-14T10:33:18.374Z</time>
      </trkpt>
      <trkpt lat="47.83028" lon="5.253">
        <ele>391</ele>
        <time>2024-05-14T10:33:22.990Z</time>
      </trkpt>
      <trkpt lat="47.83024" lon="5.25302">
        <ele>391</ele>
        <time>2024-05-14T10:33:27.216Z</time>
      </trkpt>
      <trkpt lat="47.83018" lon="5.25305">
        <ele>391</ele>
        <time>2024-05-14T10:33:31.514Z</time>
      </trkpt>
      <trkpt lat="47.83013" lon="5.25306">
        <ele>392</ele>
        <time>2024-05-14T10:33:35.774Z</time>
      </trkpt>
      <trkpt lat="47.83007" lon="5.25308">
        <ele>392</ele>
        <time>2024-05-14T10:33:39.970Z</time>
      </trkpt>
      <trkpt lat="47.83002" lon="5.25308">
        <ele>392</ele>
        <time>2024-05-14T10:33:44.978Z</time>
      </trkpt>
      <trkpt lat="47.82997" lon="5.25308">
        <ele>392</ele>
        <time>2024-05-14T10:33:49.322Z</time>
      </trkpt>
      <trkpt lat="47.82988" lon="5.25309">
        <ele>392</ele>
        <time>2024-05-14T10:33:53.905Z</time>
      </trkpt>
      <trkpt lat="47.82986" lon="5.25313">
        <ele>392</ele>
        <time>2024-05-14T10:33:57.978Z</time>
      </trkpt>
      <trkpt lat="47.82984" lon="5.25312">
        <ele>392</ele>
        <time>2024-05-14T10:34:02.600Z</time>
      </trkpt>
      <trkpt lat="47.8298" lon="5.25306">
        <ele>392</ele>
        <time>2024-05-14T10:34:07.225Z</time>
      </trkpt>
      <trkpt lat="47.82971" lon="5.25309">
        <ele>392</ele>
        <time>2024-05-14T10:34:11.978Z</time>
      </trkpt>
      <trkpt lat="47.82966" lon="5.25311">
        <ele>392</ele>
        <time>2024-05-14T10:34:15.978Z</time>
      </trkpt>
      <trkpt lat="47.82959" lon="5.25311">
        <ele>392</ele>
        <time>2024-05-14T10:34:20.083Z</time>
      </trkpt>
      <trkpt lat="47.82953" lon="5.25308">
        <ele>392</ele>
        <time>2024-05-14T10:34:37.978Z</time>
      </trkpt>
      <trkpt lat="47.82948" lon="5.25305">
        <ele>392</ele>
        <time>2024-05-14T10:34:46.978Z</time>
      </trkpt>
      <trkpt lat="47.82942" lon="5.25307">
        <ele>392</ele>
        <time>2024-05-14T10:34:51.978Z</time>
      </trkpt>
      <trkpt lat="47.82937" lon="5.25309">
        <ele>392</ele>
        <time>2024-05-14T10:34:55.978Z</time>
      </trkpt>
      <trkpt lat="47.82933" lon="5.25313">
        <ele>392</ele>
        <time>2024-05-14T10:35:00.464Z</time>
      </trkpt>
      <trkpt lat="47.82929" lon="5.25319">
        <ele>394</ele>
        <time>2024-05-14T10:35:23.541Z</time>
      </trkpt>
      <trkpt lat="47.82927" lon="5.25318">
        <ele>394</ele>
        <time>2024-05-14T10:35:27.634Z</time>
      </trkpt>
      <trkpt lat="47.82927" lon="5.25318">
        <ele>394</ele>
        <time>2024-05-14T10:35:32.280Z</time>
      </trkpt>
      <trkpt lat="47.82928" lon="5.25325">
        <ele>391</ele>
        <time>2024-05-14T10:35:36.702Z</time>
      </trkpt>
      <trkpt lat="47.82931" lon="5.25335">
        <ele>391</ele>
        <time>2024-05-14T10:35:40.978Z</time>
      </trkpt>
      <trkpt lat="47.82934" lon="5.25343">
        <ele>391</ele>
        <time>2024-05-14T10:35:45.978Z</time>
      </trkpt>
      <trkpt lat="47.82937" lon="5.25352">
        <ele>390</ele>
        <time>2024-05-14T10:35:49.978Z</time>
      </trkpt>
      <trkpt lat="47.82939" lon="5.2536">
        <ele>390</ele>
        <time>2024-05-14T10:35:54.521Z</time>
      </trkpt>
      <trkpt lat="47.82942" lon="5.25368">
        <ele>390</ele>
        <time>2024-05-14T10:35:58.984Z</time>
      </trkpt>
      <trkpt lat="47.82946" lon="5.25377">
        <ele>389</ele>
        <time>2024-05-14T10:36:03.959Z</time>
      </trkpt>
      <trkpt lat="47.82947" lon="5.25383">
        <ele>389</ele>
        <time>2024-05-14T10:36:07.986Z</time>
      </trkpt>
      <trkpt lat="47.8295" lon="5.2539">
        <ele>389</ele>
        <time>2024-05-14T10:36:12.902Z</time>
      </trkpt>
      <trkpt lat="47.82953" lon="5.25399">
        <ele>389</ele>
        <time>2024-05-14T10:36:17.978Z</time>
      </trkpt>
      <trkpt lat="47.82956" lon="5.25406">
        <ele>389</ele>
        <time>2024-05-14T10:36:22.484Z</time>
      </trkpt>
      <trkpt lat="47.82959" lon="5.25413">
        <ele>391</ele>
        <time>2024-05-14T10:36:26.503Z</time>
      </trkpt>
      <trkpt lat="47.82962" lon="5.25421">
        <ele>391</ele>
        <time>2024-05-14T10:36:30.719Z</time>
      </trkpt>
      <trkpt lat="47.82965" lon="5.25427">
        <ele>391</ele>
        <time>2024-05-14T10:36:34.978Z</time>
      </trkpt>
      <trkpt lat="47.82969" lon="5.25434">
        <ele>391</ele>
        <time>2024-05-14T10:38:28.978Z</time>
      </trkpt>
      <trkpt lat="47.82972" lon="5.25443">
        <ele>391</ele>
        <time>2024-05-14T10:38:32.978Z</time>
      </trkpt>
      <trkpt lat="47.82975" lon="5.25449">
        <ele>391</ele>
        <time>2024-05-14T10:38:36.978Z</time>
      </trkpt>
      <trkpt lat="47.82978" lon="5.25456">
        <ele>391</ele>
        <time>2024-05-14T10:38:40.978Z</time>
      </trkpt>
      <trkpt lat="47.82987" lon="5.2547">
        <ele>389</ele>
        <time>2024-05-14T10:38:45.978Z</time>
      </trkpt>
      <trkpt lat="47.82994" lon="5.25473">
        <ele>389</ele>
        <time>2024-05-14T10:57:53.978Z</time>
      </trkpt>
      <trkpt lat="47.82997" lon="5.25474">
        <ele>389</ele>
        <time>2024-05-14T10:57:58.978Z</time>
      </trkpt>
      <trkpt lat="47.82998" lon="5.25472">
        <ele>389</ele>
        <time>2024-05-14T10:58:03.978Z</time>
      </trkpt>
      <trkpt lat="47.83" lon="5.25467">
        <ele>389</ele>
        <time>2024-05-14T10:58:07.978Z</time>
      </trkpt>
      <trkpt lat="47.82998" lon="5.25468">
        <ele>389</ele>
        <time>2024-05-14T10:58:12.978Z</time>
      </trkpt>
      <trkpt lat="47.83001" lon="5.25472">
        <ele>389</ele>
        <time>2024-05-14T11:05:26.976Z</time>
      </trkpt>
      <trkpt lat="47.83006" lon="5.25476">
        <ele>389</ele>
        <time>2024-05-14T11:05:30.977Z</time>
      </trkpt>
      <trkpt lat="47.83011" lon="5.25483">
        <ele>389</ele>
        <time>2024-05-14T11:05:34.977Z</time>
      </trkpt>
      <trkpt lat="47.83012" lon="5.25483">
        <ele>389</ele>
        <time>2024-05-14T11:05:38.977Z</time>
      </trkpt>
      <trkpt lat="47.8301" lon="5.25482">
        <ele>389</ele>
        <time>2024-05-14T11:05:42.977Z</time>
      </trkpt>
      <trkpt lat="47.83007" lon="5.25478">
        <ele>389</ele>
        <time>2024-05-14T11:05:47.564Z</time>
      </trkpt>
      <trkpt lat="47.83001" lon="5.25476">
        <ele>389</ele>
        <time>2024-05-14T11:05:51.727Z</time>
      </trkpt>
      <trkpt lat="47.82996" lon="5.25478">
        <ele>389</ele>
        <time>2024-05-14T11:05:55.977Z</time>
      </trkpt>
      <trkpt lat="47.8299" lon="5.25483">
        <ele>389</ele>
        <time>2024-05-14T11:06:00.978Z</time>
      </trkpt>
      <trkpt lat="47.82986" lon="5.25486">
        <ele>391</ele>
        <time>2024-05-14T11:06:05.977Z</time>
      </trkpt>
      <trkpt lat="47.82981" lon="5.25489">
        <ele>391</ele>
        <time>2024-05-14T11:06:10.459Z</time>
      </trkpt>
      <trkpt lat="47.82976" lon="5.25495">
        <ele>391</ele>
        <time>2024-05-14T11:06:14.977Z</time>
      </trkpt>
      <trkpt lat="47.82972" lon="5.255">
        <ele>391</ele>
        <time>2024-05-14T11:06:19.621Z</time>
      </trkpt>
      <trkpt lat="47.82968" lon="5.255">
        <ele>391</ele>
        <time>2024-05-14T11:06:23.946Z</time>
      </trkpt>
      <trkpt lat="47.82966" lon="5.25491">
        <ele>391</ele>
        <time>2024-05-14T11:06:27.977Z</time>
      </trkpt>
      <trkpt lat="47.82966" lon="5.25483">
        <ele>391</ele>
        <time>2024-05-14T11:06:32.983Z</time>
      </trkpt>
      <trkpt lat="47.82971" lon="5.25482">
        <ele>391</ele>
        <time>2024-05-14T11:06:37.606Z</time>
      </trkpt>
      <trkpt lat="47.82972" lon="5.25481">
        <ele>391</ele>
        <time>2024-05-14T11:06:41.976Z</time>
      </trkpt>
      <trkpt lat="47.82973" lon="5.25481">
        <ele>391</ele>
        <time>2024-05-14T11:06:46.977Z</time>
      </trkpt>
      <trkpt lat="47.82974" lon="5.2548">
        <ele>391</ele>
        <time>2024-05-14T11:06:51.802Z</time>
      </trkpt>
      <trkpt lat="47.82976" lon="5.25479">
        <ele>391</ele>
        <time>2024-05-14T11:06:55.977Z</time>
      </trkpt>
      <trkpt lat="47.82968" lon="5.25481">
        <ele>391</ele>
        <time>2024-05-14T11:07:00.977Z</time>
      </trkpt>
      <trkpt lat="47.82968" lon="5.25481">
        <ele>391</ele>
        <time>2024-05-14T11:07:05.606Z</time>
      </trkpt>
      <trkpt lat="47.82968" lon="5.25481">
        <ele>391</ele>
        <time>2024-05-14T11:07:09.976Z</time>
      </trkpt>
      <trkpt lat="47.82967" lon="5.25481">
        <ele>391</ele>
        <time>2024-05-14T11:07:12.976Z</time>
      </trkpt>
      <trkpt lat="47.82967" lon="5.25481">
        <ele>391</ele>
        <time>2024-05-14T11:07:21.808Z</time>
      </trkpt>
      <trkpt lat="47.82968" lon="5.25482">
        <ele>391</ele>
        <time>2024-05-14T11:07:26.823Z</time>
      </trkpt>
      <trkpt lat="47.82967" lon="5.25484">
        <ele>391</ele>
        <time>2024-05-14T11:07:30.976Z</time>
      </trkpt>
      <trkpt lat="47.82968" lon="5.25485">
        <ele>391</ele>
        <time>2024-05-14T11:07:34.976Z</time>
      </trkpt>
      <trkpt lat="47.82968" lon="5.2549">
        <ele>391</ele>
        <time>2024-05-14T11:07:39.088Z</time>
      </trkpt>
      <trkpt lat="47.82971" lon="5.25495">
        <ele>391</ele>
        <time>2024-05-14T11:07:43.726Z</time>
      </trkpt>
      <trkpt lat="47.82974" lon="5.25498">
        <ele>391</ele>
        <time>2024-05-14T11:08:06.977Z</time>
      </trkpt>
      <trkpt lat="47.82979" lon="5.25497">
        <ele>391</ele>
        <time>2024-05-14T11:08:11.976Z</time>
      </trkpt>
      <trkpt lat="47.82982" lon="5.25497">
        <ele>391</ele>
        <time>2024-05-14T11:08:16.976Z</time>
      </trkpt>
      <trkpt lat="47.82983" lon="5.25496">
        <ele>391</ele>
        <time>2024-05-14T11:08:21.993Z</time>
      </trkpt>
      <trkpt lat="47.82985" lon="5.25496">
        <ele>391</ele>
        <time>2024-05-14T11:08:26.487Z</time>
      </trkpt>
      <trkpt lat="47.82989" lon="5.25492">
        <ele>390</ele>
        <time>2024-05-14T11:08:30.770Z</time>
      </trkpt>
      <trkpt lat="47.8299" lon="5.25491">
        <ele>390</ele>
        <time>2024-05-14T11:08:35.130Z</time>
      </trkpt>
      <trkpt lat="47.82992" lon="5.25492">
        <ele>390</ele>
        <time>2024-05-14T11:08:39.551Z</time>
      </trkpt>
      <trkpt lat="47.83" lon="5.2549">
        <ele>390</ele>
        <time>2024-05-14T11:08:43.976Z</time>
      </trkpt>
      <trkpt lat="47.83006" lon="5.25486">
        <ele>390</ele>
        <time>2024-05-14T11:08:48.567Z</time>
      </trkpt>
      <trkpt lat="47.83013" lon="5.25488">
        <ele>390</ele>
        <time>2024-05-14T11:08:53.242Z</time>
      </trkpt>
      <trkpt lat="47.8302" lon="5.25492">
        <ele>390</ele>
        <time>2024-05-14T11:08:57.867Z</time>
      </trkpt>
      <trkpt lat="47.83025" lon="5.25496">
        <ele>390</ele>
        <time>2024-05-14T11:09:02.509Z</time>
      </trkpt>
      <trkpt lat="47.8303" lon="5.25502">
        <ele>390</ele>
        <time>2024-05-14T11:09:06.825Z</time>
      </trkpt>
      <trkpt lat="47.83035" lon="5.2551">
        <ele>390</ele>
        <time>2024-05-14T11:09:11.629Z</time>
      </trkpt>
      <trkpt lat="47.83037" lon="5.25515">
        <ele>392</ele>
        <time>2024-05-14T11:09:15.980Z</time>
      </trkpt>
      <trkpt lat="47.83038" lon="5.25517">
        <ele>392</ele>
        <time>2024-05-14T11:09:20.885Z</time>
      </trkpt>
      <trkpt lat="47.83038" lon="5.25516">
        <ele>392</ele>
        <time>2024-05-14T11:09:24.977Z</time>
      </trkpt>
      <trkpt lat="47.8304" lon="5.25519">
        <ele>392</ele>
        <time>2024-05-14T11:09:29.724Z</time>
      </trkpt>
      <trkpt lat="47.83041" lon="5.25521">
        <ele>392</ele>
        <time>2024-05-14T11:09:34.365Z</time>
      </trkpt>
      <trkpt lat="47.83045" lon="5.25521">
        <ele>391</ele>
        <time>2024-05-14T11:09:38.977Z</time>
      </trkpt>
      <trkpt lat="47.83046" lon="5.25527">
        <ele>391</ele>
        <time>2024-05-14T11:09:43.213Z</time>
      </trkpt>
      <trkpt lat="47.83044" lon="5.25536">
        <ele>391</ele>
        <time>2024-05-14T11:09:47.977Z</time>
      </trkpt>
      <trkpt lat="47.83046" lon="5.25544">
        <ele>395</ele>
        <time>2024-05-14T11:09:52.930Z</time>
      </trkpt>
      <trkpt lat="47.83049" lon="5.25551">
        <ele>395</ele>
        <time>2024-05-14T11:09:56.976Z</time>
      </trkpt>
      <trkpt lat="47.83052" lon="5.25558">
        <ele>395</ele>
        <time>2024-05-14T11:10:01.976Z</time>
      </trkpt>
      <trkpt lat="47.83051" lon="5.25569">
        <ele>395</ele>
        <time>2024-05-14T11:10:02.976Z</time>
      </trkpt>
      <trkpt lat="47.83053" lon="5.25576">
        <ele>399</ele>
        <time>2024-05-14T11:10:11.976Z</time>
      </trkpt>
      <trkpt lat="47.83053" lon="5.25585">
        <ele>399</ele>
        <time>2024-05-14T11:10:16.528Z</time>
      </trkpt>
      <trkpt lat="47.83053" lon="5.25593">
        <ele>399</ele>
        <time>2024-05-14T11:10:20.922Z</time>
      </trkpt>
      <trkpt lat="47.83051" lon="5.256">
        <ele>403</ele>
        <time>2024-05-14T11:10:24.983Z</time>
      </trkpt>
      <trkpt lat="47.83048" lon="5.25605">
        <ele>403</ele>
        <time>2024-05-14T11:10:29.976Z</time>
      </trkpt>
      <trkpt lat="47.83046" lon="5.2561">
        <ele>403</ele>
        <time>2024-05-14T11:10:34.531Z</time>
      </trkpt>
      <trkpt lat="47.83043" lon="5.25616">
        <ele>403</ele>
        <time>2024-05-14T11:10:38.763Z</time>
      </trkpt>
      <trkpt lat="47.8304" lon="5.25621">
        <ele>400</ele>
        <time>2024-05-14T11:10:43.285Z</time>
      </trkpt>
      <trkpt lat="47.83037" lon="5.25626">
        <ele>404</ele>
        <time>2024-05-14T11:10:47.764Z</time>
      </trkpt>
      <trkpt lat="47.83034" lon="5.25631">
        <ele>404</ele>
        <time>2024-05-14T11:10:52.270Z</time>
      </trkpt>
      <trkpt lat="47.83032" lon="5.25638">
        <ele>404</ele>
        <time>2024-05-14T11:10:56.910Z</time>
      </trkpt>
      <trkpt lat="47.8303" lon="5.25644">
        <ele>404</ele>
        <time>2024-05-14T11:11:00.977Z</time>
      </trkpt>
      <trkpt lat="47.83028" lon="5.2565">
        <ele>404</ele>
        <time>2024-05-14T11:11:05.289Z</time>
      </trkpt>
      <trkpt lat="47.83027" lon="5.2566">
        <ele>408</ele>
        <time>2024-05-14T11:11:09.487Z</time>
      </trkpt>
      <trkpt lat="47.83026" lon="5.25667">
        <ele>408</ele>
        <time>2024-05-14T11:11:13.608Z</time>
      </trkpt>
      <trkpt lat="47.83024" lon="5.25675">
        <ele>408</ele>
        <time>2024-05-14T11:11:17.976Z</time>
      </trkpt>
      <trkpt lat="47.83022" lon="5.25679">
        <ele>408</ele>
        <time>2024-05-14T11:11:22.651Z</time>
      </trkpt>
      <trkpt lat="47.83021" lon="5.25687">
        <ele>413</ele>
        <time>2024-05-14T11:11:26.747Z</time>
      </trkpt>
      <trkpt lat="47.8302" lon="5.25694">
        <ele>413</ele>
        <time>2024-05-14T11:11:30.976Z</time>
      </trkpt>
      <trkpt lat="47.83019" lon="5.257">
        <ele>413</ele>
        <time>2024-05-14T11:11:35.976Z</time>
      </trkpt>
      <trkpt lat="47.83015" lon="5.25704">
        <ele>413</ele>
        <time>2024-05-14T11:11:40.861Z</time>
      </trkpt>
      <trkpt lat="47.83009" lon="5.25702">
        <ele>411</ele>
        <time>2024-05-14T11:11:49.491Z</time>
      </trkpt>
      <trkpt lat="47.83004" lon="5.25694">
        <ele>411</ele>
        <time>2024-05-14T11:11:53.950Z</time>
      </trkpt>
      <trkpt lat="47.83003" lon="5.25689">
        <ele>411</ele>
        <time>2024-05-14T11:11:58.976Z</time>
      </trkpt>
      <trkpt lat="47.83003" lon="5.25686">
        <ele>411</ele>
        <time>2024-05-14T11:12:02.976Z</time>
      </trkpt>
      <trkpt lat="47.83004" lon="5.25687">
        <ele>411</ele>
        <time>2024-05-14T11:12:07.605Z</time>
      </trkpt>
      <trkpt lat="47.83003" lon="5.25686">
        <ele>411</ele>
        <time>2024-05-14T11:12:11.976Z</time>
      </trkpt>
      <trkpt lat="47.82997" lon="5.25682">
        <ele>411</ele>
        <time>2024-05-14T11:12:16.411Z</time>
      </trkpt>
      <trkpt lat="47.82992" lon="5.25677">
        <ele>407</ele>
        <time>2024-05-14T11:12:20.567Z</time>
      </trkpt>
      <trkpt lat="47.82988" lon="5.25673">
        <ele>407</ele>
        <time>2024-05-14T11:12:24.790Z</time>
      </trkpt>
      <trkpt lat="47.82984" lon="5.25668">
        <ele>407</ele>
        <time>2024-05-14T11:12:29.048Z</time>
      </trkpt>
      <trkpt lat="47.8298" lon="5.25664">
        <ele>407</ele>
        <time>2024-05-14T11:12:33.172Z</time>
      </trkpt>
      <trkpt lat="47.82976" lon="5.2566">
        <ele>407</ele>
        <time>2024-05-14T11:12:37.409Z</time>
      </trkpt>
      <trkpt lat="47.82973" lon="5.25655">
        <ele>407</ele>
        <time>2024-05-14T11:12:41.977Z</time>
      </trkpt>
      <trkpt lat="47.82969" lon="5.25651">
        <ele>403</ele>
        <time>2024-05-14T11:12:46.991Z</time>
      </trkpt>
      <trkpt lat="47.82964" lon="5.25647">
        <ele>403</ele>
        <time>2024-05-14T11:12:51.546Z</time>
      </trkpt>
      <trkpt lat="47.82958" lon="5.25644">
        <ele>403</ele>
        <time>2024-05-14T11:12:55.982Z</time>
      </trkpt>
      <trkpt lat="47.82954" lon="5.25642">
        <ele>402</ele>
        <time>2024-05-14T11:13:00.385Z</time>
      </trkpt>
      <trkpt lat="47.82948" lon="5.25641">
        <ele>402</ele>
        <time>2024-05-14T11:13:04.788Z</time>
      </trkpt>
      <trkpt lat="47.82942" lon="5.2564">
        <ele>402</ele>
        <time>2024-05-14T11:13:08.977Z</time>
      </trkpt>
      <trkpt lat="47.82937" lon="5.25638">
        <ele>402</ele>
        <time>2024-05-14T11:13:13.985Z</time>
      </trkpt>
      <trkpt lat="47.82932" lon="5.25637">
        <ele>402</ele>
        <time>2024-05-14T11:13:18.746Z</time>
      </trkpt>
      <trkpt lat="47.82926" lon="5.25636">
        <ele>404</ele>
        <time>2024-05-14T11:13:22.970Z</time>
      </trkpt>
      <trkpt lat="47.82921" lon="5.25638">
        <ele>404</ele>
        <time>2024-05-14T11:13:27.210Z</time>
      </trkpt>
      <trkpt lat="47.82917" lon="5.25639">
        <ele>404</ele>
        <time>2024-05-14T11:13:31.485Z</time>
      </trkpt>
      <trkpt lat="47.82912" lon="5.25642">
        <ele>404</ele>
        <time>2024-05-14T11:13:35.827Z</time>
      </trkpt>
      <trkpt lat="47.8291" lon="5.25649">
        <ele>404</ele>
        <time>2024-05-14T11:13:40.306Z</time>
      </trkpt>
      <trkpt lat="47.82906" lon="5.25648">
        <ele>404</ele>
        <time>2024-05-14T11:13:44.666Z</time>
      </trkpt>
      <trkpt lat="47.82898" lon="5.25645">
        <ele>406</ele>
        <time>2024-05-14T11:13:48.976Z</time>
      </trkpt>
      <trkpt lat="47.82891" lon="5.25648">
        <ele>406</ele>
        <time>2024-05-14T11:13:53.435Z</time>
      </trkpt>
      <trkpt lat="47.82883" lon="5.25649">
        <ele>406</ele>
        <time>2024-05-14T11:13:57.789Z</time>
      </trkpt>
      <trkpt lat="47.82876" lon="5.25649">
        <ele>406</ele>
        <time>2024-05-14T11:14:01.985Z</time>
      </trkpt>
      <trkpt lat="47.82872" lon="5.25652">
        <ele>409</ele>
        <time>2024-05-14T11:14:06.976Z</time>
      </trkpt>
      <trkpt lat="47.82867" lon="5.25655">
        <ele>414</ele>
        <time>2024-05-14T11:14:11.977Z</time>
      </trkpt>
      <trkpt lat="47.82862" lon="5.25657">
        <ele>414</ele>
        <time>2024-05-14T11:14:16.328Z</time>
      </trkpt>
      <trkpt lat="47.82857" lon="5.25659">
        <ele>414</ele>
        <time>2024-05-14T11:14:20.611Z</time>
      </trkpt>
      <trkpt lat="47.82854" lon="5.25661">
        <ele>414</ele>
        <time>2024-05-14T11:14:25.329Z</time>
      </trkpt>
      <trkpt lat="47.8285" lon="5.25661">
        <ele>414</ele>
        <time>2024-05-14T11:14:29.977Z</time>
      </trkpt>
      <trkpt lat="47.82846" lon="5.25662">
        <ele>415</ele>
        <time>2024-05-14T11:14:34.628Z</time>
      </trkpt>
      <trkpt lat="47.82841" lon="5.25663">
        <ele>415</ele>
        <time>2024-05-14T11:14:39.270Z</time>
      </trkpt>
      <trkpt lat="47.82835" lon="5.25664">
        <ele>415</ele>
        <time>2024-05-14T11:14:43.825Z</time>
      </trkpt>
      <trkpt lat="47.82829" lon="5.25667">
        <ele>415</ele>
        <time>2024-05-14T11:14:47.976Z</time>
      </trkpt>
      <trkpt lat="47.82824" lon="5.25669">
        <ele>415</ele>
        <time>2024-05-14T11:14:52.469Z</time>
      </trkpt>
      <trkpt lat="47.8282" lon="5.25671">
        <ele>415</ele>
        <time>2024-05-14T11:14:56.622Z</time>
      </trkpt>
      <trkpt lat="47.82816" lon="5.25673">
        <ele>414</ele>
        <time>2024-05-14T11:15:00.847Z</time>
      </trkpt>
      <trkpt lat="47.82812" lon="5.25675">
        <ele>414</ele>
        <time>2024-05-14T11:15:04.976Z</time>
      </trkpt>
      <trkpt lat="47.82807" lon="5.25676">
        <ele>414</ele>
        <time>2024-05-14T11:15:09.609Z</time>
      </trkpt>
      <trkpt lat="47.82801" lon="5.25676">
        <ele>414</ele>
        <time>2024-05-14T11:15:13.926Z</time>
      </trkpt>
      <trkpt lat="47.82796" lon="5.25677">
        <ele>414</ele>
        <time>2024-05-14T11:15:18.849Z</time>
      </trkpt>
      <trkpt lat="47.82791" lon="5.25677">
        <ele>414</ele>
        <time>2024-05-14T11:15:22.976Z</time>
      </trkpt>
      <trkpt lat="47.82787" lon="5.25678">
        <ele>414</ele>
        <time>2024-05-14T11:15:27.976Z</time>
      </trkpt>
      <trkpt lat="47.82782" lon="5.2568">
        <ele>414</ele>
        <time>2024-05-14T11:15:32.866Z</time>
      </trkpt>
      <trkpt lat="47.82778" lon="5.25681">
        <ele>419</ele>
        <time>2024-05-14T11:15:36.991Z</time>
      </trkpt>
      <trkpt lat="47.82773" lon="5.25681">
        <ele>419</ele>
        <time>2024-05-14T11:15:41.151Z</time>
      </trkpt>
      <trkpt lat="47.82768" lon="5.25683">
        <ele>419</ele>
        <time>2024-05-14T11:15:45.976Z</time>
      </trkpt>
      <trkpt lat="47.82763" lon="5.25684">
        <ele>419</ele>
        <time>2024-05-14T11:15:50.749Z</time>
      </trkpt>
      <trkpt lat="47.82757" lon="5.25685">
        <ele>419</ele>
        <time>2024-05-14T11:15:54.810Z</time>
      </trkpt>
      <trkpt lat="47.82752" lon="5.25686">
        <ele>419</ele>
        <time>2024-05-14T11:15:58.976Z</time>
      </trkpt>
      <trkpt lat="47.82746" lon="5.25688">
        <ele>419</ele>
        <time>2024-05-14T11:16:03.977Z</time>
      </trkpt>
      <trkpt lat="47.8274" lon="5.25692">
        <ele>419</ele>
        <time>2024-05-14T11:16:08.443Z</time>
      </trkpt>
      <trkpt lat="47.82735" lon="5.25696">
        <ele>418</ele>
        <time>2024-05-14T11:16:12.470Z</time>
      </trkpt>
      <trkpt lat="47.82733" lon="5.25703">
        <ele>418</ele>
        <time>2024-05-14T11:16:16.685Z</time>
      </trkpt>
      <trkpt lat="47.82737" lon="5.25711">
        <ele>424</ele>
        <time>2024-05-14T11:16:21.284Z</time>
      </trkpt>
      <trkpt lat="47.82744" lon="5.25711">
        <ele>424</ele>
        <time>2024-05-14T11:16:25.976Z</time>
      </trkpt>
      <trkpt lat="47.8275" lon="5.25715">
        <ele>424</ele>
        <time>2024-05-14T11:16:30.690Z</time>
      </trkpt>
      <trkpt lat="47.82755" lon="5.25721">
        <ele>424</ele>
        <time>2024-05-14T11:16:34.827Z</time>
      </trkpt>
      <trkpt lat="47.82758" lon="5.2573">
        <ele>424</ele>
        <time>2024-05-14T11:16:38.976Z</time>
      </trkpt>
      <trkpt lat="47.82759" lon="5.25737">
        <ele>427</ele>
        <time>2024-05-14T11:16:43.231Z</time>
      </trkpt>
      <trkpt lat="47.8276" lon="5.25746">
        <ele>427</ele>
        <time>2024-05-14T11:16:47.403Z</time>
      </trkpt>
      <trkpt lat="47.82761" lon="5.25753">
        <ele>427</ele>
        <time>2024-05-14T11:16:51.524Z</time>
      </trkpt>
      <trkpt lat="47.82763" lon="5.2576">
        <ele>427</ele>
        <time>2024-05-14T11:16:55.976Z</time>
      </trkpt>
      <trkpt lat="47.82764" lon="5.25766">
        <ele>428</ele>
        <time>2024-05-14T11:17:00.289Z</time>
      </trkpt>
      <trkpt lat="47.82765" lon="5.25774">
        <ele>429</ele>
        <time>2024-05-14T11:17:04.308Z</time>
      </trkpt>
      <trkpt lat="47.82767" lon="5.2578">
        <ele>429</ele>
        <time>2024-05-14T11:17:08.566Z</time>
      </trkpt>
      <trkpt lat="47.82769" lon="5.25788">
        <ele>429</ele>
        <time>2024-05-14T11:17:12.704Z</time>
      </trkpt>
      <trkpt lat="47.8277" lon="5.25795">
        <ele>429</ele>
        <time>2024-05-14T11:17:17.670Z</time>
      </trkpt>
      <trkpt lat="47.82772" lon="5.25804">
        <ele>429</ele>
        <time>2024-05-14T11:17:21.747Z</time>
      </trkpt>
      <trkpt lat="47.82773" lon="5.25813">
        <ele>429</ele>
        <time>2024-05-14T11:17:26.448Z</time>
      </trkpt>
      <trkpt lat="47.82773" lon="5.25821">
        <ele>431</ele>
        <time>2024-05-14T11:17:30.976Z</time>
      </trkpt>
      <trkpt lat="47.82773" lon="5.25829">
        <ele>431</ele>
        <time>2024-05-14T11:17:35.184Z</time>
      </trkpt>
      <trkpt lat="47.82773" lon="5.25838">
        <ele>431</ele>
        <time>2024-05-14T11:17:39.977Z</time>
      </trkpt>
      <trkpt lat="47.82773" lon="5.25846">
        <ele>431</ele>
        <time>2024-05-14T11:17:44.570Z</time>
      </trkpt>
      <trkpt lat="47.82773" lon="5.25854">
        <ele>433</ele>
        <time>2024-05-14T11:17:48.767Z</time>
      </trkpt>
      <trkpt lat="47.82773" lon="5.25861">
        <ele>433</ele>
        <time>2024-05-14T11:17:52.976Z</time>
      </trkpt>
      <trkpt lat="47.82772" lon="5.2587">
        <ele>433</ele>
        <time>2024-05-14T11:17:57.977Z</time>
      </trkpt>
      <trkpt lat="47.82772" lon="5.25878">
        <ele>434</ele>
        <time>2024-05-14T11:18:02.785Z</time>
      </trkpt>
      <trkpt lat="47.82772" lon="5.25886">
        <ele>434</ele>
        <time>2024-05-14T11:18:07.349Z</time>
      </trkpt>
      <trkpt lat="47.82772" lon="5.25894">
        <ele>434</ele>
        <time>2024-05-14T11:18:11.976Z</time>
      </trkpt>
      <trkpt lat="47.82771" lon="5.25902">
        <ele>434</ele>
        <time>2024-05-14T11:18:16.726Z</time>
      </trkpt>
      <trkpt lat="47.8277" lon="5.25911">
        <ele>435</ele>
        <time>2024-05-14T11:18:20.977Z</time>
      </trkpt>
      <trkpt lat="47.82769" lon="5.25919">
        <ele>435</ele>
        <time>2024-05-14T11:18:25.504Z</time>
      </trkpt>
      <trkpt lat="47.82768" lon="5.25927">
        <ele>435</ele>
        <time>2024-05-14T11:18:29.651Z</time>
      </trkpt>
      <trkpt lat="47.82768" lon="5.25935">
        <ele>435</ele>
        <time>2024-05-14T11:18:33.977Z</time>
      </trkpt>
      <trkpt lat="47.82767" lon="5.25943">
        <ele>435</ele>
        <time>2024-05-14T11:18:38.925Z</time>
      </trkpt>
      <trkpt lat="47.82766" lon="5.25952">
        <ele>435</ele>
        <time>2024-05-14T11:18:42.975Z</time>
      </trkpt>
      <trkpt lat="47.82764" lon="5.25959">
        <ele>435</ele>
        <time>2024-05-14T11:18:47.509Z</time>
      </trkpt>
      <trkpt lat="47.82764" lon="5.25966">
        <ele>435</ele>
        <time>2024-05-14T11:18:51.867Z</time>
      </trkpt>
      <trkpt lat="47.82762" lon="5.25973">
        <ele>435</ele>
        <time>2024-05-14T11:18:55.975Z</time>
      </trkpt>
      <trkpt lat="47.82762" lon="5.25981">
        <ele>435</ele>
        <time>2024-05-14T11:19:00.410Z</time>
      </trkpt>
      <trkpt lat="47.82759" lon="5.25992">
        <ele>435</ele>
        <time>2024-05-14T11:19:04.630Z</time>
      </trkpt>
      <trkpt lat="47.82759" lon="5.25998">
        <ele>435</ele>
        <time>2024-05-14T11:19:08.975Z</time>
      </trkpt>
      <trkpt lat="47.82757" lon="5.26008">
        <ele>435</ele>
        <time>2024-05-14T11:19:13.827Z</time>
      </trkpt>
      <trkpt lat="47.82756" lon="5.26015">
        <ele>436</ele>
        <time>2024-05-14T11:19:18.467Z</time>
      </trkpt>
      <trkpt lat="47.82755" lon="5.26024">
        <ele>436</ele>
        <time>2024-05-14T11:19:22.976Z</time>
      </trkpt>
      <trkpt lat="47.82754" lon="5.26032">
        <ele>436</ele>
        <time>2024-05-14T11:19:27.606Z</time>
      </trkpt>
      <trkpt lat="47.82753" lon="5.2604">
        <ele>436</ele>
        <time>2024-05-14T11:19:31.976Z</time>
      </trkpt>
      <trkpt lat="47.82752" lon="5.26049">
        <ele>436</ele>
        <time>2024-05-14T11:19:36.871Z</time>
      </trkpt>
      <trkpt lat="47.82751" lon="5.26056">
        <ele>436</ele>
        <time>2024-05-14T11:19:41.588Z</time>
      </trkpt>
      <trkpt lat="47.82751" lon="5.26063">
        <ele>436</ele>
        <time>2024-05-14T11:19:45.975Z</time>
      </trkpt>
      <trkpt lat="47.8275" lon="5.2607">
        <ele>436</ele>
        <time>2024-05-14T11:19:50.146Z</time>
      </trkpt>
      <trkpt lat="47.82748" lon="5.2608">
        <ele>436</ele>
        <time>2024-05-14T11:19:54.710Z</time>
      </trkpt>
      <trkpt lat="47.82747" lon="5.26088">
        <ele>436</ele>
        <time>2024-05-14T11:19:58.925Z</time>
      </trkpt>
      <trkpt lat="47.82744" lon="5.26095">
        <ele>436</ele>
        <time>2024-05-14T11:20:03.489Z</time>
      </trkpt>
      <trkpt lat="47.82743" lon="5.26104">
        <ele>436</ele>
        <time>2024-05-14T11:20:07.976Z</time>
      </trkpt>
      <trkpt lat="47.82741" lon="5.26112">
        <ele>436</ele>
        <time>2024-05-14T11:20:12.669Z</time>
      </trkpt>
      <trkpt lat="47.82739" lon="5.26119">
        <ele>436</ele>
        <time>2024-05-14T11:20:17.250Z</time>
      </trkpt>
      <trkpt lat="47.82736" lon="5.26126">
        <ele>436</ele>
        <time>2024-05-14T11:20:21.951Z</time>
      </trkpt>
      <trkpt lat="47.82735" lon="5.26133">
        <ele>437</ele>
        <time>2024-05-14T11:20:26.567Z</time>
      </trkpt>
      <trkpt lat="47.82732" lon="5.26141">
        <ele>437</ele>
        <time>2024-05-14T11:20:30.976Z</time>
      </trkpt>
      <trkpt lat="47.8273" lon="5.2615">
        <ele>437</ele>
        <time>2024-05-14T11:20:35.968Z</time>
      </trkpt>
      <trkpt lat="47.82727" lon="5.26157">
        <ele>438</ele>
        <time>2024-05-14T11:20:39.975Z</time>
      </trkpt>
      <trkpt lat="47.82726" lon="5.26165">
        <ele>438</ele>
        <time>2024-05-14T11:20:44.807Z</time>
      </trkpt>
      <trkpt lat="47.82724" lon="5.26172">
        <ele>438</ele>
        <time>2024-05-14T11:20:49.464Z</time>
      </trkpt>
      <trkpt lat="47.82722" lon="5.2618">
        <ele>438</ele>
        <time>2024-05-14T11:20:53.976Z</time>
      </trkpt>
      <trkpt lat="47.8272" lon="5.26188">
        <ele>438</ele>
        <time>2024-05-14T11:20:58.927Z</time>
      </trkpt>
      <trkpt lat="47.82718" lon="5.26196">
        <ele>438</ele>
        <time>2024-05-14T11:21:03.968Z</time>
      </trkpt>
      <trkpt lat="47.82716" lon="5.26205">
        <ele>438</ele>
        <time>2024-05-14T11:21:07.975Z</time>
      </trkpt>
      <trkpt lat="47.82714" lon="5.26214">
        <ele>438</ele>
        <time>2024-05-14T11:21:12.789Z</time>
      </trkpt>
      <trkpt lat="47.82713" lon="5.26223">
        <ele>438</ele>
        <time>2024-05-14T11:21:16.975Z</time>
      </trkpt>
      <trkpt lat="47.82711" lon="5.26231">
        <ele>438</ele>
        <time>2024-05-14T11:21:21.730Z</time>
      </trkpt>
      <trkpt lat="47.82709" lon="5.2624">
        <ele>438</ele>
        <time>2024-05-14T11:21:26.644Z</time>
      </trkpt>
      <trkpt lat="47.82706" lon="5.26249">
        <ele>438</ele>
        <time>2024-05-14T11:21:30.970Z</time>
      </trkpt>
      <trkpt lat="47.82704" lon="5.26258">
        <ele>438</ele>
        <time>2024-05-14T11:21:34.980Z</time>
      </trkpt>
      <trkpt lat="47.82701" lon="5.26266">
        <ele>439</ele>
        <time>2024-05-14T11:21:39.825Z</time>
      </trkpt>
      <trkpt lat="47.82699" lon="5.26273">
        <ele>439</ele>
        <time>2024-05-14T11:21:43.975Z</time>
      </trkpt>
      <trkpt lat="47.82696" lon="5.2628">
        <ele>439</ele>
        <time>2024-05-14T11:21:48.689Z</time>
      </trkpt>
      <trkpt lat="47.82693" lon="5.26288">
        <ele>439</ele>
        <time>2024-05-14T11:21:52.963Z</time>
      </trkpt>
      <trkpt lat="47.82691" lon="5.26295">
        <ele>441</ele>
        <time>2024-05-14T11:21:57.143Z</time>
      </trkpt>
      <trkpt lat="47.82687" lon="5.26301">
        <ele>441</ele>
        <time>2024-05-14T11:22:01.529Z</time>
      </trkpt>
      <trkpt lat="47.82683" lon="5.26308">
        <ele>441</ele>
        <time>2024-05-14T11:22:05.728Z</time>
      </trkpt>
      <trkpt lat="47.8268" lon="5.26315">
        <ele>441</ele>
        <time>2024-05-14T11:22:09.975Z</time>
      </trkpt>
      <trkpt lat="47.82677" lon="5.26323">
        <ele>441</ele>
        <time>2024-05-14T11:22:14.599Z</time>
      </trkpt>
      <trkpt lat="47.82674" lon="5.26331">
        <ele>441</ele>
        <time>2024-05-14T11:22:18.976Z</time>
      </trkpt>
      <trkpt lat="47.82671" lon="5.2634">
        <ele>441</ele>
        <time>2024-05-14T11:22:23.769Z</time>
      </trkpt>
      <trkpt lat="47.82669" lon="5.26349">
        <ele>441</ele>
        <time>2024-05-14T11:22:27.976Z</time>
      </trkpt>
      <trkpt lat="47.82667" lon="5.26357">
        <ele>441</ele>
        <time>2024-05-14T11:22:32.771Z</time>
      </trkpt>
      <trkpt lat="47.82665" lon="5.26364">
        <ele>441</ele>
        <time>2024-05-14T11:22:37.864Z</time>
      </trkpt>
      <trkpt lat="47.82664" lon="5.26373">
        <ele>441</ele>
        <time>2024-05-14T11:22:42.607Z</time>
      </trkpt>
      <trkpt lat="47.82662" lon="5.26381">
        <ele>441</ele>
        <time>2024-05-14T11:22:46.975Z</time>
      </trkpt>
      <trkpt lat="47.82659" lon="5.26389">
        <ele>441</ele>
        <time>2024-05-14T11:22:51.147Z</time>
      </trkpt>
      <trkpt lat="47.82657" lon="5.26396">
        <ele>441</ele>
        <time>2024-05-14T11:22:55.626Z</time>
      </trkpt>
      <trkpt lat="47.82654" lon="5.26404">
        <ele>442</ele>
        <time>2024-05-14T11:23:00.770Z</time>
      </trkpt>
      <trkpt lat="47.82651" lon="5.26412">
        <ele>441</ele>
        <time>2024-05-14T11:23:05.505Z</time>
      </trkpt>
      <trkpt lat="47.82649" lon="5.2642">
        <ele>441</ele>
        <time>2024-05-14T11:23:09.549Z</time>
      </trkpt>
      <trkpt lat="47.82646" lon="5.26427">
        <ele>441</ele>
        <time>2024-05-14T11:23:13.975Z</time>
      </trkpt>
      <trkpt lat="47.82644" lon="5.26436">
        <ele>441</ele>
        <time>2024-05-14T11:23:18.975Z</time>
      </trkpt>
      <trkpt lat="47.8264" lon="5.26442">
        <ele>441</ele>
        <time>2024-05-14T11:23:23.190Z</time>
      </trkpt>
      <trkpt lat="47.82636" lon="5.26448">
        <ele>441</ele>
        <time>2024-05-14T11:23:27.184Z</time>
      </trkpt>
      <trkpt lat="47.82633" lon="5.26455">
        <ele>441</ele>
        <time>2024-05-14T11:23:31.346Z</time>
      </trkpt>
      <trkpt lat="47.82628" lon="5.26463">
        <ele>442</ele>
        <time>2024-05-14T11:23:35.975Z</time>
      </trkpt>
      <trkpt lat="47.82625" lon="5.26469">
        <ele>442</ele>
        <time>2024-05-14T11:23:40.466Z</time>
      </trkpt>
      <trkpt lat="47.82622" lon="5.26477">
        <ele>442</ele>
        <time>2024-05-14T11:23:44.844Z</time>
      </trkpt>
      <trkpt lat="47.82618" lon="5.26484">
        <ele>442</ele>
        <time>2024-05-14T11:23:48.975Z</time>
      </trkpt>
      <trkpt lat="47.82614" lon="5.26491">
        <ele>443</ele>
        <time>2024-05-14T11:23:53.724Z</time>
      </trkpt>
      <trkpt lat="47.82611" lon="5.26498">
        <ele>443</ele>
        <time>2024-05-14T11:23:57.975Z</time>
      </trkpt>
      <trkpt lat="47.82608" lon="5.26506">
        <ele>443</ele>
        <time>2024-05-14T11:24:02.443Z</time>
      </trkpt>
      <trkpt lat="47.82604" lon="5.26514">
        <ele>443</ele>
        <time>2024-05-14T11:24:06.828Z</time>
      </trkpt>
      <trkpt lat="47.82601" lon="5.26521">
        <ele>443</ele>
        <time>2024-05-14T11:24:10.975Z</time>
      </trkpt>
      <trkpt lat="47.82598" lon="5.26529">
        <ele>443</ele>
        <time>2024-05-14T11:24:15.427Z</time>
      </trkpt>
      <trkpt lat="47.82595" lon="5.26536">
        <ele>444</ele>
        <time>2024-05-14T11:24:19.685Z</time>
      </trkpt>
      <trkpt lat="47.82592" lon="5.26544">
        <ele>444</ele>
        <time>2024-05-14T11:24:23.907Z</time>
      </trkpt>
      <trkpt lat="47.8259" lon="5.26552">
        <ele>444</ele>
        <time>2024-05-14T11:24:27.976Z</time>
      </trkpt>
      <trkpt lat="47.82587" lon="5.26561">
        <ele>444</ele>
        <time>2024-05-14T11:24:32.345Z</time>
      </trkpt>
      <trkpt lat="47.82584" lon="5.26568">
        <ele>444</ele>
        <time>2024-05-14T11:24:36.645Z</time>
      </trkpt>
      <trkpt lat="47.82582" lon="5.26574">
        <ele>443</ele>
        <time>2024-05-14T11:24:40.944Z</time>
      </trkpt>
      <trkpt lat="47.8258" lon="5.26581">
        <ele>443</ele>
        <time>2024-05-14T11:24:44.975Z</time>
      </trkpt>
      <trkpt lat="47.82577" lon="5.26588">
        <ele>443</ele>
        <time>2024-05-14T11:24:49.485Z</time>
      </trkpt>
      <trkpt lat="47.82574" lon="5.26596">
        <ele>443</ele>
        <time>2024-05-14T11:24:53.690Z</time>
      </trkpt>
      <trkpt lat="47.82571" lon="5.26604">
        <ele>443</ele>
        <time>2024-05-14T11:24:57.905Z</time>
      </trkpt>
      <trkpt lat="47.82569" lon="5.26611">
        <ele>444</ele>
        <time>2024-05-14T11:25:02.264Z</time>
      </trkpt>
      <trkpt lat="47.82566" lon="5.26616">
        <ele>444</ele>
        <time>2024-05-14T11:25:06.666Z</time>
      </trkpt>
      <trkpt lat="47.82563" lon="5.26624">
        <ele>444</ele>
        <time>2024-05-14T11:25:10.975Z</time>
      </trkpt>
      <trkpt lat="47.8256" lon="5.26631">
        <ele>444</ele>
        <time>2024-05-14T11:25:15.564Z</time>
      </trkpt>
      <trkpt lat="47.82557" lon="5.26638">
        <ele>444</ele>
        <time>2024-05-14T11:25:19.975Z</time>
      </trkpt>
      <trkpt lat="47.82555" lon="5.26645">
        <ele>444</ele>
        <time>2024-05-14T11:25:24.189Z</time>
      </trkpt>
      <trkpt lat="47.82551" lon="5.26652">
        <ele>444</ele>
        <time>2024-05-14T11:25:28.489Z</time>
      </trkpt>
      <trkpt lat="47.82548" lon="5.2666">
        <ele>444</ele>
        <time>2024-05-14T11:25:32.908Z</time>
      </trkpt>
      <trkpt lat="47.82544" lon="5.26667">
        <ele>444</ele>
        <time>2024-05-14T11:25:37.387Z</time>
      </trkpt>
      <trkpt lat="47.82541" lon="5.26673">
        <ele>445</ele>
        <time>2024-05-14T11:25:41.848Z</time>
      </trkpt>
      <trkpt lat="47.82538" lon="5.26681">
        <ele>444</ele>
        <time>2024-05-14T11:25:46.285Z</time>
      </trkpt>
      <trkpt lat="47.82534" lon="5.26688">
        <ele>444</ele>
        <time>2024-05-14T11:25:50.509Z</time>
      </trkpt>
      <trkpt lat="47.82531" lon="5.26695">
        <ele>444</ele>
        <time>2024-05-14T11:25:54.671Z</time>
      </trkpt>
      <trkpt lat="47.82528" lon="5.26702">
        <ele>444</ele>
        <time>2024-05-14T11:25:59.211Z</time>
      </trkpt>
      <trkpt lat="47.82525" lon="5.2671">
        <ele>443</ele>
        <time>2024-05-14T11:26:03.688Z</time>
      </trkpt>
      <trkpt lat="47.82522" lon="5.26719">
        <ele>443</ele>
        <time>2024-05-14T11:26:07.945Z</time>
      </trkpt>
      <trkpt lat="47.82519" lon="5.26726">
        <ele>443</ele>
        <time>2024-05-14T11:26:12.304Z</time>
      </trkpt>
      <trkpt lat="47.82514" lon="5.26733">
        <ele>443</ele>
        <time>2024-05-14T11:26:16.783Z</time>
      </trkpt>
      <trkpt lat="47.82512" lon="5.2674">
        <ele>443</ele>
        <time>2024-05-14T11:26:20.975Z</time>
      </trkpt>
      <trkpt lat="47.82509" lon="5.26749">
        <ele>443</ele>
        <time>2024-05-14T11:26:25.708Z</time>
      </trkpt>
      <trkpt lat="47.82506" lon="5.26756">
        <ele>443</ele>
        <time>2024-05-14T11:26:29.975Z</time>
      </trkpt>
      <trkpt lat="47.82503" lon="5.26764">
        <ele>444</ele>
        <time>2024-05-14T11:26:34.205Z</time>
      </trkpt>
      <trkpt lat="47.825" lon="5.26772">
        <ele>444</ele>
        <time>2024-05-14T11:26:38.470Z</time>
      </trkpt>
      <trkpt lat="47.82496" lon="5.2678">
        <ele>444</ele>
        <time>2024-05-14T11:26:42.829Z</time>
      </trkpt>
      <trkpt lat="47.82493" lon="5.26786">
        <ele>444</ele>
        <time>2024-05-14T11:26:47.309Z</time>
      </trkpt>
      <trkpt lat="47.8249" lon="5.26795">
        <ele>444</ele>
        <time>2024-05-14T11:26:51.976Z</time>
      </trkpt>
      <trkpt lat="47.82487" lon="5.26803">
        <ele>444</ele>
        <time>2024-05-14T11:26:56.369Z</time>
      </trkpt>
      <trkpt lat="47.82485" lon="5.2681">
        <ele>445</ele>
        <time>2024-05-14T11:27:00.653Z</time>
      </trkpt>
      <trkpt lat="47.82482" lon="5.26818">
        <ele>445</ele>
        <time>2024-05-14T11:27:04.976Z</time>
      </trkpt>
      <trkpt lat="47.82479" lon="5.26826">
        <ele>445</ele>
        <time>2024-05-14T11:27:09.208Z</time>
      </trkpt>
      <trkpt lat="47.82477" lon="5.26833">
        <ele>445</ele>
        <time>2024-05-14T11:27:13.644Z</time>
      </trkpt>
      <trkpt lat="47.82474" lon="5.26841">
        <ele>445</ele>
        <time>2024-05-14T11:27:17.975Z</time>
      </trkpt>
      <trkpt lat="47.82471" lon="5.26849">
        <ele>445</ele>
        <time>2024-05-14T11:27:22.184Z</time>
      </trkpt>
      <trkpt lat="47.82469" lon="5.26856">
        <ele>445</ele>
        <time>2024-05-14T11:27:26.509Z</time>
      </trkpt>
      <trkpt lat="47.82466" lon="5.26866">
        <ele>445</ele>
        <time>2024-05-14T11:27:30.587Z</time>
      </trkpt>
      <trkpt lat="47.82463" lon="5.26873">
        <ele>445</ele>
        <time>2024-05-14T11:27:34.964Z</time>
      </trkpt>
      <trkpt lat="47.82461" lon="5.26882">
        <ele>444</ele>
        <time>2024-05-14T11:27:38.996Z</time>
      </trkpt>
      <trkpt lat="47.82458" lon="5.26889">
        <ele>446</ele>
        <time>2024-05-14T11:27:42.975Z</time>
      </trkpt>
      <trkpt lat="47.82455" lon="5.26897">
        <ele>446</ele>
        <time>2024-05-14T11:27:47.535Z</time>
      </trkpt>
      <trkpt lat="47.82453" lon="5.26905">
        <ele>446</ele>
        <time>2024-05-14T11:27:51.527Z</time>
      </trkpt>
      <trkpt lat="47.8245" lon="5.26912">
        <ele>446</ele>
        <time>2024-05-14T11:27:55.810Z</time>
      </trkpt>
      <trkpt lat="47.82446" lon="5.26919">
        <ele>446</ele>
        <time>2024-05-14T11:28:00.852Z</time>
      </trkpt>
      <trkpt lat="47.82443" lon="5.26926">
        <ele>446</ele>
        <time>2024-05-14T11:28:04.975Z</time>
      </trkpt>
      <trkpt lat="47.82439" lon="5.26933">
        <ele>445</ele>
        <time>2024-05-14T11:28:09.019Z</time>
      </trkpt>
      <trkpt lat="47.82436" lon="5.26939">
        <ele>445</ele>
        <time>2024-05-14T11:28:13.511Z</time>
      </trkpt>
      <trkpt lat="47.82432" lon="5.26946">
        <ele>445</ele>
        <time>2024-05-14T11:28:17.649Z</time>
      </trkpt>
      <trkpt lat="47.8243" lon="5.26954">
        <ele>447</ele>
        <time>2024-05-14T11:28:21.974Z</time>
      </trkpt>
      <trkpt lat="47.82426" lon="5.26961">
        <ele>446</ele>
        <time>2024-05-14T11:28:25.976Z</time>
      </trkpt>
      <trkpt lat="47.82422" lon="5.26968">
        <ele>446</ele>
        <time>2024-05-14T11:28:30.488Z</time>
      </trkpt>
      <trkpt lat="47.82419" lon="5.26975">
        <ele>446</ele>
        <time>2024-05-14T11:28:34.874Z</time>
      </trkpt>
      <trkpt lat="47.82415" lon="5.26983">
        <ele>446</ele>
        <time>2024-05-14T11:28:39.491Z</time>
      </trkpt>
      <trkpt lat="47.82412" lon="5.26989">
        <ele>445</ele>
        <time>2024-05-14T11:28:43.893Z</time>
      </trkpt>
      <trkpt lat="47.82408" lon="5.26996">
        <ele>445</ele>
        <time>2024-05-14T11:28:47.975Z</time>
      </trkpt>
      <trkpt lat="47.82405" lon="5.27003">
        <ele>445</ele>
        <time>2024-05-14T11:28:52.814Z</time>
      </trkpt>
      <trkpt lat="47.82402" lon="5.27008">
        <ele>446</ele>
        <time>2024-05-14T11:28:56.978Z</time>
      </trkpt>
      <trkpt lat="47.82398" lon="5.27014">
        <ele>445</ele>
        <time>2024-05-14T11:29:01.874Z</time>
      </trkpt>
      <trkpt lat="47.82394" lon="5.2702">
        <ele>445</ele>
        <time>2024-05-14T11:29:05.976Z</time>
      </trkpt>
      <trkpt lat="47.8239" lon="5.27026">
        <ele>445</ele>
        <time>2024-05-14T11:29:10.568Z</time>
      </trkpt>
      <trkpt lat="47.82387" lon="5.27032">
        <ele>445</ele>
        <time>2024-05-14T11:29:14.594Z</time>
      </trkpt>
      <trkpt lat="47.82383" lon="5.27037">
        <ele>445</ele>
        <time>2024-05-14T11:29:18.976Z</time>
      </trkpt>
      <trkpt lat="47.82379" lon="5.27043">
        <ele>444</ele>
        <time>2024-05-14T11:29:23.288Z</time>
      </trkpt>
      <trkpt lat="47.82375" lon="5.27048">
        <ele>444</ele>
        <time>2024-05-14T11:29:27.374Z</time>
      </trkpt>
      <trkpt lat="47.82372" lon="5.27053">
        <ele>445</ele>
        <time>2024-05-14T11:29:31.975Z</time>
      </trkpt>
      <trkpt lat="47.82369" lon="5.27058">
        <ele>445</ele>
        <time>2024-05-14T11:29:36.894Z</time>
      </trkpt>
      <trkpt lat="47.82365" lon="5.27065">
        <ele>445</ele>
        <time>2024-05-14T11:29:40.975Z</time>
      </trkpt>
      <trkpt lat="47.82363" lon="5.27071">
        <ele>445</ele>
        <time>2024-05-14T11:29:45.555Z</time>
      </trkpt>
      <trkpt lat="47.82367" lon="5.27078">
        <ele>445</ele>
        <time>2024-05-14T11:29:49.829Z</time>
      </trkpt>
      <trkpt lat="47.82373" lon="5.27082">
        <ele>445</ele>
        <time>2024-05-14T11:29:53.975Z</time>
      </trkpt>
      <trkpt lat="47.82379" lon="5.27081">
        <ele>444</ele>
        <time>2024-05-14T11:29:58.454Z</time>
      </trkpt>
      <trkpt lat="47.82384" lon="5.27081">
        <ele>444</ele>
        <time>2024-05-14T11:30:02.770Z</time>
      </trkpt>
      <trkpt lat="47.8239" lon="5.27081">
        <ele>444</ele>
        <time>2024-05-14T11:30:07.396Z</time>
      </trkpt>
      <trkpt lat="47.82395" lon="5.2708">
        <ele>444</ele>
        <time>2024-05-14T11:30:11.975Z</time>
      </trkpt>
      <trkpt lat="47.82401" lon="5.27079">
        <ele>444</ele>
        <time>2024-05-14T11:30:16.675Z</time>
      </trkpt>
      <trkpt lat="47.82406" lon="5.27078">
        <ele>443</ele>
        <time>2024-05-14T11:30:21.368Z</time>
      </trkpt>
      <trkpt lat="47.82412" lon="5.27078">
        <ele>443</ele>
        <time>2024-05-14T11:30:25.650Z</time>
      </trkpt>
      <trkpt lat="47.82417" lon="5.27077">
        <ele>443</ele>
        <time>2024-05-14T11:30:29.975Z</time>
      </trkpt>
      <trkpt lat="47.82423" lon="5.27077">
        <ele>443</ele>
        <time>2024-05-14T11:30:34.754Z</time>
      </trkpt>
      <trkpt lat="47.82428" lon="5.27078">
        <ele>443</ele>
        <time>2024-05-14T11:30:38.976Z</time>
      </trkpt>
      <trkpt lat="47.82434" lon="5.27077">
        <ele>443</ele>
        <time>2024-05-14T11:30:43.516Z</time>
      </trkpt>
      <trkpt lat="47.8244" lon="5.27077">
        <ele>443</ele>
        <time>2024-05-14T11:30:47.831Z</time>
      </trkpt>
      <trkpt lat="47.82445" lon="5.27075">
        <ele>443</ele>
        <time>2024-05-14T11:30:51.977Z</time>
      </trkpt>
      <trkpt lat="47.82451" lon="5.27073">
        <ele>443</ele>
        <time>2024-05-14T11:30:56.490Z</time>
      </trkpt>
      <trkpt lat="47.82456" lon="5.27072">
        <ele>443</ele>
        <time>2024-05-14T11:31:00.670Z</time>
      </trkpt>
      <trkpt lat="47.82462" lon="5.27071">
        <ele>444</ele>
        <time>2024-05-14T11:31:05.354Z</time>
      </trkpt>
      <trkpt lat="47.82467" lon="5.27071">
        <ele>444</ele>
        <time>2024-05-14T11:31:09.953Z</time>
      </trkpt>
      <trkpt lat="47.82472" lon="5.2707">
        <ele>444</ele>
        <time>2024-05-14T11:31:13.975Z</time>
      </trkpt>
      <trkpt lat="47.82478" lon="5.27069">
        <ele>444</ele>
        <time>2024-05-14T11:31:18.449Z</time>
      </trkpt>
      <trkpt lat="47.82483" lon="5.27068">
        <ele>444</ele>
        <time>2024-05-14T11:31:22.714Z</time>
      </trkpt>
      <trkpt lat="47.82488" lon="5.27068">
        <ele>444</ele>
        <time>2024-05-14T11:31:27.314Z</time>
      </trkpt>
      <trkpt lat="47.82495" lon="5.27067">
        <ele>444</ele>
        <time>2024-05-14T11:31:31.976Z</time>
      </trkpt>
      <trkpt lat="47.825" lon="5.27067">
        <ele>444</ele>
        <time>2024-05-14T11:31:36.717Z</time>
      </trkpt>
      <trkpt lat="47.82506" lon="5.27067">
        <ele>444</ele>
        <time>2024-05-14T11:31:41.475Z</time>
      </trkpt>
      <trkpt lat="47.82511" lon="5.27066">
        <ele>444</ele>
        <time>2024-05-14T11:31:45.975Z</time>
      </trkpt>
      <trkpt lat="47.82516" lon="5.27065">
        <ele>444</ele>
        <time>2024-05-14T11:31:50.867Z</time>
      </trkpt>
      <trkpt lat="47.82522" lon="5.27064">
        <ele>444</ele>
        <time>2024-05-14T11:31:54.975Z</time>
      </trkpt>
      <trkpt lat="47.82527" lon="5.27063">
        <ele>444</ele>
        <time>2024-05-14T11:31:59.449Z</time>
      </trkpt>
      <trkpt lat="47.82533" lon="5.27061">
        <ele>444</ele>
        <time>2024-05-14T11:32:03.572Z</time>
      </trkpt>
      <trkpt lat="47.82539" lon="5.27061">
        <ele>444</ele>
        <time>2024-05-14T11:32:07.975Z</time>
      </trkpt>
      <trkpt lat="47.82545" lon="5.2706">
        <ele>443</ele>
        <time>2024-05-14T11:32:12.929Z</time>
      </trkpt>
      <trkpt lat="47.82551" lon="5.27059">
        <ele>443</ele>
        <time>2024-05-14T11:32:16.975Z</time>
      </trkpt>
      <trkpt lat="47.82556" lon="5.27057">
        <ele>443</ele>
        <time>2024-05-14T11:32:21.777Z</time>
      </trkpt>
      <trkpt lat="47.82561" lon="5.27057">
        <ele>443</ele>
        <time>2024-05-14T11:32:26.316Z</time>
      </trkpt>
      <trkpt lat="47.82567" lon="5.27056">
        <ele>443</ele>
        <time>2024-05-14T11:32:30.810Z</time>
      </trkpt>
      <trkpt lat="47.82572" lon="5.27056">
        <ele>442</ele>
        <time>2024-05-14T11:32:35.451Z</time>
      </trkpt>
      <trkpt lat="47.82577" lon="5.27055">
        <ele>442</ele>
        <time>2024-05-14T11:32:39.975Z</time>
      </trkpt>
      <trkpt lat="47.82582" lon="5.27055">
        <ele>442</ele>
        <time>2024-05-14T11:32:44.668Z</time>
      </trkpt>
      <trkpt lat="47.82588" lon="5.27055">
        <ele>442</ele>
        <time>2024-05-14T11:32:48.975Z</time>
      </trkpt>
      <trkpt lat="47.82593" lon="5.27054">
        <ele>442</ele>
        <time>2024-05-14T11:32:53.745Z</time>
      </trkpt>
      <trkpt lat="47.82599" lon="5.27053">
        <ele>442</ele>
        <time>2024-05-14T11:32:57.975Z</time>
      </trkpt>
      <trkpt lat="47.82605" lon="5.27053">
        <ele>442</ele>
        <time>2024-05-14T11:33:02.686Z</time>
      </trkpt>
      <trkpt lat="47.82611" lon="5.27053">
        <ele>442</ele>
        <time>2024-05-14T11:33:06.976Z</time>
      </trkpt>
      <trkpt lat="47.82617" lon="5.27052">
        <ele>442</ele>
        <time>2024-05-14T11:33:11.643Z</time>
      </trkpt>
      <trkpt lat="47.82622" lon="5.27051">
        <ele>442</ele>
        <time>2024-05-14T11:33:15.976Z</time>
      </trkpt>
      <trkpt lat="47.82628" lon="5.27051">
        <ele>442</ele>
        <time>2024-05-14T11:33:20.525Z</time>
      </trkpt>
      <trkpt lat="47.82634" lon="5.2705">
        <ele>442</ele>
        <time>2024-05-14T11:33:24.969Z</time>
      </trkpt>
      <trkpt lat="47.82639" lon="5.27052">
        <ele>442</ele>
        <time>2024-05-14T11:33:28.975Z</time>
      </trkpt>
      <trkpt lat="47.82643" lon="5.27059">
        <ele>442</ele>
        <time>2024-05-14T11:33:33.976Z</time>
      </trkpt>
      <trkpt lat="47.82643" lon="5.27068">
        <ele>442</ele>
        <time>2024-05-14T11:33:38.448Z</time>
      </trkpt>
      <trkpt lat="47.82643" lon="5.27076">
        <ele>441</ele>
        <time>2024-05-14T11:33:42.976Z</time>
      </trkpt>
      <trkpt lat="47.82645" lon="5.27085">
        <ele>441</ele>
        <time>2024-05-14T11:33:47.986Z</time>
      </trkpt>
      <trkpt lat="47.82647" lon="5.27092">
        <ele>441</ele>
        <time>2024-05-14T11:33:52.975Z</time>
      </trkpt>
      <trkpt lat="47.82649" lon="5.271">
        <ele>440</ele>
        <time>2024-05-14T11:33:57.523Z</time>
      </trkpt>
      <trkpt lat="47.82652" lon="5.27106">
        <ele>440</ele>
        <time>2024-05-14T11:34:01.975Z</time>
      </trkpt>
      <trkpt lat="47.82655" lon="5.27113">
        <ele>441</ele>
        <time>2024-05-14T11:34:06.567Z</time>
      </trkpt>
      <trkpt lat="47.82659" lon="5.27119">
        <ele>441</ele>
        <time>2024-05-14T11:34:10.976Z</time>
      </trkpt>
      <trkpt lat="47.82663" lon="5.27124">
        <ele>441</ele>
        <time>2024-05-14T11:34:15.643Z</time>
      </trkpt>
      <trkpt lat="47.82666" lon="5.27131">
        <ele>441</ele>
        <time>2024-05-14T11:34:20.104Z</time>
      </trkpt>
      <trkpt lat="47.82671" lon="5.27137">
        <ele>441</ele>
        <time>2024-05-14T11:34:24.668Z</time>
      </trkpt>
      <trkpt lat="47.82674" lon="5.27144">
        <ele>441</ele>
        <time>2024-05-14T11:34:28.976Z</time>
      </trkpt>
      <trkpt lat="47.82678" lon="5.27151">
        <ele>441</ele>
        <time>2024-05-14T11:34:33.687Z</time>
      </trkpt>
      <trkpt lat="47.82682" lon="5.27159">
        <ele>441</ele>
        <time>2024-05-14T11:34:37.975Z</time>
      </trkpt>
      <trkpt lat="47.82686" lon="5.27166">
        <ele>441</ele>
        <time>2024-05-14T11:34:42.214Z</time>
      </trkpt>
      <trkpt lat="47.8269" lon="5.27171">
        <ele>441</ele>
        <time>2024-05-14T11:34:46.365Z</time>
      </trkpt>
      <trkpt lat="47.82694" lon="5.27178">
        <ele>441</ele>
        <time>2024-05-14T11:34:50.825Z</time>
      </trkpt>
      <trkpt lat="47.82697" lon="5.27184">
        <ele>441</ele>
        <time>2024-05-14T11:34:54.975Z</time>
      </trkpt>
      <trkpt lat="47.82701" lon="5.2719">
        <ele>441</ele>
        <time>2024-05-14T11:34:59.783Z</time>
      </trkpt>
      <trkpt lat="47.82705" lon="5.27197">
        <ele>441</ele>
        <time>2024-05-14T11:35:04.364Z</time>
      </trkpt>
      <trkpt lat="47.8271" lon="5.27203">
        <ele>439</ele>
        <time>2024-05-14T11:35:08.975Z</time>
      </trkpt>
      <trkpt lat="47.82714" lon="5.27209">
        <ele>439</ele>
        <time>2024-05-14T11:35:13.710Z</time>
      </trkpt>
      <trkpt lat="47.82718" lon="5.27215">
        <ele>439</ele>
        <time>2024-05-14T11:35:17.976Z</time>
      </trkpt>
      <trkpt lat="47.82722" lon="5.27223">
        <ele>439</ele>
        <time>2024-05-14T11:35:22.395Z</time>
      </trkpt>
      <trkpt lat="47.82726" lon="5.27228">
        <ele>439</ele>
        <time>2024-05-14T11:35:26.975Z</time>
      </trkpt>
      <trkpt lat="47.8273" lon="5.27234">
        <ele>439</ele>
        <time>2024-05-14T11:35:31.484Z</time>
      </trkpt>
      <trkpt lat="47.82734" lon="5.2724">
        <ele>440</ele>
        <time>2024-05-14T11:35:35.708Z</time>
      </trkpt>
      <trkpt lat="47.82737" lon="5.27247">
        <ele>438</ele>
        <time>2024-05-14T11:35:40.305Z</time>
      </trkpt>
      <trkpt lat="47.82742" lon="5.27254">
        <ele>438</ele>
        <time>2024-05-14T11:35:44.870Z</time>
      </trkpt>
      <trkpt lat="47.82746" lon="5.2726">
        <ele>438</ele>
        <time>2024-05-14T11:35:48.975Z</time>
      </trkpt>
      <trkpt lat="47.8275" lon="5.27266">
        <ele>438</ele>
        <time>2024-05-14T11:35:53.469Z</time>
      </trkpt>
      <trkpt lat="47.82753" lon="5.27272">
        <ele>438</ele>
        <time>2024-05-14T11:35:57.594Z</time>
      </trkpt>
      <trkpt lat="47.82757" lon="5.27279">
        <ele>438</ele>
        <time>2024-05-14T11:36:01.976Z</time>
      </trkpt>
      <trkpt lat="47.82762" lon="5.27284">
        <ele>438</ele>
        <time>2024-05-14T11:36:06.888Z</time>
      </trkpt>
      <trkpt lat="47.82766" lon="5.27291">
        <ele>438</ele>
        <time>2024-05-14T11:36:11.367Z</time>
      </trkpt>
      <trkpt lat="47.8277" lon="5.27297">
        <ele>438</ele>
        <time>2024-05-14T11:36:15.871Z</time>
      </trkpt>
      <trkpt lat="47.82775" lon="5.27304">
        <ele>438</ele>
        <time>2024-05-14T11:36:20.411Z</time>
      </trkpt>
      <trkpt lat="47.82778" lon="5.27309">
        <ele>438</ele>
        <time>2024-05-14T11:36:24.994Z</time>
      </trkpt>
      <trkpt lat="47.82782" lon="5.27317">
        <ele>438</ele>
        <time>2024-05-14T11:36:29.487Z</time>
      </trkpt>
      <trkpt lat="47.82786" lon="5.27324">
        <ele>440</ele>
        <time>2024-05-14T11:36:33.888Z</time>
      </trkpt>
      <trkpt lat="47.82791" lon="5.27329">
        <ele>440</ele>
        <time>2024-05-14T11:36:37.974Z</time>
      </trkpt>
      <trkpt lat="47.82794" lon="5.27334">
        <ele>440</ele>
        <time>2024-05-14T11:36:42.992Z</time>
      </trkpt>
      <trkpt lat="47.82798" lon="5.27341">
        <ele>440</ele>
        <time>2024-05-14T11:36:47.563Z</time>
      </trkpt>
      <trkpt lat="47.82802" lon="5.27346">
        <ele>440</ele>
        <time>2024-05-14T11:36:51.975Z</time>
      </trkpt>
      <trkpt lat="47.82807" lon="5.27352">
        <ele>443</ele>
        <time>2024-05-14T11:36:56.709Z</time>
      </trkpt>
      <trkpt lat="47.82812" lon="5.27358">
        <ele>443</ele>
        <time>2024-05-14T11:37:01.290Z</time>
      </trkpt>
      <trkpt lat="47.82816" lon="5.27365">
        <ele>443</ele>
        <time>2024-05-14T11:37:05.932Z</time>
      </trkpt>
      <trkpt lat="47.8282" lon="5.27372">
        <ele>441</ele>
        <time>2024-05-14T11:37:09.974Z</time>
      </trkpt>
      <trkpt lat="47.82824" lon="5.27378">
        <ele>443</ele>
        <time>2024-05-14T11:37:14.504Z</time>
      </trkpt>
      <trkpt lat="47.82827" lon="5.27385">
        <ele>443</ele>
        <time>2024-05-14T11:37:18.591Z</time>
      </trkpt>
      <trkpt lat="47.82831" lon="5.27392">
        <ele>443</ele>
        <time>2024-05-14T11:37:22.974Z</time>
      </trkpt>
      <trkpt lat="47.82835" lon="5.27397">
        <ele>443</ele>
        <time>2024-05-14T11:37:27.745Z</time>
      </trkpt>
      <trkpt lat="47.82839" lon="5.27403">
        <ele>443</ele>
        <time>2024-05-14T11:37:31.975Z</time>
      </trkpt>
      <trkpt lat="47.82843" lon="5.2741">
        <ele>443</ele>
        <time>2024-05-14T11:37:36.847Z</time>
      </trkpt>
      <trkpt lat="47.82847" lon="5.27417">
        <ele>443</ele>
        <time>2024-05-14T11:37:40.974Z</time>
      </trkpt>
      <trkpt lat="47.82851" lon="5.27422">
        <ele>440</ele>
        <time>2024-05-14T11:37:45.975Z</time>
      </trkpt>
      <trkpt lat="47.82855" lon="5.27427">
        <ele>440</ele>
        <time>2024-05-14T11:37:50.714Z</time>
      </trkpt>
      <trkpt lat="47.82859" lon="5.27431">
        <ele>440</ele>
        <time>2024-05-14T11:37:54.794Z</time>
      </trkpt>
      <trkpt lat="47.82863" lon="5.27437">
        <ele>440</ele>
        <time>2024-05-14T11:37:58.828Z</time>
      </trkpt>
      <trkpt lat="47.82867" lon="5.27444">
        <ele>440</ele>
        <time>2024-05-14T11:38:03.273Z</time>
      </trkpt>
      <trkpt lat="47.82872" lon="5.27449">
        <ele>440</ele>
        <time>2024-05-14T11:38:07.975Z</time>
      </trkpt>
      <trkpt lat="47.82875" lon="5.27456">
        <ele>440</ele>
        <time>2024-05-14T11:38:12.767Z</time>
      </trkpt>
      <trkpt lat="47.8288" lon="5.27463">
        <ele>441</ele>
        <time>2024-05-14T11:38:17.452Z</time>
      </trkpt>
      <trkpt lat="47.82884" lon="5.2747">
        <ele>441</ele>
        <time>2024-05-14T11:38:21.974Z</time>
      </trkpt>
      <trkpt lat="47.82888" lon="5.27477">
        <ele>441</ele>
        <time>2024-05-14T11:38:26.810Z</time>
      </trkpt>
      <trkpt lat="47.82892" lon="5.27484">
        <ele>441</ele>
        <time>2024-05-14T11:38:31.314Z</time>
      </trkpt>
      <trkpt lat="47.82895" lon="5.27492">
        <ele>442</ele>
        <time>2024-05-14T11:38:35.971Z</time>
      </trkpt>
      <trkpt lat="47.829" lon="5.275">
        <ele>442</ele>
        <time>2024-05-14T11:38:39.974Z</time>
      </trkpt>
      <trkpt lat="47.82904" lon="5.27507">
        <ele>442</ele>
        <time>2024-05-14T11:38:44.434Z</time>
      </trkpt>
      <trkpt lat="47.82908" lon="5.27513">
        <ele>442</ele>
        <time>2024-05-14T11:38:48.632Z</time>
      </trkpt>
      <trkpt lat="47.82911" lon="5.27521">
        <ele>442</ele>
        <time>2024-05-14T11:38:52.975Z</time>
      </trkpt>
      <trkpt lat="47.82912" lon="5.2753">
        <ele>442</ele>
        <time>2024-05-14T11:38:57.692Z</time>
      </trkpt>
      <trkpt lat="47.82914" lon="5.27538">
        <ele>442</ele>
        <time>2024-05-14T11:39:01.974Z</time>
      </trkpt>
      <trkpt lat="47.82916" lon="5.27545">
        <ele>443</ele>
        <time>2024-05-14T11:39:06.634Z</time>
      </trkpt>
      <trkpt lat="47.82916" lon="5.27554">
        <ele>443</ele>
        <time>2024-05-14T11:39:11.675Z</time>
      </trkpt>
      <trkpt lat="47.82917" lon="5.27561">
        <ele>443</ele>
        <time>2024-05-14T11:39:15.975Z</time>
      </trkpt>
      <trkpt lat="47.82917" lon="5.2757">
        <ele>444</ele>
        <time>2024-05-14T11:39:20.888Z</time>
      </trkpt>
      <trkpt lat="47.82918" lon="5.27579">
        <ele>444</ele>
        <time>2024-05-14T11:39:24.975Z</time>
      </trkpt>
      <trkpt lat="47.82919" lon="5.27588">
        <ele>444</ele>
        <time>2024-05-14T11:39:29.435Z</time>
      </trkpt>
      <trkpt lat="47.82919" lon="5.27599">
        <ele>446</ele>
        <time>2024-05-14T11:39:33.590Z</time>
      </trkpt>
      <trkpt lat="47.8292" lon="5.27608">
        <ele>446</ele>
        <time>2024-05-14T11:39:37.975Z</time>
      </trkpt>
      <trkpt lat="47.82921" lon="5.27617">
        <ele>446</ele>
        <time>2024-05-14T11:39:42.214Z</time>
      </trkpt>
      <trkpt lat="47.82921" lon="5.27626">
        <ele>446</ele>
        <time>2024-05-14T11:39:46.950Z</time>
      </trkpt>
      <trkpt lat="47.82921" lon="5.27634">
        <ele>446</ele>
        <time>2024-05-14T11:39:50.975Z</time>
      </trkpt>
      <trkpt lat="47.8292" lon="5.27643">
        <ele>446</ele>
        <time>2024-05-14T11:39:54.975Z</time>
      </trkpt>
      <trkpt lat="47.82921" lon="5.2765">
        <ele>446</ele>
        <time>2024-05-14T11:39:59.814Z</time>
      </trkpt>
      <trkpt lat="47.82921" lon="5.2766">
        <ele>446</ele>
        <time>2024-05-14T11:40:03.974Z</time>
      </trkpt>
      <trkpt lat="47.82922" lon="5.27669">
        <ele>446</ele>
        <time>2024-05-14T11:40:08.974Z</time>
      </trkpt>
      <trkpt lat="47.82923" lon="5.27679">
        <ele>446</ele>
        <time>2024-05-14T11:40:13.975Z</time>
      </trkpt>
      <trkpt lat="47.82924" lon="5.27687">
        <ele>445</ele>
        <time>2024-05-14T11:40:18.984Z</time>
      </trkpt>
      <trkpt lat="47.82925" lon="5.27696">
        <ele>445</ele>
        <time>2024-05-14T11:40:23.754Z</time>
      </trkpt>
      <trkpt lat="47.82925" lon="5.27705">
        <ele>445</ele>
        <time>2024-05-14T11:40:28.308Z</time>
      </trkpt>
      <trkpt lat="47.82925" lon="5.27714">
        <ele>445</ele>
        <time>2024-05-14T11:40:32.395Z</time>
      </trkpt>
      <trkpt lat="47.82924" lon="5.27721">
        <ele>445</ele>
        <time>2024-05-14T11:40:36.974Z</time>
      </trkpt>
      <trkpt lat="47.82923" lon="5.2773">
        <ele>445</ele>
        <time>2024-05-14T11:40:41.974Z</time>
      </trkpt>
      <trkpt lat="47.82923" lon="5.27739">
        <ele>444</ele>
        <time>2024-05-14T11:40:46.731Z</time>
      </trkpt>
      <trkpt lat="47.82922" lon="5.27747">
        <ele>444</ele>
        <time>2024-05-14T11:40:50.974Z</time>
      </trkpt>
      <trkpt lat="47.82922" lon="5.27756">
        <ele>444</ele>
        <time>2024-05-14T11:40:55.825Z</time>
      </trkpt>
      <trkpt lat="47.82921" lon="5.27764">
        <ele>442</ele>
        <time>2024-05-14T11:41:00.406Z</time>
      </trkpt>
      <trkpt lat="47.82919" lon="5.27773">
        <ele>442</ele>
        <time>2024-05-14T11:41:04.975Z</time>
      </trkpt>
      <trkpt lat="47.82918" lon="5.27783">
        <ele>442</ele>
        <time>2024-05-14T11:41:09.611Z</time>
      </trkpt>
      <trkpt lat="47.82916" lon="5.27791">
        <ele>442</ele>
        <time>2024-05-14T11:41:13.974Z</time>
      </trkpt>
      <trkpt lat="47.82914" lon="5.278">
        <ele>441</ele>
        <time>2024-05-14T11:41:17.975Z</time>
      </trkpt>
      <trkpt lat="47.82912" lon="5.27808">
        <ele>441</ele>
        <time>2024-05-14T11:41:22.570Z</time>
      </trkpt>
      <trkpt lat="47.82911" lon="5.27816">
        <ele>441</ele>
        <time>2024-05-14T11:41:26.767Z</time>
      </trkpt>
      <trkpt lat="47.8291" lon="5.27824">
        <ele>439</ele>
        <time>2024-05-14T11:41:30.974Z</time>
      </trkpt>
      <trkpt lat="47.8291" lon="5.27831">
        <ele>439</ele>
        <time>2024-05-14T11:41:35.827Z</time>
      </trkpt>
      <trkpt lat="47.82908" lon="5.27838">
        <ele>439</ele>
        <time>2024-05-14T11:41:40.408Z</time>
      </trkpt>
      <trkpt lat="47.82906" lon="5.27847">
        <ele>439</ele>
        <time>2024-05-14T11:41:44.975Z</time>
      </trkpt>
      <trkpt lat="47.82904" lon="5.27853">
        <ele>437</ele>
        <time>2024-05-14T11:41:49.690Z</time>
      </trkpt>
      <trkpt lat="47.82903" lon="5.27861">
        <ele>437</ele>
        <time>2024-05-14T11:41:53.974Z</time>
      </trkpt>
      <trkpt lat="47.82901" lon="5.2787">
        <ele>437</ele>
        <time>2024-05-14T11:41:58.843Z</time>
      </trkpt>
      <trkpt lat="47.82899" lon="5.27878">
        <ele>436</ele>
        <time>2024-05-14T11:42:02.974Z</time>
      </trkpt>
      <trkpt lat="47.82898" lon="5.27887">
        <ele>436</ele>
        <time>2024-05-14T11:42:07.703Z</time>
      </trkpt>
      <trkpt lat="47.82896" lon="5.27896">
        <ele>436</ele>
        <time>2024-05-14T11:42:11.975Z</time>
      </trkpt>
      <trkpt lat="47.82894" lon="5.27905">
        <ele>437</ele>
        <time>2024-05-14T11:42:16.975Z</time>
      </trkpt>
      <trkpt lat="47.82892" lon="5.27914">
        <ele>437</ele>
        <time>2024-05-14T11:42:21.766Z</time>
      </trkpt>
      <trkpt lat="47.8289" lon="5.27923">
        <ele>437</ele>
        <time>2024-05-14T11:42:26.466Z</time>
      </trkpt>
      <trkpt lat="47.82889" lon="5.2793">
        <ele>437</ele>
        <time>2024-05-14T11:42:30.975Z</time>
      </trkpt>
      <trkpt lat="47.82887" lon="5.27938">
        <ele>438</ele>
        <time>2024-05-14T11:42:35.604Z</time>
      </trkpt>
      <trkpt lat="47.82886" lon="5.27948">
        <ele>438</ele>
        <time>2024-05-14T11:42:39.975Z</time>
      </trkpt>
      <trkpt lat="47.82885" lon="5.27956">
        <ele>438</ele>
        <time>2024-05-14T11:42:44.095Z</time>
      </trkpt>
      <trkpt lat="47.82883" lon="5.27964">
        <ele>439</ele>
        <time>2024-05-14T11:42:48.647Z</time>
      </trkpt>
      <trkpt lat="47.82881" lon="5.27973">
        <ele>439</ele>
        <time>2024-05-14T11:42:52.914Z</time>
      </trkpt>
      <trkpt lat="47.8288" lon="5.27981">
        <ele>439</ele>
        <time>2024-05-14T11:42:56.975Z</time>
      </trkpt>
      <trkpt lat="47.82878" lon="5.27989">
        <ele>440</ele>
        <time>2024-05-14T11:43:01.930Z</time>
      </trkpt>
      <trkpt lat="47.82877" lon="5.27997">
        <ele>440</ele>
        <time>2024-05-14T11:43:05.975Z</time>
      </trkpt>
      <trkpt lat="47.82875" lon="5.28005">
        <ele>440</ele>
        <time>2024-05-14T11:43:10.623Z</time>
      </trkpt>
      <trkpt lat="47.82874" lon="5.28013">
        <ele>442</ele>
        <time>2024-05-14T11:43:14.931Z</time>
      </trkpt>
      <trkpt lat="47.82872" lon="5.28021">
        <ele>442</ele>
        <time>2024-05-14T11:43:19.871Z</time>
      </trkpt>
      <trkpt lat="47.82871" lon="5.28029">
        <ele>442</ele>
        <time>2024-05-14T11:43:23.974Z</time>
      </trkpt>
      <trkpt lat="47.82869" lon="5.28036">
        <ele>442</ele>
        <time>2024-05-14T11:43:28.965Z</time>
      </trkpt>
      <trkpt lat="47.82868" lon="5.28046">
        <ele>441</ele>
        <time>2024-05-14T11:43:32.975Z</time>
      </trkpt>
      <trkpt lat="47.82867" lon="5.28054">
        <ele>441</ele>
        <time>2024-05-14T11:43:37.975Z</time>
      </trkpt>
      <trkpt lat="47.82865" lon="5.28062">
        <ele>441</ele>
        <time>2024-05-14T11:43:42.636Z</time>
      </trkpt>
      <trkpt lat="47.82863" lon="5.2807">
        <ele>439</ele>
        <time>2024-05-14T11:43:46.974Z</time>
      </trkpt>
      <trkpt lat="47.82862" lon="5.28078">
        <ele>439</ele>
        <time>2024-05-14T11:43:51.789Z</time>
      </trkpt>
      <trkpt lat="47.8286" lon="5.28086">
        <ele>439</ele>
        <time>2024-05-14T11:43:56.490Z</time>
      </trkpt>
      <trkpt lat="47.82859" lon="5.28094">
        <ele>439</ele>
        <time>2024-05-14T11:44:00.975Z</time>
      </trkpt>
      <trkpt lat="47.82857" lon="5.28101">
        <ele>436</ele>
        <time>2024-05-14T11:44:04.975Z</time>
      </trkpt>
      <trkpt lat="47.82855" lon="5.2811">
        <ele>436</ele>
        <time>2024-05-14T11:44:09.974Z</time>
      </trkpt>
      <trkpt lat="47.82854" lon="5.28119">
        <ele>436</ele>
        <time>2024-05-14T11:44:14.712Z</time>
      </trkpt>
      <trkpt lat="47.82853" lon="5.28128">
        <ele>434</ele>
        <time>2024-05-14T11:44:18.978Z</time>
      </trkpt>
      <trkpt lat="47.82851" lon="5.28136">
        <ele>434</ele>
        <time>2024-05-14T11:44:23.175Z</time>
      </trkpt>
      <trkpt lat="47.8285" lon="5.28144">
        <ele>434</ele>
        <time>2024-05-14T11:44:27.295Z</time>
      </trkpt>
      <trkpt lat="47.82849" lon="5.28153">
        <ele>433</ele>
        <time>2024-05-14T11:44:31.928Z</time>
      </trkpt>
      <trkpt lat="47.82847" lon="5.28161">
        <ele>436</ele>
        <time>2024-05-14T11:44:35.975Z</time>
      </trkpt>
      <trkpt lat="47.82846" lon="5.28169">
        <ele>436</ele>
        <time>2024-05-14T11:44:40.994Z</time>
      </trkpt>
      <trkpt lat="47.82844" lon="5.28177">
        <ele>436</ele>
        <time>2024-05-14T11:44:45.731Z</time>
      </trkpt>
      <trkpt lat="47.82843" lon="5.28184">
        <ele>435</ele>
        <time>2024-05-14T11:44:50.448Z</time>
      </trkpt>
      <trkpt lat="47.82841" lon="5.28191">
        <ele>435</ele>
        <time>2024-05-14T11:44:54.974Z</time>
      </trkpt>
      <trkpt lat="47.8284" lon="5.282">
        <ele>435</ele>
        <time>2024-05-14T11:44:59.891Z</time>
      </trkpt>
      <trkpt lat="47.82838" lon="5.28207">
        <ele>435</ele>
        <time>2024-05-14T11:45:04.251Z</time>
      </trkpt>
      <trkpt lat="47.82837" lon="5.28214">
        <ele>434</ele>
        <time>2024-05-14T11:45:08.423Z</time>
      </trkpt>
      <trkpt lat="47.82835" lon="5.28222">
        <ele>434</ele>
        <time>2024-05-14T11:45:12.537Z</time>
      </trkpt>
      <trkpt lat="47.82834" lon="5.28231">
        <ele>434</ele>
        <time>2024-05-14T11:45:16.974Z</time>
      </trkpt>
      <trkpt lat="47.82833" lon="5.28239">
        <ele>432</ele>
        <time>2024-05-14T11:45:21.894Z</time>
      </trkpt>
      <trkpt lat="47.82831" lon="5.28248">
        <ele>432</ele>
        <time>2024-05-14T11:45:25.974Z</time>
      </trkpt>
      <trkpt lat="47.8283" lon="5.28255">
        <ele>432</ele>
        <time>2024-05-14T11:45:30.974Z</time>
      </trkpt>
      <trkpt lat="47.82828" lon="5.28264">
        <ele>432</ele>
        <time>2024-05-14T11:45:35.048Z</time>
      </trkpt>
      <trkpt lat="47.82826" lon="5.28273">
        <ele>432</ele>
        <time>2024-05-14T11:45:39.731Z</time>
      </trkpt>
      <trkpt lat="47.82824" lon="5.2828">
        <ele>432</ele>
        <time>2024-05-14T11:45:43.974Z</time>
      </trkpt>
      <trkpt lat="47.82822" lon="5.28288">
        <ele>432</ele>
        <time>2024-05-14T11:45:48.463Z</time>
      </trkpt>
      <trkpt lat="47.82821" lon="5.28296">
        <ele>432</ele>
        <time>2024-05-14T11:45:52.975Z</time>
      </trkpt>
      <trkpt lat="47.82819" lon="5.28303">
        <ele>436</ele>
        <time>2024-05-14T11:45:57.027Z</time>
      </trkpt>
      <trkpt lat="47.82816" lon="5.28309">
        <ele>436</ele>
        <time>2024-05-14T11:46:01.464Z</time>
      </trkpt>
      <trkpt lat="47.82813" lon="5.28317">
        <ele>436</ele>
        <time>2024-05-14T11:46:05.687Z</time>
      </trkpt>
      <trkpt lat="47.8281" lon="5.28325">
        <ele>436</ele>
        <time>2024-05-14T11:46:09.975Z</time>
      </trkpt>
      <trkpt lat="47.82807" lon="5.28332">
        <ele>436</ele>
        <time>2024-05-14T11:46:14.109Z</time>
      </trkpt>
      <trkpt lat="47.82803" lon="5.28337">
        <ele>436</ele>
        <time>2024-05-14T11:46:18.246Z</time>
      </trkpt>
      <trkpt lat="47.828" lon="5.28341">
        <ele>436</ele>
        <time>2024-05-14T11:46:22.808Z</time>
      </trkpt>
      <trkpt lat="47.82796" lon="5.28347">
        <ele>435</ele>
        <time>2024-05-14T11:46:27.364Z</time>
      </trkpt>
      <trkpt lat="47.82793" lon="5.28353">
        <ele>435</ele>
        <time>2024-05-14T11:46:31.970Z</time>
      </trkpt>
      <trkpt lat="47.82789" lon="5.28359">
        <ele>437</ele>
        <time>2024-05-14T11:46:35.974Z</time>
      </trkpt>
      <trkpt lat="47.82784" lon="5.28365">
        <ele>437</ele>
        <time>2024-05-14T11:46:39.975Z</time>
      </trkpt>
      <trkpt lat="47.8278" lon="5.28371">
        <ele>437</ele>
        <time>2024-05-14T11:46:44.572Z</time>
      </trkpt>
      <trkpt lat="47.82775" lon="5.28376">
        <ele>435</ele>
        <time>2024-05-14T11:46:48.974Z</time>
      </trkpt>
      <trkpt lat="47.8277" lon="5.2838">
        <ele>435</ele>
        <time>2024-05-14T11:46:53.631Z</time>
      </trkpt>
      <trkpt lat="47.82765" lon="5.28384">
        <ele>435</ele>
        <time>2024-05-14T11:46:57.888Z</time>
      </trkpt>
      <trkpt lat="47.82761" lon="5.28387">
        <ele>436</ele>
        <time>2024-05-14T11:47:01.974Z</time>
      </trkpt>
      <trkpt lat="47.82757" lon="5.28391">
        <ele>436</ele>
        <time>2024-05-14T11:47:06.625Z</time>
      </trkpt>
      <trkpt lat="47.82753" lon="5.28395">
        <ele>436</ele>
        <time>2024-05-14T11:47:10.974Z</time>
      </trkpt>
      <trkpt lat="47.82748" lon="5.28399">
        <ele>436</ele>
        <time>2024-05-14T11:47:15.743Z</time>
      </trkpt>
      <trkpt lat="47.82743" lon="5.28403">
        <ele>433</ele>
        <time>2024-05-14T11:47:20.289Z</time>
      </trkpt>
      <trkpt lat="47.82738" lon="5.28407">
        <ele>433</ele>
        <time>2024-05-14T11:47:24.828Z</time>
      </trkpt>
      <trkpt lat="47.82733" lon="5.28411">
        <ele>433</ele>
        <time>2024-05-14T11:47:29.385Z</time>
      </trkpt>
      <trkpt lat="47.82728" lon="5.28415">
        <ele>433</ele>
        <time>2024-05-14T11:47:33.923Z</time>
      </trkpt>
      <trkpt lat="47.82724" lon="5.28419">
        <ele>433</ele>
        <time>2024-05-14T11:47:37.975Z</time>
      </trkpt>
      <trkpt lat="47.82719" lon="5.28423">
        <ele>433</ele>
        <time>2024-05-14T11:47:42.527Z</time>
      </trkpt>
      <trkpt lat="47.82715" lon="5.28427">
        <ele>433</ele>
        <time>2024-05-14T11:47:46.724Z</time>
      </trkpt>
      <trkpt lat="47.8271" lon="5.28431">
        <ele>432</ele>
        <time>2024-05-14T11:47:51.769Z</time>
      </trkpt>
      <trkpt lat="47.82706" lon="5.28435">
        <ele>433</ele>
        <time>2024-05-14T11:47:55.975Z</time>
      </trkpt>
      <trkpt lat="47.82701" lon="5.28439">
        <ele>433</ele>
        <time>2024-05-14T11:48:00.608Z</time>
      </trkpt>
      <trkpt lat="47.82697" lon="5.28443">
        <ele>433</ele>
        <time>2024-05-14T11:48:04.975Z</time>
      </trkpt>
      <trkpt lat="47.82693" lon="5.28446">
        <ele>433</ele>
        <time>2024-05-14T11:48:09.974Z</time>
      </trkpt>
      <trkpt lat="47.82688" lon="5.2845">
        <ele>433</ele>
        <time>2024-05-14T11:48:14.744Z</time>
      </trkpt>
      <trkpt lat="47.82683" lon="5.28455">
        <ele>433</ele>
        <time>2024-05-14T11:48:19.368Z</time>
      </trkpt>
      <trkpt lat="47.82678" lon="5.2846">
        <ele>433</ele>
        <time>2024-05-14T11:48:23.967Z</time>
      </trkpt>
      <trkpt lat="47.82673" lon="5.28463">
        <ele>433</ele>
        <time>2024-05-14T11:48:28.445Z</time>
      </trkpt>
      <trkpt lat="47.82668" lon="5.28468">
        <ele>433</ele>
        <time>2024-05-14T11:48:32.689Z</time>
      </trkpt>
      <trkpt lat="47.82664" lon="5.28471">
        <ele>433</ele>
        <time>2024-05-14T11:48:37.284Z</time>
      </trkpt>
      <trkpt lat="47.82659" lon="5.28476">
        <ele>433</ele>
        <time>2024-05-14T11:48:41.674Z</time>
      </trkpt>
      <trkpt lat="47.82654" lon="5.2848">
        <ele>433</ele>
        <time>2024-05-14T11:48:45.975Z</time>
      </trkpt>
      <trkpt lat="47.82649" lon="5.28485">
        <ele>432</ele>
        <time>2024-05-14T11:48:50.614Z</time>
      </trkpt>
      <trkpt lat="47.82644" lon="5.28489">
        <ele>432</ele>
        <time>2024-05-14T11:48:54.974Z</time>
      </trkpt>
      <trkpt lat="47.8264" lon="5.28493">
        <ele>432</ele>
        <time>2024-05-14T11:48:59.375Z</time>
      </trkpt>
      <trkpt lat="47.82636" lon="5.28498">
        <ele>432</ele>
        <time>2024-05-14T11:49:03.769Z</time>
      </trkpt>
      <trkpt lat="47.82631" lon="5.28501">
        <ele>432</ele>
        <time>2024-05-14T11:49:07.974Z</time>
      </trkpt>
      <trkpt lat="47.82626" lon="5.28505">
        <ele>432</ele>
        <time>2024-05-14T11:49:12.819Z</time>
      </trkpt>
      <trkpt lat="47.82621" lon="5.28509">
        <ele>432</ele>
        <time>2024-05-14T11:49:16.975Z</time>
      </trkpt>
      <trkpt lat="47.82615" lon="5.28513">
        <ele>432</ele>
        <time>2024-05-14T11:49:21.742Z</time>
      </trkpt>
      <trkpt lat="47.82611" lon="5.28518">
        <ele>432</ele>
        <time>2024-05-14T11:49:26.810Z</time>
      </trkpt>
      <trkpt lat="47.82606" lon="5.28522">
        <ele>432</ele>
        <time>2024-05-14T11:49:30.974Z</time>
      </trkpt>
      <trkpt lat="47.82601" lon="5.28526">
        <ele>432</ele>
        <time>2024-05-14T11:49:35.648Z</time>
      </trkpt>
      <trkpt lat="47.82596" lon="5.2853">
        <ele>433</ele>
        <time>2024-05-14T11:49:39.930Z</time>
      </trkpt>
      <trkpt lat="47.82591" lon="5.28534">
        <ele>433</ele>
        <time>2024-05-14T11:49:44.290Z</time>
      </trkpt>
      <trkpt lat="47.82585" lon="5.28539">
        <ele>433</ele>
        <time>2024-05-14T11:49:48.635Z</time>
      </trkpt>
      <trkpt lat="47.8258" lon="5.28543">
        <ele>433</ele>
        <time>2024-05-14T11:49:52.932Z</time>
      </trkpt>
      <trkpt lat="47.82575" lon="5.28546">
        <ele>433</ele>
        <time>2024-05-14T11:49:56.974Z</time>
      </trkpt>
      <trkpt lat="47.8257" lon="5.2855">
        <ele>433</ele>
        <time>2024-05-14T11:50:01.915Z</time>
      </trkpt>
      <trkpt lat="47.82566" lon="5.28555">
        <ele>433</ele>
        <time>2024-05-14T11:50:06.428Z</time>
      </trkpt>
      <trkpt lat="47.82561" lon="5.2856">
        <ele>433</ele>
        <time>2024-05-14T11:50:10.830Z</time>
      </trkpt>
      <trkpt lat="47.82556" lon="5.28565">
        <ele>433</ele>
        <time>2024-05-14T11:50:14.975Z</time>
      </trkpt>
      <trkpt lat="47.82551" lon="5.2857">
        <ele>433</ele>
        <time>2024-05-14T11:50:19.608Z</time>
      </trkpt>
      <trkpt lat="47.82546" lon="5.28574">
        <ele>433</ele>
        <time>2024-05-14T11:50:23.975Z</time>
      </trkpt>
      <trkpt lat="47.82542" lon="5.28578">
        <ele>433</ele>
        <time>2024-05-14T11:50:28.455Z</time>
      </trkpt>
      <trkpt lat="47.82537" lon="5.28583">
        <ele>433</ele>
        <time>2024-05-14T11:50:32.814Z</time>
      </trkpt>
      <trkpt lat="47.82532" lon="5.28587">
        <ele>433</ele>
        <time>2024-05-14T11:50:37.310Z</time>
      </trkpt>
      <trkpt lat="47.82527" lon="5.28591">
        <ele>433</ele>
        <time>2024-05-14T11:50:41.636Z</time>
      </trkpt>
      <trkpt lat="47.82522" lon="5.28594">
        <ele>433</ele>
        <time>2024-05-14T11:50:45.969Z</time>
      </trkpt>
      <trkpt lat="47.82517" lon="5.28598">
        <ele>433</ele>
        <time>2024-05-14T11:50:50.728Z</time>
      </trkpt>
      <trkpt lat="47.82512" lon="5.28601">
        <ele>433</ele>
        <time>2024-05-14T11:50:54.747Z</time>
      </trkpt>
      <trkpt lat="47.82507" lon="5.28605">
        <ele>433</ele>
        <time>2024-05-14T11:50:58.974Z</time>
      </trkpt>
      <trkpt lat="47.82502" lon="5.28609">
        <ele>433</ele>
        <time>2024-05-14T11:51:02.974Z</time>
      </trkpt>
      <trkpt lat="47.82498" lon="5.28613">
        <ele>433</ele>
        <time>2024-05-14T11:51:07.975Z</time>
      </trkpt>
      <trkpt lat="47.82492" lon="5.28617">
        <ele>433</ele>
        <time>2024-05-14T11:51:12.476Z</time>
      </trkpt>
      <trkpt lat="47.82486" lon="5.2862">
        <ele>433</ele>
        <time>2024-05-14T11:51:16.974Z</time>
      </trkpt>
      <trkpt lat="47.8248" lon="5.28623">
        <ele>434</ele>
        <time>2024-05-14T11:51:21.740Z</time>
      </trkpt>
      <trkpt lat="47.82475" lon="5.28626">
        <ele>433</ele>
        <time>2024-05-14T11:51:26.849Z</time>
      </trkpt>
      <trkpt lat="47.8247" lon="5.28629">
        <ele>433</ele>
        <time>2024-05-14T11:51:30.974Z</time>
      </trkpt>
      <trkpt lat="47.82464" lon="5.2863">
        <ele>433</ele>
        <time>2024-05-14T11:51:35.790Z</time>
      </trkpt>
      <trkpt lat="47.82459" lon="5.28631">
        <ele>433</ele>
        <time>2024-05-14T11:51:39.974Z</time>
      </trkpt>
      <trkpt lat="47.82453" lon="5.28633">
        <ele>435</ele>
        <time>2024-05-14T11:51:44.719Z</time>
      </trkpt>
      <trkpt lat="47.82449" lon="5.28633">
        <ele>435</ele>
        <time>2024-05-14T11:51:48.975Z</time>
      </trkpt>
      <trkpt lat="47.82443" lon="5.28634">
        <ele>435</ele>
        <time>2024-05-14T11:51:53.553Z</time>
      </trkpt>
      <trkpt lat="47.82437" lon="5.28635">
        <ele>435</ele>
        <time>2024-05-14T11:51:57.974Z</time>
      </trkpt>
      <trkpt lat="47.82431" lon="5.28636">
        <ele>435</ele>
        <time>2024-05-14T11:52:02.571Z</time>
      </trkpt>
      <trkpt lat="47.82426" lon="5.28638">
        <ele>437</ele>
        <time>2024-05-14T11:52:06.974Z</time>
      </trkpt>
      <trkpt lat="47.82421" lon="5.28639">
        <ele>437</ele>
        <time>2024-05-14T11:52:11.731Z</time>
      </trkpt>
      <trkpt lat="47.82415" lon="5.2864">
        <ele>437</ele>
        <time>2024-05-14T11:52:16.835Z</time>
      </trkpt>
      <trkpt lat="47.82409" lon="5.2864">
        <ele>437</ele>
        <time>2024-05-14T11:52:21.414Z</time>
      </trkpt>
      <trkpt lat="47.82403" lon="5.2864">
        <ele>437</ele>
        <time>2024-05-14T11:52:25.731Z</time>
      </trkpt>
      <trkpt lat="47.82398" lon="5.2864">
        <ele>437</ele>
        <time>2024-05-14T11:52:29.975Z</time>
      </trkpt>
      <trkpt lat="47.82392" lon="5.2864">
        <ele>437</ele>
        <time>2024-05-14T11:52:34.436Z</time>
      </trkpt>
      <trkpt lat="47.82387" lon="5.2864">
        <ele>437</ele>
        <time>2024-05-14T11:52:38.734Z</time>
      </trkpt>
      <trkpt lat="47.82381" lon="5.2864">
        <ele>437</ele>
        <time>2024-05-14T11:52:42.974Z</time>
      </trkpt>
      <trkpt lat="47.82375" lon="5.2864">
        <ele>436</ele>
        <time>2024-05-14T11:52:46.974Z</time>
      </trkpt>
      <trkpt lat="47.8237" lon="5.28641">
        <ele>436</ele>
        <time>2024-05-14T11:52:51.974Z</time>
      </trkpt>
      <trkpt lat="47.82365" lon="5.28644">
        <ele>436</ele>
        <time>2024-05-14T11:52:56.609Z</time>
      </trkpt>
      <trkpt lat="47.8236" lon="5.28645">
        <ele>436</ele>
        <time>2024-05-14T11:53:00.974Z</time>
      </trkpt>
      <trkpt lat="47.82354" lon="5.28647">
        <ele>436</ele>
        <time>2024-05-14T11:53:05.729Z</time>
      </trkpt>
      <trkpt lat="47.82349" lon="5.28647">
        <ele>436</ele>
        <time>2024-05-14T11:53:09.974Z</time>
      </trkpt>
      <trkpt lat="47.82344" lon="5.28647">
        <ele>435</ele>
        <time>2024-05-14T11:53:14.746Z</time>
      </trkpt>
      <trkpt lat="47.82337" lon="5.28648">
        <ele>435</ele>
        <time>2024-05-14T11:53:19.311Z</time>
      </trkpt>
      <trkpt lat="47.82331" lon="5.28648">
        <ele>435</ele>
        <time>2024-05-14T11:53:23.547Z</time>
      </trkpt>
      <trkpt lat="47.82325" lon="5.28649">
        <ele>435</ele>
        <time>2024-05-14T11:53:27.748Z</time>
      </trkpt>
      <trkpt lat="47.82319" lon="5.2865">
        <ele>434</ele>
        <time>2024-05-14T11:53:31.886Z</time>
      </trkpt>
      <trkpt lat="47.82314" lon="5.2865">
        <ele>434</ele>
        <time>2024-05-14T11:53:36.390Z</time>
      </trkpt>
      <trkpt lat="47.82309" lon="5.28651">
        <ele>434</ele>
        <time>2024-05-14T11:53:40.988Z</time>
      </trkpt>
      <trkpt lat="47.82303" lon="5.28652">
        <ele>434</ele>
        <time>2024-05-14T11:53:45.484Z</time>
      </trkpt>
      <trkpt lat="47.82297" lon="5.28652">
        <ele>434</ele>
        <time>2024-05-14T11:53:49.974Z</time>
      </trkpt>
      <trkpt lat="47.82293" lon="5.28652">
        <ele>434</ele>
        <time>2024-05-14T11:53:54.587Z</time>
      </trkpt>
      <trkpt lat="47.82287" lon="5.28654">
        <ele>435</ele>
        <time>2024-05-14T11:53:58.974Z</time>
      </trkpt>
      <trkpt lat="47.82281" lon="5.28654">
        <ele>435</ele>
        <time>2024-05-14T11:54:03.945Z</time>
      </trkpt>
      <trkpt lat="47.82275" lon="5.28654">
        <ele>435</ele>
        <time>2024-05-14T11:54:07.977Z</time>
      </trkpt>
      <trkpt lat="47.82269" lon="5.28655">
        <ele>435</ele>
        <time>2024-05-14T11:54:12.451Z</time>
      </trkpt>
      <trkpt lat="47.82263" lon="5.28656">
        <ele>436</ele>
        <time>2024-05-14T11:54:16.648Z</time>
      </trkpt>
      <trkpt lat="47.82258" lon="5.28656">
        <ele>436</ele>
        <time>2024-05-14T11:54:20.974Z</time>
      </trkpt>
      <trkpt lat="47.82252" lon="5.28655">
        <ele>436</ele>
        <time>2024-05-14T11:54:25.205Z</time>
      </trkpt>
      <trkpt lat="47.82246" lon="5.28656">
        <ele>436</ele>
        <time>2024-05-14T11:54:29.410Z</time>
      </trkpt>
      <trkpt lat="47.82241" lon="5.28657">
        <ele>436</ele>
        <time>2024-05-14T11:54:33.974Z</time>
      </trkpt>
      <trkpt lat="47.82236" lon="5.28658">
        <ele>435</ele>
        <time>2024-05-14T11:54:38.701Z</time>
      </trkpt>
      <trkpt lat="47.82231" lon="5.28659">
        <ele>435</ele>
        <time>2024-05-14T11:54:42.975Z</time>
      </trkpt>
      <trkpt lat="47.82224" lon="5.2866">
        <ele>435</ele>
        <time>2024-05-14T11:54:47.881Z</time>
      </trkpt>
      <trkpt lat="47.82218" lon="5.28661">
        <ele>435</ele>
        <time>2024-05-14T11:54:51.975Z</time>
      </trkpt>
      <trkpt lat="47.82213" lon="5.28662">
        <ele>435</ele>
        <time>2024-05-14T11:54:56.207Z</time>
      </trkpt>
      <trkpt lat="47.82207" lon="5.28662">
        <ele>436</ele>
        <time>2024-05-14T11:54:59.968Z</time>
      </trkpt>
      <trkpt lat="47.82201" lon="5.28663">
        <ele>436</ele>
        <time>2024-05-14T11:55:08.784Z</time>
      </trkpt>
      <trkpt lat="47.82195" lon="5.28664">
        <ele>436</ele>
        <time>2024-05-14T11:55:12.974Z</time>
      </trkpt>
      <trkpt lat="47.82189" lon="5.28666">
        <ele>436</ele>
        <time>2024-05-14T11:55:17.923Z</time>
      </trkpt>
      <trkpt lat="47.82184" lon="5.28668">
        <ele>436</ele>
        <time>2024-05-14T11:55:22.343Z</time>
      </trkpt>
      <trkpt lat="47.82179" lon="5.28671">
        <ele>437</ele>
        <time>2024-05-14T11:55:26.584Z</time>
      </trkpt>
      <trkpt lat="47.82174" lon="5.28674">
        <ele>437</ele>
        <time>2024-05-14T11:55:31.260Z</time>
      </trkpt>
      <trkpt lat="47.82169" lon="5.28677">
        <ele>437</ele>
        <time>2024-05-14T11:55:35.440Z</time>
      </trkpt>
      <trkpt lat="47.82164" lon="5.28682">
        <ele>437</ele>
        <time>2024-05-14T11:55:39.885Z</time>
      </trkpt>
      <trkpt lat="47.82159" lon="5.28687">
        <ele>437</ele>
        <time>2024-05-14T11:55:43.974Z</time>
      </trkpt>
      <trkpt lat="47.82155" lon="5.28692">
        <ele>437</ele>
        <time>2024-05-14T11:55:48.922Z</time>
      </trkpt>
      <trkpt lat="47.82152" lon="5.287">
        <ele>437</ele>
        <time>2024-05-14T11:55:53.443Z</time>
      </trkpt>
      <trkpt lat="47.82148" lon="5.28707">
        <ele>437</ele>
        <time>2024-05-14T11:55:57.974Z</time>
      </trkpt>
      <trkpt lat="47.82143" lon="5.28714">
        <ele>437</ele>
        <time>2024-05-14T11:56:02.641Z</time>
      </trkpt>
      <trkpt lat="47.82138" lon="5.28718">
        <ele>437</ele>
        <time>2024-05-14T11:56:07.325Z</time>
      </trkpt>
      <trkpt lat="47.82135" lon="5.28726">
        <ele>437</ele>
        <time>2024-05-14T11:56:11.651Z</time>
      </trkpt>
      <trkpt lat="47.82132" lon="5.28732">
        <ele>437</ele>
        <time>2024-05-14T11:56:15.975Z</time>
      </trkpt>
      <trkpt lat="47.8213" lon="5.28739">
        <ele>436</ele>
        <time>2024-05-14T11:56:21.973Z</time>
      </trkpt>
      <trkpt lat="47.82128" lon="5.28746">
        <ele>436</ele>
        <time>2024-05-14T11:56:30.973Z</time>
      </trkpt>
      <trkpt lat="47.82126" lon="5.28754">
        <ele>436</ele>
        <time>2024-05-14T11:56:34.973Z</time>
      </trkpt>
      <trkpt lat="47.82124" lon="5.28762">
        <ele>436</ele>
        <time>2024-05-14T11:56:39.433Z</time>
      </trkpt>
      <trkpt lat="47.82122" lon="5.28771">
        <ele>436</ele>
        <time>2024-05-14T11:56:43.890Z</time>
      </trkpt>
      <trkpt lat="47.8212" lon="5.28779">
        <ele>436</ele>
        <time>2024-05-14T11:56:47.974Z</time>
      </trkpt>
      <trkpt lat="47.82117" lon="5.28787">
        <ele>436</ele>
        <time>2024-05-14T11:56:52.972Z</time>
      </trkpt>
      <trkpt lat="47.82115" lon="5.28794">
        <ele>436</ele>
        <time>2024-05-14T11:56:56.973Z</time>
      </trkpt>
      <trkpt lat="47.82113" lon="5.28802">
        <ele>436</ele>
        <time>2024-05-14T11:57:01.973Z</time>
      </trkpt>
      <trkpt lat="47.82111" lon="5.28807">
        <ele>436</ele>
        <time>2024-05-14T11:57:06.990Z</time>
      </trkpt>
      <trkpt lat="47.82108" lon="5.2882">
        <ele>436</ele>
        <time>2024-05-14T11:57:11.929Z</time>
      </trkpt>
      <trkpt lat="47.82107" lon="5.28828">
        <ele>436</ele>
        <time>2024-05-14T11:57:15.974Z</time>
      </trkpt>
      <trkpt lat="47.82104" lon="5.28834">
        <ele>436</ele>
        <time>2024-05-14T11:57:20.291Z</time>
      </trkpt>
      <trkpt lat="47.82101" lon="5.28842">
        <ele>436</ele>
        <time>2024-05-14T11:57:24.565Z</time>
      </trkpt>
      <trkpt lat="47.821" lon="5.2885">
        <ele>436</ele>
        <time>2024-05-14T11:57:28.704Z</time>
      </trkpt>
      <trkpt lat="47.82098" lon="5.28859">
        <ele>436</ele>
        <time>2024-05-14T11:57:33.345Z</time>
      </trkpt>
      <trkpt lat="47.82096" lon="5.28866">
        <ele>439</ele>
        <time>2024-05-14T11:57:37.766Z</time>
      </trkpt>
      <trkpt lat="47.82093" lon="5.28875">
        <ele>439</ele>
        <time>2024-05-14T11:57:41.973Z</time>
      </trkpt>
      <trkpt lat="47.82093" lon="5.28882">
        <ele>439</ele>
        <time>2024-05-14T11:57:46.974Z</time>
      </trkpt>
      <trkpt lat="47.82091" lon="5.28891">
        <ele>439</ele>
        <time>2024-05-14T11:57:51.486Z</time>
      </trkpt>
      <trkpt lat="47.82089" lon="5.28899">
        <ele>439</ele>
        <time>2024-05-14T11:57:55.846Z</time>
      </trkpt>
      <trkpt lat="47.82086" lon="5.28907">
        <ele>439</ele>
        <time>2024-05-14T11:58:00.308Z</time>
      </trkpt>
      <trkpt lat="47.82084" lon="5.28915">
        <ele>439</ele>
        <time>2024-05-14T11:58:04.788Z</time>
      </trkpt>
      <trkpt lat="47.82082" lon="5.28924">
        <ele>439</ele>
        <time>2024-05-14T11:58:09.370Z</time>
      </trkpt>
      <trkpt lat="47.82081" lon="5.28931">
        <ele>440</ele>
        <time>2024-05-14T11:58:13.801Z</time>
      </trkpt>
      <trkpt lat="47.82078" lon="5.28939">
        <ele>440</ele>
        <time>2024-05-14T11:58:17.973Z</time>
      </trkpt>
      <trkpt lat="47.82079" lon="5.28942">
        <ele>440</ele>
        <time>2024-05-14T11:58:22.527Z</time>
      </trkpt>
      <trkpt lat="47.82078" lon="5.28941">
        <ele>440</ele>
        <time>2024-05-14T11:58:26.946Z</time>
      </trkpt>
      <trkpt lat="47.82077" lon="5.28942">
        <ele>440</ele>
        <time>2024-05-14T11:58:30.973Z</time>
      </trkpt>
      <trkpt lat="47.82073" lon="5.28944">
        <ele>440</ele>
        <time>2024-05-14T11:58:35.923Z</time>
      </trkpt>
      <trkpt lat="47.82068" lon="5.28946">
        <ele>441</ele>
        <time>2024-05-14T11:58:39.974Z</time>
      </trkpt>
      <trkpt lat="47.82068" lon="5.28968">
        <ele>441</ele>
        <time>2024-05-14T11:58:44.907Z</time>
      </trkpt>
      <trkpt lat="47.82065" lon="5.28978">
        <ele>441</ele>
        <time>2024-05-14T11:58:48.973Z</time>
      </trkpt>
      <trkpt lat="47.82063" lon="5.28985">
        <ele>441</ele>
        <time>2024-05-14T11:58:53.824Z</time>
      </trkpt>
      <trkpt lat="47.8206" lon="5.28993">
        <ele>440</ele>
        <time>2024-05-14T11:58:58.278Z</time>
      </trkpt>
      <trkpt lat="47.82058" lon="5.29002">
        <ele>440</ele>
        <time>2024-05-14T11:59:02.425Z</time>
      </trkpt>
      <trkpt lat="47.82055" lon="5.29011">
        <ele>440</ele>
        <time>2024-05-14T11:59:06.973Z</time>
      </trkpt>
      <trkpt lat="47.82052" lon="5.29017">
        <ele>439</ele>
        <time>2024-05-14T11:59:10.982Z</time>
      </trkpt>
      <trkpt lat="47.82051" lon="5.29024">
        <ele>439</ele>
        <time>2024-05-14T11:59:15.564Z</time>
      </trkpt>
      <trkpt lat="47.82049" lon="5.29031">
        <ele>439</ele>
        <time>2024-05-14T11:59:19.626Z</time>
      </trkpt>
      <trkpt lat="47.82047" lon="5.29038">
        <ele>439</ele>
        <time>2024-05-14T11:59:23.973Z</time>
      </trkpt>
      <trkpt lat="47.82045" lon="5.29047">
        <ele>440</ele>
        <time>2024-05-14T11:59:28.687Z</time>
      </trkpt>
      <trkpt lat="47.82043" lon="5.29054">
        <ele>440</ele>
        <time>2024-05-14T11:59:32.973Z</time>
      </trkpt>
      <trkpt lat="47.82041" lon="5.29063">
        <ele>442</ele>
        <time>2024-05-14T11:59:37.793Z</time>
      </trkpt>
      <trkpt lat="47.82039" lon="5.29072">
        <ele>442</ele>
        <time>2024-05-14T11:59:42.389Z</time>
      </trkpt>
      <trkpt lat="47.82039" lon="5.29082">
        <ele>442</ele>
        <time>2024-05-14T11:59:46.827Z</time>
      </trkpt>
      <trkpt lat="47.82039" lon="5.2909">
        <ele>442</ele>
        <time>2024-05-14T11:59:50.974Z</time>
      </trkpt>
      <trkpt lat="47.8204" lon="5.29099">
        <ele>443</ele>
        <time>2024-05-14T11:59:54.974Z</time>
      </trkpt>
      <trkpt lat="47.8204" lon="5.29108">
        <ele>443</ele>
        <time>2024-05-14T11:59:59.973Z</time>
      </trkpt>
      <trkpt lat="47.82042" lon="5.29118">
        <ele>443</ele>
        <time>2024-05-14T12:00:04.322Z</time>
      </trkpt>
      <trkpt lat="47.82043" lon="5.29127">
        <ele>442</ele>
        <time>2024-05-14T12:00:08.947Z</time>
      </trkpt>
      <trkpt lat="47.82046" lon="5.29134">
        <ele>442</ele>
        <time>2024-05-14T12:00:13.383Z</time>
      </trkpt>
      <trkpt lat="47.82048" lon="5.29143">
        <ele>442</ele>
        <time>2024-05-14T12:00:17.974Z</time>
      </trkpt>
      <trkpt lat="47.82049" lon="5.29152">
        <ele>442</ele>
        <time>2024-05-14T12:00:21.974Z</time>
      </trkpt>
      <trkpt lat="47.82051" lon="5.29159">
        <ele>442</ele>
        <time>2024-05-14T12:00:26.973Z</time>
      </trkpt>
      <trkpt lat="47.82052" lon="5.29168">
        <ele>442</ele>
        <time>2024-05-14T12:00:30.973Z</time>
      </trkpt>
      <trkpt lat="47.82053" lon="5.29176">
        <ele>442</ele>
        <time>2024-05-14T12:00:35.466Z</time>
      </trkpt>
      <trkpt lat="47.82054" lon="5.29185">
        <ele>444</ele>
        <time>2024-05-14T12:00:39.723Z</time>
      </trkpt>
      <trkpt lat="47.82054" lon="5.29193">
        <ele>444</ele>
        <time>2024-05-14T12:00:44.254Z</time>
      </trkpt>
      <trkpt lat="47.82055" lon="5.29203">
        <ele>444</ele>
        <time>2024-05-14T12:00:48.973Z</time>
      </trkpt>
      <trkpt lat="47.82056" lon="5.2921">
        <ele>445</ele>
        <time>2024-05-14T12:00:52.973Z</time>
      </trkpt>
      <trkpt lat="47.82057" lon="5.29218">
        <ele>445</ele>
        <time>2024-05-14T12:00:57.862Z</time>
      </trkpt>
      <trkpt lat="47.82057" lon="5.29227">
        <ele>445</ele>
        <time>2024-05-14T12:01:01.973Z</time>
      </trkpt>
      <trkpt lat="47.82056" lon="5.29234">
        <ele>445</ele>
        <time>2024-05-14T12:01:05.974Z</time>
      </trkpt>
      <trkpt lat="47.82056" lon="5.29243">
        <ele>445</ele>
        <time>2024-05-14T12:01:09.973Z</time>
      </trkpt>
      <trkpt lat="47.82056" lon="5.2925">
        <ele>445</ele>
        <time>2024-05-14T12:01:14.322Z</time>
      </trkpt>
      <trkpt lat="47.82056" lon="5.29259">
        <ele>445</ele>
        <time>2024-05-14T12:01:18.767Z</time>
      </trkpt>
      <trkpt lat="47.82056" lon="5.29266">
        <ele>444</ele>
        <time>2024-05-14T12:01:23.725Z</time>
      </trkpt>
      <trkpt lat="47.82055" lon="5.29274">
        <ele>444</ele>
        <time>2024-05-14T12:01:27.889Z</time>
      </trkpt>
      <trkpt lat="47.82054" lon="5.29284">
        <ele>444</ele>
        <time>2024-05-14T12:01:32.309Z</time>
      </trkpt>
      <trkpt lat="47.82056" lon="5.29291">
        <ele>444</ele>
        <time>2024-05-14T12:01:36.907Z</time>
      </trkpt>
      <trkpt lat="47.82055" lon="5.29299">
        <ele>443</ele>
        <time>2024-05-14T12:01:41.890Z</time>
      </trkpt>
      <trkpt lat="47.82055" lon="5.29309">
        <ele>443</ele>
        <time>2024-05-14T12:01:45.926Z</time>
      </trkpt>
      <trkpt lat="47.82056" lon="5.29316">
        <ele>443</ele>
        <time>2024-05-14T12:01:49.974Z</time>
      </trkpt>
      <trkpt lat="47.82057" lon="5.29326">
        <ele>443</ele>
        <time>2024-05-14T12:01:53.995Z</time>
      </trkpt>
      <trkpt lat="47.82058" lon="5.29336">
        <ele>443</ele>
        <time>2024-05-14T12:01:58.973Z</time>
      </trkpt>
      <trkpt lat="47.82059" lon="5.29344">
        <ele>443</ele>
        <time>2024-05-14T12:02:02.974Z</time>
      </trkpt>
      <trkpt lat="47.82061" lon="5.29353">
        <ele>444</ele>
        <time>2024-05-14T12:02:07.974Z</time>
      </trkpt>
      <trkpt lat="47.82063" lon="5.29362">
        <ele>444</ele>
        <time>2024-05-14T12:02:12.326Z</time>
      </trkpt>
      <trkpt lat="47.82065" lon="5.29368">
        <ele>444</ele>
        <time>2024-05-14T12:02:16.890Z</time>
      </trkpt>
      <trkpt lat="47.82066" lon="5.29377">
        <ele>445</ele>
        <time>2024-05-14T12:02:20.973Z</time>
      </trkpt>
      <trkpt lat="47.82067" lon="5.29385">
        <ele>445</ele>
        <time>2024-05-14T12:02:25.909Z</time>
      </trkpt>
      <trkpt lat="47.8207" lon="5.29392">
        <ele>444</ele>
        <time>2024-05-14T12:02:29.974Z</time>
      </trkpt>
      <trkpt lat="47.82071" lon="5.294">
        <ele>444</ele>
        <time>2024-05-14T12:02:34.723Z</time>
      </trkpt>
      <trkpt lat="47.82072" lon="5.29406">
        <ele>444</ele>
        <time>2024-05-14T12:02:38.973Z</time>
      </trkpt>
      <trkpt lat="47.82072" lon="5.29414">
        <ele>444</ele>
        <time>2024-05-14T12:02:42.973Z</time>
      </trkpt>
      <trkpt lat="47.82072" lon="5.29421">
        <ele>444</ele>
        <time>2024-05-14T12:02:47.973Z</time>
      </trkpt>
      <trkpt lat="47.82071" lon="5.29431">
        <ele>444</ele>
        <time>2024-05-14T12:02:52.564Z</time>
      </trkpt>
      <trkpt lat="47.8207" lon="5.29439">
        <ele>444</ele>
        <time>2024-05-14T12:02:56.973Z</time>
      </trkpt>
      <trkpt lat="47.8207" lon="5.29445">
        <ele>444</ele>
        <time>2024-05-14T12:03:01.683Z</time>
      </trkpt>
      <trkpt lat="47.82071" lon="5.29453">
        <ele>444</ele>
        <time>2024-05-14T12:03:05.974Z</time>
      </trkpt>
      <trkpt lat="47.82075" lon="5.29461">
        <ele>443</ele>
        <time>2024-05-14T12:03:10.976Z</time>
      </trkpt>
      <trkpt lat="47.82079" lon="5.29466">
        <ele>443</ele>
        <time>2024-05-14T12:03:14.973Z</time>
      </trkpt>
      <trkpt lat="47.82084" lon="5.29473">
        <ele>443</ele>
        <time>2024-05-14T12:03:19.807Z</time>
      </trkpt>
      <trkpt lat="47.82088" lon="5.29479">
        <ele>443</ele>
        <time>2024-05-14T12:03:23.973Z</time>
      </trkpt>
      <trkpt lat="47.82093" lon="5.29484">
        <ele>443</ele>
        <time>2024-05-14T12:03:28.973Z</time>
      </trkpt>
      <trkpt lat="47.82096" lon="5.29489">
        <ele>444</ele>
        <time>2024-05-14T12:03:32.974Z</time>
      </trkpt>
      <trkpt lat="47.82101" lon="5.29495">
        <ele>444</ele>
        <time>2024-05-14T12:03:37.524Z</time>
      </trkpt>
      <trkpt lat="47.82105" lon="5.295">
        <ele>444</ele>
        <time>2024-05-14T12:03:41.568Z</time>
      </trkpt>
      <trkpt lat="47.8211" lon="5.29505">
        <ele>444</ele>
        <time>2024-05-14T12:03:45.974Z</time>
      </trkpt>
      <trkpt lat="47.82114" lon="5.29509">
        <ele>444</ele>
        <time>2024-05-14T12:03:49.973Z</time>
      </trkpt>
      <trkpt lat="47.82118" lon="5.29515">
        <ele>445</ele>
        <time>2024-05-14T12:03:54.649Z</time>
      </trkpt>
      <trkpt lat="47.82123" lon="5.2952">
        <ele>445</ele>
        <time>2024-05-14T12:03:58.973Z</time>
      </trkpt>
      <trkpt lat="47.82128" lon="5.29526">
        <ele>446</ele>
        <time>2024-05-14T12:04:03.642Z</time>
      </trkpt>
      <trkpt lat="47.82133" lon="5.29532">
        <ele>446</ele>
        <time>2024-05-14T12:04:07.974Z</time>
      </trkpt>
      <trkpt lat="47.82137" lon="5.29537">
        <ele>446</ele>
        <time>2024-05-14T12:04:11.973Z</time>
      </trkpt>
      <trkpt lat="47.82142" lon="5.29543">
        <ele>446</ele>
        <time>2024-05-14T12:04:16.483Z</time>
      </trkpt>
      <trkpt lat="47.82146" lon="5.29548">
        <ele>446</ele>
        <time>2024-05-14T12:04:20.588Z</time>
      </trkpt>
      <trkpt lat="47.82151" lon="5.29554">
        <ele>446</ele>
        <time>2024-05-14T12:04:24.973Z</time>
      </trkpt>
      <trkpt lat="47.82156" lon="5.2956">
        <ele>447</ele>
        <time>2024-05-14T12:04:29.828Z</time>
      </trkpt>
      <trkpt lat="47.82161" lon="5.29565">
        <ele>447</ele>
        <time>2024-05-14T12:04:34.815Z</time>
      </trkpt>
      <trkpt lat="47.82166" lon="5.2957">
        <ele>447</ele>
        <time>2024-05-14T12:04:38.974Z</time>
      </trkpt>
      <trkpt lat="47.8217" lon="5.29577">
        <ele>447</ele>
        <time>2024-05-14T12:04:43.710Z</time>
      </trkpt>
      <trkpt lat="47.82175" lon="5.29583">
        <ele>447</ele>
        <time>2024-05-14T12:04:48.403Z</time>
      </trkpt>
      <trkpt lat="47.8218" lon="5.29588">
        <ele>447</ele>
        <time>2024-05-14T12:04:52.984Z</time>
      </trkpt>
      <trkpt lat="47.82184" lon="5.29593">
        <ele>448</ele>
        <time>2024-05-14T12:04:57.973Z</time>
      </trkpt>
      <trkpt lat="47.82189" lon="5.296">
        <ele>448</ele>
        <time>2024-05-14T12:05:02.404Z</time>
      </trkpt>
      <trkpt lat="47.82193" lon="5.29607">
        <ele>448</ele>
        <time>2024-05-14T12:05:06.973Z</time>
      </trkpt>
      <trkpt lat="47.82196" lon="5.29615">
        <ele>448</ele>
        <time>2024-05-14T12:05:11.568Z</time>
      </trkpt>
      <trkpt lat="47.82199" lon="5.29622">
        <ele>448</ele>
        <time>2024-05-14T12:05:15.928Z</time>
      </trkpt>
      <trkpt lat="47.82201" lon="5.29631">
        <ele>448</ele>
        <time>2024-05-14T12:05:20.348Z</time>
      </trkpt>
      <trkpt lat="47.82203" lon="5.29639">
        <ele>448</ele>
        <time>2024-05-14T12:05:24.886Z</time>
      </trkpt>
      <trkpt lat="47.82205" lon="5.29647">
        <ele>448</ele>
        <time>2024-05-14T12:05:29.442Z</time>
      </trkpt>
      <trkpt lat="47.82207" lon="5.29656">
        <ele>448</ele>
        <time>2024-05-14T12:05:33.992Z</time>
      </trkpt>
      <trkpt lat="47.82209" lon="5.29662">
        <ele>449</ele>
        <time>2024-05-14T12:05:38.214Z</time>
      </trkpt>
      <trkpt lat="47.82212" lon="5.29669">
        <ele>449</ele>
        <time>2024-05-14T12:05:42.566Z</time>
      </trkpt>
      <trkpt lat="47.82214" lon="5.29676">
        <ele>449</ele>
        <time>2024-05-14T12:05:46.823Z</time>
      </trkpt>
      <trkpt lat="47.82217" lon="5.29684">
        <ele>450</ele>
        <time>2024-05-14T12:05:50.973Z</time>
      </trkpt>
      <trkpt lat="47.82219" lon="5.29691">
        <ele>450</ele>
        <time>2024-05-14T12:05:55.969Z</time>
      </trkpt>
      <trkpt lat="47.82222" lon="5.297">
        <ele>450</ele>
        <time>2024-05-14T12:05:59.972Z</time>
      </trkpt>
      <trkpt lat="47.82224" lon="5.29706">
        <ele>450</ele>
        <time>2024-05-14T12:06:03.973Z</time>
      </trkpt>
      <trkpt lat="47.82226" lon="5.29712">
        <ele>450</ele>
        <time>2024-05-14T12:06:08.844Z</time>
      </trkpt>
      <trkpt lat="47.82229" lon="5.29721">
        <ele>450</ele>
        <time>2024-05-14T12:06:12.972Z</time>
      </trkpt>
      <trkpt lat="47.82231" lon="5.29728">
        <ele>450</ele>
        <time>2024-05-14T12:06:17.924Z</time>
      </trkpt>
      <trkpt lat="47.82233" lon="5.29736">
        <ele>450</ele>
        <time>2024-05-14T12:06:21.973Z</time>
      </trkpt>
      <trkpt lat="47.82236" lon="5.29743">
        <ele>450</ele>
        <time>2024-05-14T12:06:26.907Z</time>
      </trkpt>
      <trkpt lat="47.82239" lon="5.29752">
        <ele>450</ele>
        <time>2024-05-14T12:06:30.972Z</time>
      </trkpt>
      <trkpt lat="47.82241" lon="5.29759">
        <ele>450</ele>
        <time>2024-05-14T12:06:35.972Z</time>
      </trkpt>
      <trkpt lat="47.82244" lon="5.29766">
        <ele>450</ele>
        <time>2024-05-14T12:06:39.972Z</time>
      </trkpt>
      <trkpt lat="47.82247" lon="5.29775">
        <ele>450</ele>
        <time>2024-05-14T12:06:44.972Z</time>
      </trkpt>
      <trkpt lat="47.82248" lon="5.29784">
        <ele>450</ele>
        <time>2024-05-14T12:06:49.825Z</time>
      </trkpt>
      <trkpt lat="47.82252" lon="5.29792">
        <ele>451</ele>
        <time>2024-05-14T12:06:54.389Z</time>
      </trkpt>
      <trkpt lat="47.82254" lon="5.298">
        <ele>451</ele>
        <time>2024-05-14T12:06:58.932Z</time>
      </trkpt>
      <trkpt lat="47.82256" lon="5.29808">
        <ele>451</ele>
        <time>2024-05-14T12:07:02.972Z</time>
      </trkpt>
      <trkpt lat="47.82259" lon="5.29817">
        <ele>451</ele>
        <time>2024-05-14T12:07:07.795Z</time>
      </trkpt>
      <trkpt lat="47.82261" lon="5.29824">
        <ele>451</ele>
        <time>2024-05-14T12:07:12.665Z</time>
      </trkpt>
      <trkpt lat="47.82264" lon="5.29833">
        <ele>453</ele>
        <time>2024-05-14T12:07:16.846Z</time>
      </trkpt>
      <trkpt lat="47.82266" lon="5.2984">
        <ele>453</ele>
        <time>2024-05-14T12:07:20.972Z</time>
      </trkpt>
      <trkpt lat="47.82269" lon="5.29848">
        <ele>454</ele>
        <time>2024-05-14T12:07:24.973Z</time>
      </trkpt>
      <trkpt lat="47.82271" lon="5.29856">
        <ele>454</ele>
        <time>2024-05-14T12:07:29.986Z</time>
      </trkpt>
      <trkpt lat="47.82273" lon="5.29863">
        <ele>454</ele>
        <time>2024-05-14T12:07:34.328Z</time>
      </trkpt>
      <trkpt lat="47.82276" lon="5.29871">
        <ele>454</ele>
        <time>2024-05-14T12:07:38.807Z</time>
      </trkpt>
      <trkpt lat="47.82278" lon="5.29877">
        <ele>454</ele>
        <time>2024-05-14T12:07:43.330Z</time>
      </trkpt>
      <trkpt lat="47.82281" lon="5.29886">
        <ele>454</ele>
        <time>2024-05-14T12:07:47.767Z</time>
      </trkpt>
      <trkpt lat="47.82283" lon="5.29895">
        <ele>454</ele>
        <time>2024-05-14T12:07:51.972Z</time>
      </trkpt>
      <trkpt lat="47.82286" lon="5.29902">
        <ele>454</ele>
        <time>2024-05-14T12:07:56.547Z</time>
      </trkpt>
      <trkpt lat="47.82288" lon="5.29908">
        <ele>454</ele>
        <time>2024-05-14T12:08:00.972Z</time>
      </trkpt>
      <trkpt lat="47.8229" lon="5.29917">
        <ele>454</ele>
        <time>2024-05-14T12:08:05.607Z</time>
      </trkpt>
      <trkpt lat="47.82292" lon="5.29924">
        <ele>454</ele>
        <time>2024-05-14T12:08:09.973Z</time>
      </trkpt>
      <trkpt lat="47.82295" lon="5.29933">
        <ele>454</ele>
        <time>2024-05-14T12:08:13.972Z</time>
      </trkpt>
      <trkpt lat="47.82297" lon="5.29939">
        <ele>454</ele>
        <time>2024-05-14T12:08:18.989Z</time>
      </trkpt>
      <trkpt lat="47.823" lon="5.29947">
        <ele>454</ele>
        <time>2024-05-14T12:08:22.973Z</time>
      </trkpt>
      <trkpt lat="47.82303" lon="5.29956">
        <ele>454</ele>
        <time>2024-05-14T12:08:27.253Z</time>
      </trkpt>
      <trkpt lat="47.82305" lon="5.29966">
        <ele>454</ele>
        <time>2024-05-14T12:08:31.528Z</time>
      </trkpt>
      <trkpt lat="47.82307" lon="5.29973">
        <ele>454</ele>
        <time>2024-05-14T12:08:35.828Z</time>
      </trkpt>
      <trkpt lat="47.8231" lon="5.29982">
        <ele>454</ele>
        <time>2024-05-14T12:08:39.846Z</time>
      </trkpt>
      <trkpt lat="47.82313" lon="5.29991">
        <ele>453</ele>
        <time>2024-05-14T12:08:43.973Z</time>
      </trkpt>
      <trkpt lat="47.82315" lon="5.29999">
        <ele>453</ele>
        <time>2024-05-14T12:08:48.686Z</time>
      </trkpt>
      <trkpt lat="47.82316" lon="5.30007">
        <ele>453</ele>
        <time>2024-05-14T12:08:52.973Z</time>
      </trkpt>
      <trkpt lat="47.82319" lon="5.30013">
        <ele>453</ele>
        <time>2024-05-14T12:08:57.525Z</time>
      </trkpt>
      <trkpt lat="47.82322" lon="5.30022">
        <ele>453</ele>
        <time>2024-05-14T12:09:01.722Z</time>
      </trkpt>
      <trkpt lat="47.82325" lon="5.30029">
        <ele>453</ele>
        <time>2024-05-14T12:09:05.973Z</time>
      </trkpt>
      <trkpt lat="47.82326" lon="5.30037">
        <ele>453</ele>
        <time>2024-05-14T12:09:09.972Z</time>
      </trkpt>
      <trkpt lat="47.82329" lon="5.30045">
        <ele>452</ele>
        <time>2024-05-14T12:09:14.769Z</time>
      </trkpt>
      <trkpt lat="47.82332" lon="5.30053">
        <ele>452</ele>
        <time>2024-05-14T12:09:18.973Z</time>
      </trkpt>
      <trkpt lat="47.82335" lon="5.30062">
        <ele>452</ele>
        <time>2024-05-14T12:09:23.702Z</time>
      </trkpt>
      <trkpt lat="47.82337" lon="5.3007">
        <ele>452</ele>
        <time>2024-05-14T12:09:27.972Z</time>
      </trkpt>
      <trkpt lat="47.82339" lon="5.30078">
        <ele>452</ele>
        <time>2024-05-14T12:09:31.973Z</time>
      </trkpt>
      <trkpt lat="47.82342" lon="5.30087">
        <ele>452</ele>
        <time>2024-05-14T12:09:36.973Z</time>
      </trkpt>
      <trkpt lat="47.82344" lon="5.30094">
        <ele>452</ele>
        <time>2024-05-14T12:09:40.972Z</time>
      </trkpt>
      <trkpt lat="47.82346" lon="5.30102">
        <ele>451</ele>
        <time>2024-05-14T12:09:45.973Z</time>
      </trkpt>
      <trkpt lat="47.82348" lon="5.30111">
        <ele>450</ele>
        <time>2024-05-14T12:09:49.980Z</time>
      </trkpt>
      <trkpt lat="47.82351" lon="5.30119">
        <ele>450</ele>
        <time>2024-05-14T12:09:54.972Z</time>
      </trkpt>
      <trkpt lat="47.82353" lon="5.30127">
        <ele>449</ele>
        <time>2024-05-14T12:09:58.972Z</time>
      </trkpt>
      <trkpt lat="47.82355" lon="5.30134">
        <ele>449</ele>
        <time>2024-05-14T12:10:03.905Z</time>
      </trkpt>
      <trkpt lat="47.82357" lon="5.30141">
        <ele>449</ele>
        <time>2024-05-14T12:10:07.972Z</time>
      </trkpt>
      <trkpt lat="47.8236" lon="5.3015">
        <ele>449</ele>
        <time>2024-05-14T12:10:12.667Z</time>
      </trkpt>
      <trkpt lat="47.82363" lon="5.30157">
        <ele>449</ele>
        <time>2024-05-14T12:10:16.972Z</time>
      </trkpt>
      <trkpt lat="47.82364" lon="5.30164">
        <ele>449</ele>
        <time>2024-05-14T12:10:21.523Z</time>
      </trkpt>
      <trkpt lat="47.82367" lon="5.30172">
        <ele>449</ele>
        <time>2024-05-14T12:10:25.972Z</time>
      </trkpt>
      <trkpt lat="47.8237" lon="5.3018">
        <ele>449</ele>
        <time>2024-05-14T12:10:30.328Z</time>
      </trkpt>
      <trkpt lat="47.82372" lon="5.30187">
        <ele>449</ele>
        <time>2024-05-14T12:10:34.807Z</time>
      </trkpt>
      <trkpt lat="47.82375" lon="5.30195">
        <ele>449</ele>
        <time>2024-05-14T12:10:38.973Z</time>
      </trkpt>
      <trkpt lat="47.82377" lon="5.30203">
        <ele>449</ele>
        <time>2024-05-14T12:10:42.973Z</time>
      </trkpt>
      <trkpt lat="47.8238" lon="5.30212">
        <ele>449</ele>
        <time>2024-05-14T12:10:47.972Z</time>
      </trkpt>
      <trkpt lat="47.82382" lon="5.30221">
        <ele>449</ele>
        <time>2024-05-14T12:10:51.972Z</time>
      </trkpt>
      <trkpt lat="47.82384" lon="5.30228">
        <ele>449</ele>
        <time>2024-05-14T12:10:56.565Z</time>
      </trkpt>
      <trkpt lat="47.82386" lon="5.30236">
        <ele>449</ele>
        <time>2024-05-14T12:11:00.582Z</time>
      </trkpt>
      <trkpt lat="47.82389" lon="5.30244">
        <ele>449</ele>
        <time>2024-05-14T12:11:04.972Z</time>
      </trkpt>
      <trkpt lat="47.82392" lon="5.30253">
        <ele>449</ele>
        <time>2024-05-14T12:11:09.551Z</time>
      </trkpt>
      <trkpt lat="47.82394" lon="5.30261">
        <ele>449</ele>
        <time>2024-05-14T12:11:14.972Z</time>
      </trkpt>
      <trkpt lat="47.82397" lon="5.30269">
        <ele>449</ele>
        <time>2024-05-14T12:11:19.549Z</time>
      </trkpt>
      <trkpt lat="47.824" lon="5.30277">
        <ele>449</ele>
        <time>2024-05-14T12:11:23.972Z</time>
      </trkpt>
      <trkpt lat="47.82402" lon="5.30284">
        <ele>449</ele>
        <time>2024-05-14T12:11:28.730Z</time>
      </trkpt>
      <trkpt lat="47.82405" lon="5.30294">
        <ele>448</ele>
        <time>2024-05-14T12:11:33.448Z</time>
      </trkpt>
      <trkpt lat="47.82408" lon="5.30301">
        <ele>448</ele>
        <time>2024-05-14T12:11:37.972Z</time>
      </trkpt>
      <trkpt lat="47.8241" lon="5.3031">
        <ele>448</ele>
        <time>2024-05-14T12:11:42.493Z</time>
      </trkpt>
      <trkpt lat="47.82413" lon="5.30317">
        <ele>448</ele>
        <time>2024-05-14T12:11:46.972Z</time>
      </trkpt>
      <trkpt lat="47.82415" lon="5.30327">
        <ele>448</ele>
        <time>2024-05-14T12:11:51.973Z</time>
      </trkpt>
      <trkpt lat="47.82418" lon="5.30333">
        <ele>448</ele>
        <time>2024-05-14T12:11:56.436Z</time>
      </trkpt>
      <trkpt lat="47.82419" lon="5.30343">
        <ele>448</ele>
        <time>2024-05-14T12:12:00.767Z</time>
      </trkpt>
      <trkpt lat="47.82422" lon="5.30351">
        <ele>448</ele>
        <time>2024-05-14T12:12:04.816Z</time>
      </trkpt>
      <trkpt lat="47.82425" lon="5.30358">
        <ele>448</ele>
        <time>2024-05-14T12:12:08.953Z</time>
      </trkpt>
      <trkpt lat="47.82427" lon="5.30367">
        <ele>448</ele>
        <time>2024-05-14T12:12:12.972Z</time>
      </trkpt>
      <trkpt lat="47.82429" lon="5.30375">
        <ele>448</ele>
        <time>2024-05-14T12:12:17.973Z</time>
      </trkpt>
      <trkpt lat="47.82432" lon="5.30383">
        <ele>447</ele>
        <time>2024-05-14T12:12:21.973Z</time>
      </trkpt>
      <trkpt lat="47.82435" lon="5.30392">
        <ele>447</ele>
        <time>2024-05-14T12:12:26.753Z</time>
      </trkpt>
      <trkpt lat="47.82437" lon="5.30399">
        <ele>447</ele>
        <time>2024-05-14T12:12:30.972Z</time>
      </trkpt>
      <trkpt lat="47.8244" lon="5.30408">
        <ele>447</ele>
        <time>2024-05-14T12:12:34.972Z</time>
      </trkpt>
      <trkpt lat="47.82442" lon="5.30415">
        <ele>447</ele>
        <time>2024-05-14T12:12:39.972Z</time>
      </trkpt>
      <trkpt lat="47.82445" lon="5.30424">
        <ele>447</ele>
        <time>2024-05-14T12:12:44.507Z</time>
      </trkpt>
      <trkpt lat="47.82448" lon="5.30432">
        <ele>447</ele>
        <time>2024-05-14T12:12:48.912Z</time>
      </trkpt>
      <trkpt lat="47.8245" lon="5.3044">
        <ele>447</ele>
        <time>2024-05-14T12:12:53.355Z</time>
      </trkpt>
      <trkpt lat="47.82454" lon="5.30446">
        <ele>447</ele>
        <time>2024-05-14T12:12:57.806Z</time>
      </trkpt>
      <trkpt lat="47.82457" lon="5.30453">
        <ele>447</ele>
        <time>2024-05-14T12:13:01.972Z</time>
      </trkpt>
      <trkpt lat="47.82459" lon="5.30461">
        <ele>447</ele>
        <time>2024-05-14T12:13:06.571Z</time>
      </trkpt>
      <trkpt lat="47.82462" lon="5.30471">
        <ele>447</ele>
        <time>2024-05-14T12:13:10.973Z</time>
      </trkpt>
      <trkpt lat="47.82465" lon="5.30478">
        <ele>447</ele>
        <time>2024-05-14T12:13:15.808Z</time>
      </trkpt>
      <trkpt lat="47.82468" lon="5.30487">
        <ele>447</ele>
        <time>2024-05-14T12:13:19.873Z</time>
      </trkpt>
      <trkpt lat="47.82471" lon="5.30496">
        <ele>447</ele>
        <time>2024-05-14T12:13:24.334Z</time>
      </trkpt>
      <trkpt lat="47.82473" lon="5.30504">
        <ele>447</ele>
        <time>2024-05-14T12:13:28.874Z</time>
      </trkpt>
      <trkpt lat="47.82476" lon="5.30513">
        <ele>447</ele>
        <time>2024-05-14T12:13:32.977Z</time>
      </trkpt>
      <trkpt lat="47.82479" lon="5.30521">
        <ele>445</ele>
        <time>2024-05-14T12:13:37.209Z</time>
      </trkpt>
      <trkpt lat="47.82481" lon="5.30529">
        <ele>445</ele>
        <time>2024-05-14T12:13:41.954Z</time>
      </trkpt>
      <trkpt lat="47.82484" lon="5.30539">
        <ele>445</ele>
        <time>2024-05-14T12:13:46.449Z</time>
      </trkpt>
      <trkpt lat="47.82488" lon="5.30548">
        <ele>443</ele>
        <time>2024-05-14T12:13:50.972Z</time>
      </trkpt>
      <trkpt lat="47.8249" lon="5.30555">
        <ele>443</ele>
        <time>2024-05-14T12:13:55.297Z</time>
      </trkpt>
      <trkpt lat="47.82492" lon="5.30562">
        <ele>443</ele>
        <time>2024-05-14T12:13:59.495Z</time>
      </trkpt>
      <trkpt lat="47.82495" lon="5.3057">
        <ele>444</ele>
        <time>2024-05-14T12:14:03.590Z</time>
      </trkpt>
      <trkpt lat="47.82497" lon="5.30578">
        <ele>444</ele>
        <time>2024-05-14T12:14:07.972Z</time>
      </trkpt>
      <trkpt lat="47.82499" lon="5.30587">
        <ele>444</ele>
        <time>2024-05-14T12:14:12.651Z</time>
      </trkpt>
      <trkpt lat="47.82502" lon="5.30594">
        <ele>444</ele>
        <time>2024-05-14T12:14:16.994Z</time>
      </trkpt>
      <trkpt lat="47.82504" lon="5.30603">
        <ele>444</ele>
        <time>2024-05-14T12:14:20.973Z</time>
      </trkpt>
      <trkpt lat="47.82506" lon="5.30612">
        <ele>444</ele>
        <time>2024-05-14T12:14:25.874Z</time>
      </trkpt>
      <trkpt lat="47.82509" lon="5.30618">
        <ele>444</ele>
        <time>2024-05-14T12:14:30.311Z</time>
      </trkpt>
      <trkpt lat="47.82512" lon="5.30628">
        <ele>445</ele>
        <time>2024-05-14T12:14:34.595Z</time>
      </trkpt>
      <trkpt lat="47.82515" lon="5.30636">
        <ele>445</ele>
        <time>2024-05-14T12:14:38.775Z</time>
      </trkpt>
      <trkpt lat="47.82516" lon="5.30644">
        <ele>445</ele>
        <time>2024-05-14T12:14:42.974Z</time>
      </trkpt>
      <trkpt lat="47.82521" lon="5.30651">
        <ele>445</ele>
        <time>2024-05-14T12:14:46.972Z</time>
      </trkpt>
      <trkpt lat="47.82523" lon="5.30658">
        <ele>445</ele>
        <time>2024-05-14T12:14:51.973Z</time>
      </trkpt>
      <trkpt lat="47.82526" lon="5.30666">
        <ele>445</ele>
        <time>2024-05-14T12:14:56.470Z</time>
      </trkpt>
      <trkpt lat="47.82529" lon="5.30674">
        <ele>445</ele>
        <time>2024-05-14T12:15:00.975Z</time>
      </trkpt>
      <trkpt lat="47.82531" lon="5.30681">
        <ele>445</ele>
        <time>2024-05-14T12:15:04.973Z</time>
      </trkpt>
      <trkpt lat="47.82534" lon="5.30691">
        <ele>445</ele>
        <time>2024-05-14T12:15:09.728Z</time>
      </trkpt>
      <trkpt lat="47.82536" lon="5.30698">
        <ele>445</ele>
        <time>2024-05-14T12:15:14.370Z</time>
      </trkpt>
      <trkpt lat="47.8254" lon="5.30707">
        <ele>445</ele>
        <time>2024-05-14T12:15:18.909Z</time>
      </trkpt>
      <trkpt lat="47.82541" lon="5.30716">
        <ele>445</ele>
        <time>2024-05-14T12:15:22.973Z</time>
      </trkpt>
      <trkpt lat="47.82544" lon="5.30724">
        <ele>444</ele>
        <time>2024-05-14T12:15:27.822Z</time>
      </trkpt>
      <trkpt lat="47.82546" lon="5.30731">
        <ele>444</ele>
        <time>2024-05-14T12:15:31.972Z</time>
      </trkpt>
      <trkpt lat="47.82549" lon="5.3074">
        <ele>444</ele>
        <time>2024-05-14T12:15:36.374Z</time>
      </trkpt>
      <trkpt lat="47.82551" lon="5.3075">
        <ele>444</ele>
        <time>2024-05-14T12:15:40.928Z</time>
      </trkpt>
      <trkpt lat="47.82553" lon="5.30758">
        <ele>444</ele>
        <time>2024-05-14T12:15:45.348Z</time>
      </trkpt>
      <trkpt lat="47.82555" lon="5.30765">
        <ele>444</ele>
        <time>2024-05-14T12:15:49.972Z</time>
      </trkpt>
      <trkpt lat="47.82558" lon="5.30773">
        <ele>444</ele>
        <time>2024-05-14T12:15:54.494Z</time>
      </trkpt>
      <trkpt lat="47.8256" lon="5.3078">
        <ele>444</ele>
        <time>2024-05-14T12:15:58.530Z</time>
      </trkpt>
      <trkpt lat="47.82562" lon="5.30789">
        <ele>444</ele>
        <time>2024-05-14T12:16:02.971Z</time>
      </trkpt>
      <trkpt lat="47.82565" lon="5.30797">
        <ele>444</ele>
        <time>2024-05-14T12:16:07.514Z</time>
      </trkpt>
      <trkpt lat="47.82567" lon="5.30805">
        <ele>444</ele>
        <time>2024-05-14T12:16:11.951Z</time>
      </trkpt>
      <trkpt lat="47.8257" lon="5.30813">
        <ele>444</ele>
        <time>2024-05-14T12:16:15.971Z</time>
      </trkpt>
      <trkpt lat="47.82572" lon="5.30823">
        <ele>444</ele>
        <time>2024-05-14T12:16:20.952Z</time>
      </trkpt>
      <trkpt lat="47.82576" lon="5.30831">
        <ele>444</ele>
        <time>2024-05-14T12:16:25.971Z</time>
      </trkpt>
      <trkpt lat="47.82578" lon="5.30839">
        <ele>444</ele>
        <time>2024-05-14T12:16:30.430Z</time>
      </trkpt>
      <trkpt lat="47.82581" lon="5.30846">
        <ele>444</ele>
        <time>2024-05-14T12:16:34.969Z</time>
      </trkpt>
      <trkpt lat="47.82583" lon="5.30854">
        <ele>444</ele>
        <time>2024-05-14T12:16:38.971Z</time>
      </trkpt>
      <trkpt lat="47.82585" lon="5.30863">
        <ele>444</ele>
        <time>2024-05-14T12:16:43.992Z</time>
      </trkpt>
      <trkpt lat="47.82588" lon="5.30873">
        <ele>444</ele>
        <time>2024-05-14T12:16:47.972Z</time>
      </trkpt>
      <trkpt lat="47.82591" lon="5.30881">
        <ele>445</ele>
        <time>2024-05-14T12:16:52.971Z</time>
      </trkpt>
      <trkpt lat="47.82592" lon="5.30889">
        <ele>445</ele>
        <time>2024-05-14T12:16:57.434Z</time>
      </trkpt>
      <trkpt lat="47.82595" lon="5.30896">
        <ele>445</ele>
        <time>2024-05-14T12:17:01.511Z</time>
      </trkpt>
      <trkpt lat="47.82598" lon="5.30905">
        <ele>445</ele>
        <time>2024-05-14T12:17:05.971Z</time>
      </trkpt>
      <trkpt lat="47.82601" lon="5.30914">
        <ele>445</ele>
        <time>2024-05-14T12:17:10.513Z</time>
      </trkpt>
      <trkpt lat="47.82604" lon="5.30922">
        <ele>445</ele>
        <time>2024-05-14T12:17:14.972Z</time>
      </trkpt>
      <trkpt lat="47.82606" lon="5.3093">
        <ele>445</ele>
        <time>2024-05-14T12:17:19.515Z</time>
      </trkpt>
      <trkpt lat="47.82608" lon="5.30939">
        <ele>444</ele>
        <time>2024-05-14T12:17:23.972Z</time>
      </trkpt>
      <trkpt lat="47.82611" lon="5.30947">
        <ele>444</ele>
        <time>2024-05-14T12:17:28.250Z</time>
      </trkpt>
      <trkpt lat="47.82614" lon="5.30954">
        <ele>444</ele>
        <time>2024-05-14T12:17:32.971Z</time>
      </trkpt>
      <trkpt lat="47.82616" lon="5.30963">
        <ele>443</ele>
        <time>2024-05-14T12:17:37.908Z</time>
      </trkpt>
      <trkpt lat="47.82618" lon="5.30971">
        <ele>443</ele>
        <time>2024-05-14T12:17:41.971Z</time>
      </trkpt>
      <trkpt lat="47.8262" lon="5.3098">
        <ele>443</ele>
        <time>2024-05-14T12:17:46.971Z</time>
      </trkpt>
      <trkpt lat="47.82623" lon="5.30988">
        <ele>443</ele>
        <time>2024-05-14T12:17:51.328Z</time>
      </trkpt>
      <trkpt lat="47.82625" lon="5.30995">
        <ele>443</ele>
        <time>2024-05-14T12:17:55.969Z</time>
      </trkpt>
      <trkpt lat="47.82628" lon="5.31003">
        <ele>443</ele>
        <time>2024-05-14T12:17:59.972Z</time>
      </trkpt>
      <trkpt lat="47.82631" lon="5.31012">
        <ele>443</ele>
        <time>2024-05-14T12:18:04.988Z</time>
      </trkpt>
      <trkpt lat="47.82633" lon="5.3102">
        <ele>443</ele>
        <time>2024-05-14T12:18:09.433Z</time>
      </trkpt>
      <trkpt lat="47.82635" lon="5.31027">
        <ele>443</ele>
        <time>2024-05-14T12:18:13.931Z</time>
      </trkpt>
      <trkpt lat="47.82638" lon="5.31036">
        <ele>443</ele>
        <time>2024-05-14T12:18:18.314Z</time>
      </trkpt>
      <trkpt lat="47.82641" lon="5.31045">
        <ele>442</ele>
        <time>2024-05-14T12:18:22.409Z</time>
      </trkpt>
      <trkpt lat="47.82644" lon="5.31054">
        <ele>442</ele>
        <time>2024-05-14T12:18:26.495Z</time>
      </trkpt>
      <trkpt lat="47.82646" lon="5.31062">
        <ele>442</ele>
        <time>2024-05-14T12:18:30.972Z</time>
      </trkpt>
      <trkpt lat="47.82649" lon="5.3107">
        <ele>442</ele>
        <time>2024-05-14T12:18:35.971Z</time>
      </trkpt>
      <trkpt lat="47.82651" lon="5.31079">
        <ele>442</ele>
        <time>2024-05-14T12:18:40.675Z</time>
      </trkpt>
      <trkpt lat="47.82654" lon="5.31086">
        <ele>441</ele>
        <time>2024-05-14T12:18:44.755Z</time>
      </trkpt>
      <trkpt lat="47.82656" lon="5.31095">
        <ele>441</ele>
        <time>2024-05-14T12:18:49.233Z</time>
      </trkpt>
      <trkpt lat="47.82659" lon="5.31103">
        <ele>441</ele>
        <time>2024-05-14T12:18:53.370Z</time>
      </trkpt>
      <trkpt lat="47.82662" lon="5.31111">
        <ele>441</ele>
        <time>2024-05-14T12:18:57.875Z</time>
      </trkpt>
      <trkpt lat="47.82664" lon="5.31119">
        <ele>441</ele>
        <time>2024-05-14T12:19:02.372Z</time>
      </trkpt>
      <trkpt lat="47.82667" lon="5.31128">
        <ele>442</ele>
        <time>2024-05-14T12:19:06.660Z</time>
      </trkpt>
      <trkpt lat="47.82669" lon="5.31135">
        <ele>442</ele>
        <time>2024-05-14T12:19:10.971Z</time>
      </trkpt>
      <trkpt lat="47.82673" lon="5.31142">
        <ele>442</ele>
        <time>2024-05-14T12:19:15.595Z</time>
      </trkpt>
      <trkpt lat="47.82675" lon="5.3115">
        <ele>442</ele>
        <time>2024-05-14T12:19:20.169Z</time>
      </trkpt>
      <trkpt lat="47.82677" lon="5.31158">
        <ele>443</ele>
        <time>2024-05-14T12:19:24.834Z</time>
      </trkpt>
      <trkpt lat="47.8268" lon="5.31166">
        <ele>443</ele>
        <time>2024-05-14T12:19:28.971Z</time>
      </trkpt>
      <trkpt lat="47.82683" lon="5.31174">
        <ele>442</ele>
        <time>2024-05-14T12:19:33.188Z</time>
      </trkpt>
      <trkpt lat="47.82686" lon="5.31181">
        <ele>443</ele>
        <time>2024-05-14T12:19:37.473Z</time>
      </trkpt>
      <trkpt lat="47.8269" lon="5.31187">
        <ele>443</ele>
        <time>2024-05-14T12:19:41.695Z</time>
      </trkpt>
      <trkpt lat="47.82696" lon="5.31185">
        <ele>443</ele>
        <time>2024-05-14T12:19:45.971Z</time>
      </trkpt>
      <trkpt lat="47.82701" lon="5.3118">
        <ele>442</ele>
        <time>2024-05-14T12:19:50.874Z</time>
      </trkpt>
      <trkpt lat="47.82705" lon="5.31174">
        <ele>442</ele>
        <time>2024-05-14T12:19:54.971Z</time>
      </trkpt>
      <trkpt lat="47.8271" lon="5.31167">
        <ele>443</ele>
        <time>2024-05-14T12:19:59.490Z</time>
      </trkpt>
      <trkpt lat="47.82715" lon="5.31161">
        <ele>443</ele>
        <time>2024-05-14T12:20:03.972Z</time>
      </trkpt>
      <trkpt lat="47.8272" lon="5.31155">
        <ele>443</ele>
        <time>2024-05-14T12:20:08.909Z</time>
      </trkpt>
      <trkpt lat="47.82723" lon="5.31149">
        <ele>443</ele>
        <time>2024-05-14T12:20:13.567Z</time>
      </trkpt>
      <trkpt lat="47.82727" lon="5.31142">
        <ele>443</ele>
        <time>2024-05-14T12:20:17.972Z</time>
      </trkpt>
      <trkpt lat="47.82731" lon="5.31138">
        <ele>443</ele>
        <time>2024-05-14T12:20:22.509Z</time>
      </trkpt>
      <trkpt lat="47.82737" lon="5.31135">
        <ele>445</ele>
        <time>2024-05-14T12:20:26.629Z</time>
      </trkpt>
      <trkpt lat="47.82742" lon="5.31126">
        <ele>445</ele>
        <time>2024-05-14T12:20:30.971Z</time>
      </trkpt>
      <trkpt lat="47.82746" lon="5.31121">
        <ele>445</ele>
        <time>2024-05-14T12:20:35.510Z</time>
      </trkpt>
      <trkpt lat="47.8275" lon="5.31115">
        <ele>445</ele>
        <time>2024-05-14T12:20:39.708Z</time>
      </trkpt>
      <trkpt lat="47.82753" lon="5.31109">
        <ele>445</ele>
        <time>2024-05-14T12:20:43.972Z</time>
      </trkpt>
      <trkpt lat="47.82757" lon="5.31102">
        <ele>445</ele>
        <time>2024-05-14T12:20:48.513Z</time>
      </trkpt>
      <trkpt lat="47.82761" lon="5.31095">
        <ele>444</ele>
        <time>2024-05-14T12:20:52.971Z</time>
      </trkpt>
      <trkpt lat="47.82764" lon="5.31088">
        <ele>444</ele>
        <time>2024-05-14T12:20:57.972Z</time>
      </trkpt>
      <trkpt lat="47.82767" lon="5.31081">
        <ele>446</ele>
        <time>2024-05-14T12:21:02.470Z</time>
      </trkpt>
      <trkpt lat="47.82771" lon="5.31073">
        <ele>446</ele>
        <time>2024-05-14T12:21:06.908Z</time>
      </trkpt>
      <trkpt lat="47.82774" lon="5.31065">
        <ele>446</ele>
        <time>2024-05-14T12:21:11.370Z</time>
      </trkpt>
      <trkpt lat="47.82776" lon="5.31056">
        <ele>446</ele>
        <time>2024-05-14T12:21:15.874Z</time>
      </trkpt>
      <trkpt lat="47.82779" lon="5.31048">
        <ele>446</ele>
        <time>2024-05-14T12:21:20.311Z</time>
      </trkpt>
      <trkpt lat="47.8278" lon="5.3104">
        <ele>447</ele>
        <time>2024-05-14T12:21:24.774Z</time>
      </trkpt>
      <trkpt lat="47.82782" lon="5.31032">
        <ele>447</ele>
        <time>2024-05-14T12:21:28.971Z</time>
      </trkpt>
      <trkpt lat="47.82783" lon="5.31023">
        <ele>447</ele>
        <time>2024-05-14T12:21:33.612Z</time>
      </trkpt>
      <trkpt lat="47.82785" lon="5.31015">
        <ele>447</ele>
        <time>2024-05-14T12:21:37.991Z</time>
      </trkpt>
      <trkpt lat="47.82785" lon="5.31007">
        <ele>448</ele>
        <time>2024-05-14T12:21:41.971Z</time>
      </trkpt>
      <trkpt lat="47.82787" lon="5.30998">
        <ele>448</ele>
        <time>2024-05-14T12:21:46.435Z</time>
      </trkpt>
      <trkpt lat="47.82789" lon="5.3099">
        <ele>448</ele>
        <time>2024-05-14T12:21:50.870Z</time>
      </trkpt>
      <trkpt lat="47.8279" lon="5.3098">
        <ele>449</ele>
        <time>2024-05-14T12:21:54.972Z</time>
      </trkpt>
      <trkpt lat="47.82793" lon="5.30972">
        <ele>451</ele>
        <time>2024-05-14T12:21:59.668Z</time>
      </trkpt>
      <trkpt lat="47.82795" lon="5.30963">
        <ele>451</ele>
        <time>2024-05-14T12:22:03.971Z</time>
      </trkpt>
      <trkpt lat="47.82797" lon="5.30954">
        <ele>451</ele>
        <time>2024-05-14T12:22:08.669Z</time>
      </trkpt>
      <trkpt lat="47.82799" lon="5.30946">
        <ele>451</ele>
        <time>2024-05-14T12:22:12.971Z</time>
      </trkpt>
      <trkpt lat="47.82802" lon="5.30938">
        <ele>451</ele>
        <time>2024-05-14T12:22:17.549Z</time>
      </trkpt>
      <trkpt lat="47.82804" lon="5.30931">
        <ele>451</ele>
        <time>2024-05-14T12:22:21.971Z</time>
      </trkpt>
      <trkpt lat="47.82807" lon="5.30923">
        <ele>451</ele>
        <time>2024-05-14T12:22:26.894Z</time>
      </trkpt>
      <trkpt lat="47.8281" lon="5.30915">
        <ele>451</ele>
        <time>2024-05-14T12:22:30.989Z</time>
      </trkpt>
      <trkpt lat="47.82812" lon="5.30908">
        <ele>451</ele>
        <time>2024-05-14T12:22:35.467Z</time>
      </trkpt>
      <trkpt lat="47.82815" lon="5.30901">
        <ele>450</ele>
        <time>2024-05-14T12:22:39.972Z</time>
      </trkpt>
      <trkpt lat="47.82817" lon="5.30892">
        <ele>450</ele>
        <time>2024-05-14T12:22:44.571Z</time>
      </trkpt>
      <trkpt lat="47.82819" lon="5.30884">
        <ele>450</ele>
        <time>2024-05-14T12:22:48.854Z</time>
      </trkpt>
      <trkpt lat="47.82822" lon="5.30875">
        <ele>451</ele>
        <time>2024-05-14T12:22:53.369Z</time>
      </trkpt>
      <trkpt lat="47.82825" lon="5.30867">
        <ele>451</ele>
        <time>2024-05-14T12:22:57.694Z</time>
      </trkpt>
      <trkpt lat="47.82827" lon="5.30859">
        <ele>451</ele>
        <time>2024-05-14T12:23:01.971Z</time>
      </trkpt>
      <trkpt lat="47.82829" lon="5.30851">
        <ele>451</ele>
        <time>2024-05-14T12:23:06.815Z</time>
      </trkpt>
      <trkpt lat="47.82831" lon="5.30844">
        <ele>450</ele>
        <time>2024-05-14T12:23:10.971Z</time>
      </trkpt>
      <trkpt lat="47.82834" lon="5.30835">
        <ele>450</ele>
        <time>2024-05-14T12:23:15.535Z</time>
      </trkpt>
      <trkpt lat="47.82837" lon="5.30828">
        <ele>450</ele>
        <time>2024-05-14T12:23:19.971Z</time>
      </trkpt>
      <trkpt lat="47.8284" lon="5.30819">
        <ele>450</ele>
        <time>2024-05-14T12:23:24.972Z</time>
      </trkpt>
      <trkpt lat="47.82843" lon="5.30812">
        <ele>449</ele>
        <time>2024-05-14T12:23:29.789Z</time>
      </trkpt>
      <trkpt lat="47.82848" lon="5.30804">
        <ele>451</ele>
        <time>2024-05-14T12:23:33.972Z</time>
      </trkpt>
      <trkpt lat="47.82853" lon="5.30804">
        <ele>451</ele>
        <time>2024-05-14T12:23:38.972Z</time>
      </trkpt>
      <trkpt lat="47.82859" lon="5.30808">
        <ele>451</ele>
        <time>2024-05-14T12:23:43.987Z</time>
      </trkpt>
      <trkpt lat="47.82864" lon="5.30811">
        <ele>451</ele>
        <time>2024-05-14T12:23:48.629Z</time>
      </trkpt>
      <trkpt lat="47.82868" lon="5.30816">
        <ele>451</ele>
        <time>2024-05-14T12:23:52.971Z</time>
      </trkpt>
      <trkpt lat="47.82872" lon="5.3082">
        <ele>451</ele>
        <time>2024-05-14T12:23:57.501Z</time>
      </trkpt>
      <trkpt lat="47.82877" lon="5.30825">
        <ele>452</ele>
        <time>2024-05-14T12:24:01.799Z</time>
      </trkpt>
      <trkpt lat="47.82882" lon="5.3083">
        <ele>452</ele>
        <time>2024-05-14T12:24:05.972Z</time>
      </trkpt>
      <trkpt lat="47.82886" lon="5.30834">
        <ele>452</ele>
        <time>2024-05-14T12:24:10.589Z</time>
      </trkpt>
      <trkpt lat="47.8289" lon="5.3084">
        <ele>452</ele>
        <time>2024-05-14T12:24:14.972Z</time>
      </trkpt>
      <trkpt lat="47.82893" lon="5.3085">
        <ele>452</ele>
        <time>2024-05-14T12:24:19.754Z</time>
      </trkpt>
      <trkpt lat="47.82895" lon="5.30861">
        <ele>452</ele>
        <time>2024-05-14T12:24:23.971Z</time>
      </trkpt>
      <trkpt lat="47.82898" lon="5.30866">
        <ele>452</ele>
        <time>2024-05-14T12:24:28.054Z</time>
      </trkpt>
      <trkpt lat="47.829" lon="5.30874">
        <ele>452</ele>
        <time>2024-05-14T12:24:32.637Z</time>
      </trkpt>
      <trkpt lat="47.82902" lon="5.30881">
        <ele>452</ele>
        <time>2024-05-14T12:24:36.969Z</time>
      </trkpt>
      <trkpt lat="47.82904" lon="5.30889">
        <ele>454</ele>
        <time>2024-05-14T12:24:40.971Z</time>
      </trkpt>
      <trkpt lat="47.82906" lon="5.30896">
        <ele>454</ele>
        <time>2024-05-14T12:24:45.493Z</time>
      </trkpt>
      <trkpt lat="47.82908" lon="5.30905">
        <ele>454</ele>
        <time>2024-05-14T12:24:49.674Z</time>
      </trkpt>
      <trkpt lat="47.82909" lon="5.30913">
        <ele>454</ele>
        <time>2024-05-14T12:24:53.971Z</time>
      </trkpt>
      <trkpt lat="47.8291" lon="5.30921">
        <ele>454</ele>
        <time>2024-05-14T12:24:58.854Z</time>
      </trkpt>
      <trkpt lat="47.82912" lon="5.30928">
        <ele>454</ele>
        <time>2024-05-14T12:25:03.469Z</time>
      </trkpt>
      <trkpt lat="47.82915" lon="5.30936">
        <ele>454</ele>
        <time>2024-05-14T12:25:07.838Z</time>
      </trkpt>
      <trkpt lat="47.82918" lon="5.30944">
        <ele>454</ele>
        <time>2024-05-14T12:25:11.972Z</time>
      </trkpt>
      <trkpt lat="47.82921" lon="5.30952">
        <ele>454</ele>
        <time>2024-05-14T12:25:16.971Z</time>
      </trkpt>
      <trkpt lat="47.82924" lon="5.3096">
        <ele>454</ele>
        <time>2024-05-14T12:25:21.754Z</time>
      </trkpt>
      <trkpt lat="47.82927" lon="5.30967">
        <ele>454</ele>
        <time>2024-05-14T12:25:25.972Z</time>
      </trkpt>
      <trkpt lat="47.82931" lon="5.30973">
        <ele>456</ele>
        <time>2024-05-14T12:25:30.177Z</time>
      </trkpt>
      <trkpt lat="47.82935" lon="5.3098">
        <ele>456</ele>
        <time>2024-05-14T12:25:34.271Z</time>
      </trkpt>
      <trkpt lat="47.8294" lon="5.30987">
        <ele>455</ele>
        <time>2024-05-14T12:25:38.972Z</time>
      </trkpt>
      <trkpt lat="47.82944" lon="5.30994">
        <ele>455</ele>
        <time>2024-05-14T12:25:43.550Z</time>
      </trkpt>
      <trkpt lat="47.82947" lon="5.30999">
        <ele>455</ele>
        <time>2024-05-14T12:25:47.971Z</time>
      </trkpt>
      <trkpt lat="47.8295" lon="5.31006">
        <ele>455</ele>
        <time>2024-05-14T12:25:52.151Z</time>
      </trkpt>
      <trkpt lat="47.82954" lon="5.31012">
        <ele>455</ele>
        <time>2024-05-14T12:25:56.332Z</time>
      </trkpt>
      <trkpt lat="47.82958" lon="5.31017">
        <ele>454</ele>
        <time>2024-05-14T12:26:00.975Z</time>
      </trkpt>
      <trkpt lat="47.82962" lon="5.31021">
        <ele>454</ele>
        <time>2024-05-14T12:26:04.971Z</time>
      </trkpt>
      <trkpt lat="47.82968" lon="5.31023">
        <ele>454</ele>
        <time>2024-05-14T12:26:09.971Z</time>
      </trkpt>
      <trkpt lat="47.82973" lon="5.31025">
        <ele>454</ele>
        <time>2024-05-14T12:26:14.054Z</time>
      </trkpt>
      <trkpt lat="47.82977" lon="5.31023">
        <ele>454</ele>
        <time>2024-05-14T12:26:18.548Z</time>
      </trkpt>
      <trkpt lat="47.82983" lon="5.31023">
        <ele>454</ele>
        <time>2024-05-14T12:26:22.711Z</time>
      </trkpt>
      <trkpt lat="47.82988" lon="5.3102">
        <ele>453</ele>
        <time>2024-05-14T12:26:27.795Z</time>
      </trkpt>
      <trkpt lat="47.82993" lon="5.31016">
        <ele>453</ele>
        <time>2024-05-14T12:26:32.907Z</time>
      </trkpt>
      <trkpt lat="47.82997" lon="5.31013">
        <ele>453</ele>
        <time>2024-05-14T12:26:37.513Z</time>
      </trkpt>
      <trkpt lat="47.83" lon="5.31006">
        <ele>453</ele>
        <time>2024-05-14T12:26:41.971Z</time>
      </trkpt>
      <trkpt lat="47.83004" lon="5.31">
        <ele>453</ele>
        <time>2024-05-14T12:26:46.830Z</time>
      </trkpt>
      <trkpt lat="47.83008" lon="5.30994">
        <ele>453</ele>
        <time>2024-05-14T12:26:50.971Z</time>
      </trkpt>
      <trkpt lat="47.83012" lon="5.30988">
        <ele>453</ele>
        <time>2024-05-14T12:26:55.534Z</time>
      </trkpt>
      <trkpt lat="47.83016" lon="5.30981">
        <ele>454</ele>
        <time>2024-05-14T12:26:59.868Z</time>
      </trkpt>
      <trkpt lat="47.83021" lon="5.30977">
        <ele>454</ele>
        <time>2024-05-14T12:27:03.972Z</time>
      </trkpt>
      <trkpt lat="47.83026" lon="5.30971">
        <ele>454</ele>
        <time>2024-05-14T12:27:08.674Z</time>
      </trkpt>
      <trkpt lat="47.8303" lon="5.30964">
        <ele>454</ele>
        <time>2024-05-14T12:27:12.972Z</time>
      </trkpt>
      <trkpt lat="47.83035" lon="5.30957">
        <ele>458</ele>
        <time>2024-05-14T12:27:17.827Z</time>
      </trkpt>
      <trkpt lat="47.83039" lon="5.30953">
        <ele>458</ele>
        <time>2024-05-14T12:27:31.972Z</time>
      </trkpt>
      <trkpt lat="47.83043" lon="5.30948">
        <ele>455</ele>
        <time>2024-05-14T12:27:36.691Z</time>
      </trkpt>
      <trkpt lat="47.83048" lon="5.30942">
        <ele>455</ele>
        <time>2024-05-14T12:27:40.897Z</time>
      </trkpt>
      <trkpt lat="47.83052" lon="5.30937">
        <ele>455</ele>
        <time>2024-05-14T12:27:44.971Z</time>
      </trkpt>
      <trkpt lat="47.83056" lon="5.3093">
        <ele>457</ele>
        <time>2024-05-14T12:27:49.971Z</time>
      </trkpt>
      <trkpt lat="47.8306" lon="5.30924">
        <ele>457</ele>
        <time>2024-05-14T12:27:54.970Z</time>
      </trkpt>
      <trkpt lat="47.83065" lon="5.30918">
        <ele>457</ele>
        <time>2024-05-14T12:27:58.970Z</time>
      </trkpt>
      <trkpt lat="47.8307" lon="5.30914">
        <ele>455</ele>
        <time>2024-05-14T12:28:03.971Z</time>
      </trkpt>
      <trkpt lat="47.83076" lon="5.3091">
        <ele>455</ele>
        <time>2024-05-14T12:28:08.634Z</time>
      </trkpt>
      <trkpt lat="47.8308" lon="5.30905">
        <ele>455</ele>
        <time>2024-05-14T12:28:41.970Z</time>
      </trkpt>
      <trkpt lat="47.83085" lon="5.30898">
        <ele>455</ele>
        <time>2024-05-14T12:28:46.753Z</time>
      </trkpt>
      <trkpt lat="47.83089" lon="5.30894">
        <ele>455</ele>
        <time>2024-05-14T12:28:50.970Z</time>
      </trkpt>
      <trkpt lat="47.83094" lon="5.30889">
        <ele>455</ele>
        <time>2024-05-14T12:28:54.971Z</time>
      </trkpt>
      <trkpt lat="47.83099" lon="5.30886">
        <ele>454</ele>
        <time>2024-05-14T12:28:59.850Z</time>
      </trkpt>
      <trkpt lat="47.83103" lon="5.30879">
        <ele>454</ele>
        <time>2024-05-14T12:29:03.791Z</time>
      </trkpt>
      <trkpt lat="47.8311" lon="5.30877">
        <ele>454</ele>
        <time>2024-05-14T12:29:07.970Z</time>
      </trkpt>
      <trkpt lat="47.83116" lon="5.30877">
        <ele>454</ele>
        <time>2024-05-14T12:29:12.754Z</time>
      </trkpt>
      <trkpt lat="47.83122" lon="5.30875">
        <ele>454</ele>
        <time>2024-05-14T12:29:17.829Z</time>
      </trkpt>
      <trkpt lat="47.83128" lon="5.30874">
        <ele>455</ele>
        <time>2024-05-14T12:29:21.970Z</time>
      </trkpt>
      <trkpt lat="47.83132" lon="5.30871">
        <ele>455</ele>
        <time>2024-05-14T12:29:26.632Z</time>
      </trkpt>
      <trkpt lat="47.83137" lon="5.30869">
        <ele>455</ele>
        <time>2024-05-14T12:29:30.970Z</time>
      </trkpt>
      <trkpt lat="47.83142" lon="5.30866">
        <ele>455</ele>
        <time>2024-05-14T12:29:34.970Z</time>
      </trkpt>
      <trkpt lat="47.83147" lon="5.30863">
        <ele>455</ele>
        <time>2024-05-14T12:30:21.920Z</time>
      </trkpt>
      <trkpt lat="47.83151" lon="5.30858">
        <ele>455</ele>
        <time>2024-05-14T12:30:30.970Z</time>
      </trkpt>
      <trkpt lat="47.83155" lon="5.30851">
        <ele>454</ele>
        <time>2024-05-14T12:30:34.970Z</time>
      </trkpt>
      <trkpt lat="47.83158" lon="5.30844">
        <ele>454</ele>
        <time>2024-05-14T12:30:39.970Z</time>
      </trkpt>
      <trkpt lat="47.8316" lon="5.30833">
        <ele>454</ele>
        <time>2024-05-14T12:30:44.970Z</time>
      </trkpt>
      <trkpt lat="47.8316" lon="5.30832">
        <ele>454</ele>
        <time>2024-05-14T12:30:49.970Z</time>
      </trkpt>
      <trkpt lat="47.83159" lon="5.30828">
        <ele>454</ele>
        <time>2024-05-14T12:30:57.970Z</time>
      </trkpt>
      <trkpt lat="47.8316" lon="5.30824">
        <ele>454</ele>
        <time>2024-05-14T12:31:06.971Z</time>
      </trkpt>
      <trkpt lat="47.8316" lon="5.30818">
        <ele>454</ele>
        <time>2024-05-14T12:31:11.643Z</time>
      </trkpt>
      <trkpt lat="47.8316" lon="5.30817">
        <ele>454</ele>
        <time>2024-05-14T12:31:16.891Z</time>
      </trkpt>
      <trkpt lat="47.83155" lon="5.30819">
        <ele>454</ele>
        <time>2024-05-14T12:31:20.970Z</time>
      </trkpt>
      <trkpt lat="47.83149" lon="5.30828">
        <ele>454</ele>
        <time>2024-05-14T12:31:25.971Z</time>
      </trkpt>
      <trkpt lat="47.83143" lon="5.30831">
        <ele>454</ele>
        <time>2024-05-14T12:31:30.479Z</time>
      </trkpt>
      <trkpt lat="47.8314" lon="5.30834">
        <ele>454</ele>
        <time>2024-05-14T12:31:34.500Z</time>
      </trkpt>
      <trkpt lat="47.83146" lon="5.30832">
        <ele>454</ele>
        <time>2024-05-14T12:31:52.930Z</time>
      </trkpt>
      <trkpt lat="47.83153" lon="5.30829">
        <ele>454</ele>
        <time>2024-05-14T12:31:56.970Z</time>
      </trkpt>
      <trkpt lat="47.83159" lon="5.30827">
        <ele>454</ele>
        <time>2024-05-14T12:32:01.970Z</time>
      </trkpt>
      <trkpt lat="47.83166" lon="5.30823">
        <ele>454</ele>
        <time>2024-05-14T12:32:06.505Z</time>
      </trkpt>
      <trkpt lat="47.8317" lon="5.30819">
        <ele>454</ele>
        <time>2024-05-14T12:32:10.853Z</time>
      </trkpt>
      <trkpt lat="47.83177" lon="5.30814">
        <ele>454</ele>
        <time>2024-05-14T12:32:42.971Z</time>
      </trkpt>
      <trkpt lat="47.83183" lon="5.3081">
        <ele>456</ele>
        <time>2024-05-14T12:32:47.457Z</time>
      </trkpt>
      <trkpt lat="47.83189" lon="5.3081">
        <ele>456</ele>
        <time>2024-05-14T12:32:51.796Z</time>
      </trkpt>
      <trkpt lat="47.83195" lon="5.30811">
        <ele>456</ele>
        <time>2024-05-14T12:32:56.253Z</time>
      </trkpt>
      <trkpt lat="47.832" lon="5.30814">
        <ele>456</ele>
        <time>2024-05-14T12:33:00.573Z</time>
      </trkpt>
      <trkpt lat="47.83204" lon="5.30819">
        <ele>456</ele>
        <time>2024-05-14T12:33:04.945Z</time>
      </trkpt>
      <trkpt lat="47.83202" lon="5.30825">
        <ele>455</ele>
        <time>2024-05-14T12:33:09.754Z</time>
      </trkpt>
      <trkpt lat="47.83199" lon="5.30826">
        <ele>455</ele>
        <time>2024-05-14T12:33:13.970Z</time>
      </trkpt>
      <trkpt lat="47.83205" lon="5.30823">
        <ele>455</ele>
        <time>2024-05-14T12:33:18.971Z</time>
      </trkpt>
      <trkpt lat="47.83209" lon="5.30823">
        <ele>454</ele>
        <time>2024-05-14T12:33:23.690Z</time>
      </trkpt>
      <trkpt lat="47.8321" lon="5.30822">
        <ele>454</ele>
        <time>2024-05-14T12:33:27.734Z</time>
      </trkpt>
      <trkpt lat="47.8321" lon="5.30821">
        <ele>454</ele>
        <time>2024-05-14T12:33:32.151Z</time>
      </trkpt>
      <trkpt lat="47.8321" lon="5.30821">
        <ele>454</ele>
        <time>2024-05-14T12:33:36.913Z</time>
      </trkpt>
      <trkpt lat="47.83211" lon="5.3082">
        <ele>454</ele>
        <time>2024-05-14T12:33:41.554Z</time>
      </trkpt>
      <trkpt lat="47.83211" lon="5.30819">
        <ele>455</ele>
        <time>2024-05-14T12:33:45.578Z</time>
      </trkpt>
      <trkpt lat="47.83205" lon="5.30823">
        <ele>455</ele>
        <time>2024-05-14T12:33:49.670Z</time>
      </trkpt>
      <trkpt lat="47.83196" lon="5.30815">
        <ele>456</ele>
        <time>2024-05-14T12:33:53.971Z</time>
      </trkpt>
      <trkpt lat="47.83191" lon="5.30812">
        <ele>456</ele>
        <time>2024-05-14T12:33:58.195Z</time>
      </trkpt>
      <trkpt lat="47.83184" lon="5.30811">
        <ele>456</ele>
        <time>2024-05-14T12:34:02.814Z</time>
      </trkpt>
      <trkpt lat="47.83178" lon="5.30813">
        <ele>454</ele>
        <time>2024-05-14T12:34:07.113Z</time>
      </trkpt>
      <trkpt lat="47.83174" lon="5.30817">
        <ele>454</ele>
        <time>2024-05-14T12:34:11.375Z</time>
      </trkpt>
      <trkpt lat="47.83166" lon="5.30816">
        <ele>454</ele>
        <time>2024-05-14T12:34:15.487Z</time>
      </trkpt>
      <trkpt lat="47.83169" lon="5.30809">
        <ele>454</ele>
        <time>2024-05-14T12:34:19.969Z</time>
      </trkpt>
      <trkpt lat="47.83174" lon="5.30803">
        <ele>454</ele>
        <time>2024-05-14T12:34:24.508Z</time>
      </trkpt>
      <trkpt lat="47.83179" lon="5.30799">
        <ele>454</ele>
        <time>2024-05-14T12:34:28.911Z</time>
      </trkpt>
      <trkpt lat="47.83183" lon="5.30795">
        <ele>456</ele>
        <time>2024-05-14T12:34:33.650Z</time>
      </trkpt>
      <trkpt lat="47.83189" lon="5.30794">
        <ele>456</ele>
        <time>2024-05-14T12:34:37.970Z</time>
      </trkpt>
      <trkpt lat="47.83189" lon="5.308">
        <ele>456</ele>
        <time>2024-05-14T12:34:42.429Z</time>
      </trkpt>
      <trkpt lat="47.8318" lon="5.30807">
        <ele>454</ele>
        <time>2024-05-14T12:34:46.535Z</time>
      </trkpt>
      <trkpt lat="47.83174" lon="5.30812">
        <ele>454</ele>
        <time>2024-05-14T12:34:51.613Z</time>
      </trkpt>
      <trkpt lat="47.8317" lon="5.30818">
        <ele>454</ele>
        <time>2024-05-14T12:34:55.915Z</time>
      </trkpt>
      <trkpt lat="47.83165" lon="5.30823">
        <ele>454</ele>
        <time>2024-05-14T12:35:00.428Z</time>
      </trkpt>
      <trkpt lat="47.83162" lon="5.30831">
        <ele>454</ele>
        <time>2024-05-14T12:35:04.970Z</time>
      </trkpt>
      <trkpt lat="47.83157" lon="5.30836">
        <ele>454</ele>
        <time>2024-05-14T12:35:09.833Z</time>
      </trkpt>
      <trkpt lat="47.83154" lon="5.30844">
        <ele>454</ele>
        <time>2024-05-14T12:35:13.969Z</time>
      </trkpt>
      <trkpt lat="47.83152" lon="5.30851">
        <ele>455</ele>
        <time>2024-05-14T12:35:18.630Z</time>
      </trkpt>
      <trkpt lat="47.83149" lon="5.30859">
        <ele>455</ele>
        <time>2024-05-14T12:35:22.582Z</time>
      </trkpt>
      <trkpt lat="47.83145" lon="5.30864">
        <ele>455</ele>
        <time>2024-05-14T12:35:26.849Z</time>
      </trkpt>
      <trkpt lat="47.83141" lon="5.30867">
        <ele>455</ele>
        <time>2024-05-14T12:35:30.868Z</time>
      </trkpt>
      <trkpt lat="47.83136" lon="5.30871">
        <ele>455</ele>
        <time>2024-05-14T12:35:35.211Z</time>
      </trkpt>
      <trkpt lat="47.8313" lon="5.30871">
        <ele>455</ele>
        <time>2024-05-14T12:35:39.589Z</time>
      </trkpt>
      <trkpt lat="47.83126" lon="5.30873">
        <ele>455</ele>
        <time>2024-05-14T12:35:43.969Z</time>
      </trkpt>
      <trkpt lat="47.8312" lon="5.30875">
        <ele>454</ele>
        <time>2024-05-14T12:35:48.694Z</time>
      </trkpt>
      <trkpt lat="47.83115" lon="5.30877">
        <ele>454</ele>
        <time>2024-05-14T12:35:52.791Z</time>
      </trkpt>
      <trkpt lat="47.83109" lon="5.30878">
        <ele>454</ele>
        <time>2024-05-14T12:35:56.970Z</time>
      </trkpt>
      <trkpt lat="47.83104" lon="5.30878">
        <ele>454</ele>
        <time>2024-05-14T12:36:01.913Z</time>
      </trkpt>
      <trkpt lat="47.83099" lon="5.30881">
        <ele>454</ele>
        <time>2024-05-14T12:36:06.334Z</time>
      </trkpt>
      <trkpt lat="47.83095" lon="5.30886">
        <ele>455</ele>
        <time>2024-05-14T12:36:10.754Z</time>
      </trkpt>
      <trkpt lat="47.8309" lon="5.30891">
        <ele>455</ele>
        <time>2024-05-14T12:36:14.969Z</time>
      </trkpt>
      <trkpt lat="47.83086" lon="5.30897">
        <ele>455</ele>
        <time>2024-05-14T12:36:19.747Z</time>
      </trkpt>
      <trkpt lat="47.83081" lon="5.30903">
        <ele>455</ele>
        <time>2024-05-14T12:36:24.090Z</time>
      </trkpt>
      <trkpt lat="47.83076" lon="5.30907">
        <ele>455</ele>
        <time>2024-05-14T12:36:28.969Z</time>
      </trkpt>
      <trkpt lat="47.83072" lon="5.30912">
        <ele>455</ele>
        <time>2024-05-14T12:36:33.238Z</time>
      </trkpt>
      <trkpt lat="47.83068" lon="5.30918">
        <ele>457</ele>
        <time>2024-05-14T12:36:37.970Z</time>
      </trkpt>
      <trkpt lat="47.83064" lon="5.30922">
        <ele>457</ele>
        <time>2024-05-14T12:36:42.130Z</time>
      </trkpt>
      <trkpt lat="47.8306" lon="5.30926">
        <ele>457</ele>
        <time>2024-05-14T12:36:46.474Z</time>
      </trkpt>
      <trkpt lat="47.83056" lon="5.30932">
        <ele>455</ele>
        <time>2024-05-14T12:36:50.774Z</time>
      </trkpt>
      <trkpt lat="47.83051" lon="5.30937">
        <ele>455</ele>
        <time>2024-05-14T12:36:54.970Z</time>
      </trkpt>
      <trkpt lat="47.83047" lon="5.30944">
        <ele>455</ele>
        <time>2024-05-14T12:36:59.554Z</time>
      </trkpt>
      <trkpt lat="47.83042" lon="5.3095">
        <ele>455</ele>
        <time>2024-05-14T12:37:03.874Z</time>
      </trkpt>
      <trkpt lat="47.83038" lon="5.30955">
        <ele>458</ele>
        <time>2024-05-14T12:37:08.277Z</time>
      </trkpt>
      <trkpt lat="47.83034" lon="5.30961">
        <ele>454</ele>
        <time>2024-05-14T12:37:12.567Z</time>
      </trkpt>
      <trkpt lat="47.8303" lon="5.30967">
        <ele>454</ele>
        <time>2024-05-14T12:37:16.954Z</time>
      </trkpt>
      <trkpt lat="47.83026" lon="5.30973">
        <ele>454</ele>
        <time>2024-05-14T12:37:20.969Z</time>
      </trkpt>
      <trkpt lat="47.83022" lon="5.30978">
        <ele>454</ele>
        <time>2024-05-14T12:37:25.768Z</time>
      </trkpt>
      <trkpt lat="47.83018" lon="5.30983">
        <ele>454</ele>
        <time>2024-05-14T12:37:29.970Z</time>
      </trkpt>
      <trkpt lat="47.83013" lon="5.30989">
        <ele>453</ele>
        <time>2024-05-14T12:37:34.393Z</time>
      </trkpt>
      <trkpt lat="47.83009" lon="5.30995">
        <ele>453</ele>
        <time>2024-05-14T12:37:38.575Z</time>
      </trkpt>
      <trkpt lat="47.83004" lon="5.31002">
        <ele>453</ele>
        <time>2024-05-14T12:37:42.808Z</time>
      </trkpt>
      <trkpt lat="47.83001" lon="5.31008">
        <ele>453</ele>
        <time>2024-05-14T12:37:46.969Z</time>
      </trkpt>
      <trkpt lat="47.82997" lon="5.31015">
        <ele>453</ele>
        <time>2024-05-14T12:37:51.408Z</time>
      </trkpt>
      <trkpt lat="47.82993" lon="5.31023">
        <ele>453</ele>
        <time>2024-05-14T12:37:55.769Z</time>
      </trkpt>
      <trkpt lat="47.8299" lon="5.3103">
        <ele>453</ele>
        <time>2024-05-14T12:37:59.970Z</time>
      </trkpt>
      <trkpt lat="47.82987" lon="5.31038">
        <ele>453</ele>
        <time>2024-05-14T12:38:04.534Z</time>
      </trkpt>
      <trkpt lat="47.82985" lon="5.31046">
        <ele>455</ele>
        <time>2024-05-14T12:38:08.867Z</time>
      </trkpt>
      <trkpt lat="47.82983" lon="5.31056">
        <ele>455</ele>
        <time>2024-05-14T12:38:12.972Z</time>
      </trkpt>
      <trkpt lat="47.82982" lon="5.31064">
        <ele>455</ele>
        <time>2024-05-14T12:38:17.588Z</time>
      </trkpt>
      <trkpt lat="47.8298" lon="5.31074">
        <ele>455</ele>
        <time>2024-05-14T12:38:21.969Z</time>
      </trkpt>
      <trkpt lat="47.82979" lon="5.31082">
        <ele>455</ele>
        <time>2024-05-14T12:38:26.649Z</time>
      </trkpt>
      <trkpt lat="47.82978" lon="5.31091">
        <ele>455</ele>
        <time>2024-05-14T12:38:31.053Z</time>
      </trkpt>
      <trkpt lat="47.82978" lon="5.311">
        <ele>453</ele>
        <time>2024-05-14T12:38:35.934Z</time>
      </trkpt>
      <trkpt lat="47.82977" lon="5.31109">
        <ele>453</ele>
        <time>2024-05-14T12:38:40.250Z</time>
      </trkpt>
      <trkpt lat="47.82976" lon="5.31118">
        <ele>453</ele>
        <time>2024-05-14T12:38:44.654Z</time>
      </trkpt>
      <trkpt lat="47.82976" lon="5.31128">
        <ele>451</ele>
        <time>2024-05-14T12:38:48.969Z</time>
      </trkpt>
      <trkpt lat="47.82975" lon="5.31138">
        <ele>451</ele>
        <time>2024-05-14T12:38:53.494Z</time>
      </trkpt>
      <trkpt lat="47.82974" lon="5.31146">
        <ele>451</ele>
        <time>2024-05-14T12:38:57.821Z</time>
      </trkpt>
      <trkpt lat="47.82974" lon="5.31156">
        <ele>450</ele>
        <time>2024-05-14T12:39:01.970Z</time>
      </trkpt>
      <trkpt lat="47.82974" lon="5.31164">
        <ele>450</ele>
        <time>2024-05-14T12:39:06.309Z</time>
      </trkpt>
      <trkpt lat="47.82974" lon="5.31173">
        <ele>450</ele>
        <time>2024-05-14T12:39:10.474Z</time>
      </trkpt>
      <trkpt lat="47.82974" lon="5.31182">
        <ele>450</ele>
        <time>2024-05-14T12:39:14.749Z</time>
      </trkpt>
      <trkpt lat="47.82974" lon="5.31192">
        <ele>450</ele>
        <time>2024-05-14T12:39:18.911Z</time>
      </trkpt>
      <trkpt lat="47.82973" lon="5.312">
        <ele>450</ele>
        <time>2024-05-14T12:39:22.969Z</time>
      </trkpt>
      <trkpt lat="47.82973" lon="5.31209">
        <ele>451</ele>
        <time>2024-05-14T12:39:27.692Z</time>
      </trkpt>
      <trkpt lat="47.82972" lon="5.31217">
        <ele>451</ele>
        <time>2024-05-14T12:39:31.970Z</time>
      </trkpt>
      <trkpt lat="47.82972" lon="5.31226">
        <ele>451</ele>
        <time>2024-05-14T12:39:36.455Z</time>
      </trkpt>
      <trkpt lat="47.82971" lon="5.31234">
        <ele>451</ele>
        <time>2024-05-14T12:39:40.655Z</time>
      </trkpt>
      <trkpt lat="47.82971" lon="5.31244">
        <ele>451</ele>
        <time>2024-05-14T12:39:44.969Z</time>
      </trkpt>
      <trkpt lat="47.8297" lon="5.31252">
        <ele>451</ele>
        <time>2024-05-14T12:39:49.689Z</time>
      </trkpt>
      <trkpt lat="47.8297" lon="5.31261">
        <ele>451</ele>
        <time>2024-05-14T12:39:53.970Z</time>
      </trkpt>
      <trkpt lat="47.8297" lon="5.31269">
        <ele>450</ele>
        <time>2024-05-14T12:39:58.314Z</time>
      </trkpt>
      <trkpt lat="47.8297" lon="5.31278">
        <ele>450</ele>
        <time>2024-05-14T12:40:02.514Z</time>
      </trkpt>
      <trkpt lat="47.82969" lon="5.31286">
        <ele>450</ele>
        <time>2024-05-14T12:40:06.668Z</time>
      </trkpt>
      <trkpt lat="47.82968" lon="5.31296">
        <ele>449</ele>
        <time>2024-05-14T12:40:10.969Z</time>
      </trkpt>
      <trkpt lat="47.82968" lon="5.31304">
        <ele>449</ele>
        <time>2024-05-14T12:40:14.969Z</time>
      </trkpt>
      <trkpt lat="47.82967" lon="5.31313">
        <ele>449</ele>
        <time>2024-05-14T12:40:18.969Z</time>
      </trkpt>
      <trkpt lat="47.82967" lon="5.31322">
        <ele>448</ele>
        <time>2024-05-14T12:40:23.289Z</time>
      </trkpt>
      <trkpt lat="47.82964" lon="5.31331">
        <ele>448</ele>
        <time>2024-05-14T12:40:27.454Z</time>
      </trkpt>
      <trkpt lat="47.82963" lon="5.3134">
        <ele>448</ele>
        <time>2024-05-14T12:40:31.591Z</time>
      </trkpt>
      <trkpt lat="47.82961" lon="5.31348">
        <ele>447</ele>
        <time>2024-05-14T12:40:35.610Z</time>
      </trkpt>
      <trkpt lat="47.82957" lon="5.31356">
        <ele>448</ele>
        <time>2024-05-14T12:40:40.610Z</time>
      </trkpt>
      <trkpt lat="47.82954" lon="5.31363">
        <ele>448</ele>
        <time>2024-05-14T12:40:44.834Z</time>
      </trkpt>
      <trkpt lat="47.8295" lon="5.3137">
        <ele>448</ele>
        <time>2024-05-14T12:40:48.969Z</time>
      </trkpt>
      <trkpt lat="47.82948" lon="5.31378">
        <ele>447</ele>
        <time>2024-05-14T12:40:53.374Z</time>
      </trkpt>
      <trkpt lat="47.82944" lon="5.31384">
        <ele>447</ele>
        <time>2024-05-14T12:40:57.974Z</time>
      </trkpt>
      <trkpt lat="47.8294" lon="5.31392">
        <ele>447</ele>
        <time>2024-05-14T12:41:01.970Z</time>
      </trkpt>
      <trkpt lat="47.82935" lon="5.31397">
        <ele>447</ele>
        <time>2024-05-14T12:41:06.429Z</time>
      </trkpt>
      <trkpt lat="47.82931" lon="5.31403">
        <ele>447</ele>
        <time>2024-05-14T12:41:10.874Z</time>
      </trkpt>
      <trkpt lat="47.82927" lon="5.31409">
        <ele>445</ele>
        <time>2024-05-14T12:41:15.234Z</time>
      </trkpt>
      <trkpt lat="47.82922" lon="5.31414">
        <ele>445</ele>
        <time>2024-05-14T12:41:19.594Z</time>
      </trkpt>
      <trkpt lat="47.82917" lon="5.3142">
        <ele>445</ele>
        <time>2024-05-14T12:41:23.912Z</time>
      </trkpt>
      <trkpt lat="47.82912" lon="5.31426">
        <ele>445</ele>
        <time>2024-05-14T12:41:28.229Z</time>
      </trkpt>
      <trkpt lat="47.82908" lon="5.31431">
        <ele>444</ele>
        <time>2024-05-14T12:41:32.589Z</time>
      </trkpt>
      <trkpt lat="47.82903" lon="5.31437">
        <ele>444</ele>
        <time>2024-05-14T12:41:36.889Z</time>
      </trkpt>
      <trkpt lat="47.82898" lon="5.31444">
        <ele>442</ele>
        <time>2024-05-14T12:41:40.969Z</time>
      </trkpt>
      <trkpt lat="47.82893" lon="5.31448">
        <ele>442</ele>
        <time>2024-05-14T12:41:45.968Z</time>
      </trkpt>
      <trkpt lat="47.82888" lon="5.31453">
        <ele>442</ele>
        <time>2024-05-14T12:41:50.969Z</time>
      </trkpt>
      <trkpt lat="47.82883" lon="5.31458">
        <ele>442</ele>
        <time>2024-05-14T12:41:55.089Z</time>
      </trkpt>
      <trkpt lat="47.82877" lon="5.31463">
        <ele>442</ele>
        <time>2024-05-14T12:41:59.969Z</time>
      </trkpt>
      <trkpt lat="47.82873" lon="5.31469">
        <ele>441</ele>
        <time>2024-05-14T12:42:04.535Z</time>
      </trkpt>
      <trkpt lat="47.82868" lon="5.31474">
        <ele>441</ele>
        <time>2024-05-14T12:42:08.898Z</time>
      </trkpt>
      <trkpt lat="47.82864" lon="5.31478">
        <ele>441</ele>
        <time>2024-05-14T12:42:12.968Z</time>
      </trkpt>
      <trkpt lat="47.82859" lon="5.31483">
        <ele>441</ele>
        <time>2024-05-14T12:42:17.630Z</time>
      </trkpt>
      <trkpt lat="47.82854" lon="5.31488">
        <ele>442</ele>
        <time>2024-05-14T12:42:21.913Z</time>
      </trkpt>
      <trkpt lat="47.8285" lon="5.31494">
        <ele>442</ele>
        <time>2024-05-14T12:42:26.230Z</time>
      </trkpt>
      <trkpt lat="47.82846" lon="5.315">
        <ele>443</ele>
        <time>2024-05-14T12:42:30.634Z</time>
      </trkpt>
      <trkpt lat="47.8284" lon="5.31505">
        <ele>443</ele>
        <time>2024-05-14T12:42:34.951Z</time>
      </trkpt>
      <trkpt lat="47.82836" lon="5.31511">
        <ele>443</ele>
        <time>2024-05-14T12:42:39.295Z</time>
      </trkpt>
      <trkpt lat="47.82831" lon="5.31517">
        <ele>444</ele>
        <time>2024-05-14T12:42:43.593Z</time>
      </trkpt>
      <trkpt lat="47.82827" lon="5.31524">
        <ele>444</ele>
        <time>2024-05-14T12:42:47.910Z</time>
      </trkpt>
      <trkpt lat="47.82822" lon="5.3153">
        <ele>444</ele>
        <time>2024-05-14T12:42:52.349Z</time>
      </trkpt>
      <trkpt lat="47.82824" lon="5.31538">
        <ele>444</ele>
        <time>2024-05-14T12:42:56.969Z</time>
      </trkpt>
      <trkpt lat="47.82827" lon="5.31546">
        <ele>444</ele>
        <time>2024-05-14T12:43:01.411Z</time>
      </trkpt>
      <trkpt lat="47.82831" lon="5.31553">
        <ele>444</ele>
        <time>2024-05-14T12:43:05.470Z</time>
      </trkpt>
      <trkpt lat="47.82836" lon="5.31559">
        <ele>444</ele>
        <time>2024-05-14T12:43:09.890Z</time>
      </trkpt>
      <trkpt lat="47.8284" lon="5.31566">
        <ele>444</ele>
        <time>2024-05-14T12:43:14.233Z</time>
      </trkpt>
      <trkpt lat="47.82844" lon="5.31574">
        <ele>444</ele>
        <time>2024-05-14T12:43:18.534Z</time>
      </trkpt>
      <trkpt lat="47.82849" lon="5.31581">
        <ele>443</ele>
        <time>2024-05-14T12:43:22.808Z</time>
      </trkpt>
      <trkpt lat="47.82854" lon="5.31586">
        <ele>443</ele>
        <time>2024-05-14T12:43:26.913Z</time>
      </trkpt>
      <trkpt lat="47.82859" lon="5.31589">
        <ele>443</ele>
        <time>2024-05-14T12:43:31.333Z</time>
      </trkpt>
      <trkpt lat="47.82863" lon="5.31591">
        <ele>443</ele>
        <time>2024-05-14T12:43:35.454Z</time>
      </trkpt>
      <trkpt lat="47.82864" lon="5.31591">
        <ele>443</ele>
        <time>2024-05-14T12:43:39.715Z</time>
      </trkpt>
      <trkpt lat="47.82864" lon="5.31591">
        <ele>443</ele>
        <time>2024-05-14T12:43:43.968Z</time>
      </trkpt>
      <trkpt lat="47.82871" lon="5.31595">
        <ele>443</ele>
        <time>2024-05-14T12:43:48.553Z</time>
      </trkpt>
      <trkpt lat="47.82879" lon="5.31602">
        <ele>442</ele>
        <time>2024-05-14T12:44:06.274Z</time>
      </trkpt>
      <trkpt lat="47.8288" lon="5.31605">
        <ele>442</ele>
        <time>2024-05-14T12:44:10.311Z</time>
      </trkpt>
      <trkpt lat="47.82885" lon="5.31608">
        <ele>442</ele>
        <time>2024-05-14T12:44:14.774Z</time>
      </trkpt>
      <trkpt lat="47.82888" lon="5.31613">
        <ele>442</ele>
        <time>2024-05-14T12:44:18.969Z</time>
      </trkpt>
      <trkpt lat="47.82893" lon="5.31618">
        <ele>442</ele>
        <time>2024-05-14T12:44:23.674Z</time>
      </trkpt>
      <trkpt lat="47.82898" lon="5.31622">
        <ele>442</ele>
        <time>2024-05-14T12:44:28.333Z</time>
      </trkpt>
      <trkpt lat="47.82903" lon="5.31624">
        <ele>442</ele>
        <time>2024-05-14T12:44:32.856Z</time>
      </trkpt>
      <trkpt lat="47.82908" lon="5.3163">
        <ele>440</ele>
        <time>2024-05-14T12:44:36.993Z</time>
      </trkpt>
      <trkpt lat="47.82912" lon="5.31636">
        <ele>440</ele>
        <time>2024-05-14T12:44:41.968Z</time>
      </trkpt>
      <trkpt lat="47.82916" lon="5.31641">
        <ele>440</ele>
        <time>2024-05-14T12:44:46.968Z</time>
      </trkpt>
      <trkpt lat="47.8292" lon="5.31644">
        <ele>440</ele>
        <time>2024-05-14T12:44:51.969Z</time>
      </trkpt>
      <trkpt lat="47.82923" lon="5.31651">
        <ele>440</ele>
        <time>2024-05-14T12:44:56.968Z</time>
      </trkpt>
      <trkpt lat="47.82926" lon="5.31658">
        <ele>437</ele>
        <time>2024-05-14T12:45:01.968Z</time>
      </trkpt>
      <trkpt lat="47.8293" lon="5.31663">
        <ele>437</ele>
        <time>2024-05-14T12:45:06.753Z</time>
      </trkpt>
      <trkpt lat="47.82933" lon="5.31667">
        <ele>437</ele>
        <time>2024-05-14T12:45:14.968Z</time>
      </trkpt>
      <trkpt lat="47.82939" lon="5.31669">
        <ele>437</ele>
        <time>2024-05-14T12:45:19.969Z</time>
      </trkpt>
      <trkpt lat="47.82944" lon="5.31669">
        <ele>437</ele>
        <time>2024-05-14T12:45:24.969Z</time>
      </trkpt>
      <trkpt lat="47.8295" lon="5.3167">
        <ele>437</ele>
        <time>2024-05-14T12:45:29.911Z</time>
      </trkpt>
      <trkpt lat="47.82955" lon="5.31671">
        <ele>437</ele>
        <time>2024-05-14T12:45:33.968Z</time>
      </trkpt>
      <trkpt lat="47.8296" lon="5.31673">
        <ele>439</ele>
        <time>2024-05-14T12:45:56.968Z</time>
      </trkpt>
      <trkpt lat="47.82966" lon="5.31674">
        <ele>439</ele>
        <time>2024-05-14T12:46:01.414Z</time>
      </trkpt>
      <trkpt lat="47.8297" lon="5.31679">
        <ele>439</ele>
        <time>2024-05-14T12:46:05.968Z</time>
      </trkpt>
      <trkpt lat="47.82976" lon="5.31681">
        <ele>435</ele>
        <time>2024-05-14T12:46:10.968Z</time>
      </trkpt>
      <trkpt lat="47.82981" lon="5.31683">
        <ele>435</ele>
        <time>2024-05-14T12:46:14.969Z</time>
      </trkpt>
      <trkpt lat="47.82986" lon="5.31684">
        <ele>435</ele>
        <time>2024-05-14T12:47:13.233Z</time>
      </trkpt>
      <trkpt lat="47.82992" lon="5.31687">
        <ele>435</ele>
        <time>2024-05-14T12:47:17.874Z</time>
      </trkpt>
      <trkpt lat="47.83002" lon="5.31693">
        <ele>435</ele>
        <time>2024-05-14T12:47:21.969Z</time>
      </trkpt>
      <trkpt lat="47.83005" lon="5.31694">
        <ele>435</ele>
        <time>2024-05-14T12:47:26.374Z</time>
      </trkpt>
      <trkpt lat="47.83011" lon="5.31695">
        <ele>435</ele>
        <time>2024-05-14T12:47:30.510Z</time>
      </trkpt>
      <trkpt lat="47.83016" lon="5.31697">
        <ele>436</ele>
        <time>2024-05-14T12:47:34.948Z</time>
      </trkpt>
      <trkpt lat="47.83022" lon="5.31702">
        <ele>436</ele>
        <time>2024-05-14T12:47:39.469Z</time>
      </trkpt>
      <trkpt lat="47.83027" lon="5.31707">
        <ele>436</ele>
        <time>2024-05-14T12:47:43.830Z</time>
      </trkpt>
      <trkpt lat="47.83032" lon="5.31712">
        <ele>431</ele>
        <time>2024-05-14T12:47:47.968Z</time>
      </trkpt>
      <trkpt lat="47.83037" lon="5.31715">
        <ele>431</ele>
        <time>2024-05-14T12:47:52.849Z</time>
      </trkpt>
      <trkpt lat="47.83041" lon="5.31717">
        <ele>431</ele>
        <time>2024-05-14T12:47:56.969Z</time>
      </trkpt>
      <trkpt lat="47.83039" lon="5.31716">
        <ele>431</ele>
        <time>2024-05-14T12:48:01.968Z</time>
      </trkpt>
      <trkpt lat="47.83039" lon="5.31716">
        <ele>431</ele>
        <time>2024-05-14T12:48:06.073Z</time>
      </trkpt>
      <trkpt lat="47.83041" lon="5.31714">
        <ele>431</ele>
        <time>2024-05-14T12:48:10.630Z</time>
      </trkpt>
      <trkpt lat="47.83041" lon="5.31719">
        <ele>431</ele>
        <time>2024-05-14T12:48:14.913Z</time>
      </trkpt>
      <trkpt lat="47.83045" lon="5.31726">
        <ele>435</ele>
        <time>2024-05-14T12:48:19.530Z</time>
      </trkpt>
      <trkpt lat="47.83049" lon="5.31738">
        <ele>431</ele>
        <time>2024-05-14T12:48:23.969Z</time>
      </trkpt>
      <trkpt lat="47.83049" lon="5.31739">
        <ele>431</ele>
        <time>2024-05-14T12:48:28.029Z</time>
      </trkpt>
      <trkpt lat="47.83049" lon="5.31739">
        <ele>431</ele>
        <time>2024-05-14T12:48:32.534Z</time>
      </trkpt>
      <trkpt lat="47.83053" lon="5.31744">
        <ele>431</ele>
        <time>2024-05-14T12:48:36.734Z</time>
      </trkpt>
      <trkpt lat="47.83057" lon="5.3175">
        <ele>431</ele>
        <time>2024-05-14T12:48:41.348Z</time>
      </trkpt>
      <trkpt lat="47.83062" lon="5.31764">
        <ele>426</ele>
        <time>2024-05-14T12:48:45.973Z</time>
      </trkpt>
      <trkpt lat="47.83062" lon="5.31765">
        <ele>426</ele>
        <time>2024-05-14T12:48:50.572Z</time>
      </trkpt>
      <trkpt lat="47.83062" lon="5.31768">
        <ele>426</ele>
        <time>2024-05-14T12:48:54.968Z</time>
      </trkpt>
      <trkpt lat="47.83062" lon="5.31769">
        <ele>426</ele>
        <time>2024-05-14T12:48:59.633Z</time>
      </trkpt>
      <trkpt lat="47.83062" lon="5.31769">
        <ele>426</ele>
        <time>2024-05-14T12:49:03.968Z</time>
      </trkpt>
      <trkpt lat="47.83063" lon="5.3177">
        <ele>426</ele>
        <time>2024-05-14T12:49:08.566Z</time>
      </trkpt>
      <trkpt lat="47.83059" lon="5.31762">
        <ele>431</ele>
        <time>2024-05-14T12:49:12.968Z</time>
      </trkpt>
      <trkpt lat="47.83057" lon="5.31752">
        <ele>431</ele>
        <time>2024-05-14T12:49:17.150Z</time>
      </trkpt>
      <trkpt lat="47.83056" lon="5.31744">
        <ele>431</ele>
        <time>2024-05-14T12:49:21.588Z</time>
      </trkpt>
      <trkpt lat="47.83055" lon="5.31739">
        <ele>431</ele>
        <time>2024-05-14T12:49:25.693Z</time>
      </trkpt>
      <trkpt lat="47.83053" lon="5.31732">
        <ele>435</ele>
        <time>2024-05-14T12:49:30.335Z</time>
      </trkpt>
      <trkpt lat="47.83052" lon="5.31728">
        <ele>435</ele>
        <time>2024-05-14T12:49:34.934Z</time>
      </trkpt>
      <trkpt lat="47.8305" lon="5.31724">
        <ele>435</ele>
        <time>2024-05-14T12:49:39.088Z</time>
      </trkpt>
      <trkpt lat="47.83048" lon="5.31719">
        <ele>435</ele>
        <time>2024-05-14T12:49:43.269Z</time>
      </trkpt>
      <trkpt lat="47.83044" lon="5.31715">
        <ele>435</ele>
        <time>2024-05-14T12:49:47.288Z</time>
      </trkpt>
      <trkpt lat="47.83041" lon="5.31711">
        <ele>431</ele>
        <time>2024-05-14T12:49:51.854Z</time>
      </trkpt>
      <trkpt lat="47.83035" lon="5.31706">
        <ele>436</ele>
        <time>2024-05-14T12:49:55.968Z</time>
      </trkpt>
      <trkpt lat="47.83031" lon="5.31703">
        <ele>436</ele>
        <time>2024-05-14T12:50:00.968Z</time>
      </trkpt>
      <trkpt lat="47.83025" lon="5.31699">
        <ele>436</ele>
        <time>2024-05-14T12:50:05.967Z</time>
      </trkpt>
      <trkpt lat="47.8302" lon="5.31695">
        <ele>436</ele>
        <time>2024-05-14T12:50:10.967Z</time>
      </trkpt>
      <trkpt lat="47.83013" lon="5.31693">
        <ele>435</ele>
        <time>2024-05-14T12:51:10.968Z</time>
      </trkpt>
      <trkpt lat="47.83006" lon="5.31691">
        <ele>435</ele>
        <time>2024-05-14T12:51:14.967Z</time>
      </trkpt>
      <trkpt lat="47.83001" lon="5.31687">
        <ele>435</ele>
        <time>2024-05-14T12:51:19.354Z</time>
      </trkpt>
      <trkpt lat="47.82995" lon="5.31683">
        <ele>435</ele>
        <time>2024-05-14T12:51:23.909Z</time>
      </trkpt>
      <trkpt lat="47.82989" lon="5.3168">
        <ele>440</ele>
        <time>2024-05-14T12:51:27.968Z</time>
      </trkpt>
      <trkpt lat="47.82983" lon="5.31677">
        <ele>439</ele>
        <time>2024-05-14T12:51:31.968Z</time>
      </trkpt>
      <trkpt lat="47.82978" lon="5.31674">
        <ele>439</ele>
        <time>2024-05-14T12:51:36.190Z</time>
      </trkpt>
      <trkpt lat="47.82972" lon="5.31671">
        <ele>439</ele>
        <time>2024-05-14T12:51:40.326Z</time>
      </trkpt>
      <trkpt lat="47.82966" lon="5.31669">
        <ele>439</ele>
        <time>2024-05-14T12:51:44.967Z</time>
      </trkpt>
      <trkpt lat="47.82959" lon="5.31666">
        <ele>439</ele>
        <time>2024-05-14T12:51:49.414Z</time>
      </trkpt>
      <trkpt lat="47.82954" lon="5.31665">
        <ele>437</ele>
        <time>2024-05-14T12:51:53.527Z</time>
      </trkpt>
      <trkpt lat="47.82948" lon="5.31664">
        <ele>437</ele>
        <time>2024-05-14T12:51:57.801Z</time>
      </trkpt>
      <trkpt lat="47.82942" lon="5.31662">
        <ele>437</ele>
        <time>2024-05-14T12:52:01.967Z</time>
      </trkpt>
      <trkpt lat="47.82937" lon="5.31658">
        <ele>437</ele>
        <time>2024-05-14T12:52:06.214Z</time>
      </trkpt>
      <trkpt lat="47.82932" lon="5.31653">
        <ele>437</ele>
        <time>2024-05-14T12:52:10.634Z</time>
      </trkpt>
      <trkpt lat="47.82927" lon="5.31648">
        <ele>440</ele>
        <time>2024-05-14T12:52:14.670Z</time>
      </trkpt>
      <trkpt lat="47.82924" lon="5.31641">
        <ele>440</ele>
        <time>2024-05-14T12:52:18.967Z</time>
      </trkpt>
      <trkpt lat="47.82918" lon="5.31635">
        <ele>440</ele>
        <time>2024-05-14T12:52:23.528Z</time>
      </trkpt>
      <trkpt lat="47.82914" lon="5.31631">
        <ele>440</ele>
        <time>2024-05-14T12:52:27.614Z</time>
      </trkpt>
      <trkpt lat="47.8291" lon="5.31626">
        <ele>440</ele>
        <time>2024-05-14T12:52:31.710Z</time>
      </trkpt>
      <trkpt lat="47.82906" lon="5.31622">
        <ele>442</ele>
        <time>2024-05-14T12:52:35.848Z</time>
      </trkpt>
      <trkpt lat="47.829" lon="5.31618">
        <ele>442</ele>
        <time>2024-05-14T12:52:40.491Z</time>
      </trkpt>
      <trkpt lat="47.82895" lon="5.31616">
        <ele>442</ele>
        <time>2024-05-14T12:52:44.789Z</time>
      </trkpt>
      <trkpt lat="47.82891" lon="5.3162">
        <ele>442</ele>
        <time>2024-05-14T12:52:53.618Z</time>
      </trkpt>
      <trkpt lat="47.82891" lon="5.31621">
        <ele>442</ele>
        <time>2024-05-14T12:52:57.791Z</time>
      </trkpt>
      <trkpt lat="47.82888" lon="5.31624">
        <ele>442</ele>
        <time>2024-05-14T12:53:02.653Z</time>
      </trkpt>
      <trkpt lat="47.82888" lon="5.31635">
        <ele>441</ele>
        <time>2024-05-14T12:53:06.968Z</time>
      </trkpt>
      <trkpt lat="47.82888" lon="5.31636">
        <ele>441</ele>
        <time>2024-05-14T12:53:11.530Z</time>
      </trkpt>
      <trkpt lat="47.8289" lon="5.31641">
        <ele>441</ele>
        <time>2024-05-14T12:53:15.967Z</time>
      </trkpt>
      <trkpt lat="47.82892" lon="5.31647">
        <ele>441</ele>
        <time>2024-05-14T12:53:20.250Z</time>
      </trkpt>
      <trkpt lat="47.82895" lon="5.31651">
        <ele>441</ele>
        <time>2024-05-14T12:53:24.537Z</time>
      </trkpt>
      <trkpt lat="47.82897" lon="5.31657">
        <ele>440</ele>
        <time>2024-05-14T12:53:28.808Z</time>
      </trkpt>
      <trkpt lat="47.82899" lon="5.31663">
        <ele>440</ele>
        <time>2024-05-14T12:53:32.967Z</time>
      </trkpt>
      <trkpt lat="47.82901" lon="5.31669">
        <ele>440</ele>
        <time>2024-05-14T12:53:37.967Z</time>
      </trkpt>
      <trkpt lat="47.82904" lon="5.31675">
        <ele>437</ele>
        <time>2024-05-14T12:53:38.967Z</time>
      </trkpt>
      <trkpt lat="47.82906" lon="5.3168">
        <ele>437</ele>
        <time>2024-05-14T12:53:47.967Z</time>
      </trkpt>
      <trkpt lat="47.82908" lon="5.31685">
        <ele>435</ele>
        <time>2024-05-14T12:53:52.967Z</time>
      </trkpt>
      <trkpt lat="47.82911" lon="5.31689">
        <ele>435</ele>
        <time>2024-05-14T12:53:57.967Z</time>
      </trkpt>
      <trkpt lat="47.82914" lon="5.31693">
        <ele>435</ele>
        <time>2024-05-14T12:54:02.967Z</time>
      </trkpt>
      <trkpt lat="47.82917" lon="5.31699">
        <ele>435</ele>
        <time>2024-05-14T12:54:07.117Z</time>
      </trkpt>
      <trkpt lat="47.8292" lon="5.31705">
        <ele>435</ele>
        <time>2024-05-14T12:54:11.194Z</time>
      </trkpt>
      <trkpt lat="47.82923" lon="5.31711">
        <ele>434</ele>
        <time>2024-05-14T12:54:15.968Z</time>
      </trkpt>
      <trkpt lat="47.82926" lon="5.31717">
        <ele>434</ele>
        <time>2024-05-14T12:54:20.968Z</time>
      </trkpt>
      <trkpt lat="47.82928" lon="5.31724">
        <ele>434</ele>
        <time>2024-05-14T12:54:25.593Z</time>
      </trkpt>
      <trkpt lat="47.8293" lon="5.31731">
        <ele>434</ele>
        <time>2024-05-14T12:54:29.854Z</time>
      </trkpt>
      <trkpt lat="47.82931" lon="5.31739">
        <ele>423</ele>
        <time>2024-05-14T12:54:34.968Z</time>
      </trkpt>
      <trkpt lat="47.82932" lon="5.31748">
        <ele>423</ele>
        <time>2024-05-14T12:54:39.967Z</time>
      </trkpt>
      <trkpt lat="47.82931" lon="5.31757">
        <ele>423</ele>
        <time>2024-05-14T12:54:44.190Z</time>
      </trkpt>
      <trkpt lat="47.82933" lon="5.31764">
        <ele>419</ele>
        <time>2024-05-14T12:54:48.669Z</time>
      </trkpt>
      <trkpt lat="47.8293" lon="5.31785">
        <ele>428</ele>
        <time>2024-05-14T12:54:52.739Z</time>
      </trkpt>
      <trkpt lat="47.8293" lon="5.31793">
        <ele>425</ele>
        <time>2024-05-14T12:54:56.770Z</time>
      </trkpt>
      <trkpt lat="47.82928" lon="5.31802">
        <ele>425</ele>
        <time>2024-05-14T12:55:01.289Z</time>
      </trkpt>
      <trkpt lat="47.82927" lon="5.3181">
        <ele>425</ele>
        <time>2024-05-14T12:55:05.476Z</time>
      </trkpt>
      <trkpt lat="47.82925" lon="5.31818">
        <ele>425</ele>
        <time>2024-05-14T12:55:09.714Z</time>
      </trkpt>
      <trkpt lat="47.82922" lon="5.31826">
        <ele>422</ele>
        <time>2024-05-14T12:55:13.968Z</time>
      </trkpt>
      <trkpt lat="47.82922" lon="5.31835">
        <ele>422</ele>
        <time>2024-05-14T12:55:18.242Z</time>
      </trkpt>
      <trkpt lat="47.82922" lon="5.31843">
        <ele>422</ele>
        <time>2024-05-14T12:55:22.496Z</time>
      </trkpt>
      <trkpt lat="47.82921" lon="5.31851">
        <ele>421</ele>
        <time>2024-05-14T12:55:26.856Z</time>
      </trkpt>
      <trkpt lat="47.8292" lon="5.31859">
        <ele>421</ele>
        <time>2024-05-14T12:55:30.967Z</time>
      </trkpt>
      <trkpt lat="47.82922" lon="5.31865">
        <ele>421</ele>
        <time>2024-05-14T12:55:35.573Z</time>
      </trkpt>
      <trkpt lat="47.82923" lon="5.31867">
        <ele>421</ele>
        <time>2024-05-14T12:55:39.791Z</time>
      </trkpt>
      <trkpt lat="47.82922" lon="5.3187">
        <ele>421</ele>
        <time>2024-05-14T12:55:43.968Z</time>
      </trkpt>
      <trkpt lat="47.82921" lon="5.31873">
        <ele>421</ele>
        <time>2024-05-14T12:55:48.134Z</time>
      </trkpt>
      <trkpt lat="47.82922" lon="5.31885">
        <ele>422</ele>
        <time>2024-05-14T12:55:52.968Z</time>
      </trkpt>
      <trkpt lat="47.82924" lon="5.31897">
        <ele>422</ele>
        <time>2024-05-14T12:55:57.967Z</time>
      </trkpt>
      <trkpt lat="47.82925" lon="5.31906">
        <ele>422</ele>
        <time>2024-05-14T12:56:02.829Z</time>
      </trkpt>
      <trkpt lat="47.82926" lon="5.31916">
        <ele>422</ele>
        <time>2024-05-14T12:56:07.010Z</time>
      </trkpt>
      <trkpt lat="47.8293" lon="5.31925">
        <ele>422</ele>
        <time>2024-05-14T12:56:11.253Z</time>
      </trkpt>
      <trkpt lat="47.82933" lon="5.31933">
        <ele>422</ele>
        <time>2024-05-14T12:56:15.271Z</time>
      </trkpt>
      <trkpt lat="47.82937" lon="5.31942">
        <ele>422</ele>
        <time>2024-05-14T12:56:19.334Z</time>
      </trkpt>
      <trkpt lat="47.82938" lon="5.31949">
        <ele>422</ele>
        <time>2024-05-14T12:56:23.414Z</time>
      </trkpt>
      <trkpt lat="47.82942" lon="5.31955">
        <ele>422</ele>
        <time>2024-05-14T12:56:27.688Z</time>
      </trkpt>
      <trkpt lat="47.82942" lon="5.31955">
        <ele>422</ele>
        <time>2024-05-14T12:56:32.270Z</time>
      </trkpt>
      <trkpt lat="47.82943" lon="5.31958">
        <ele>422</ele>
        <time>2024-05-14T12:56:36.375Z</time>
      </trkpt>
      <trkpt lat="47.82946" lon="5.31967">
        <ele>426</ele>
        <time>2024-05-14T12:56:40.694Z</time>
      </trkpt>
      <trkpt lat="47.82951" lon="5.3197">
        <ele>426</ele>
        <time>2024-05-14T12:56:44.832Z</time>
      </trkpt>
      <trkpt lat="47.82957" lon="5.31971">
        <ele>426</ele>
        <time>2024-05-14T12:56:48.954Z</time>
      </trkpt>
      <trkpt lat="47.82962" lon="5.31973">
        <ele>426</ele>
        <time>2024-05-14T12:56:52.966Z</time>
      </trkpt>
      <trkpt lat="47.82966" lon="5.31976">
        <ele>426</ele>
        <time>2024-05-14T12:56:57.966Z</time>
      </trkpt>
      <trkpt lat="47.82971" lon="5.31976">
        <ele>426</ele>
        <time>2024-05-14T12:57:02.948Z</time>
      </trkpt>
      <trkpt lat="47.82976" lon="5.31977">
        <ele>426</ele>
        <time>2024-05-14T12:57:07.154Z</time>
      </trkpt>
      <trkpt lat="47.82982" lon="5.3198">
        <ele>426</ele>
        <time>2024-05-14T12:57:11.414Z</time>
      </trkpt>
      <trkpt lat="47.82988" lon="5.3198">
        <ele>425</ele>
        <time>2024-05-14T12:57:15.594Z</time>
      </trkpt>
      <trkpt lat="47.82993" lon="5.31985">
        <ele>425</ele>
        <time>2024-05-14T12:57:19.913Z</time>
      </trkpt>
      <trkpt lat="47.82996" lon="5.31989">
        <ele>432</ele>
        <time>2024-05-14T12:57:24.367Z</time>
      </trkpt>
      <trkpt lat="47.83001" lon="5.31994">
        <ele>432</ele>
        <time>2024-05-14T12:57:28.966Z</time>
      </trkpt>
      <trkpt lat="47.83006" lon="5.31996">
        <ele>432</ele>
        <time>2024-05-14T12:57:33.976Z</time>
      </trkpt>
      <trkpt lat="47.83009" lon="5.32002">
        <ele>432</ele>
        <time>2024-05-14T12:57:38.174Z</time>
      </trkpt>
      <trkpt lat="47.83012" lon="5.32009">
        <ele>432</ele>
        <time>2024-05-14T12:57:42.474Z</time>
      </trkpt>
      <trkpt lat="47.83015" lon="5.32017">
        <ele>433</ele>
        <time>2024-05-14T12:57:46.913Z</time>
      </trkpt>
      <trkpt lat="47.8302" lon="5.32024">
        <ele>433</ele>
        <time>2024-05-14T12:57:50.967Z</time>
      </trkpt>
      <trkpt lat="47.83024" lon="5.32031">
        <ele>433</ele>
        <time>2024-05-14T12:57:55.816Z</time>
      </trkpt>
      <trkpt lat="47.83027" lon="5.32036">
        <ele>433</ele>
        <time>2024-05-14T12:58:00.274Z</time>
      </trkpt>
      <trkpt lat="47.83031" lon="5.32041">
        <ele>433</ele>
        <time>2024-05-14T12:58:04.507Z</time>
      </trkpt>
      <trkpt lat="47.83034" lon="5.32046">
        <ele>437</ele>
        <time>2024-05-14T12:58:08.611Z</time>
      </trkpt>
      <trkpt lat="47.83037" lon="5.32051">
        <ele>437</ele>
        <time>2024-05-14T12:58:12.798Z</time>
      </trkpt>
      <trkpt lat="47.8304" lon="5.32057">
        <ele>437</ele>
        <time>2024-05-14T12:58:17.966Z</time>
      </trkpt>
      <trkpt lat="47.83044" lon="5.32062">
        <ele>431</ele>
        <time>2024-05-14T12:58:22.613Z</time>
      </trkpt>
      <trkpt lat="47.83048" lon="5.32068">
        <ele>431</ele>
        <time>2024-05-14T12:58:26.949Z</time>
      </trkpt>
      <trkpt lat="47.83051" lon="5.32073">
        <ele>434</ele>
        <time>2024-05-14T12:58:30.966Z</time>
      </trkpt>
      <trkpt lat="47.83054" lon="5.3208">
        <ele>434</ele>
        <time>2024-05-14T12:58:35.654Z</time>
      </trkpt>
      <trkpt lat="47.83055" lon="5.32087">
        <ele>434</ele>
        <time>2024-05-14T12:58:39.851Z</time>
      </trkpt>
      <trkpt lat="47.83055" lon="5.32095">
        <ele>434</ele>
        <time>2024-05-14T12:58:44.134Z</time>
      </trkpt>
      <trkpt lat="47.83054" lon="5.32103">
        <ele>437</ele>
        <time>2024-05-14T12:58:48.494Z</time>
      </trkpt>
      <trkpt lat="47.83053" lon="5.32112">
        <ele>437</ele>
        <time>2024-05-14T12:58:52.967Z</time>
      </trkpt>
      <trkpt lat="47.83053" lon="5.32121">
        <ele>437</ele>
        <time>2024-05-14T12:58:57.454Z</time>
      </trkpt>
      <trkpt lat="47.83054" lon="5.32127">
        <ele>440</ele>
        <time>2024-05-14T12:59:01.966Z</time>
      </trkpt>
      <trkpt lat="47.83055" lon="5.32133">
        <ele>440</ele>
        <time>2024-05-14T12:59:05.967Z</time>
      </trkpt>
      <trkpt lat="47.83057" lon="5.3214">
        <ele>440</ele>
        <time>2024-05-14T12:59:10.895Z</time>
      </trkpt>
      <trkpt lat="47.83059" lon="5.32146">
        <ele>440</ele>
        <time>2024-05-14T12:59:14.954Z</time>
      </trkpt>
      <trkpt lat="47.83061" lon="5.32152">
        <ele>440</ele>
        <time>2024-05-14T12:59:19.377Z</time>
      </trkpt>
      <trkpt lat="47.83062" lon="5.3216">
        <ele>442</ele>
        <time>2024-05-14T12:59:23.667Z</time>
      </trkpt>
      <trkpt lat="47.83066" lon="5.32167">
        <ele>442</ele>
        <time>2024-05-14T12:59:27.966Z</time>
      </trkpt>
      <trkpt lat="47.83071" lon="5.32171">
        <ele>438</ele>
        <time>2024-05-14T12:59:32.370Z</time>
      </trkpt>
      <trkpt lat="47.83076" lon="5.32175">
        <ele>438</ele>
        <time>2024-05-14T12:59:36.808Z</time>
      </trkpt>
      <trkpt lat="47.83081" lon="5.3218">
        <ele>438</ele>
        <time>2024-05-14T12:59:40.967Z</time>
      </trkpt>
      <trkpt lat="47.83085" lon="5.32184">
        <ele>441</ele>
        <time>2024-05-14T12:59:45.067Z</time>
      </trkpt>
      <trkpt lat="47.8309" lon="5.32188">
        <ele>441</ele>
        <time>2024-05-14T12:59:49.575Z</time>
      </trkpt>
      <trkpt lat="47.83095" lon="5.32192">
        <ele>441</ele>
        <time>2024-05-14T12:59:53.968Z</time>
      </trkpt>
      <trkpt lat="47.831" lon="5.32196">
        <ele>437</ele>
        <time>2024-05-14T12:59:58.575Z</time>
      </trkpt>
      <trkpt lat="47.83104" lon="5.322">
        <ele>437</ele>
        <time>2024-05-14T13:00:02.611Z</time>
      </trkpt>
      <trkpt lat="47.83109" lon="5.32204">
        <ele>437</ele>
        <time>2024-05-14T13:00:06.972Z</time>
      </trkpt>
      <trkpt lat="47.83112" lon="5.32208">
        <ele>437</ele>
        <time>2024-05-14T13:00:08.967Z</time>
      </trkpt>
      <trkpt lat="47.83116" lon="5.32212">
        <ele>441</ele>
        <time>2024-05-14T13:00:17.966Z</time>
      </trkpt>
      <trkpt lat="47.8312" lon="5.32215">
        <ele>441</ele>
        <time>2024-05-14T13:00:22.413Z</time>
      </trkpt>
      <trkpt lat="47.83123" lon="5.32219">
        <ele>441</ele>
        <time>2024-05-14T13:00:26.454Z</time>
      </trkpt>
      <trkpt lat="47.83126" lon="5.32226">
        <ele>439</ele>
        <time>2024-05-14T13:00:30.802Z</time>
      </trkpt>
      <trkpt lat="47.8313" lon="5.32231">
        <ele>439</ele>
        <time>2024-05-14T13:00:34.966Z</time>
      </trkpt>
      <trkpt lat="47.83134" lon="5.32232">
        <ele>439</ele>
        <time>2024-05-14T13:00:39.434Z</time>
      </trkpt>
      <trkpt lat="47.83134" lon="5.32225">
        <ele>439</ele>
        <time>2024-05-14T13:00:43.717Z</time>
      </trkpt>
      <trkpt lat="47.83131" lon="5.32219">
        <ele>439</ele>
        <time>2024-05-14T13:00:47.966Z</time>
      </trkpt>
      <trkpt lat="47.83131" lon="5.32211">
        <ele>439</ele>
        <time>2024-05-14T13:00:52.438Z</time>
      </trkpt>
      <trkpt lat="47.83133" lon="5.32204">
        <ele>434</ele>
        <time>2024-05-14T13:00:56.715Z</time>
      </trkpt>
      <trkpt lat="47.83138" lon="5.322">
        <ele>434</ele>
        <time>2024-05-14T13:01:00.972Z</time>
      </trkpt>
      <trkpt lat="47.83143" lon="5.32198">
        <ele>434</ele>
        <time>2024-05-14T13:01:04.966Z</time>
      </trkpt>
      <trkpt lat="47.83148" lon="5.32198">
        <ele>434</ele>
        <time>2024-05-14T13:01:09.141Z</time>
      </trkpt>
      <trkpt lat="47.83153" lon="5.32198">
        <ele>433</ele>
        <time>2024-05-14T13:01:13.687Z</time>
      </trkpt>
      <trkpt lat="47.83158" lon="5.32196">
        <ele>433</ele>
        <time>2024-05-14T13:01:17.967Z</time>
      </trkpt>
      <trkpt lat="47.83164" lon="5.32193">
        <ele>433</ele>
        <time>2024-05-14T13:01:22.038Z</time>
      </trkpt>
      <trkpt lat="47.83169" lon="5.32191">
        <ele>433</ele>
        <time>2024-05-14T13:01:26.791Z</time>
      </trkpt>
      <trkpt lat="47.83174" lon="5.32191">
        <ele>433</ele>
        <time>2024-05-14T13:01:30.967Z</time>
      </trkpt>
      <trkpt lat="47.83179" lon="5.32186">
        <ele>433</ele>
        <time>2024-05-14T13:01:35.580Z</time>
      </trkpt>
      <trkpt lat="47.83183" lon="5.32182">
        <ele>433</ele>
        <time>2024-05-14T13:01:39.678Z</time>
      </trkpt>
      <trkpt lat="47.83188" lon="5.32177">
        <ele>428</ele>
        <time>2024-05-14T13:01:43.966Z</time>
      </trkpt>
      <trkpt lat="47.83189" lon="5.32169">
        <ele>428</ele>
        <time>2024-05-14T13:01:48.096Z</time>
      </trkpt>
      <trkpt lat="47.83187" lon="5.32164">
        <ele>428</ele>
        <time>2024-05-14T13:01:52.931Z</time>
      </trkpt>
      <trkpt lat="47.83181" lon="5.32159">
        <ele>428</ele>
        <time>2024-05-14T13:01:56.967Z</time>
      </trkpt>
      <trkpt lat="47.83177" lon="5.32153">
        <ele>428</ele>
        <time>2024-05-14T13:02:01.400Z</time>
      </trkpt>
      <trkpt lat="47.83178" lon="5.32155">
        <ele>428</ele>
        <time>2024-05-14T13:02:05.652Z</time>
      </trkpt>
      <trkpt lat="47.83178" lon="5.32156">
        <ele>428</ele>
        <time>2024-05-14T13:02:09.878Z</time>
      </trkpt>
      <trkpt lat="47.83174" lon="5.32167">
        <ele>428</ele>
        <time>2024-05-14T13:02:13.966Z</time>
      </trkpt>
      <trkpt lat="47.83179" lon="5.32171">
        <ele>428</ele>
        <time>2024-05-14T13:02:18.715Z</time>
      </trkpt>
      <trkpt lat="47.83186" lon="5.3217">
        <ele>428</ele>
        <time>2024-05-14T13:02:23.614Z</time>
      </trkpt>
      <trkpt lat="47.83194" lon="5.32168">
        <ele>428</ele>
        <time>2024-05-14T13:02:27.854Z</time>
      </trkpt>
      <trkpt lat="47.83201" lon="5.32166">
        <ele>428</ele>
        <time>2024-05-14T13:02:32.308Z</time>
      </trkpt>
      <trkpt lat="47.83208" lon="5.32164">
        <ele>428</ele>
        <time>2024-05-14T13:02:36.634Z</time>
      </trkpt>
      <trkpt lat="47.83215" lon="5.32162">
        <ele>425</ele>
        <time>2024-05-14T13:02:40.967Z</time>
      </trkpt>
      <trkpt lat="47.83221" lon="5.32158">
        <ele>425</ele>
        <time>2024-05-14T13:02:45.255Z</time>
      </trkpt>
      <trkpt lat="47.83226" lon="5.32154">
        <ele>425</ele>
        <time>2024-05-14T13:02:49.368Z</time>
      </trkpt>
      <trkpt lat="47.83232" lon="5.32149">
        <ele>418</ele>
        <time>2024-05-14T13:02:53.590Z</time>
      </trkpt>
      <trkpt lat="47.83239" lon="5.32145">
        <ele>416</ele>
        <time>2024-05-14T13:02:57.774Z</time>
      </trkpt>
      <trkpt lat="47.83246" lon="5.32141">
        <ele>416</ele>
        <time>2024-05-14T13:03:01.971Z</time>
      </trkpt>
      <trkpt lat="47.83253" lon="5.32138">
        <ele>416</ele>
        <time>2024-05-14T13:03:05.967Z</time>
      </trkpt>
      <trkpt lat="47.83259" lon="5.32136">
        <ele>416</ele>
        <time>2024-05-14T13:03:10.735Z</time>
      </trkpt>
      <trkpt lat="47.83265" lon="5.32133">
        <ele>414</ele>
        <time>2024-05-14T13:03:14.967Z</time>
      </trkpt>
      <trkpt lat="47.83272" lon="5.32132">
        <ele>414</ele>
        <time>2024-05-14T13:03:19.191Z</time>
      </trkpt>
      <trkpt lat="47.83278" lon="5.3213">
        <ele>414</ele>
        <time>2024-05-14T13:03:23.434Z</time>
      </trkpt>
      <trkpt lat="47.83284" lon="5.32127">
        <ele>414</ele>
        <time>2024-05-14T13:03:27.452Z</time>
      </trkpt>
      <trkpt lat="47.8329" lon="5.32126">
        <ele>414</ele>
        <time>2024-05-14T13:03:31.735Z</time>
      </trkpt>
      <trkpt lat="47.83296" lon="5.32127">
        <ele>412</ele>
        <time>2024-05-14T13:03:35.966Z</time>
      </trkpt>
      <trkpt lat="47.83301" lon="5.32128">
        <ele>412</ele>
        <time>2024-05-14T13:03:40.654Z</time>
      </trkpt>
      <trkpt lat="47.83307" lon="5.32132">
        <ele>412</ele>
        <time>2024-05-14T13:03:44.770Z</time>
      </trkpt>
      <trkpt lat="47.83313" lon="5.32135">
        <ele>412</ele>
        <time>2024-05-14T13:03:49.668Z</time>
      </trkpt>
      <trkpt lat="47.83319" lon="5.32137">
        <ele>412</ele>
        <time>2024-05-14T13:03:53.874Z</time>
      </trkpt>
      <trkpt lat="47.83325" lon="5.32137">
        <ele>410</ele>
        <time>2024-05-14T13:03:57.965Z</time>
      </trkpt>
      <trkpt lat="47.83332" lon="5.3214">
        <ele>410</ele>
        <time>2024-05-14T13:04:02.510Z</time>
      </trkpt>
      <trkpt lat="47.83338" lon="5.32143">
        <ele>410</ele>
        <time>2024-05-14T13:04:06.888Z</time>
      </trkpt>
      <trkpt lat="47.83343" lon="5.32146">
        <ele>410</ele>
        <time>2024-05-14T13:04:11.632Z</time>
      </trkpt>
      <trkpt lat="47.8335" lon="5.32147">
        <ele>407</ele>
        <time>2024-05-14T13:04:16.274Z</time>
      </trkpt>
      <trkpt lat="47.83355" lon="5.32148">
        <ele>407</ele>
        <time>2024-05-14T13:04:20.634Z</time>
      </trkpt>
      <trkpt lat="47.83361" lon="5.32152">
        <ele>407</ele>
        <time>2024-05-14T13:04:24.965Z</time>
      </trkpt>
      <trkpt lat="47.83367" lon="5.32154">
        <ele>410</ele>
        <time>2024-05-14T13:04:29.449Z</time>
      </trkpt>
      <trkpt lat="47.83373" lon="5.32158">
        <ele>410</ele>
        <time>2024-05-14T13:04:33.820Z</time>
      </trkpt>
      <trkpt lat="47.83378" lon="5.32159">
        <ele>405</ele>
        <time>2024-05-14T13:04:37.966Z</time>
      </trkpt>
      <trkpt lat="47.83384" lon="5.32162">
        <ele>405</ele>
        <time>2024-05-14T13:04:42.576Z</time>
      </trkpt>
      <trkpt lat="47.8339" lon="5.32165">
        <ele>405</ele>
        <time>2024-05-14T13:04:46.965Z</time>
      </trkpt>
      <trkpt lat="47.83395" lon="5.32169">
        <ele>405</ele>
        <time>2024-05-14T13:04:51.754Z</time>
      </trkpt>
      <trkpt lat="47.83401" lon="5.32171">
        <ele>405</ele>
        <time>2024-05-14T13:04:56.711Z</time>
      </trkpt>
      <trkpt lat="47.83406" lon="5.32175">
        <ele>403</ele>
        <time>2024-05-14T13:05:00.965Z</time>
      </trkpt>
      <trkpt lat="47.83412" lon="5.32178">
        <ele>403</ele>
        <time>2024-05-14T13:05:05.255Z</time>
      </trkpt>
      <trkpt lat="47.83418" lon="5.32181">
        <ele>406</ele>
        <time>2024-05-14T13:05:09.494Z</time>
      </trkpt>
      <trkpt lat="47.83424" lon="5.32184">
        <ele>406</ele>
        <time>2024-05-14T13:05:13.827Z</time>
      </trkpt>
      <trkpt lat="47.8343" lon="5.32185">
        <ele>406</ele>
        <time>2024-05-14T13:05:17.965Z</time>
      </trkpt>
      <trkpt lat="47.83435" lon="5.32186">
        <ele>405</ele>
        <time>2024-05-14T13:05:22.208Z</time>
      </trkpt>
      <trkpt lat="47.83441" lon="5.32188">
        <ele>405</ele>
        <time>2024-05-14T13:05:26.354Z</time>
      </trkpt>
      <trkpt lat="47.83446" lon="5.32189">
        <ele>405</ele>
        <time>2024-05-14T13:05:30.673Z</time>
      </trkpt>
      <trkpt lat="47.83452" lon="5.32191">
        <ele>405</ele>
        <time>2024-05-14T13:05:34.675Z</time>
      </trkpt>
      <trkpt lat="47.83458" lon="5.32192">
        <ele>405</ele>
        <time>2024-05-14T13:05:38.966Z</time>
      </trkpt>
      <trkpt lat="47.83465" lon="5.32193">
        <ele>404</ele>
        <time>2024-05-14T13:05:43.548Z</time>
      </trkpt>
      <trkpt lat="47.8347" lon="5.32193">
        <ele>404</ele>
        <time>2024-05-14T13:05:47.567Z</time>
      </trkpt>
      <trkpt lat="47.83476" lon="5.32197">
        <ele>404</ele>
        <time>2024-05-14T13:05:51.970Z</time>
      </trkpt>
      <trkpt lat="47.83483" lon="5.32199">
        <ele>404</ele>
        <time>2024-05-14T13:05:56.613Z</time>
      </trkpt>
      <trkpt lat="47.83489" lon="5.322">
        <ele>405</ele>
        <time>2024-05-14T13:06:00.965Z</time>
      </trkpt>
      <trkpt lat="47.83495" lon="5.32202">
        <ele>405</ele>
        <time>2024-05-14T13:06:05.690Z</time>
      </trkpt>
      <trkpt lat="47.83503" lon="5.32203">
        <ele>405</ele>
        <time>2024-05-14T13:06:09.854Z</time>
      </trkpt>
      <trkpt lat="47.83509" lon="5.32205">
        <ele>405</ele>
        <time>2024-05-14T13:06:14.174Z</time>
      </trkpt>
      <trkpt lat="47.83515" lon="5.32208">
        <ele>404</ele>
        <time>2024-05-14T13:06:18.417Z</time>
      </trkpt>
      <trkpt lat="47.83521" lon="5.3221">
        <ele>408</ele>
        <time>2024-05-14T13:06:22.594Z</time>
      </trkpt>
      <trkpt lat="47.83528" lon="5.32213">
        <ele>408</ele>
        <time>2024-05-14T13:06:26.715Z</time>
      </trkpt>
      <trkpt lat="47.83533" lon="5.32214">
        <ele>408</ele>
        <time>2024-05-14T13:06:30.888Z</time>
      </trkpt>
      <trkpt lat="47.83539" lon="5.32216">
        <ele>408</ele>
        <time>2024-05-14T13:06:35.230Z</time>
      </trkpt>
      <trkpt lat="47.83545" lon="5.32218">
        <ele>405</ele>
        <time>2024-05-14T13:06:39.531Z</time>
      </trkpt>
      <trkpt lat="47.83551" lon="5.32221">
        <ele>405</ele>
        <time>2024-05-14T13:06:43.830Z</time>
      </trkpt>
      <trkpt lat="47.83557" lon="5.32223">
        <ele>405</ele>
        <time>2024-05-14T13:06:47.954Z</time>
      </trkpt>
      <trkpt lat="47.83563" lon="5.32225">
        <ele>405</ele>
        <time>2024-05-14T13:06:52.255Z</time>
      </trkpt>
      <trkpt lat="47.83569" lon="5.32227">
        <ele>405</ele>
        <time>2024-05-14T13:06:56.554Z</time>
      </trkpt>
      <trkpt lat="47.83574" lon="5.3223">
        <ele>404</ele>
        <time>2024-05-14T13:07:00.829Z</time>
      </trkpt>
      <trkpt lat="47.83581" lon="5.32235">
        <ele>404</ele>
        <time>2024-05-14T13:07:04.965Z</time>
      </trkpt>
      <trkpt lat="47.83586" lon="5.32236">
        <ele>404</ele>
        <time>2024-05-14T13:07:09.491Z</time>
      </trkpt>
      <trkpt lat="47.83592" lon="5.32239">
        <ele>406</ele>
        <time>2024-05-14T13:07:13.894Z</time>
      </trkpt>
      <trkpt lat="47.83597" lon="5.32242">
        <ele>406</ele>
        <time>2024-05-14T13:07:18.255Z</time>
      </trkpt>
      <trkpt lat="47.83603" lon="5.32243">
        <ele>403</ele>
        <time>2024-05-14T13:07:22.554Z</time>
      </trkpt>
      <trkpt lat="47.83608" lon="5.32246">
        <ele>403</ele>
        <time>2024-05-14T13:07:26.914Z</time>
      </trkpt>
      <trkpt lat="47.83614" lon="5.32248">
        <ele>403</ele>
        <time>2024-05-14T13:07:31.215Z</time>
      </trkpt>
      <trkpt lat="47.8362" lon="5.32253">
        <ele>403</ele>
        <time>2024-05-14T13:07:35.728Z</time>
      </trkpt>
      <trkpt lat="47.83625" lon="5.32255">
        <ele>399</ele>
        <time>2024-05-14T13:07:39.966Z</time>
      </trkpt>
      <trkpt lat="47.8363" lon="5.32259">
        <ele>399</ele>
        <time>2024-05-14T13:07:44.311Z</time>
      </trkpt>
      <trkpt lat="47.83636" lon="5.32262">
        <ele>399</ele>
        <time>2024-05-14T13:07:48.569Z</time>
      </trkpt>
      <trkpt lat="47.83642" lon="5.32266">
        <ele>402</ele>
        <time>2024-05-14T13:07:52.827Z</time>
      </trkpt>
      <trkpt lat="47.83648" lon="5.32265">
        <ele>402</ele>
        <time>2024-05-14T13:07:56.966Z</time>
      </trkpt>
      <trkpt lat="47.83654" lon="5.32264">
        <ele>400</ele>
        <time>2024-05-14T13:08:01.454Z</time>
      </trkpt>
      <trkpt lat="47.8366" lon="5.32261">
        <ele>397</ele>
        <time>2024-05-14T13:08:05.687Z</time>
      </trkpt>
      <trkpt lat="47.83664" lon="5.32257">
        <ele>397</ele>
        <time>2024-05-14T13:08:09.969Z</time>
      </trkpt>
      <trkpt lat="47.8367" lon="5.32254">
        <ele>397</ele>
        <time>2024-05-14T13:08:14.286Z</time>
      </trkpt>
      <trkpt lat="47.83675" lon="5.3225">
        <ele>397</ele>
        <time>2024-05-14T13:08:18.502Z</time>
      </trkpt>
      <trkpt lat="47.83681" lon="5.32248">
        <ele>397</ele>
        <time>2024-05-14T13:08:22.792Z</time>
      </trkpt>
      <trkpt lat="47.83687" lon="5.32247">
        <ele>397</ele>
        <time>2024-05-14T13:08:26.965Z</time>
      </trkpt>
      <trkpt lat="47.83693" lon="5.32246">
        <ele>397</ele>
        <time>2024-05-14T13:08:31.182Z</time>
      </trkpt>
      <trkpt lat="47.83698" lon="5.32248">
        <ele>397</ele>
        <time>2024-05-14T13:08:35.508Z</time>
      </trkpt>
      <trkpt lat="47.83704" lon="5.3225">
        <ele>397</ele>
        <time>2024-05-14T13:08:39.697Z</time>
      </trkpt>
      <trkpt lat="47.8371" lon="5.32253">
        <ele>396</ele>
        <time>2024-05-14T13:08:43.965Z</time>
      </trkpt>
      <trkpt lat="47.83715" lon="5.32256">
        <ele>396</ele>
        <time>2024-05-14T13:08:48.503Z</time>
      </trkpt>
      <trkpt lat="47.83721" lon="5.32259">
        <ele>396</ele>
        <time>2024-05-14T13:08:52.965Z</time>
      </trkpt>
      <trkpt lat="47.83727" lon="5.32262">
        <ele>396</ele>
        <time>2024-05-14T13:08:57.948Z</time>
      </trkpt>
      <trkpt lat="47.83734" lon="5.32266">
        <ele>397</ele>
        <time>2024-05-14T13:09:01.965Z</time>
      </trkpt>
      <trkpt lat="47.83739" lon="5.3227">
        <ele>396</ele>
        <time>2024-05-14T13:09:06.685Z</time>
      </trkpt>
      <trkpt lat="47.83745" lon="5.32273">
        <ele>396</ele>
        <time>2024-05-14T13:09:10.747Z</time>
      </trkpt>
      <trkpt lat="47.83751" lon="5.32275">
        <ele>396</ele>
        <time>2024-05-14T13:09:15.166Z</time>
      </trkpt>
      <trkpt lat="47.83757" lon="5.32278">
        <ele>396</ele>
        <time>2024-05-14T13:09:19.442Z</time>
      </trkpt>
      <trkpt lat="47.83762" lon="5.32281">
        <ele>396</ele>
        <time>2024-05-14T13:09:23.966Z</time>
      </trkpt>
      <trkpt lat="47.83768" lon="5.32285">
        <ele>395</ele>
        <time>2024-05-14T13:09:28.904Z</time>
      </trkpt>
      <trkpt lat="47.83773" lon="5.32282">
        <ele>395</ele>
        <time>2024-05-14T13:09:32.966Z</time>
      </trkpt>
      <trkpt lat="47.83776" lon="5.32274">
        <ele>395</ele>
        <time>2024-05-14T13:09:37.505Z</time>
      </trkpt>
      <trkpt lat="47.83778" lon="5.32265">
        <ele>395</ele>
        <time>2024-05-14T13:09:41.816Z</time>
      </trkpt>
      <trkpt lat="47.83778" lon="5.32256">
        <ele>392</ele>
        <time>2024-05-14T13:09:45.965Z</time>
      </trkpt>
      <trkpt lat="47.83777" lon="5.32248">
        <ele>392</ele>
        <time>2024-05-14T13:09:50.705Z</time>
      </trkpt>
      <trkpt lat="47.83778" lon="5.32239">
        <ele>392</ele>
        <time>2024-05-14T13:09:55.782Z</time>
      </trkpt>
      <trkpt lat="47.83778" lon="5.32231">
        <ele>390</ele>
        <time>2024-05-14T13:09:59.966Z</time>
      </trkpt>
      <trkpt lat="47.83779" lon="5.32221">
        <ele>390</ele>
        <time>2024-05-14T13:10:04.648Z</time>
      </trkpt>
      <trkpt lat="47.8378" lon="5.32212">
        <ele>390</ele>
        <time>2024-05-14T13:10:09.067Z</time>
      </trkpt>
      <trkpt lat="47.83781" lon="5.32204">
        <ele>389</ele>
        <time>2024-05-14T13:10:13.922Z</time>
      </trkpt>
      <trkpt lat="47.83782" lon="5.32195">
        <ele>389</ele>
        <time>2024-05-14T13:10:17.966Z</time>
      </trkpt>
      <trkpt lat="47.83784" lon="5.32187">
        <ele>389</ele>
        <time>2024-05-14T13:10:22.463Z</time>
      </trkpt>
      <trkpt lat="47.83785" lon="5.32178">
        <ele>389</ele>
        <time>2024-05-14T13:10:26.823Z</time>
      </trkpt>
      <trkpt lat="47.83787" lon="5.32169">
        <ele>389</ele>
        <time>2024-05-14T13:10:30.966Z</time>
      </trkpt>
      <trkpt lat="47.83788" lon="5.3216">
        <ele>389</ele>
        <time>2024-05-14T13:10:35.569Z</time>
      </trkpt>
      <trkpt lat="47.83791" lon="5.32151">
        <ele>388</ele>
        <time>2024-05-14T13:10:39.929Z</time>
      </trkpt>
      <trkpt lat="47.83794" lon="5.32142">
        <ele>387</ele>
        <time>2024-05-14T13:10:44.348Z</time>
      </trkpt>
      <trkpt lat="47.83796" lon="5.32133">
        <ele>387</ele>
        <time>2024-05-14T13:10:48.888Z</time>
      </trkpt>
      <trkpt lat="47.83799" lon="5.32124">
        <ele>386</ele>
        <time>2024-05-14T13:10:52.926Z</time>
      </trkpt>
      <trkpt lat="47.83805" lon="5.3212">
        <ele>386</ele>
        <time>2024-05-14T13:10:56.966Z</time>
      </trkpt>
      <trkpt lat="47.8381" lon="5.32114">
        <ele>386</ele>
        <time>2024-05-14T13:11:01.241Z</time>
      </trkpt>
      <trkpt lat="47.83815" lon="5.32108">
        <ele>386</ele>
        <time>2024-05-14T13:11:05.807Z</time>
      </trkpt>
      <trkpt lat="47.83821" lon="5.32105">
        <ele>386</ele>
        <time>2024-05-14T13:11:09.965Z</time>
      </trkpt>
      <trkpt lat="47.83826" lon="5.321">
        <ele>386</ele>
        <time>2024-05-14T13:11:14.767Z</time>
      </trkpt>
      <trkpt lat="47.83832" lon="5.32096">
        <ele>388</ele>
        <time>2024-05-14T13:11:19.289Z</time>
      </trkpt>
      <trkpt lat="47.83838" lon="5.32093">
        <ele>388</ele>
        <time>2024-05-14T13:11:23.744Z</time>
      </trkpt>
      <trkpt lat="47.83843" lon="5.3209">
        <ele>388</ele>
        <time>2024-05-14T13:11:27.966Z</time>
      </trkpt>
      <trkpt lat="47.8385" lon="5.32089">
        <ele>388</ele>
        <time>2024-05-14T13:11:32.505Z</time>
      </trkpt>
      <trkpt lat="47.83856" lon="5.32088">
        <ele>388</ele>
        <time>2024-05-14T13:11:36.883Z</time>
      </trkpt>
      <trkpt lat="47.83862" lon="5.32088">
        <ele>388</ele>
        <time>2024-05-14T13:11:41.362Z</time>
      </trkpt>
      <trkpt lat="47.83869" lon="5.32087">
        <ele>388</ele>
        <time>2024-05-14T13:11:45.807Z</time>
      </trkpt>
      <trkpt lat="47.83875" lon="5.32085">
        <ele>387</ele>
        <time>2024-05-14T13:11:49.965Z</time>
      </trkpt>
      <trkpt lat="47.83882" lon="5.32086">
        <ele>387</ele>
        <time>2024-05-14T13:11:54.109Z</time>
      </trkpt>
      <trkpt lat="47.83889" lon="5.32085">
        <ele>387</ele>
        <time>2024-05-14T13:11:58.504Z</time>
      </trkpt>
      <trkpt lat="47.83895" lon="5.32084">
        <ele>387</ele>
        <time>2024-05-14T13:12:02.965Z</time>
      </trkpt>
      <trkpt lat="47.83902" lon="5.32083">
        <ele>387</ele>
        <time>2024-05-14T13:12:07.768Z</time>
      </trkpt>
      <trkpt lat="47.83908" lon="5.32083">
        <ele>384</ele>
        <time>2024-05-14T13:12:11.965Z</time>
      </trkpt>
      <trkpt lat="47.83914" lon="5.3208">
        <ele>384</ele>
        <time>2024-05-14T13:12:16.404Z</time>
      </trkpt>
      <trkpt lat="47.8392" lon="5.32079">
        <ele>384</ele>
        <time>2024-05-14T13:12:20.883Z</time>
      </trkpt>
      <trkpt lat="47.83925" lon="5.32076">
        <ele>384</ele>
        <time>2024-05-14T13:12:25.227Z</time>
      </trkpt>
      <trkpt lat="47.83932" lon="5.32074">
        <ele>382</ele>
        <time>2024-05-14T13:12:29.510Z</time>
      </trkpt>
      <trkpt lat="47.83937" lon="5.32071">
        <ele>382</ele>
        <time>2024-05-14T13:12:33.869Z</time>
      </trkpt>
      <trkpt lat="47.83943" lon="5.32067">
        <ele>383</ele>
        <time>2024-05-14T13:12:37.965Z</time>
      </trkpt>
      <trkpt lat="47.83948" lon="5.32063">
        <ele>383</ele>
        <time>2024-05-14T13:12:42.547Z</time>
      </trkpt>
      <trkpt lat="47.8395" lon="5.32059">
        <ele>383</ele>
        <time>2024-05-14T13:12:46.964Z</time>
      </trkpt>
      <trkpt lat="47.83956" lon="5.32057">
        <ele>383</ele>
        <time>2024-05-14T13:12:51.506Z</time>
      </trkpt>
      <trkpt lat="47.83962" lon="5.32054">
        <ele>382</ele>
        <time>2024-05-14T13:12:55.964Z</time>
      </trkpt>
      <trkpt lat="47.83966" lon="5.32049">
        <ele>382</ele>
        <time>2024-05-14T13:13:37.964Z</time>
      </trkpt>
      <trkpt lat="47.83972" lon="5.32044">
        <ele>382</ele>
        <time>2024-05-14T13:13:41.982Z</time>
      </trkpt>
      <trkpt lat="47.83977" lon="5.3204">
        <ele>382</ele>
        <time>2024-05-14T13:13:46.964Z</time>
      </trkpt>
      <trkpt lat="47.83982" lon="5.32036">
        <ele>382</ele>
        <time>2024-05-14T13:13:51.428Z</time>
      </trkpt>
      <trkpt lat="47.83987" lon="5.32032">
        <ele>381</ele>
        <time>2024-05-14T13:13:55.907Z</time>
      </trkpt>
      <trkpt lat="47.83991" lon="5.32028">
        <ele>381</ele>
        <time>2024-05-14T13:14:00.369Z</time>
      </trkpt>
      <trkpt lat="47.83997" lon="5.32025">
        <ele>381</ele>
        <time>2024-05-14T13:14:04.747Z</time>
      </trkpt>
      <trkpt lat="47.84002" lon="5.32022">
        <ele>381</ele>
        <time>2024-05-14T13:14:08.965Z</time>
      </trkpt>
      <trkpt lat="47.84007" lon="5.32019">
        <ele>381</ele>
        <time>2024-05-14T13:14:13.706Z</time>
      </trkpt>
      <trkpt lat="47.84013" lon="5.32015">
        <ele>381</ele>
        <time>2024-05-14T13:14:17.965Z</time>
      </trkpt>
      <trkpt lat="47.84019" lon="5.32012">
        <ele>381</ele>
        <time>2024-05-14T13:14:22.007Z</time>
      </trkpt>
      <trkpt lat="47.84024" lon="5.32009">
        <ele>381</ele>
        <time>2024-05-14T13:14:26.965Z</time>
      </trkpt>
      <trkpt lat="47.8403" lon="5.32007">
        <ele>381</ele>
        <time>2024-05-14T13:14:31.308Z</time>
      </trkpt>
      <trkpt lat="47.84035" lon="5.32004">
        <ele>381</ele>
        <time>2024-05-14T13:14:35.745Z</time>
      </trkpt>
      <trkpt lat="47.84041" lon="5.32">
        <ele>381</ele>
        <time>2024-05-14T13:14:39.969Z</time>
      </trkpt>
      <trkpt lat="47.84046" lon="5.31997">
        <ele>380</ele>
        <time>2024-05-14T13:14:44.747Z</time>
      </trkpt>
      <trkpt lat="47.84051" lon="5.31994">
        <ele>380</ele>
        <time>2024-05-14T13:14:49.243Z</time>
      </trkpt>
      <trkpt lat="47.84057" lon="5.31992">
        <ele>380</ele>
        <time>2024-05-14T13:14:53.707Z</time>
      </trkpt>
      <trkpt lat="47.84063" lon="5.31986">
        <ele>380</ele>
        <time>2024-05-14T13:14:58.228Z</time>
      </trkpt>
      <trkpt lat="47.84068" lon="5.31983">
        <ele>381</ele>
        <time>2024-05-14T13:15:02.767Z</time>
      </trkpt>
      <trkpt lat="47.84074" lon="5.3198">
        <ele>379</ele>
        <time>2024-05-14T13:15:07.188Z</time>
      </trkpt>
      <trkpt lat="47.84079" lon="5.31976">
        <ele>379</ele>
        <time>2024-05-14T13:15:11.728Z</time>
      </trkpt>
      <trkpt lat="47.84084" lon="5.31972">
        <ele>379</ele>
        <time>2024-05-14T13:15:15.964Z</time>
      </trkpt>
      <trkpt lat="47.84089" lon="5.31968">
        <ele>379</ele>
        <time>2024-05-14T13:15:20.789Z</time>
      </trkpt>
      <trkpt lat="47.84094" lon="5.31962">
        <ele>379</ele>
        <time>2024-05-14T13:15:24.965Z</time>
      </trkpt>
      <trkpt lat="47.84099" lon="5.31956">
        <ele>376</ele>
        <time>2024-05-14T13:15:29.866Z</time>
      </trkpt>
      <trkpt lat="47.84107" lon="5.3194">
        <ele>376</ele>
        <time>2024-05-14T13:15:33.964Z</time>
      </trkpt>
      <trkpt lat="47.84108" lon="5.31934">
        <ele>376</ele>
        <time>2024-05-14T13:15:38.304Z</time>
      </trkpt>
      <trkpt lat="47.84115" lon="5.31925">
        <ele>376</ele>
        <time>2024-05-14T13:15:42.468Z</time>
      </trkpt>
      <trkpt lat="47.84118" lon="5.31918">
        <ele>376</ele>
        <time>2024-05-14T13:15:46.965Z</time>
      </trkpt>
      <trkpt lat="47.84121" lon="5.31911">
        <ele>376</ele>
        <time>2024-05-14T13:15:51.231Z</time>
      </trkpt>
      <trkpt lat="47.84125" lon="5.31904">
        <ele>376</ele>
        <time>2024-05-14T13:15:55.550Z</time>
      </trkpt>
      <trkpt lat="47.84128" lon="5.31897">
        <ele>377</ele>
        <time>2024-05-14T13:15:59.793Z</time>
      </trkpt>
      <trkpt lat="47.84131" lon="5.31889">
        <ele>377</ele>
        <time>2024-05-14T13:16:03.964Z</time>
      </trkpt>
      <trkpt lat="47.84135" lon="5.31882">
        <ele>377</ele>
        <time>2024-05-14T13:16:08.629Z</time>
      </trkpt>
      <trkpt lat="47.84138" lon="5.31875">
        <ele>377</ele>
        <time>2024-05-14T13:16:12.964Z</time>
      </trkpt>
      <trkpt lat="47.84141" lon="5.31869">
        <ele>378</ele>
        <time>2024-05-14T13:16:17.604Z</time>
      </trkpt>
      <trkpt lat="47.84146" lon="5.31861">
        <ele>378</ele>
        <time>2024-05-14T13:16:21.964Z</time>
      </trkpt>
      <trkpt lat="47.84149" lon="5.31854">
        <ele>378</ele>
        <time>2024-05-14T13:16:26.563Z</time>
      </trkpt>
      <trkpt lat="47.84153" lon="5.31848">
        <ele>378</ele>
        <time>2024-05-14T13:16:30.668Z</time>
      </trkpt>
      <trkpt lat="47.84156" lon="5.3184">
        <ele>379</ele>
        <time>2024-05-14T13:16:34.964Z</time>
      </trkpt>
      <trkpt lat="47.8416" lon="5.31832">
        <ele>379</ele>
        <time>2024-05-14T13:16:39.810Z</time>
      </trkpt>
      <trkpt lat="47.84164" lon="5.31827">
        <ele>379</ele>
        <time>2024-05-14T13:16:43.965Z</time>
      </trkpt>
      <trkpt lat="47.84168" lon="5.31822">
        <ele>379</ele>
        <time>2024-05-14T13:16:48.448Z</time>
      </trkpt>
      <trkpt lat="47.84174" lon="5.31817">
        <ele>380</ele>
        <time>2024-05-14T13:16:52.664Z</time>
      </trkpt>
      <trkpt lat="47.84179" lon="5.31812">
        <ele>380</ele>
        <time>2024-05-14T13:16:56.964Z</time>
      </trkpt>
      <trkpt lat="47.84185" lon="5.31809">
        <ele>379</ele>
        <time>2024-05-14T13:17:01.264Z</time>
      </trkpt>
      <trkpt lat="47.84191" lon="5.31806">
        <ele>379</ele>
        <time>2024-05-14T13:17:05.444Z</time>
      </trkpt>
      <trkpt lat="47.84197" lon="5.31803">
        <ele>379</ele>
        <time>2024-05-14T13:17:09.964Z</time>
      </trkpt>
      <trkpt lat="47.84203" lon="5.31798">
        <ele>379</ele>
        <time>2024-05-14T13:17:14.403Z</time>
      </trkpt>
      <trkpt lat="47.84208" lon="5.31797">
        <ele>378</ele>
        <time>2024-05-14T13:17:18.763Z</time>
      </trkpt>
      <trkpt lat="47.84215" lon="5.31794">
        <ele>378</ele>
        <time>2024-05-14T13:17:22.964Z</time>
      </trkpt>
      <trkpt lat="47.84219" lon="5.31791">
        <ele>378</ele>
        <time>2024-05-14T13:17:27.483Z</time>
      </trkpt>
      <trkpt lat="47.84225" lon="5.3179">
        <ele>378</ele>
        <time>2024-05-14T13:17:31.604Z</time>
      </trkpt>
      <trkpt lat="47.84229" lon="5.31791">
        <ele>378</ele>
        <time>2024-05-14T13:17:35.768Z</time>
      </trkpt>
      <trkpt lat="47.84233" lon="5.31798">
        <ele>378</ele>
        <time>2024-05-14T13:17:40.274Z</time>
      </trkpt>
      <trkpt lat="47.84233" lon="5.31805">
        <ele>378</ele>
        <time>2024-05-14T13:17:44.369Z</time>
      </trkpt>
      <trkpt lat="47.84232" lon="5.31814">
        <ele>378</ele>
        <time>2024-05-14T13:17:48.422Z</time>
      </trkpt>
      <trkpt lat="47.84231" lon="5.31822">
        <ele>378</ele>
        <time>2024-05-14T13:17:52.867Z</time>
      </trkpt>
      <trkpt lat="47.84231" lon="5.3183">
        <ele>378</ele>
        <time>2024-05-14T13:17:56.965Z</time>
      </trkpt>
      <trkpt lat="47.8423" lon="5.31839">
        <ele>378</ele>
        <time>2024-05-14T13:18:00.989Z</time>
      </trkpt>
      <trkpt lat="47.8423" lon="5.31848">
        <ele>378</ele>
        <time>2024-05-14T13:18:05.547Z</time>
      </trkpt>
      <trkpt lat="47.84229" lon="5.31857">
        <ele>378</ele>
        <time>2024-05-14T13:18:09.964Z</time>
      </trkpt>
      <trkpt lat="47.84229" lon="5.31866">
        <ele>378</ele>
        <time>2024-05-14T13:18:14.743Z</time>
      </trkpt>
      <trkpt lat="47.84229" lon="5.31875">
        <ele>378</ele>
        <time>2024-05-14T13:18:18.965Z</time>
      </trkpt>
      <trkpt lat="47.84228" lon="5.31884">
        <ele>377</ele>
        <time>2024-05-14T13:18:23.966Z</time>
      </trkpt>
      <trkpt lat="47.84228" lon="5.31892">
        <ele>377</ele>
        <time>2024-05-14T13:18:28.565Z</time>
      </trkpt>
      <trkpt lat="47.84227" lon="5.31901">
        <ele>377</ele>
        <time>2024-05-14T13:18:32.964Z</time>
      </trkpt>
      <trkpt lat="47.84228" lon="5.31909">
        <ele>377</ele>
        <time>2024-05-14T13:18:36.964Z</time>
      </trkpt>
      <trkpt lat="47.84228" lon="5.31918">
        <ele>377</ele>
        <time>2024-05-14T13:18:41.628Z</time>
      </trkpt>
      <trkpt lat="47.84229" lon="5.31927">
        <ele>377</ele>
        <time>2024-05-14T13:18:45.964Z</time>
      </trkpt>
      <trkpt lat="47.8423" lon="5.31933">
        <ele>377</ele>
        <time>2024-05-14T13:18:50.484Z</time>
      </trkpt>
      <trkpt lat="47.84231" lon="5.31941">
        <ele>377</ele>
        <time>2024-05-14T13:18:54.964Z</time>
      </trkpt>
      <trkpt lat="47.84234" lon="5.31947">
        <ele>377</ele>
        <time>2024-05-14T13:18:59.725Z</time>
      </trkpt>
      <trkpt lat="47.84239" lon="5.31953">
        <ele>378</ele>
        <time>2024-05-14T13:19:03.769Z</time>
      </trkpt>
      <trkpt lat="47.84243" lon="5.31958">
        <ele>378</ele>
        <time>2024-05-14T13:19:07.809Z</time>
      </trkpt>
      <trkpt lat="47.84248" lon="5.31963">
        <ele>380</ele>
        <time>2024-05-14T13:19:11.866Z</time>
      </trkpt>
      <trkpt lat="47.84253" lon="5.31968">
        <ele>380</ele>
        <time>2024-05-14T13:19:15.965Z</time>
      </trkpt>
      <trkpt lat="47.84259" lon="5.31973">
        <ele>380</ele>
        <time>2024-05-14T13:19:20.229Z</time>
      </trkpt>
      <trkpt lat="47.84264" lon="5.31977">
        <ele>380</ele>
        <time>2024-05-14T13:19:24.741Z</time>
      </trkpt>
      <trkpt lat="47.84269" lon="5.31981">
        <ele>382</ele>
        <time>2024-05-14T13:19:29.348Z</time>
      </trkpt>
      <trkpt lat="47.84274" lon="5.31983">
        <ele>382</ele>
        <time>2024-05-14T13:19:33.965Z</time>
      </trkpt>
      <trkpt lat="47.84279" lon="5.31987">
        <ele>384</ele>
        <time>2024-05-14T13:19:37.964Z</time>
      </trkpt>
      <trkpt lat="47.84283" lon="5.31991">
        <ele>384</ele>
        <time>2024-05-14T13:19:42.727Z</time>
      </trkpt>
      <trkpt lat="47.84288" lon="5.31995">
        <ele>384</ele>
        <time>2024-05-14T13:19:46.926Z</time>
      </trkpt>
      <trkpt lat="47.84292" lon="5.32">
        <ele>385</ele>
        <time>2024-05-14T13:19:51.328Z</time>
      </trkpt>
      <trkpt lat="47.84297" lon="5.32004">
        <ele>385</ele>
        <time>2024-05-14T13:19:55.424Z</time>
      </trkpt>
      <trkpt lat="47.84302" lon="5.32009">
        <ele>385</ele>
        <time>2024-05-14T13:19:59.706Z</time>
      </trkpt>
      <trkpt lat="47.84307" lon="5.32014">
        <ele>385</ele>
        <time>2024-05-14T13:20:03.828Z</time>
      </trkpt>
      <trkpt lat="47.84312" lon="5.32019">
        <ele>387</ele>
        <time>2024-05-14T13:20:07.964Z</time>
      </trkpt>
      <trkpt lat="47.84317" lon="5.32023">
        <ele>387</ele>
        <time>2024-05-14T13:20:12.608Z</time>
      </trkpt>
      <trkpt lat="47.84322" lon="5.32028">
        <ele>387</ele>
        <time>2024-05-14T13:20:16.924Z</time>
      </trkpt>
      <trkpt lat="47.84327" lon="5.32033">
        <ele>387</ele>
        <time>2024-05-14T13:20:20.965Z</time>
      </trkpt>
      <trkpt lat="47.84332" lon="5.32038">
        <ele>387</ele>
        <time>2024-05-14T13:20:25.704Z</time>
      </trkpt>
      <trkpt lat="47.84336" lon="5.32041">
        <ele>387</ele>
        <time>2024-05-14T13:20:29.825Z</time>
      </trkpt>
      <trkpt lat="47.84341" lon="5.32045">
        <ele>390</ele>
        <time>2024-05-14T13:20:34.287Z</time>
      </trkpt>
      <trkpt lat="47.84344" lon="5.32052">
        <ele>390</ele>
        <time>2024-05-14T13:20:38.903Z</time>
      </trkpt>
      <trkpt lat="47.84349" lon="5.32057">
        <ele>391</ele>
        <time>2024-05-14T13:20:43.323Z</time>
      </trkpt>
      <trkpt lat="47.84353" lon="5.32062">
        <ele>391</ele>
        <time>2024-05-14T13:20:47.443Z</time>
      </trkpt>
      <trkpt lat="47.84358" lon="5.32067">
        <ele>391</ele>
        <time>2024-05-14T13:20:51.863Z</time>
      </trkpt>
      <trkpt lat="47.84362" lon="5.32071">
        <ele>394</ele>
        <time>2024-05-14T13:20:55.941Z</time>
      </trkpt>
      <trkpt lat="47.84366" lon="5.32076">
        <ele>394</ele>
        <time>2024-05-14T13:20:59.964Z</time>
      </trkpt>
      <trkpt lat="47.8437" lon="5.32079">
        <ele>394</ele>
        <time>2024-05-14T13:21:04.270Z</time>
      </trkpt>
      <trkpt lat="47.84374" lon="5.32085">
        <ele>394</ele>
        <time>2024-05-14T13:21:08.442Z</time>
      </trkpt>
      <trkpt lat="47.84378" lon="5.32091">
        <ele>393</ele>
        <time>2024-05-14T13:21:12.528Z</time>
      </trkpt>
      <trkpt lat="47.84382" lon="5.32097">
        <ele>393</ele>
        <time>2024-05-14T13:21:16.650Z</time>
      </trkpt>
      <trkpt lat="47.84387" lon="5.32101">
        <ele>394</ele>
        <time>2024-05-14T13:21:20.963Z</time>
      </trkpt>
      <trkpt lat="47.84391" lon="5.32106">
        <ele>394</ele>
        <time>2024-05-14T13:21:25.327Z</time>
      </trkpt>
      <trkpt lat="47.84395" lon="5.3211">
        <ele>394</ele>
        <time>2024-05-14T13:21:29.482Z</time>
      </trkpt>
      <trkpt lat="47.844" lon="5.32116">
        <ele>394</ele>
        <time>2024-05-14T13:21:33.963Z</time>
      </trkpt>
      <trkpt lat="47.84404" lon="5.32121">
        <ele>391</ele>
        <time>2024-05-14T13:21:38.645Z</time>
      </trkpt>
      <trkpt lat="47.84408" lon="5.32127">
        <ele>393</ele>
        <time>2024-05-14T13:21:42.690Z</time>
      </trkpt>
      <trkpt lat="47.84412" lon="5.3213">
        <ele>393</ele>
        <time>2024-05-14T13:21:46.963Z</time>
      </trkpt>
      <trkpt lat="47.84417" lon="5.32134">
        <ele>393</ele>
        <time>2024-05-14T13:21:51.325Z</time>
      </trkpt>
      <trkpt lat="47.84421" lon="5.32137">
        <ele>393</ele>
        <time>2024-05-14T13:21:55.964Z</time>
      </trkpt>
      <trkpt lat="47.84426" lon="5.3214">
        <ele>393</ele>
        <time>2024-05-14T13:22:00.369Z</time>
      </trkpt>
      <trkpt lat="47.84431" lon="5.32144">
        <ele>394</ele>
        <time>2024-05-14T13:22:04.964Z</time>
      </trkpt>
      <trkpt lat="47.84436" lon="5.32146">
        <ele>394</ele>
        <time>2024-05-14T13:22:09.387Z</time>
      </trkpt>
      <trkpt lat="47.84441" lon="5.3215">
        <ele>394</ele>
        <time>2024-05-14T13:22:13.406Z</time>
      </trkpt>
      <trkpt lat="47.84447" lon="5.32153">
        <ele>397</ele>
        <time>2024-05-14T13:22:17.945Z</time>
      </trkpt>
      <trkpt lat="47.84451" lon="5.32155">
        <ele>397</ele>
        <time>2024-05-14T13:22:21.964Z</time>
      </trkpt>
      <trkpt lat="47.84456" lon="5.32158">
        <ele>397</ele>
        <time>2024-05-14T13:22:26.529Z</time>
      </trkpt>
      <trkpt lat="47.84461" lon="5.32162">
        <ele>399</ele>
        <time>2024-05-14T13:22:30.649Z</time>
      </trkpt>
      <trkpt lat="47.84467" lon="5.32165">
        <ele>399</ele>
        <time>2024-05-14T13:22:35.188Z</time>
      </trkpt>
      <trkpt lat="47.84472" lon="5.32168">
        <ele>399</ele>
        <time>2024-05-14T13:22:39.344Z</time>
      </trkpt>
      <trkpt lat="47.84477" lon="5.32171">
        <ele>399</ele>
        <time>2024-05-14T13:22:43.686Z</time>
      </trkpt>
      <trkpt lat="47.84481" lon="5.32173">
        <ele>399</ele>
        <time>2024-05-14T13:22:47.850Z</time>
      </trkpt>
      <trkpt lat="47.84485" lon="5.32176">
        <ele>399</ele>
        <time>2024-05-14T13:22:52.468Z</time>
      </trkpt>
      <trkpt lat="47.8449" lon="5.32179">
        <ele>400</ele>
        <time>2024-05-14T13:22:56.666Z</time>
      </trkpt>
      <trkpt lat="47.84495" lon="5.32181">
        <ele>402</ele>
        <time>2024-05-14T13:23:01.288Z</time>
      </trkpt>
      <trkpt lat="47.845" lon="5.32183">
        <ele>402</ele>
        <time>2024-05-14T13:23:05.869Z</time>
      </trkpt>
      <trkpt lat="47.84505" lon="5.32186">
        <ele>402</ele>
        <time>2024-05-14T13:23:09.963Z</time>
      </trkpt>
      <trkpt lat="47.8451" lon="5.32188">
        <ele>402</ele>
        <time>2024-05-14T13:23:14.282Z</time>
      </trkpt>
      <trkpt lat="47.84515" lon="5.32191">
        <ele>406</ele>
        <time>2024-05-14T13:23:18.548Z</time>
      </trkpt>
      <trkpt lat="47.8452" lon="5.32194">
        <ele>406</ele>
        <time>2024-05-14T13:23:22.963Z</time>
      </trkpt>
      <trkpt lat="47.84525" lon="5.32196">
        <ele>406</ele>
        <time>2024-05-14T13:23:27.149Z</time>
      </trkpt>
      <trkpt lat="47.8453" lon="5.32199">
        <ele>406</ele>
        <time>2024-05-14T13:23:31.332Z</time>
      </trkpt>
      <trkpt lat="47.84535" lon="5.32201">
        <ele>406</ele>
        <time>2024-05-14T13:23:35.544Z</time>
      </trkpt>
      <trkpt lat="47.84542" lon="5.32201">
        <ele>410</ele>
        <time>2024-05-14T13:23:39.649Z</time>
      </trkpt>
      <trkpt lat="47.84546" lon="5.32202">
        <ele>410</ele>
        <time>2024-05-14T13:23:44.307Z</time>
      </trkpt>
      <trkpt lat="47.84553" lon="5.322">
        <ele>410</ele>
        <time>2024-05-14T13:23:48.964Z</time>
      </trkpt>
      <trkpt lat="47.84559" lon="5.32201">
        <ele>410</ele>
        <time>2024-05-14T13:23:53.963Z</time>
      </trkpt>
      <trkpt lat="47.84565" lon="5.322">
        <ele>410</ele>
        <time>2024-05-14T13:23:57.964Z</time>
      </trkpt>
      <trkpt lat="47.8457" lon="5.32199">
        <ele>412</ele>
        <time>2024-05-14T13:24:02.122Z</time>
      </trkpt>
      <trkpt lat="47.84575" lon="5.32198">
        <ele>412</ele>
        <time>2024-05-14T13:24:06.963Z</time>
      </trkpt>
      <trkpt lat="47.84582" lon="5.32196">
        <ele>412</ele>
        <time>2024-05-14T13:24:11.447Z</time>
      </trkpt>
      <trkpt lat="47.84587" lon="5.32194">
        <ele>412</ele>
        <time>2024-05-14T13:24:15.867Z</time>
      </trkpt>
      <trkpt lat="47.84593" lon="5.32192">
        <ele>412</ele>
        <time>2024-05-14T13:24:19.963Z</time>
      </trkpt>
      <trkpt lat="47.84599" lon="5.32191">
        <ele>414</ele>
        <time>2024-05-14T13:24:24.964Z</time>
      </trkpt>
      <trkpt lat="47.84605" lon="5.32189">
        <ele>414</ele>
        <time>2024-05-14T13:24:29.365Z</time>
      </trkpt>
      <trkpt lat="47.8461" lon="5.32188">
        <ele>414</ele>
        <time>2024-05-14T13:24:33.964Z</time>
      </trkpt>
      <trkpt lat="47.84616" lon="5.32186">
        <ele>414</ele>
        <time>2024-05-14T13:24:38.187Z</time>
      </trkpt>
      <trkpt lat="47.84621" lon="5.32184">
        <ele>414</ele>
        <time>2024-05-14T13:24:42.964Z</time>
      </trkpt>
      <trkpt lat="47.84627" lon="5.32182">
        <ele>417</ele>
        <time>2024-05-14T13:24:46.963Z</time>
      </trkpt>
      <trkpt lat="47.84632" lon="5.3218">
        <ele>415</ele>
        <time>2024-05-14T13:24:51.608Z</time>
      </trkpt>
      <trkpt lat="47.84637" lon="5.3218">
        <ele>415</ele>
        <time>2024-05-14T13:24:55.963Z</time>
      </trkpt>
      <trkpt lat="47.84643" lon="5.32181">
        <ele>415</ele>
        <time>2024-05-14T13:25:00.964Z</time>
      </trkpt>
      <trkpt lat="47.84647" lon="5.32183">
        <ele>417</ele>
        <time>2024-05-14T13:25:05.508Z</time>
      </trkpt>
      <trkpt lat="47.84652" lon="5.32188">
        <ele>417</ele>
        <time>2024-05-14T13:25:09.963Z</time>
      </trkpt>
      <trkpt lat="47.84657" lon="5.32192">
        <ele>420</ele>
        <time>2024-05-14T13:25:14.945Z</time>
      </trkpt>
      <trkpt lat="47.8466" lon="5.32199">
        <ele>420</ele>
        <time>2024-05-14T13:25:19.501Z</time>
      </trkpt>
      <trkpt lat="47.84664" lon="5.32206">
        <ele>420</ele>
        <time>2024-05-14T13:25:23.964Z</time>
      </trkpt>
      <trkpt lat="47.84667" lon="5.32212">
        <ele>423</ele>
        <time>2024-05-14T13:25:28.563Z</time>
      </trkpt>
      <trkpt lat="47.8467" lon="5.32219">
        <ele>423</ele>
        <time>2024-05-14T13:25:32.963Z</time>
      </trkpt>
      <trkpt lat="47.84673" lon="5.32225">
        <ele>423</ele>
        <time>2024-05-14T13:25:37.684Z</time>
      </trkpt>
      <trkpt lat="47.84677" lon="5.32232">
        <ele>423</ele>
        <time>2024-05-14T13:25:42.283Z</time>
      </trkpt>
      <trkpt lat="47.84683" lon="5.32234">
        <ele>423</ele>
        <time>2024-05-14T13:25:46.822Z</time>
      </trkpt>
      <trkpt lat="47.84684" lon="5.32234">
        <ele>423</ele>
        <time>2024-05-14T13:25:50.842Z</time>
      </trkpt>
      <trkpt lat="47.84684" lon="5.32234">
        <ele>423</ele>
        <time>2024-05-14T13:25:55.963Z</time>
      </trkpt>
      <trkpt lat="47.84684" lon="5.32241">
        <ele>427</ele>
        <time>2024-05-14T13:26:00.964Z</time>
      </trkpt>
      <trkpt lat="47.8469" lon="5.32246">
        <ele>427</ele>
        <time>2024-05-14T13:26:05.142Z</time>
      </trkpt>
      <trkpt lat="47.84697" lon="5.32249">
        <ele>427</ele>
        <time>2024-05-14T13:26:09.204Z</time>
      </trkpt>
      <trkpt lat="47.84703" lon="5.32251">
        <ele>427</ele>
        <time>2024-05-14T13:26:13.769Z</time>
      </trkpt>
      <trkpt lat="47.84709" lon="5.32251">
        <ele>425</ele>
        <time>2024-05-14T13:26:17.957Z</time>
      </trkpt>
      <trkpt lat="47.84716" lon="5.32252">
        <ele>425</ele>
        <time>2024-05-14T13:26:21.963Z</time>
      </trkpt>
      <trkpt lat="47.84722" lon="5.32251">
        <ele>425</ele>
        <time>2024-05-14T13:26:26.963Z</time>
      </trkpt>
      <trkpt lat="47.84728" lon="5.32252">
        <ele>425</ele>
        <time>2024-05-14T13:26:31.168Z</time>
      </trkpt>
      <trkpt lat="47.84734" lon="5.32252">
        <ele>425</ele>
        <time>2024-05-14T13:26:35.964Z</time>
      </trkpt>
      <trkpt lat="47.84741" lon="5.32252">
        <ele>423</ele>
        <time>2024-05-14T13:26:40.631Z</time>
      </trkpt>
      <trkpt lat="47.84746" lon="5.32253">
        <ele>423</ele>
        <time>2024-05-14T13:26:45.366Z</time>
      </trkpt>
      <trkpt lat="47.84752" lon="5.32253">
        <ele>423</ele>
        <time>2024-05-14T13:26:49.606Z</time>
      </trkpt>
      <trkpt lat="47.84758" lon="5.32253">
        <ele>423</ele>
        <time>2024-05-14T13:26:53.711Z</time>
      </trkpt>
      <trkpt lat="47.84766" lon="5.32254">
        <ele>423</ele>
        <time>2024-05-14T13:26:57.941Z</time>
      </trkpt>
      <trkpt lat="47.84772" lon="5.32254">
        <ele>423</ele>
        <time>2024-05-14T13:27:02.063Z</time>
      </trkpt>
      <trkpt lat="47.84779" lon="5.32255">
        <ele>423</ele>
        <time>2024-05-14T13:27:06.364Z</time>
      </trkpt>
      <trkpt lat="47.84785" lon="5.32256">
        <ele>423</ele>
        <time>2024-05-14T13:27:10.963Z</time>
      </trkpt>
      <trkpt lat="47.8479" lon="5.32263">
        <ele>423</ele>
        <time>2024-05-14T13:27:15.629Z</time>
      </trkpt>
      <trkpt lat="47.84796" lon="5.32265">
        <ele>426</ele>
        <time>2024-05-14T13:27:19.963Z</time>
      </trkpt>
      <trkpt lat="47.84799" lon="5.32273">
        <ele>426</ele>
        <time>2024-05-14T13:27:23.963Z</time>
      </trkpt>
      <trkpt lat="47.84803" lon="5.32279">
        <ele>426</ele>
        <time>2024-05-14T13:27:28.489Z</time>
      </trkpt>
      <trkpt lat="47.84808" lon="5.32285">
        <ele>426</ele>
        <time>2024-05-14T13:27:32.963Z</time>
      </trkpt>
      <trkpt lat="47.84812" lon="5.32292">
        <ele>426</ele>
        <time>2024-05-14T13:27:37.963Z</time>
      </trkpt>
      <trkpt lat="47.84817" lon="5.32297">
        <ele>430</ele>
        <time>2024-05-14T13:27:42.806Z</time>
      </trkpt>
      <trkpt lat="47.84821" lon="5.32301">
        <ele>426</ele>
        <time>2024-05-14T13:27:47.285Z</time>
      </trkpt>
      <trkpt lat="47.84826" lon="5.32306">
        <ele>426</ele>
        <time>2024-05-14T13:27:51.765Z</time>
      </trkpt>
      <trkpt lat="47.84832" lon="5.32311">
        <ele>426</ele>
        <time>2024-05-14T13:27:56.141Z</time>
      </trkpt>
      <trkpt lat="47.84836" lon="5.32317">
        <ele>426</ele>
        <time>2024-05-14T13:28:00.963Z</time>
      </trkpt>
      <trkpt lat="47.8484" lon="5.32322">
        <ele>431</ele>
        <time>2024-05-14T13:28:05.247Z</time>
      </trkpt>
      <trkpt lat="47.84844" lon="5.32326">
        <ele>431</ele>
        <time>2024-05-14T13:28:09.963Z</time>
      </trkpt>
      <trkpt lat="47.84848" lon="5.32332">
        <ele>427</ele>
        <time>2024-05-14T13:28:14.845Z</time>
      </trkpt>
      <trkpt lat="47.84851" lon="5.32337">
        <ele>427</ele>
        <time>2024-05-14T13:28:18.963Z</time>
      </trkpt>
      <trkpt lat="47.84856" lon="5.32344">
        <ele>427</ele>
        <time>2024-05-14T13:28:23.223Z</time>
      </trkpt>
      <trkpt lat="47.84859" lon="5.3235">
        <ele>431</ele>
        <time>2024-05-14T13:28:27.626Z</time>
      </trkpt>
      <trkpt lat="47.84863" lon="5.32358">
        <ele>431</ele>
        <time>2024-05-14T13:28:31.910Z</time>
      </trkpt>
      <trkpt lat="47.84867" lon="5.32365">
        <ele>431</ele>
        <time>2024-05-14T13:28:36.347Z</time>
      </trkpt>
      <trkpt lat="47.8487" lon="5.32373">
        <ele>431</ele>
        <time>2024-05-14T13:28:40.707Z</time>
      </trkpt>
      <trkpt lat="47.84873" lon="5.32383">
        <ele>434</ele>
        <time>2024-05-14T13:28:44.792Z</time>
      </trkpt>
      <trkpt lat="47.84876" lon="5.32389">
        <ele>431</ele>
        <time>2024-05-14T13:28:48.964Z</time>
      </trkpt>
      <trkpt lat="47.84879" lon="5.32397">
        <ele>431</ele>
        <time>2024-05-14T13:28:53.963Z</time>
      </trkpt>
      <trkpt lat="47.84883" lon="5.32401">
        <ele>431</ele>
        <time>2024-05-14T13:28:58.547Z</time>
      </trkpt>
      <trkpt lat="47.84886" lon="5.32405">
        <ele>434</ele>
        <time>2024-05-14T13:29:02.964Z</time>
      </trkpt>
      <trkpt lat="47.84891" lon="5.32408">
        <ele>434</ele>
        <time>2024-05-14T13:29:07.986Z</time>
      </trkpt>
      <trkpt lat="47.84897" lon="5.32413">
        <ele>434</ele>
        <time>2024-05-14T13:29:12.964Z</time>
      </trkpt>
      <trkpt lat="47.84902" lon="5.32415">
        <ele>434</ele>
        <time>2024-05-14T13:29:17.567Z</time>
      </trkpt>
      <trkpt lat="47.84907" lon="5.32418">
        <ele>433</ele>
        <time>2024-05-14T13:29:21.963Z</time>
      </trkpt>
      <trkpt lat="47.84912" lon="5.3242">
        <ele>433</ele>
        <time>2024-05-14T13:29:26.629Z</time>
      </trkpt>
      <trkpt lat="47.84918" lon="5.32424">
        <ele>433</ele>
        <time>2024-05-14T13:29:31.586Z</time>
      </trkpt>
      <trkpt lat="47.84924" lon="5.3243">
        <ele>433</ele>
        <time>2024-05-14T13:29:35.929Z</time>
      </trkpt>
      <trkpt lat="47.84929" lon="5.32439">
        <ele>436</ele>
        <time>2024-05-14T13:29:39.964Z</time>
      </trkpt>
      <trkpt lat="47.84933" lon="5.32445">
        <ele>433</ele>
        <time>2024-05-14T13:29:44.744Z</time>
      </trkpt>
      <trkpt lat="47.84938" lon="5.3245">
        <ele>433</ele>
        <time>2024-05-14T13:29:48.948Z</time>
      </trkpt>
      <trkpt lat="47.84942" lon="5.32458">
        <ele>433</ele>
        <time>2024-05-14T13:29:52.964Z</time>
      </trkpt>
      <trkpt lat="47.84948" lon="5.32464">
        <ele>434</ele>
        <time>2024-05-14T13:29:57.157Z</time>
      </trkpt>
      <trkpt lat="47.84952" lon="5.32469">
        <ele>434</ele>
        <time>2024-05-14T13:30:01.568Z</time>
      </trkpt>
      <trkpt lat="47.84959" lon="5.3247">
        <ele>435</ele>
        <time>2024-05-14T13:30:05.766Z</time>
      </trkpt>
      <trkpt lat="47.84964" lon="5.32477">
        <ele>435</ele>
        <time>2024-05-14T13:30:09.962Z</time>
      </trkpt>
      <trkpt lat="47.84969" lon="5.32478">
        <ele>435</ele>
        <time>2024-05-14T13:30:14.469Z</time>
      </trkpt>
      <trkpt lat="47.84973" lon="5.32484">
        <ele>435</ele>
        <time>2024-05-14T13:30:18.830Z</time>
      </trkpt>
      <trkpt lat="47.84978" lon="5.32487">
        <ele>439</ele>
        <time>2024-05-14T13:30:23.249Z</time>
      </trkpt>
      <trkpt lat="47.84984" lon="5.3249">
        <ele>439</ele>
        <time>2024-05-14T13:30:27.259Z</time>
      </trkpt>
      <trkpt lat="47.84989" lon="5.32492">
        <ele>442</ele>
        <time>2024-05-14T13:30:31.962Z</time>
      </trkpt>
      <trkpt lat="47.84995" lon="5.32495">
        <ele>442</ele>
        <time>2024-05-14T13:30:36.448Z</time>
      </trkpt>
      <trkpt lat="47.84999" lon="5.32498">
        <ele>442</ele>
        <time>2024-05-14T13:30:40.809Z</time>
      </trkpt>
      <trkpt lat="47.85004" lon="5.325">
        <ele>442</ele>
        <time>2024-05-14T13:30:45.203Z</time>
      </trkpt>
      <trkpt lat="47.8501" lon="5.32501">
        <ele>442</ele>
        <time>2024-05-14T13:30:49.529Z</time>
      </trkpt>
      <trkpt lat="47.85016" lon="5.32504">
        <ele>443</ele>
        <time>2024-05-14T13:30:53.906Z</time>
      </trkpt>
      <trkpt lat="47.85021" lon="5.32509">
        <ele>443</ele>
        <time>2024-05-14T13:30:58.266Z</time>
      </trkpt>
      <trkpt lat="47.85027" lon="5.3251">
        <ele>443</ele>
        <time>2024-05-14T13:31:02.609Z</time>
      </trkpt>
      <trkpt lat="47.85034" lon="5.32516">
        <ele>446</ele>
        <time>2024-05-14T13:31:06.962Z</time>
      </trkpt>
      <trkpt lat="47.85039" lon="5.3252">
        <ele>446</ele>
        <time>2024-05-14T13:31:11.508Z</time>
      </trkpt>
      <trkpt lat="47.85043" lon="5.32524">
        <ele>446</ele>
        <time>2024-05-14T13:31:15.963Z</time>
      </trkpt>
      <trkpt lat="47.85049" lon="5.32528">
        <ele>446</ele>
        <time>2024-05-14T13:31:20.307Z</time>
      </trkpt>
      <trkpt lat="47.85053" lon="5.32533">
        <ele>446</ele>
        <time>2024-05-14T13:31:24.708Z</time>
      </trkpt>
      <trkpt lat="47.85057" lon="5.32539">
        <ele>446</ele>
        <time>2024-05-14T13:31:28.962Z</time>
      </trkpt>
      <trkpt lat="47.85061" lon="5.32544">
        <ele>447</ele>
        <time>2024-05-14T13:31:33.847Z</time>
      </trkpt>
      <trkpt lat="47.85067" lon="5.32549">
        <ele>447</ele>
        <time>2024-05-14T13:31:38.369Z</time>
      </trkpt>
      <trkpt lat="47.85071" lon="5.32553">
        <ele>448</ele>
        <time>2024-05-14T13:31:42.908Z</time>
      </trkpt>
      <trkpt lat="47.85076" lon="5.32557">
        <ele>448</ele>
        <time>2024-05-14T13:31:46.962Z</time>
      </trkpt>
      <trkpt lat="47.8508" lon="5.32561">
        <ele>448</ele>
        <time>2024-05-14T13:31:51.962Z</time>
      </trkpt>
      <trkpt lat="47.85084" lon="5.32567">
        <ele>448</ele>
        <time>2024-05-14T13:31:56.509Z</time>
      </trkpt>
      <trkpt lat="47.85089" lon="5.32571">
        <ele>449</ele>
        <time>2024-05-14T13:32:00.962Z</time>
      </trkpt>
      <trkpt lat="47.85093" lon="5.32576">
        <ele>449</ele>
        <time>2024-05-14T13:32:05.024Z</time>
      </trkpt>
      <trkpt lat="47.85098" lon="5.32581">
        <ele>450</ele>
        <time>2024-05-14T13:32:09.340Z</time>
      </trkpt>
      <trkpt lat="47.85103" lon="5.32587">
        <ele>450</ele>
        <time>2024-05-14T13:32:13.386Z</time>
      </trkpt>
      <trkpt lat="47.85108" lon="5.32591">
        <ele>450</ele>
        <time>2024-05-14T13:32:17.824Z</time>
      </trkpt>
      <trkpt lat="47.85112" lon="5.32595">
        <ele>450</ele>
        <time>2024-05-14T13:32:21.962Z</time>
      </trkpt>
      <trkpt lat="47.85117" lon="5.32601">
        <ele>451</ele>
        <time>2024-05-14T13:32:26.423Z</time>
      </trkpt>
      <trkpt lat="47.85122" lon="5.32604">
        <ele>451</ele>
        <time>2024-05-14T13:32:30.485Z</time>
      </trkpt>
      <trkpt lat="47.85128" lon="5.32609">
        <ele>451</ele>
        <time>2024-05-14T13:32:34.963Z</time>
      </trkpt>
      <trkpt lat="47.85132" lon="5.32614">
        <ele>451</ele>
        <time>2024-05-14T13:32:39.622Z</time>
      </trkpt>
      <trkpt lat="47.85136" lon="5.32618">
        <ele>451</ele>
        <time>2024-05-14T13:32:44.248Z</time>
      </trkpt>
      <trkpt lat="47.85142" lon="5.32622">
        <ele>451</ele>
        <time>2024-05-14T13:32:48.762Z</time>
      </trkpt>
      <trkpt lat="47.85147" lon="5.32629">
        <ele>450</ele>
        <time>2024-05-14T13:32:52.910Z</time>
      </trkpt>
      <trkpt lat="47.8515" lon="5.32636">
        <ele>450</ele>
        <time>2024-05-14T13:32:56.970Z</time>
      </trkpt>
      <trkpt lat="47.85156" lon="5.32641">
        <ele>448</ele>
        <time>2024-05-14T13:33:01.543Z</time>
      </trkpt>
      <trkpt lat="47.85163" lon="5.32641">
        <ele>448</ele>
        <time>2024-05-14T13:33:05.587Z</time>
      </trkpt>
      <trkpt lat="47.85167" lon="5.32647">
        <ele>448</ele>
        <time>2024-05-14T13:33:09.963Z</time>
      </trkpt>
      <trkpt lat="47.85172" lon="5.32653">
        <ele>448</ele>
        <time>2024-05-14T13:33:14.070Z</time>
      </trkpt>
      <trkpt lat="47.85177" lon="5.32658">
        <ele>448</ele>
        <time>2024-05-14T13:33:18.728Z</time>
      </trkpt>
      <trkpt lat="47.85182" lon="5.3266">
        <ele>447</ele>
        <time>2024-05-14T13:33:23.787Z</time>
      </trkpt>
      <trkpt lat="47.85187" lon="5.32665">
        <ele>447</ele>
        <time>2024-05-14T13:33:27.963Z</time>
      </trkpt>
      <trkpt lat="47.85193" lon="5.32669">
        <ele>447</ele>
        <time>2024-05-14T13:33:32.464Z</time>
      </trkpt>
      <trkpt lat="47.85198" lon="5.32672">
        <ele>447</ele>
        <time>2024-05-14T13:33:36.962Z</time>
      </trkpt>
      <trkpt lat="47.85202" lon="5.32676">
        <ele>447</ele>
        <time>2024-05-14T13:33:41.705Z</time>
      </trkpt>
      <trkpt lat="47.85207" lon="5.32681">
        <ele>449</ele>
        <time>2024-05-14T13:33:46.288Z</time>
      </trkpt>
      <trkpt lat="47.85211" lon="5.32686">
        <ele>450</ele>
        <time>2024-05-14T13:33:50.306Z</time>
      </trkpt>
      <trkpt lat="47.85215" lon="5.32693">
        <ele>450</ele>
        <time>2024-05-14T13:33:54.546Z</time>
      </trkpt>
      <trkpt lat="47.85219" lon="5.32698">
        <ele>450</ele>
        <time>2024-05-14T13:33:58.608Z</time>
      </trkpt>
      <trkpt lat="47.85223" lon="5.32704">
        <ele>450</ele>
        <time>2024-05-14T13:34:02.739Z</time>
      </trkpt>
      <trkpt lat="47.85228" lon="5.32708">
        <ele>450</ele>
        <time>2024-05-14T13:34:07.346Z</time>
      </trkpt>
      <trkpt lat="47.85233" lon="5.32713">
        <ele>453</ele>
        <time>2024-05-14T13:34:11.943Z</time>
      </trkpt>
      <trkpt lat="47.85237" lon="5.32719">
        <ele>454</ele>
        <time>2024-05-14T13:34:15.963Z</time>
      </trkpt>
      <trkpt lat="47.85243" lon="5.32722">
        <ele>454</ele>
        <time>2024-05-14T13:34:19.962Z</time>
      </trkpt>
      <trkpt lat="47.85248" lon="5.32725">
        <ele>454</ele>
        <time>2024-05-14T13:34:24.546Z</time>
      </trkpt>
      <trkpt lat="47.85254" lon="5.32725">
        <ele>454</ele>
        <time>2024-05-14T13:34:28.962Z</time>
      </trkpt>
      <trkpt lat="47.85259" lon="5.32729">
        <ele>454</ele>
        <time>2024-05-14T13:34:33.069Z</time>
      </trkpt>
      <trkpt lat="47.85265" lon="5.32734">
        <ele>453</ele>
        <time>2024-05-14T13:34:37.609Z</time>
      </trkpt>
      <trkpt lat="47.8527" lon="5.3274">
        <ele>454</ele>
        <time>2024-05-14T13:34:41.850Z</time>
      </trkpt>
      <trkpt lat="47.85275" lon="5.32743">
        <ele>454</ele>
        <time>2024-05-14T13:34:46.346Z</time>
      </trkpt>
      <trkpt lat="47.8528" lon="5.32746">
        <ele>454</ele>
        <time>2024-05-14T13:34:50.869Z</time>
      </trkpt>
      <trkpt lat="47.85286" lon="5.32745">
        <ele>454</ele>
        <time>2024-05-14T13:34:54.963Z</time>
      </trkpt>
      <trkpt lat="47.85291" lon="5.32746">
        <ele>454</ele>
        <time>2024-05-14T13:34:59.588Z</time>
      </trkpt>
      <trkpt lat="47.85296" lon="5.32745">
        <ele>453</ele>
        <time>2024-05-14T13:35:03.962Z</time>
      </trkpt>
      <trkpt lat="47.85301" lon="5.32746">
        <ele>453</ele>
        <time>2024-05-14T13:35:08.522Z</time>
      </trkpt>
      <trkpt lat="47.85306" lon="5.32748">
        <ele>453</ele>
        <time>2024-05-14T13:35:12.962Z</time>
      </trkpt>
      <trkpt lat="47.85312" lon="5.32749">
        <ele>453</ele>
        <time>2024-05-14T13:35:17.566Z</time>
      </trkpt>
      <trkpt lat="47.85316" lon="5.32748">
        <ele>453</ele>
        <time>2024-05-14T13:35:21.962Z</time>
      </trkpt>
      <trkpt lat="47.8532" lon="5.32753">
        <ele>453</ele>
        <time>2024-05-14T13:35:26.389Z</time>
      </trkpt>
      <trkpt lat="47.85318" lon="5.32762">
        <ele>453</ele>
        <time>2024-05-14T13:35:30.724Z</time>
      </trkpt>
      <trkpt lat="47.85319" lon="5.32771">
        <ele>454</ele>
        <time>2024-05-14T13:35:34.963Z</time>
      </trkpt>
      <trkpt lat="47.85323" lon="5.32779">
        <ele>454</ele>
        <time>2024-05-14T13:35:39.648Z</time>
      </trkpt>
      <trkpt lat="47.85328" lon="5.3278">
        <ele>454</ele>
        <time>2024-05-14T13:35:43.962Z</time>
      </trkpt>
      <trkpt lat="47.85334" lon="5.3278">
        <ele>454</ele>
        <time>2024-05-14T13:35:48.548Z</time>
      </trkpt>
      <trkpt lat="47.85339" lon="5.32781">
        <ele>454</ele>
        <time>2024-05-14T13:35:52.967Z</time>
      </trkpt>
      <trkpt lat="47.85343" lon="5.3278">
        <ele>454</ele>
        <time>2024-05-14T13:35:57.387Z</time>
      </trkpt>
      <trkpt lat="47.85348" lon="5.32779">
        <ele>454</ele>
        <time>2024-05-14T13:36:01.789Z</time>
      </trkpt>
      <trkpt lat="47.85354" lon="5.32777">
        <ele>454</ele>
        <time>2024-05-14T13:36:06.269Z</time>
      </trkpt>
      <trkpt lat="47.85359" lon="5.32777">
        <ele>454</ele>
        <time>2024-05-14T13:36:10.663Z</time>
      </trkpt>
      <trkpt lat="47.85363" lon="5.3278">
        <ele>454</ele>
        <time>2024-05-14T13:36:14.962Z</time>
      </trkpt>
      <trkpt lat="47.85368" lon="5.32785">
        <ele>454</ele>
        <time>2024-05-14T13:36:19.230Z</time>
      </trkpt>
      <trkpt lat="47.85372" lon="5.32792">
        <ele>453</ele>
        <time>2024-05-14T13:36:23.624Z</time>
      </trkpt>
      <trkpt lat="47.85376" lon="5.32796">
        <ele>453</ele>
        <time>2024-05-14T13:36:27.962Z</time>
      </trkpt>
      <trkpt lat="47.8538" lon="5.32802">
        <ele>453</ele>
        <time>2024-05-14T13:36:32.464Z</time>
      </trkpt>
      <trkpt lat="47.85385" lon="5.32806">
        <ele>453</ele>
        <time>2024-05-14T13:36:36.943Z</time>
      </trkpt>
      <trkpt lat="47.85391" lon="5.3281">
        <ele>453</ele>
        <time>2024-05-14T13:36:40.963Z</time>
      </trkpt>
      <trkpt lat="47.85396" lon="5.32813">
        <ele>453</ele>
        <time>2024-05-14T13:36:45.327Z</time>
      </trkpt>
      <trkpt lat="47.85401" lon="5.32817">
        <ele>453</ele>
        <time>2024-05-14T13:36:49.810Z</time>
      </trkpt>
      <trkpt lat="47.85405" lon="5.32824">
        <ele>455</ele>
        <time>2024-05-14T13:36:53.888Z</time>
      </trkpt>
      <trkpt lat="47.8541" lon="5.3283">
        <ele>455</ele>
        <time>2024-05-14T13:36:58.180Z</time>
      </trkpt>
      <trkpt lat="47.85414" lon="5.32837">
        <ele>455</ele>
        <time>2024-05-14T13:37:02.805Z</time>
      </trkpt>
      <trkpt lat="47.85419" lon="5.32843">
        <ele>455</ele>
        <time>2024-05-14T13:37:06.963Z</time>
      </trkpt>
      <trkpt lat="47.85425" lon="5.32847">
        <ele>455</ele>
        <time>2024-05-14T13:37:11.268Z</time>
      </trkpt>
      <trkpt lat="47.85429" lon="5.32852">
        <ele>456</ele>
        <time>2024-05-14T13:37:15.382Z</time>
      </trkpt>
      <trkpt lat="47.85434" lon="5.32857">
        <ele>458</ele>
        <time>2024-05-14T13:37:19.963Z</time>
      </trkpt>
      <trkpt lat="47.85439" lon="5.32863">
        <ele>458</ele>
        <time>2024-05-14T13:37:24.024Z</time>
      </trkpt>
      <trkpt lat="47.85444" lon="5.32867">
        <ele>458</ele>
        <time>2024-05-14T13:37:28.550Z</time>
      </trkpt>
      <trkpt lat="47.85449" lon="5.32873">
        <ele>458</ele>
        <time>2024-05-14T13:37:32.608Z</time>
      </trkpt>
      <trkpt lat="47.85454" lon="5.32878">
        <ele>458</ele>
        <time>2024-05-14T13:37:36.962Z</time>
      </trkpt>
      <trkpt lat="47.85458" lon="5.32884">
        <ele>458</ele>
        <time>2024-05-14T13:37:41.447Z</time>
      </trkpt>
      <trkpt lat="47.85463" lon="5.32889">
        <ele>460</ele>
        <time>2024-05-14T13:37:45.842Z</time>
      </trkpt>
      <trkpt lat="47.85469" lon="5.32891">
        <ele>460</ele>
        <time>2024-05-14T13:37:49.963Z</time>
      </trkpt>
      <trkpt lat="47.85473" lon="5.32896">
        <ele>460</ele>
        <time>2024-05-14T13:37:54.424Z</time>
      </trkpt>
      <trkpt lat="47.85477" lon="5.32904">
        <ele>460</ele>
        <time>2024-05-14T13:37:58.665Z</time>
      </trkpt>
      <trkpt lat="47.85481" lon="5.3291">
        <ele>460</ele>
        <time>2024-05-14T13:38:03.282Z</time>
      </trkpt>
      <trkpt lat="47.85486" lon="5.32916">
        <ele>460</ele>
        <time>2024-05-14T13:38:07.962Z</time>
      </trkpt>
      <trkpt lat="47.8549" lon="5.32923">
        <ele>461</ele>
        <time>2024-05-14T13:38:12.684Z</time>
      </trkpt>
      <trkpt lat="47.85495" lon="5.32928">
        <ele>461</ele>
        <time>2024-05-14T13:38:16.963Z</time>
      </trkpt>
      <trkpt lat="47.855" lon="5.32933">
        <ele>462</ele>
        <time>2024-05-14T13:38:21.963Z</time>
      </trkpt>
      <trkpt lat="47.85504" lon="5.32939">
        <ele>462</ele>
        <time>2024-05-14T13:38:26.369Z</time>
      </trkpt>
      <trkpt lat="47.85509" lon="5.32944">
        <ele>462</ele>
        <time>2024-05-14T13:38:30.926Z</time>
      </trkpt>
      <trkpt lat="47.85513" lon="5.3295">
        <ele>462</ele>
        <time>2024-05-14T13:38:35.541Z</time>
      </trkpt>
      <trkpt lat="47.85517" lon="5.32956">
        <ele>463</ele>
        <time>2024-05-14T13:38:40.209Z</time>
      </trkpt>
      <trkpt lat="47.85522" lon="5.32961">
        <ele>464</ele>
        <time>2024-05-14T13:38:44.945Z</time>
      </trkpt>
      <trkpt lat="47.85527" lon="5.32964">
        <ele>464</ele>
        <time>2024-05-14T13:38:49.569Z</time>
      </trkpt>
      <trkpt lat="47.8553" lon="5.3297">
        <ele>464</ele>
        <time>2024-05-14T13:38:53.961Z</time>
      </trkpt>
      <trkpt lat="47.85536" lon="5.32976">
        <ele>464</ele>
        <time>2024-05-14T13:38:58.204Z</time>
      </trkpt>
      <trkpt lat="47.8554" lon="5.3298">
        <ele>464</ele>
        <time>2024-05-14T13:39:02.606Z</time>
      </trkpt>
      <trkpt lat="47.85545" lon="5.32985">
        <ele>464</ele>
        <time>2024-05-14T13:39:06.787Z</time>
      </trkpt>
      <trkpt lat="47.85549" lon="5.32989">
        <ele>466</ele>
        <time>2024-05-14T13:39:11.309Z</time>
      </trkpt>
      <trkpt lat="47.85554" lon="5.32994">
        <ele>466</ele>
        <time>2024-05-14T13:39:15.925Z</time>
      </trkpt>
      <trkpt lat="47.85559" lon="5.32999">
        <ele>466</ele>
        <time>2024-05-14T13:39:19.962Z</time>
      </trkpt>
      <trkpt lat="47.85564" lon="5.33004">
        <ele>466</ele>
        <time>2024-05-14T13:39:24.962Z</time>
      </trkpt>
      <trkpt lat="47.85568" lon="5.33009">
        <ele>466</ele>
        <time>2024-05-14T13:39:29.483Z</time>
      </trkpt>
      <trkpt lat="47.85572" lon="5.33015">
        <ele>467</ele>
        <time>2024-05-14T13:39:33.762Z</time>
      </trkpt>
      <trkpt lat="47.85577" lon="5.3302">
        <ele>467</ele>
        <time>2024-05-14T13:39:38.510Z</time>
      </trkpt>
      <trkpt lat="47.85583" lon="5.33026">
        <ele>467</ele>
        <time>2024-05-14T13:39:42.962Z</time>
      </trkpt>
      <trkpt lat="47.85588" lon="5.33027">
        <ele>467</ele>
        <time>2024-05-14T13:39:47.503Z</time>
      </trkpt>
      <trkpt lat="47.85595" lon="5.33029">
        <ele>467</ele>
        <time>2024-05-14T13:39:51.923Z</time>
      </trkpt>
      <trkpt lat="47.856" lon="5.33034">
        <ele>468</ele>
        <time>2024-05-14T13:39:56.445Z</time>
      </trkpt>
      <trkpt lat="47.85604" lon="5.33039">
        <ele>468</ele>
        <time>2024-05-14T13:40:00.950Z</time>
      </trkpt>
      <trkpt lat="47.85608" lon="5.33045">
        <ele>468</ele>
        <time>2024-05-14T13:40:05.446Z</time>
      </trkpt>
      <trkpt lat="47.85613" lon="5.3305">
        <ele>468</ele>
        <time>2024-05-14T13:40:09.806Z</time>
      </trkpt>
      <trkpt lat="47.85618" lon="5.33054">
        <ele>468</ele>
        <time>2024-05-14T13:40:13.961Z</time>
      </trkpt>
      <trkpt lat="47.85623" lon="5.3306">
        <ele>468</ele>
        <time>2024-05-14T13:40:18.347Z</time>
      </trkpt>
      <trkpt lat="47.85627" lon="5.33065">
        <ele>470</ele>
        <time>2024-05-14T13:40:22.485Z</time>
      </trkpt>
      <trkpt lat="47.85632" lon="5.3307">
        <ele>469</ele>
        <time>2024-05-14T13:40:26.904Z</time>
      </trkpt>
      <trkpt lat="47.85637" lon="5.33076">
        <ele>469</ele>
        <time>2024-05-14T13:40:30.961Z</time>
      </trkpt>
      <trkpt lat="47.85642" lon="5.33081">
        <ele>469</ele>
        <time>2024-05-14T13:40:35.343Z</time>
      </trkpt>
      <trkpt lat="47.85647" lon="5.33086">
        <ele>469</ele>
        <time>2024-05-14T13:40:39.446Z</time>
      </trkpt>
      <trkpt lat="47.85645" lon="5.331">
        <ele>468</ele>
        <time>2024-05-14T13:40:43.962Z</time>
      </trkpt>
      <trkpt lat="47.85649" lon="5.33105">
        <ele>468</ele>
        <time>2024-05-14T13:40:48.449Z</time>
      </trkpt>
      <trkpt lat="47.85655" lon="5.33109">
        <ele>469</ele>
        <time>2024-05-14T13:40:51.961Z</time>
      </trkpt>
      <trkpt lat="47.8566" lon="5.33113">
        <ele>469</ele>
        <time>2024-05-14T13:41:00.961Z</time>
      </trkpt>
      <trkpt lat="47.85666" lon="5.33117">
        <ele>469</ele>
        <time>2024-05-14T13:41:05.931Z</time>
      </trkpt>
      <trkpt lat="47.85671" lon="5.33121">
        <ele>469</ele>
        <time>2024-05-14T13:41:09.957Z</time>
      </trkpt>
      <trkpt lat="47.85677" lon="5.33126">
        <ele>467</ele>
        <time>2024-05-14T13:41:14.947Z</time>
      </trkpt>
      <trkpt lat="47.85681" lon="5.33131">
        <ele>466</ele>
        <time>2024-05-14T13:41:18.950Z</time>
      </trkpt>
      <trkpt lat="47.85687" lon="5.33135">
        <ele>466</ele>
        <time>2024-05-14T13:41:58.961Z</time>
      </trkpt>
      <trkpt lat="47.85691" lon="5.33139">
        <ele>466</ele>
        <time>2024-05-14T13:42:03.947Z</time>
      </trkpt>
      <trkpt lat="47.85695" lon="5.33144">
        <ele>466</ele>
        <time>2024-05-14T13:42:08.962Z</time>
      </trkpt>
      <trkpt lat="47.857" lon="5.33148">
        <ele>466</ele>
        <time>2024-05-14T13:42:13.962Z</time>
      </trkpt>
      <trkpt lat="47.85705" lon="5.33153">
        <ele>465</ele>
        <time>2024-05-14T13:42:17.961Z</time>
      </trkpt>
      <trkpt lat="47.85709" lon="5.3316">
        <ele>466</ele>
        <time>2024-05-14T13:42:22.304Z</time>
      </trkpt>
      <trkpt lat="47.85714" lon="5.33167">
        <ele>466</ele>
        <time>2024-05-14T13:42:26.733Z</time>
      </trkpt>
      <trkpt lat="47.85719" lon="5.33172">
        <ele>466</ele>
        <time>2024-05-14T13:42:30.757Z</time>
      </trkpt>
      <trkpt lat="47.85723" lon="5.33178">
        <ele>466</ele>
        <time>2024-05-14T13:42:35.293Z</time>
      </trkpt>
      <trkpt lat="47.85729" lon="5.33181">
        <ele>466</ele>
        <time>2024-05-14T13:42:39.705Z</time>
      </trkpt>
      <trkpt lat="47.85734" lon="5.33188">
        <ele>466</ele>
        <time>2024-05-14T13:42:43.727Z</time>
      </trkpt>
      <trkpt lat="47.85739" lon="5.33191">
        <ele>468</ele>
        <time>2024-05-14T13:42:47.797Z</time>
      </trkpt>
      <trkpt lat="47.85744" lon="5.33196">
        <ele>468</ele>
        <time>2024-05-14T13:42:51.930Z</time>
      </trkpt>
      <trkpt lat="47.8575" lon="5.33201">
        <ele>468</ele>
        <time>2024-05-14T13:42:56.388Z</time>
      </trkpt>
      <trkpt lat="47.85755" lon="5.33205">
        <ele>468</ele>
        <time>2024-05-14T13:43:00.513Z</time>
      </trkpt>
      <trkpt lat="47.8576" lon="5.3321">
        <ele>468</ele>
        <time>2024-05-14T13:43:04.961Z</time>
      </trkpt>
      <trkpt lat="47.85765" lon="5.33214">
        <ele>468</ele>
        <time>2024-05-14T13:43:09.567Z</time>
      </trkpt>
      <trkpt lat="47.8577" lon="5.33218">
        <ele>468</ele>
        <time>2024-05-14T13:43:13.962Z</time>
      </trkpt>
      <trkpt lat="47.85776" lon="5.3322">
        <ele>468</ele>
        <time>2024-05-14T13:43:18.584Z</time>
      </trkpt>
      <trkpt lat="47.85781" lon="5.33222">
        <ele>468</ele>
        <time>2024-05-14T13:43:23.093Z</time>
      </trkpt>
      <trkpt lat="47.85784" lon="5.33225">
        <ele>468</ele>
        <time>2024-05-14T13:43:27.523Z</time>
      </trkpt>
      <trkpt lat="47.85787" lon="5.33231">
        <ele>468</ele>
        <time>2024-05-14T13:43:31.962Z</time>
      </trkpt>
      <trkpt lat="47.85793" lon="5.33235">
        <ele>467</ele>
        <time>2024-05-14T13:43:35.962Z</time>
      </trkpt>
      <trkpt lat="47.85798" lon="5.33239">
        <ele>468</ele>
        <time>2024-05-14T13:43:40.547Z</time>
      </trkpt>
      <trkpt lat="47.85803" lon="5.33244">
        <ele>468</ele>
        <time>2024-05-14T13:43:44.730Z</time>
      </trkpt>
      <trkpt lat="47.85807" lon="5.33251">
        <ele>468</ele>
        <time>2024-05-14T13:44:07.961Z</time>
      </trkpt>
      <trkpt lat="47.85807" lon="5.33252">
        <ele>468</ele>
        <time>2024-05-14T13:44:12.710Z</time>
      </trkpt>
      <trkpt lat="47.85806" lon="5.33253">
        <ele>468</ele>
        <time>2024-05-14T13:44:16.961Z</time>
      </trkpt>
      <trkpt lat="47.85817" lon="5.33263">
        <ele>468</ele>
        <time>2024-05-14T13:44:21.961Z</time>
      </trkpt>
      <trkpt lat="47.85821" lon="5.33268">
        <ele>468</ele>
        <time>2024-05-14T13:44:25.976Z</time>
      </trkpt>
      <trkpt lat="47.85824" lon="5.3327">
        <ele>468</ele>
        <time>2024-05-14T13:44:30.054Z</time>
      </trkpt>
      <trkpt lat="47.85827" lon="5.33279">
        <ele>468</ele>
        <time>2024-05-14T13:44:34.961Z</time>
      </trkpt>
      <trkpt lat="47.8583" lon="5.33286">
        <ele>468</ele>
        <time>2024-05-14T13:44:39.725Z</time>
      </trkpt>
      <trkpt lat="47.8583" lon="5.33292">
        <ele>468</ele>
        <time>2024-05-14T13:44:43.961Z</time>
      </trkpt>
      <trkpt lat="47.85834" lon="5.33298">
        <ele>468</ele>
        <time>2024-05-14T13:44:47.961Z</time>
      </trkpt>
      <trkpt lat="47.85839" lon="5.33304">
        <ele>468</ele>
        <time>2024-05-14T13:44:52.887Z</time>
      </trkpt>
      <trkpt lat="47.85842" lon="5.33308">
        <ele>468</ele>
        <time>2024-05-14T13:44:56.961Z</time>
      </trkpt>
      <trkpt lat="47.85847" lon="5.33311">
        <ele>468</ele>
        <time>2024-05-14T13:45:01.962Z</time>
      </trkpt>
      <trkpt lat="47.85851" lon="5.33312">
        <ele>468</ele>
        <time>2024-05-14T13:45:06.289Z</time>
      </trkpt>
      <trkpt lat="47.85854" lon="5.33314">
        <ele>468</ele>
        <time>2024-05-14T13:45:10.800Z</time>
      </trkpt>
      <trkpt lat="47.85859" lon="5.33315">
        <ele>468</ele>
        <time>2024-05-14T13:45:15.926Z</time>
      </trkpt>
      <trkpt lat="47.85865" lon="5.33318">
        <ele>468</ele>
        <time>2024-05-14T13:45:19.961Z</time>
      </trkpt>
      <trkpt lat="47.8587" lon="5.33319">
        <ele>468</ele>
        <time>2024-05-14T13:45:24.873Z</time>
      </trkpt>
      <trkpt lat="47.85875" lon="5.33321">
        <ele>468</ele>
        <time>2024-05-14T13:45:29.630Z</time>
      </trkpt>
      <trkpt lat="47.8588" lon="5.33323">
        <ele>468</ele>
        <time>2024-05-14T13:45:33.906Z</time>
      </trkpt>
      <trkpt lat="47.85885" lon="5.33324">
        <ele>468</ele>
        <time>2024-05-14T13:45:38.267Z</time>
      </trkpt>
      <trkpt lat="47.85891" lon="5.33323">
        <ele>468</ele>
        <time>2024-05-14T13:45:42.863Z</time>
      </trkpt>
      <trkpt lat="47.85896" lon="5.33324">
        <ele>468</ele>
        <time>2024-05-14T13:45:46.883Z</time>
      </trkpt>
      <trkpt lat="47.85901" lon="5.33324">
        <ele>468</ele>
        <time>2024-05-14T13:45:50.961Z</time>
      </trkpt>
      <trkpt lat="47.85906" lon="5.33323">
        <ele>468</ele>
        <time>2024-05-14T13:45:55.628Z</time>
      </trkpt>
      <trkpt lat="47.85911" lon="5.33323">
        <ele>468</ele>
        <time>2024-05-14T13:45:59.962Z</time>
      </trkpt>
      <trkpt lat="47.85919" lon="5.33327">
        <ele>468</ele>
        <time>2024-05-14T13:46:04.706Z</time>
      </trkpt>
      <trkpt lat="47.8592" lon="5.33336">
        <ele>468</ele>
        <time>2024-05-14T13:46:08.960Z</time>
      </trkpt>
      <trkpt lat="47.8592" lon="5.33342">
        <ele>468</ele>
        <time>2024-05-14T13:46:13.146Z</time>
      </trkpt>
      <trkpt lat="47.8592" lon="5.33351">
        <ele>468</ele>
        <time>2024-05-14T13:47:02.825Z</time>
      </trkpt>
      <trkpt lat="47.85921" lon="5.33357">
        <ele>468</ele>
        <time>2024-05-14T13:47:07.252Z</time>
      </trkpt>
      <trkpt lat="47.85921" lon="5.33363">
        <ele>468</ele>
        <time>2024-05-14T13:47:11.960Z</time>
      </trkpt>
      <trkpt lat="47.85918" lon="5.33371">
        <ele>468</ele>
        <time>2024-05-14T13:47:16.960Z</time>
      </trkpt>
      <trkpt lat="47.85917" lon="5.33379">
        <ele>467</ele>
        <time>2024-05-14T13:47:21.470Z</time>
      </trkpt>
      <trkpt lat="47.85919" lon="5.3339">
        <ele>467</ele>
        <time>2024-05-14T13:47:25.650Z</time>
      </trkpt>
      <trkpt lat="47.85919" lon="5.33397">
        <ele>467</ele>
        <time>2024-05-14T13:47:29.669Z</time>
      </trkpt>
      <trkpt lat="47.85916" lon="5.33406">
        <ele>467</ele>
        <time>2024-05-14T13:47:33.830Z</time>
      </trkpt>
      <trkpt lat="47.85911" lon="5.33411">
        <ele>467</ele>
        <time>2024-05-14T13:47:37.849Z</time>
      </trkpt>
      <trkpt lat="47.8591" lon="5.33416">
        <ele>467</ele>
        <time>2024-05-14T13:47:41.960Z</time>
      </trkpt>
      <trkpt lat="47.8591" lon="5.33423">
        <ele>467</ele>
        <time>2024-05-14T13:47:46.512Z</time>
      </trkpt>
      <trkpt lat="47.8591" lon="5.3343">
        <ele>467</ele>
        <time>2024-05-14T13:47:50.961Z</time>
      </trkpt>
      <trkpt lat="47.85911" lon="5.33434">
        <ele>467</ele>
        <time>2024-05-14T13:47:55.126Z</time>
      </trkpt>
      <trkpt lat="47.85914" lon="5.33441">
        <ele>467</ele>
        <time>2024-05-14T13:47:59.286Z</time>
      </trkpt>
      <trkpt lat="47.85916" lon="5.33451">
        <ele>467</ele>
        <time>2024-05-14T13:48:03.670Z</time>
      </trkpt>
      <trkpt lat="47.85918" lon="5.3346">
        <ele>467</ele>
        <time>2024-05-14T13:48:07.960Z</time>
      </trkpt>
      <trkpt lat="47.85918" lon="5.33467">
        <ele>467</ele>
        <time>2024-05-14T13:48:12.543Z</time>
      </trkpt>
      <trkpt lat="47.85915" lon="5.33475">
        <ele>467</ele>
        <time>2024-05-14T13:48:16.960Z</time>
      </trkpt>
      <trkpt lat="47.85916" lon="5.33485">
        <ele>467</ele>
        <time>2024-05-14T13:48:21.489Z</time>
      </trkpt>
      <trkpt lat="47.85915" lon="5.33493">
        <ele>467</ele>
        <time>2024-05-14T13:48:25.961Z</time>
      </trkpt>
      <trkpt lat="47.85915" lon="5.335">
        <ele>467</ele>
        <time>2024-05-14T13:48:30.583Z</time>
      </trkpt>
      <trkpt lat="47.85916" lon="5.33509">
        <ele>467</ele>
        <time>2024-05-14T13:48:34.960Z</time>
      </trkpt>
      <trkpt lat="47.85916" lon="5.33517">
        <ele>463</ele>
        <time>2024-05-14T13:48:39.564Z</time>
      </trkpt>
      <trkpt lat="47.85913" lon="5.33522">
        <ele>463</ele>
        <time>2024-05-14T13:48:43.684Z</time>
      </trkpt>
      <trkpt lat="47.8591" lon="5.33517">
        <ele>463</ele>
        <time>2024-05-14T13:48:47.734Z</time>
      </trkpt>
      <trkpt lat="47.85905" lon="5.33518">
        <ele>463</ele>
        <time>2024-05-14T13:48:51.961Z</time>
      </trkpt>
      <trkpt lat="47.85913" lon="5.33527">
        <ele>463</ele>
        <time>2024-05-14T13:48:56.338Z</time>
      </trkpt>
      <trkpt lat="47.85914" lon="5.33521">
        <ele>463</ele>
        <time>2024-05-14T13:49:00.946Z</time>
      </trkpt>
      <trkpt lat="47.85917" lon="5.33523">
        <ele>463</ele>
        <time>2024-05-14T13:49:05.250Z</time>
      </trkpt>
      <trkpt lat="47.85918" lon="5.33523">
        <ele>463</ele>
        <time>2024-05-14T13:49:09.547Z</time>
      </trkpt>
      <trkpt lat="47.85918" lon="5.33519">
        <ele>463</ele>
        <time>2024-05-14T13:50:21.960Z</time>
      </trkpt>
      <trkpt lat="47.85917" lon="5.33509">
        <ele>467</ele>
        <time>2024-05-14T13:50:25.960Z</time>
      </trkpt>
      <trkpt lat="47.85918" lon="5.33502">
        <ele>467</ele>
        <time>2024-05-14T13:50:30.960Z</time>
      </trkpt>
      <trkpt lat="47.85917" lon="5.33493">
        <ele>467</ele>
        <time>2024-05-14T13:50:35.582Z</time>
      </trkpt>
      <trkpt lat="47.85918" lon="5.33487">
        <ele>467</ele>
        <time>2024-05-14T13:50:40.249Z</time>
      </trkpt>
      <trkpt lat="47.85922" lon="5.33486">
        <ele>467</ele>
        <time>2024-05-14T13:50:44.764Z</time>
      </trkpt>
      <trkpt lat="47.85922" lon="5.33486">
        <ele>467</ele>
        <time>2024-05-14T13:50:48.901Z</time>
      </trkpt>
      <trkpt lat="47.85924" lon="5.3349">
        <ele>467</ele>
        <time>2024-05-14T13:50:53.048Z</time>
      </trkpt>
      <trkpt lat="47.85923" lon="5.33497">
        <ele>467</ele>
        <time>2024-05-14T13:50:57.263Z</time>
      </trkpt>
      <trkpt lat="47.85922" lon="5.33504">
        <ele>467</ele>
        <time>2024-05-14T13:51:01.829Z</time>
      </trkpt>
      <trkpt lat="47.85924" lon="5.33513">
        <ele>467</ele>
        <time>2024-05-14T13:51:05.863Z</time>
      </trkpt>
      <trkpt lat="47.85925" lon="5.3352">
        <ele>463</ele>
        <time>2024-05-14T13:51:09.884Z</time>
      </trkpt>
      <trkpt lat="47.85929" lon="5.33524">
        <ele>463</ele>
        <time>2024-05-14T13:51:14.448Z</time>
      </trkpt>
      <trkpt lat="47.85935" lon="5.33527">
        <ele>464</ele>
        <time>2024-05-14T13:51:18.971Z</time>
      </trkpt>
      <trkpt lat="47.85937" lon="5.33531">
        <ele>464</ele>
        <time>2024-05-14T13:51:21.960Z</time>
      </trkpt>
      <trkpt lat="47.85943" lon="5.33532">
        <ele>464</ele>
        <time>2024-05-14T13:51:27.790Z</time>
      </trkpt>
      <trkpt lat="47.8595" lon="5.33529">
        <ele>464</ele>
        <time>2024-05-14T13:51:36.960Z</time>
      </trkpt>
      <trkpt lat="47.85955" lon="5.33531">
        <ele>464</ele>
        <time>2024-05-14T13:51:40.961Z</time>
      </trkpt>
      <trkpt lat="47.85961" lon="5.33531">
        <ele>462</ele>
        <time>2024-05-14T13:51:45.874Z</time>
      </trkpt>
      <trkpt lat="47.85965" lon="5.33533">
        <ele>462</ele>
        <time>2024-05-14T13:51:50.815Z</time>
      </trkpt>
      <trkpt lat="47.8597" lon="5.33533">
        <ele>462</ele>
        <time>2024-05-14T13:51:54.960Z</time>
      </trkpt>
      <trkpt lat="47.85975" lon="5.33534">
        <ele>462</ele>
        <time>2024-05-14T13:51:59.690Z</time>
      </trkpt>
      <trkpt lat="47.8598" lon="5.33531">
        <ele>462</ele>
        <time>2024-05-14T13:52:04.749Z</time>
      </trkpt>
      <trkpt lat="47.85986" lon="5.33532">
        <ele>462</ele>
        <time>2024-05-14T13:52:09.961Z</time>
      </trkpt>
      <trkpt lat="47.85992" lon="5.33533">
        <ele>459</ele>
        <time>2024-05-14T13:52:14.528Z</time>
      </trkpt>
      <trkpt lat="47.85998" lon="5.33534">
        <ele>459</ele>
        <time>2024-05-14T13:52:18.600Z</time>
      </trkpt>
      <trkpt lat="47.86005" lon="5.33539">
        <ele>459</ele>
        <time>2024-05-14T13:52:22.960Z</time>
      </trkpt>
      <trkpt lat="47.86005" lon="5.3354">
        <ele>459</ele>
        <time>2024-05-14T13:52:27.553Z</time>
      </trkpt>
      <trkpt lat="47.86008" lon="5.33538">
        <ele>459</ele>
        <time>2024-05-14T13:52:31.961Z</time>
      </trkpt>
      <trkpt lat="47.86011" lon="5.33539">
        <ele>459</ele>
        <time>2024-05-14T13:52:36.135Z</time>
      </trkpt>
      <trkpt lat="47.86017" lon="5.33539">
        <ele>459</ele>
        <time>2024-05-14T13:52:40.166Z</time>
      </trkpt>
      <trkpt lat="47.86021" lon="5.33539">
        <ele>459</ele>
        <time>2024-05-14T13:52:44.887Z</time>
      </trkpt>
      <trkpt lat="47.86027" lon="5.3354">
        <ele>459</ele>
        <time>2024-05-14T13:52:48.961Z</time>
      </trkpt>
      <trkpt lat="47.86032" lon="5.33542">
        <ele>459</ele>
        <time>2024-05-14T13:52:53.593Z</time>
      </trkpt>
      <trkpt lat="47.86037" lon="5.33542">
        <ele>454</ele>
        <time>2024-05-14T13:52:57.961Z</time>
      </trkpt>
      <trkpt lat="47.86042" lon="5.33543">
        <ele>456</ele>
        <time>2024-05-14T13:53:02.194Z</time>
      </trkpt>
      <trkpt lat="47.86047" lon="5.33544">
        <ele>456</ele>
        <time>2024-05-14T13:53:06.509Z</time>
      </trkpt>
      <trkpt lat="47.86052" lon="5.33546">
        <ele>456</ele>
        <time>2024-05-14T13:53:10.774Z</time>
      </trkpt>
      <trkpt lat="47.86057" lon="5.33546">
        <ele>456</ele>
        <time>2024-05-14T13:53:14.959Z</time>
      </trkpt>
      <trkpt lat="47.86062" lon="5.33549">
        <ele>456</ele>
        <time>2024-05-14T13:53:18.969Z</time>
      </trkpt>
      <trkpt lat="47.86066" lon="5.33549">
        <ele>456</ele>
        <time>2024-05-14T13:53:23.960Z</time>
      </trkpt>
      <trkpt lat="47.86072" lon="5.33551">
        <ele>458</ele>
        <time>2024-05-14T13:53:47.960Z</time>
      </trkpt>
      <trkpt lat="47.86076" lon="5.33553">
        <ele>458</ele>
        <time>2024-05-14T13:53:52.089Z</time>
      </trkpt>
      <trkpt lat="47.8608" lon="5.33553">
        <ele>458</ele>
        <time>2024-05-14T13:53:56.960Z</time>
      </trkpt>
      <trkpt lat="47.86088" lon="5.33553">
        <ele>458</ele>
        <time>2024-05-14T13:54:01.959Z</time>
      </trkpt>
      <trkpt lat="47.86092" lon="5.33555">
        <ele>458</ele>
        <time>2024-05-14T13:54:06.959Z</time>
      </trkpt>
      <trkpt lat="47.86098" lon="5.33556">
        <ele>461</ele>
        <time>2024-05-14T13:54:11.248Z</time>
      </trkpt>
      <trkpt lat="47.86103" lon="5.33557">
        <ele>461</ele>
        <time>2024-05-14T13:54:15.625Z</time>
      </trkpt>
      <trkpt lat="47.86111" lon="5.33557">
        <ele>461</ele>
        <time>2024-05-14T13:54:20.148Z</time>
      </trkpt>
      <trkpt lat="47.86117" lon="5.33559">
        <ele>461</ele>
        <time>2024-05-14T13:54:24.451Z</time>
      </trkpt>
      <trkpt lat="47.86122" lon="5.33559">
        <ele>461</ele>
        <time>2024-05-14T13:54:28.972Z</time>
      </trkpt>
      <trkpt lat="47.86127" lon="5.3356">
        <ele>461</ele>
        <time>2024-05-14T13:54:33.959Z</time>
      </trkpt>
      <trkpt lat="47.86132" lon="5.33562">
        <ele>461</ele>
        <time>2024-05-14T13:54:37.960Z</time>
      </trkpt>
      <trkpt lat="47.86138" lon="5.33562">
        <ele>461</ele>
        <time>2024-05-14T13:54:39.673Z</time>
      </trkpt>
      <trkpt lat="47.86143" lon="5.33563">
        <ele>461</ele>
        <time>2024-05-14T13:55:01.706Z</time>
      </trkpt>
      <trkpt lat="47.86148" lon="5.33564">
        <ele>461</ele>
        <time>2024-05-14T13:55:05.960Z</time>
      </trkpt>
      <trkpt lat="47.86153" lon="5.33565">
        <ele>460</ele>
        <time>2024-05-14T13:55:10.512Z</time>
      </trkpt>
      <trkpt lat="47.86159" lon="5.33566">
        <ele>460</ele>
        <time>2024-05-14T13:55:14.959Z</time>
      </trkpt>
      <trkpt lat="47.86163" lon="5.33568">
        <ele>460</ele>
        <time>2024-05-14T13:55:19.146Z</time>
      </trkpt>
      <trkpt lat="47.86169" lon="5.33569">
        <ele>460</ele>
        <time>2024-05-14T13:55:23.210Z</time>
      </trkpt>
      <trkpt lat="47.86175" lon="5.33571">
        <ele>456</ele>
        <time>2024-05-14T13:55:27.960Z</time>
      </trkpt>
      <trkpt lat="47.86179" lon="5.33574">
        <ele>456</ele>
        <time>2024-05-14T13:55:32.959Z</time>
      </trkpt>
      <trkpt lat="47.86181" lon="5.33579">
        <ele>457</ele>
        <time>2024-05-14T13:55:37.045Z</time>
      </trkpt>
      <trkpt lat="47.86184" lon="5.33576">
        <ele>457</ele>
        <time>2024-05-14T13:55:41.271Z</time>
      </trkpt>
      <trkpt lat="47.8619" lon="5.3358">
        <ele>457</ele>
        <time>2024-05-14T13:55:45.600Z</time>
      </trkpt>
      <trkpt lat="47.8619" lon="5.33588">
        <ele>457</ele>
        <time>2024-05-14T13:55:50.556Z</time>
      </trkpt>
      <trkpt lat="47.86189" lon="5.33589">
        <ele>457</ele>
        <time>2024-05-14T13:55:55.548Z</time>
      </trkpt>
      <trkpt lat="47.8619" lon="5.33589">
        <ele>457</ele>
        <time>2024-05-14T13:55:59.960Z</time>
      </trkpt>
      <trkpt lat="47.86195" lon="5.33591">
        <ele>457</ele>
        <time>2024-05-14T13:56:04.959Z</time>
      </trkpt>
      <trkpt lat="47.862" lon="5.336">
        <ele>453</ele>
        <time>2024-05-14T13:56:09.889Z</time>
      </trkpt>
      <trkpt lat="47.86205" lon="5.33605">
        <ele>453</ele>
        <time>2024-05-14T13:56:14.276Z</time>
      </trkpt>
      <trkpt lat="47.86208" lon="5.33612">
        <ele>453</ele>
        <time>2024-05-14T13:56:18.959Z</time>
      </trkpt>
      <trkpt lat="47.86213" lon="5.33613">
        <ele>457</ele>
        <time>2024-05-14T13:56:23.553Z</time>
      </trkpt>
      <trkpt lat="47.86219" lon="5.33617">
        <ele>457</ele>
        <time>2024-05-14T13:56:27.687Z</time>
      </trkpt>
      <trkpt lat="47.86224" lon="5.33621">
        <ele>457</ele>
        <time>2024-05-14T13:56:31.959Z</time>
      </trkpt>
      <trkpt lat="47.86229" lon="5.33627">
        <ele>453</ele>
        <time>2024-05-14T13:56:36.959Z</time>
      </trkpt>
      <trkpt lat="47.86233" lon="5.33631">
        <ele>453</ele>
        <time>2024-05-14T13:56:41.424Z</time>
      </trkpt>
      <trkpt lat="47.86239" lon="5.33635">
        <ele>458</ele>
        <time>2024-05-14T13:56:45.524Z</time>
      </trkpt>
      <trkpt lat="47.86244" lon="5.33637">
        <ele>458</ele>
        <time>2024-05-14T13:56:49.709Z</time>
      </trkpt>
      <trkpt lat="47.86246" lon="5.33637">
        <ele>458</ele>
        <time>2024-05-14T13:57:07.734Z</time>
      </trkpt>
      <trkpt lat="47.86262" lon="5.33642">
        <ele>458</ele>
        <time>2024-05-14T13:57:11.959Z</time>
      </trkpt>
      <trkpt lat="47.86268" lon="5.33639">
        <ele>460</ele>
        <time>2024-05-14T13:57:16.960Z</time>
      </trkpt>
      <trkpt lat="47.86274" lon="5.33639">
        <ele>460</ele>
        <time>2024-05-14T13:57:21.524Z</time>
      </trkpt>
      <trkpt lat="47.86283" lon="5.3364">
        <ele>460</ele>
        <time>2024-05-14T13:57:25.960Z</time>
      </trkpt>
      <trkpt lat="47.86287" lon="5.33638">
        <ele>460</ele>
        <time>2024-05-14T13:57:30.537Z</time>
      </trkpt>
      <trkpt lat="47.86293" lon="5.33639">
        <ele>460</ele>
        <time>2024-05-14T13:57:34.668Z</time>
      </trkpt>
      <trkpt lat="47.86298" lon="5.33639">
        <ele>460</ele>
        <time>2024-05-14T13:57:38.886Z</time>
      </trkpt>
      <trkpt lat="47.86304" lon="5.33637">
        <ele>460</ele>
        <time>2024-05-14T13:57:42.960Z</time>
      </trkpt>
      <trkpt lat="47.86309" lon="5.33638">
        <ele>460</ele>
        <time>2024-05-14T13:57:47.829Z</time>
      </trkpt>
      <trkpt lat="47.86313" lon="5.3364">
        <ele>460</ele>
        <time>2024-05-14T13:57:51.960Z</time>
      </trkpt>
      <trkpt lat="47.86319" lon="5.33642">
        <ele>460</ele>
        <time>2024-05-14T13:57:56.966Z</time>
      </trkpt>
      <trkpt lat="47.86324" lon="5.33639">
        <ele>463</ele>
        <time>2024-05-14T13:58:01.712Z</time>
      </trkpt>
      <trkpt lat="47.86332" lon="5.3364">
        <ele>463</ele>
        <time>2024-05-14T13:58:05.960Z</time>
      </trkpt>
      <trkpt lat="47.86338" lon="5.33642">
        <ele>463</ele>
        <time>2024-05-14T13:58:10.552Z</time>
      </trkpt>
      <trkpt lat="47.86344" lon="5.33647">
        <ele>463</ele>
        <time>2024-05-14T13:58:15.151Z</time>
      </trkpt>
      <trkpt lat="47.86349" lon="5.33653">
        <ele>461</ele>
        <time>2024-05-14T13:58:19.959Z</time>
      </trkpt>
      <trkpt lat="47.86354" lon="5.33658">
        <ele>461</ele>
        <time>2024-05-14T13:58:24.069Z</time>
      </trkpt>
      <trkpt lat="47.86361" lon="5.33657">
        <ele>461</ele>
        <time>2024-05-14T13:58:28.283Z</time>
      </trkpt>
      <trkpt lat="47.86366" lon="5.3366">
        <ele>461</ele>
        <time>2024-05-14T13:58:32.670Z</time>
      </trkpt>
      <trkpt lat="47.86372" lon="5.33666">
        <ele>461</ele>
        <time>2024-05-14T13:58:37.167Z</time>
      </trkpt>
      <trkpt lat="47.86376" lon="5.33667">
        <ele>464</ele>
        <time>2024-05-14T13:58:41.485Z</time>
      </trkpt>
      <trkpt lat="47.86375" lon="5.33667">
        <ele>461</ele>
        <time>2024-05-14T13:58:45.931Z</time>
      </trkpt>
      <trkpt lat="47.86376" lon="5.33667">
        <ele>464</ele>
        <time>2024-05-14T13:58:50.205Z</time>
      </trkpt>
      <trkpt lat="47.86382" lon="5.3367">
        <ele>464</ele>
        <time>2024-05-14T13:58:54.960Z</time>
      </trkpt>
      <trkpt lat="47.86388" lon="5.33671">
        <ele>464</ele>
        <time>2024-05-14T13:58:59.506Z</time>
      </trkpt>
      <trkpt lat="47.86397" lon="5.33676">
        <ele>464</ele>
        <time>2024-05-14T13:59:03.568Z</time>
      </trkpt>
      <trkpt lat="47.86399" lon="5.33677">
        <ele>464</ele>
        <time>2024-05-14T13:59:07.959Z</time>
      </trkpt>
      <trkpt lat="47.86399" lon="5.33678">
        <ele>464</ele>
        <time>2024-05-14T13:59:12.960Z</time>
      </trkpt>
      <trkpt lat="47.864" lon="5.33678">
        <ele>464</ele>
        <time>2024-05-14T13:59:15.960Z</time>
      </trkpt>
      <trkpt lat="47.86407" lon="5.3368">
        <ele>464</ele>
        <time>2024-05-14T13:59:24.959Z</time>
      </trkpt>
      <trkpt lat="47.86413" lon="5.33682">
        <ele>457</ele>
        <time>2024-05-14T13:59:29.960Z</time>
      </trkpt>
      <trkpt lat="47.86419" lon="5.33685">
        <ele>457</ele>
        <time>2024-05-14T13:59:34.470Z</time>
      </trkpt>
      <trkpt lat="47.86422" lon="5.3369">
        <ele>457</ele>
        <time>2024-05-14T13:59:38.550Z</time>
      </trkpt>
      <trkpt lat="47.86428" lon="5.3369">
        <ele>457</ele>
        <time>2024-05-14T13:59:42.960Z</time>
      </trkpt>
      <trkpt lat="47.86433" lon="5.33692">
        <ele>458</ele>
        <time>2024-05-14T13:59:47.959Z</time>
      </trkpt>
      <trkpt lat="47.86438" lon="5.3369">
        <ele>458</ele>
        <time>2024-05-14T13:59:51.961Z</time>
      </trkpt>
      <trkpt lat="47.86443" lon="5.33691">
        <ele>458</ele>
        <time>2024-05-14T13:59:56.468Z</time>
      </trkpt>
      <trkpt lat="47.86449" lon="5.33693">
        <ele>458</ele>
        <time>2024-05-14T14:00:00.958Z</time>
      </trkpt>
      <trkpt lat="47.86453" lon="5.33694">
        <ele>458</ele>
        <time>2024-05-14T14:00:05.685Z</time>
      </trkpt>
      <trkpt lat="47.86459" lon="5.33695">
        <ele>459</ele>
        <time>2024-05-14T14:00:09.959Z</time>
      </trkpt>
      <trkpt lat="47.86464" lon="5.33696">
        <ele>459</ele>
        <time>2024-05-14T14:00:14.347Z</time>
      </trkpt>
      <trkpt lat="47.8647" lon="5.33698">
        <ele>459</ele>
        <time>2024-05-14T14:00:18.958Z</time>
      </trkpt>
      <trkpt lat="47.86475" lon="5.33698">
        <ele>459</ele>
        <time>2024-05-14T14:00:23.345Z</time>
      </trkpt>
      <trkpt lat="47.86479" lon="5.337">
        <ele>459</ele>
        <time>2024-05-14T14:00:27.752Z</time>
      </trkpt>
      <trkpt lat="47.86485" lon="5.337">
        <ele>459</ele>
        <time>2024-05-14T14:00:31.959Z</time>
      </trkpt>
      <trkpt lat="47.86491" lon="5.337">
        <ele>461</ele>
        <time>2024-05-14T14:00:35.959Z</time>
      </trkpt>
      <trkpt lat="47.86497" lon="5.33701">
        <ele>461</ele>
        <time>2024-05-14T14:00:40.959Z</time>
      </trkpt>
      <trkpt lat="47.86503" lon="5.33702">
        <ele>461</ele>
        <time>2024-05-14T14:00:44.958Z</time>
      </trkpt>
      <trkpt lat="47.86508" lon="5.33702">
        <ele>461</ele>
        <time>2024-05-14T14:00:49.959Z</time>
      </trkpt>
      <trkpt lat="47.86515" lon="5.33703">
        <ele>463</ele>
        <time>2024-05-14T14:01:14.958Z</time>
      </trkpt>
      <trkpt lat="47.8652" lon="5.33703">
        <ele>463</ele>
        <time>2024-05-14T14:01:19.959Z</time>
      </trkpt>
      <trkpt lat="47.86525" lon="5.33704">
        <ele>463</ele>
        <time>2024-05-14T14:01:24.959Z</time>
      </trkpt>
      <trkpt lat="47.8653" lon="5.33706">
        <ele>463</ele>
        <time>2024-05-14T14:01:29.582Z</time>
      </trkpt>
      <trkpt lat="47.86535" lon="5.33709">
        <ele>456</ele>
        <time>2024-05-14T14:01:33.909Z</time>
      </trkpt>
      <trkpt lat="47.86539" lon="5.3371">
        <ele>456</ele>
        <time>2024-05-14T14:01:47.959Z</time>
      </trkpt>
      <trkpt lat="47.86549" lon="5.33712">
        <ele>459</ele>
        <time>2024-05-14T14:01:52.958Z</time>
      </trkpt>
      <trkpt lat="47.86556" lon="5.33712">
        <ele>459</ele>
        <time>2024-05-14T14:01:54.958Z</time>
      </trkpt>
      <trkpt lat="47.86561" lon="5.33713">
        <ele>459</ele>
        <time>2024-05-14T14:02:03.685Z</time>
      </trkpt>
      <trkpt lat="47.86567" lon="5.33713">
        <ele>459</ele>
        <time>2024-05-14T14:02:08.669Z</time>
      </trkpt>
      <trkpt lat="47.86571" lon="5.33712">
        <ele>460</ele>
        <time>2024-05-14T14:02:12.958Z</time>
      </trkpt>
      <trkpt lat="47.86573" lon="5.33713">
        <ele>460</ele>
        <time>2024-05-14T14:02:17.072Z</time>
      </trkpt>
      <trkpt lat="47.86579" lon="5.33711">
        <ele>460</ele>
        <time>2024-05-14T14:02:21.468Z</time>
      </trkpt>
      <trkpt lat="47.86585" lon="5.33711">
        <ele>460</ele>
        <time>2024-05-14T14:02:25.958Z</time>
      </trkpt>
      <trkpt lat="47.86591" lon="5.3371">
        <ele>460</ele>
        <time>2024-05-14T14:02:30.906Z</time>
      </trkpt>
      <trkpt lat="47.86596" lon="5.33711">
        <ele>460</ele>
        <time>2024-05-14T14:02:35.387Z</time>
      </trkpt>
      <trkpt lat="47.86603" lon="5.33711">
        <ele>461</ele>
        <time>2024-05-14T14:02:39.514Z</time>
      </trkpt>
      <trkpt lat="47.86608" lon="5.33713">
        <ele>461</ele>
        <time>2024-05-14T14:02:43.959Z</time>
      </trkpt>
      <trkpt lat="47.86611" lon="5.33715">
        <ele>461</ele>
        <time>2024-05-14T14:02:48.468Z</time>
      </trkpt>
      <trkpt lat="47.86614" lon="5.33715">
        <ele>461</ele>
        <time>2024-05-14T14:02:52.929Z</time>
      </trkpt>
      <trkpt lat="47.8662" lon="5.33718">
        <ele>461</ele>
        <time>2024-05-14T14:02:57.174Z</time>
      </trkpt>
      <trkpt lat="47.86626" lon="5.3372">
        <ele>459</ele>
        <time>2024-05-14T14:03:01.593Z</time>
      </trkpt>
      <trkpt lat="47.86631" lon="5.3372">
        <ele>459</ele>
        <time>2024-05-14T14:03:05.958Z</time>
      </trkpt>
      <trkpt lat="47.86632" lon="5.33719">
        <ele>459</ele>
        <time>2024-05-14T14:03:10.675Z</time>
      </trkpt>
      <trkpt lat="47.86633" lon="5.33718">
        <ele>459</ele>
        <time>2024-05-14T14:03:14.958Z</time>
      </trkpt>
      <trkpt lat="47.86637" lon="5.33714">
        <ele>459</ele>
        <time>2024-05-14T14:03:19.830Z</time>
      </trkpt>
      <trkpt lat="47.86637" lon="5.33714">
        <ele>459</ele>
        <time>2024-05-14T14:03:23.959Z</time>
      </trkpt>
      <trkpt lat="47.86636" lon="5.33713">
        <ele>459</ele>
        <time>2024-05-14T14:03:28.546Z</time>
      </trkpt>
      <trkpt lat="47.86636" lon="5.33714">
        <ele>459</ele>
        <time>2024-05-14T14:03:32.958Z</time>
      </trkpt>
      <trkpt lat="47.86632" lon="5.33715">
        <ele>459</ele>
        <time>2024-05-14T14:03:36.958Z</time>
      </trkpt>
      <trkpt lat="47.86626" lon="5.33713">
        <ele>459</ele>
        <time>2024-05-14T14:03:41.885Z</time>
      </trkpt>
      <trkpt lat="47.86618" lon="5.33708">
        <ele>466</ele>
        <time>2024-05-14T14:03:46.504Z</time>
      </trkpt>
      <trkpt lat="47.86618" lon="5.33708">
        <ele>466</ele>
        <time>2024-05-14T14:03:50.909Z</time>
      </trkpt>
      <trkpt lat="47.86617" lon="5.33708">
        <ele>466</ele>
        <time>2024-05-14T14:03:55.389Z</time>
      </trkpt>
      <trkpt lat="47.86617" lon="5.33707">
        <ele>466</ele>
        <time>2024-05-14T14:03:59.712Z</time>
      </trkpt>
      <trkpt lat="47.86609" lon="5.33703">
        <ele>466</ele>
        <time>2024-05-14T14:04:03.886Z</time>
      </trkpt>
      <trkpt lat="47.86602" lon="5.337">
        <ele>466</ele>
        <time>2024-05-14T14:04:08.444Z</time>
      </trkpt>
      <trkpt lat="47.86597" lon="5.33701">
        <ele>467</ele>
        <time>2024-05-14T14:04:12.804Z</time>
      </trkpt>
      <trkpt lat="47.86591" lon="5.33704">
        <ele>467</ele>
        <time>2024-05-14T14:04:17.309Z</time>
      </trkpt>
      <trkpt lat="47.86584" lon="5.33704">
        <ele>467</ele>
        <time>2024-05-14T14:04:21.789Z</time>
      </trkpt>
      <trkpt lat="47.86575" lon="5.33705">
        <ele>467</ele>
        <time>2024-05-14T14:04:26.150Z</time>
      </trkpt>
      <trkpt lat="47.86568" lon="5.33705">
        <ele>466</ele>
        <time>2024-05-14T14:04:30.452Z</time>
      </trkpt>
      <trkpt lat="47.86563" lon="5.337">
        <ele>466</ele>
        <time>2024-05-14T14:04:34.958Z</time>
      </trkpt>
      <trkpt lat="47.86556" lon="5.337">
        <ele>466</ele>
        <time>2024-05-14T14:04:39.308Z</time>
      </trkpt>
      <trkpt lat="47.86551" lon="5.33707">
        <ele>466</ele>
        <time>2024-05-14T14:04:43.643Z</time>
      </trkpt>
      <trkpt lat="47.86545" lon="5.33709">
        <ele>459</ele>
        <time>2024-05-14T14:04:47.961Z</time>
      </trkpt>
      <trkpt lat="47.86541" lon="5.33704">
        <ele>463</ele>
        <time>2024-05-14T14:04:52.183Z</time>
      </trkpt>
      <trkpt lat="47.86536" lon="5.33701">
        <ele>463</ele>
        <time>2024-05-14T14:04:56.348Z</time>
      </trkpt>
      <trkpt lat="47.86531" lon="5.33698">
        <ele>463</ele>
        <time>2024-05-14T14:05:00.564Z</time>
      </trkpt>
      <trkpt lat="47.86531" lon="5.33688">
        <ele>463</ele>
        <time>2024-05-14T14:05:04.959Z</time>
      </trkpt>
      <trkpt lat="47.86533" lon="5.3368">
        <ele>466</ele>
        <time>2024-05-14T14:05:09.430Z</time>
      </trkpt>
      <trkpt lat="47.86536" lon="5.33669">
        <ele>466</ele>
        <time>2024-05-14T14:05:13.670Z</time>
      </trkpt>
      <trkpt lat="47.86538" lon="5.33662">
        <ele>466</ele>
        <time>2024-05-14T14:05:17.867Z</time>
      </trkpt>
      <trkpt lat="47.86541" lon="5.33655">
        <ele>466</ele>
        <time>2024-05-14T14:05:21.958Z</time>
      </trkpt>
      <trkpt lat="47.86542" lon="5.33645">
        <ele>468</ele>
        <time>2024-05-14T14:05:26.230Z</time>
      </trkpt>
      <trkpt lat="47.86543" lon="5.33635">
        <ele>468</ele>
        <time>2024-05-14T14:05:30.427Z</time>
      </trkpt>
      <trkpt lat="47.86542" lon="5.33625">
        <ele>468</ele>
        <time>2024-05-14T14:05:34.643Z</time>
      </trkpt>
      <trkpt lat="47.86542" lon="5.33617">
        <ele>468</ele>
        <time>2024-05-14T14:05:38.824Z</time>
      </trkpt>
      <trkpt lat="47.86542" lon="5.33609">
        <ele>468</ele>
        <time>2024-05-14T14:05:43.099Z</time>
      </trkpt>
      <trkpt lat="47.86541" lon="5.33601">
        <ele>467</ele>
        <time>2024-05-14T14:05:47.368Z</time>
      </trkpt>
      <trkpt lat="47.8654" lon="5.33592">
        <ele>468</ele>
        <time>2024-05-14T14:05:51.640Z</time>
      </trkpt>
      <trkpt lat="47.8654" lon="5.33585">
        <ele>468</ele>
        <time>2024-05-14T14:05:55.924Z</time>
      </trkpt>
      <trkpt lat="47.86543" lon="5.33578">
        <ele>469</ele>
        <time>2024-05-14T14:06:00.147Z</time>
      </trkpt>
      <trkpt lat="47.86542" lon="5.33569">
        <ele>471</ele>
        <time>2024-05-14T14:06:04.345Z</time>
      </trkpt>
      <trkpt lat="47.86542" lon="5.3356">
        <ele>471</ele>
        <time>2024-05-14T14:06:08.542Z</time>
      </trkpt>
      <trkpt lat="47.86543" lon="5.33553">
        <ele>471</ele>
        <time>2024-05-14T14:06:12.838Z</time>
      </trkpt>
      <trkpt lat="47.86542" lon="5.33545">
        <ele>471</ele>
        <time>2024-05-14T14:06:16.958Z</time>
      </trkpt>
      <trkpt lat="47.86541" lon="5.33536">
        <ele>473</ele>
        <time>2024-05-14T14:06:21.487Z</time>
      </trkpt>
      <trkpt lat="47.86547" lon="5.33529">
        <ele>473</ele>
        <time>2024-05-14T14:06:25.583Z</time>
      </trkpt>
      <trkpt lat="47.86543" lon="5.33521">
        <ele>473</ele>
        <time>2024-05-14T14:06:29.958Z</time>
      </trkpt>
      <trkpt lat="47.86538" lon="5.33517">
        <ele>473</ele>
        <time>2024-05-14T14:06:48.957Z</time>
      </trkpt>
      <trkpt lat="47.86532" lon="5.33513">
        <ele>474</ele>
        <time>2024-05-14T14:06:53.944Z</time>
      </trkpt>
      <trkpt lat="47.86526" lon="5.33511">
        <ele>474</ele>
        <time>2024-05-14T14:06:57.957Z</time>
      </trkpt>
      <trkpt lat="47.86521" lon="5.33511">
        <ele>474</ele>
        <time>2024-05-14T14:07:02.957Z</time>
      </trkpt>
      <trkpt lat="47.86517" lon="5.33501">
        <ele>474</ele>
        <time>2024-05-14T14:07:07.930Z</time>
      </trkpt>
      <trkpt lat="47.86513" lon="5.33497">
        <ele>474</ele>
        <time>2024-05-14T14:07:22.741Z</time>
      </trkpt>
      <trkpt lat="47.86508" lon="5.33494">
        <ele>474</ele>
        <time>2024-05-14T14:07:26.958Z</time>
      </trkpt>
      <trkpt lat="47.865" lon="5.33498">
        <ele>474</ele>
        <time>2024-05-14T14:07:31.335Z</time>
      </trkpt>
      <trkpt lat="47.86494" lon="5.33498">
        <ele>474</ele>
        <time>2024-05-14T14:07:35.851Z</time>
      </trkpt>
      <trkpt lat="47.8649" lon="5.33493">
        <ele>474</ele>
        <time>2024-05-14T14:07:40.535Z</time>
      </trkpt>
      <trkpt lat="47.86485" lon="5.33485">
        <ele>473</ele>
        <time>2024-05-14T14:07:44.917Z</time>
      </trkpt>
      <trkpt lat="47.86481" lon="5.33483">
        <ele>473</ele>
        <time>2024-05-14T14:07:49.334Z</time>
      </trkpt>
      <trkpt lat="47.86476" lon="5.33481">
        <ele>473</ele>
        <time>2024-05-14T14:07:53.535Z</time>
      </trkpt>
      <trkpt lat="47.8647" lon="5.33479">
        <ele>473</ele>
        <time>2024-05-14T14:07:57.957Z</time>
      </trkpt>
      <trkpt lat="47.86464" lon="5.33477">
        <ele>473</ele>
        <time>2024-05-14T14:08:21.957Z</time>
      </trkpt>
      <trkpt lat="47.86459" lon="5.33476">
        <ele>473</ele>
        <time>2024-05-14T14:08:26.957Z</time>
      </trkpt>
      <trkpt lat="47.86453" lon="5.33473">
        <ele>472</ele>
        <time>2024-05-14T14:08:31.555Z</time>
      </trkpt>
      <trkpt lat="47.86448" lon="5.33473">
        <ele>472</ele>
        <time>2024-05-14T14:08:35.958Z</time>
      </trkpt>
      <trkpt lat="47.86442" lon="5.33469">
        <ele>472</ele>
        <time>2024-05-14T14:08:40.716Z</time>
      </trkpt>
      <trkpt lat="47.86436" lon="5.33464">
        <ele>472</ele>
        <time>2024-05-14T14:08:44.957Z</time>
      </trkpt>
      <trkpt lat="47.8643" lon="5.33458">
        <ele>474</ele>
        <time>2024-05-14T14:08:49.219Z</time>
      </trkpt>
      <trkpt lat="47.86424" lon="5.33459">
        <ele>472</ele>
        <time>2024-05-14T14:08:53.846Z</time>
      </trkpt>
      <trkpt lat="47.8642" lon="5.33465">
        <ele>472</ele>
        <time>2024-05-14T14:08:57.956Z</time>
      </trkpt>
      <trkpt lat="47.86414" lon="5.33464">
        <ele>472</ele>
        <time>2024-05-14T14:09:01.957Z</time>
      </trkpt>
      <trkpt lat="47.86411" lon="5.33471">
        <ele>472</ele>
        <time>2024-05-14T14:09:06.958Z</time>
      </trkpt>
      <trkpt lat="47.8641" lon="5.33478">
        <ele>472</ele>
        <time>2024-05-14T14:09:11.196Z</time>
      </trkpt>
      <trkpt lat="47.86415" lon="5.33494">
        <ele>470</ele>
        <time>2024-05-14T14:09:15.539Z</time>
      </trkpt>
      <trkpt lat="47.86412" lon="5.33506">
        <ele>470</ele>
        <time>2024-05-14T14:09:19.957Z</time>
      </trkpt>
      <trkpt lat="47.86414" lon="5.33512">
        <ele>470</ele>
        <time>2024-05-14T14:09:23.958Z</time>
      </trkpt>
      <trkpt lat="47.8642" lon="5.33518">
        <ele>469</ele>
        <time>2024-05-14T14:09:28.619Z</time>
      </trkpt>
      <trkpt lat="47.86424" lon="5.33517">
        <ele>469</ele>
        <time>2024-05-14T14:09:32.958Z</time>
      </trkpt>
      <trkpt lat="47.86421" lon="5.33516">
        <ele>469</ele>
        <time>2024-05-14T14:10:13.954Z</time>
      </trkpt>
      <trkpt lat="47.86422" lon="5.33518">
        <ele>469</ele>
        <time>2024-05-14T14:10:18.237Z</time>
      </trkpt>
      <trkpt lat="47.86424" lon="5.33517">
        <ele>469</ele>
        <time>2024-05-14T14:10:22.394Z</time>
      </trkpt>
      <trkpt lat="47.86428" lon="5.33518">
        <ele>469</ele>
        <time>2024-05-14T14:10:26.874Z</time>
      </trkpt>
      <trkpt lat="47.86432" lon="5.33513">
        <ele>471</ele>
        <time>2024-05-14T14:10:31.355Z</time>
      </trkpt>
      <trkpt lat="47.86431" lon="5.33523">
        <ele>471</ele>
        <time>2024-05-14T14:10:35.594Z</time>
      </trkpt>
      <trkpt lat="47.86433" lon="5.33531">
        <ele>471</ele>
        <time>2024-05-14T14:10:39.997Z</time>
      </trkpt>
      <trkpt lat="47.86435" lon="5.33511">
        <ele>471</ele>
        <time>2024-05-14T14:10:44.614Z</time>
      </trkpt>
      <trkpt lat="47.86443" lon="5.33509">
        <ele>471</ele>
        <time>2024-05-14T14:10:48.662Z</time>
      </trkpt>
      <trkpt lat="47.86435" lon="5.33538">
        <ele>471</ele>
        <time>2024-05-14T14:10:52.757Z</time>
      </trkpt>
      <trkpt lat="47.86434" lon="5.33533">
        <ele>471</ele>
        <time>2024-05-14T14:10:57.098Z</time>
      </trkpt>
      <trkpt lat="47.86432" lon="5.3354">
        <ele>471</ele>
        <time>2024-05-14T14:11:01.554Z</time>
      </trkpt>
      <trkpt lat="47.86427" lon="5.33542">
        <ele>469</ele>
        <time>2024-05-14T14:11:05.958Z</time>
      </trkpt>
      <trkpt lat="47.8642" lon="5.33542">
        <ele>469</ele>
        <time>2024-05-14T14:11:10.540Z</time>
      </trkpt>
      <trkpt lat="47.86416" lon="5.33541">
        <ele>469</ele>
        <time>2024-05-14T14:11:14.958Z</time>
      </trkpt>
      <trkpt lat="47.86412" lon="5.33542">
        <ele>468</ele>
        <time>2024-05-14T14:11:19.318Z</time>
      </trkpt>
      <trkpt lat="47.86409" lon="5.33534">
        <ele>469</ele>
        <time>2024-05-14T14:11:23.738Z</time>
      </trkpt>
      <trkpt lat="47.86406" lon="5.33525">
        <ele>469</ele>
        <time>2024-05-14T14:11:28.056Z</time>
      </trkpt>
      <trkpt lat="47.86405" lon="5.33512">
        <ele>470</ele>
        <time>2024-05-14T14:11:32.356Z</time>
      </trkpt>
      <trkpt lat="47.86405" lon="5.33502">
        <ele>470</ele>
        <time>2024-05-14T14:11:36.536Z</time>
      </trkpt>
      <trkpt lat="47.86404" lon="5.33494">
        <ele>470</ele>
        <time>2024-05-14T14:11:40.842Z</time>
      </trkpt>
      <trkpt lat="47.86409" lon="5.33489">
        <ele>470</ele>
        <time>2024-05-14T14:11:45.471Z</time>
      </trkpt>
      <trkpt lat="47.86409" lon="5.33492">
        <ele>470</ele>
        <time>2024-05-14T14:11:49.957Z</time>
      </trkpt>
      <trkpt lat="47.86411" lon="5.33493">
        <ele>470</ele>
        <time>2024-05-14T14:11:54.277Z</time>
      </trkpt>
      <trkpt lat="47.86411" lon="5.33492">
        <ele>470</ele>
        <time>2024-05-14T14:11:58.958Z</time>
      </trkpt>
      <trkpt lat="47.86412" lon="5.33479">
        <ele>472</ele>
        <time>2024-05-14T14:12:17.958Z</time>
      </trkpt>
      <trkpt lat="47.86412" lon="5.33468">
        <ele>472</ele>
        <time>2024-05-14T14:12:22.776Z</time>
      </trkpt>
      <trkpt lat="47.86405" lon="5.33465">
        <ele>472</ele>
        <time>2024-05-14T14:12:26.958Z</time>
      </trkpt>
      <trkpt lat="47.86398" lon="5.33456">
        <ele>474</ele>
        <time>2024-05-14T14:12:31.957Z</time>
      </trkpt>
      <trkpt lat="47.86393" lon="5.33452">
        <ele>474</ele>
        <time>2024-05-14T14:12:36.957Z</time>
      </trkpt>
      <trkpt lat="47.86386" lon="5.33445">
        <ele>474</ele>
        <time>2024-05-14T14:12:41.957Z</time>
      </trkpt>
      <trkpt lat="47.86378" lon="5.3344">
        <ele>474</ele>
        <time>2024-05-14T14:12:46.957Z</time>
      </trkpt>
      <trkpt lat="47.86372" lon="5.33435">
        <ele>472</ele>
        <time>2024-05-14T14:12:56.957Z</time>
      </trkpt>
      <trkpt lat="47.86365" lon="5.33433">
        <ele>472</ele>
        <time>2024-05-14T14:13:10.958Z</time>
      </trkpt>
      <trkpt lat="47.86359" lon="5.3343">
        <ele>472</ele>
        <time>2024-05-14T14:15:55.956Z</time>
      </trkpt>
      <trkpt lat="47.86353" lon="5.33428">
        <ele>472</ele>
        <time>2024-05-14T14:15:59.957Z</time>
      </trkpt>
      <trkpt lat="47.86347" lon="5.33426">
        <ele>471</ele>
        <time>2024-05-14T14:16:03.956Z</time>
      </trkpt>
      <trkpt lat="47.8634" lon="5.33424">
        <ele>471</ele>
        <time>2024-05-14T14:16:32.130Z</time>
      </trkpt>
      <trkpt lat="47.86335" lon="5.33423">
        <ele>471</ele>
        <time>2024-05-14T14:16:42.164Z</time>
      </trkpt>
      <trkpt lat="47.86331" lon="5.33421">
        <ele>471</ele>
        <time>2024-05-14T14:19:22.956Z</time>
      </trkpt>
      <trkpt lat="47.86324" lon="5.33419">
        <ele>471</ele>
        <time>2024-05-14T14:19:26.956Z</time>
      </trkpt>
      <trkpt lat="47.86318" lon="5.33417">
        <ele>471</ele>
        <time>2024-05-14T14:19:31.956Z</time>
      </trkpt>
      <trkpt lat="47.86312" lon="5.33416">
        <ele>471</ele>
        <time>2024-05-14T14:19:35.957Z</time>
      </trkpt>
      <trkpt lat="47.86306" lon="5.33412">
        <ele>471</ele>
        <time>2024-05-14T14:19:39.956Z</time>
      </trkpt>
      <trkpt lat="47.863" lon="5.3341">
        <ele>471</ele>
        <time>2024-05-14T14:28:14.955Z</time>
      </trkpt>
      <trkpt lat="47.86295" lon="5.3341">
        <ele>471</ele>
        <time>2024-05-14T14:28:24.121Z</time>
      </trkpt>
      <trkpt lat="47.8629" lon="5.3341">
        <ele>471</ele>
        <time>2024-05-14T14:28:35.111Z</time>
      </trkpt>
      <trkpt lat="47.86283" lon="5.33412">
        <ele>471</ele>
        <time>2024-05-14T14:28:41.955Z</time>
      </trkpt>
      <trkpt lat="47.86279" lon="5.33411">
        <ele>471</ele>
        <time>2024-05-14T14:28:50.956Z</time>
      </trkpt>
      <trkpt lat="47.86273" lon="5.33413">
        <ele>471</ele>
        <time>2024-05-14T15:10:39.951Z</time>
      </trkpt>
      <trkpt lat="47.86272" lon="5.33416">
        <ele>471</ele>
        <time>2024-05-14T15:10:44.951Z</time>
      </trkpt>
      <trkpt lat="47.86275" lon="5.3342">
        <ele>471</ele>
        <time>2024-05-14T15:10:48.952Z</time>
      </trkpt>
      <trkpt lat="47.86277" lon="5.3342">
        <ele>471</ele>
        <time>2024-05-14T15:10:53.952Z</time>
      </trkpt>
      <trkpt lat="47.8628" lon="5.33421">
        <ele>471</ele>
        <time>2024-05-14T15:11:02.952Z</time>
      </trkpt>
      <trkpt lat="47.86283" lon="5.3342">
        <ele>471</ele>
        <time>2024-05-14T15:11:06.951Z</time>
      </trkpt>
      <trkpt lat="47.86282" lon="5.33421">
        <ele>471</ele>
        <time>2024-05-14T15:11:11.951Z</time>
      </trkpt>
      <trkpt lat="47.86283" lon="5.33419">
        <ele>471</ele>
        <time>2024-05-14T15:11:16.951Z</time>
      </trkpt>
      <trkpt lat="47.8629" lon="5.33415">
        <ele>471</ele>
        <time>2024-05-14T15:11:21.951Z</time>
      </trkpt>
      <trkpt lat="47.863" lon="5.33408">
        <ele>471</ele>
        <time>2024-05-14T15:11:26.951Z</time>
      </trkpt>
      <trkpt lat="47.863" lon="5.33407">
        <ele>471</ele>
        <time>2024-05-14T15:11:31.951Z</time>
      </trkpt>
      <trkpt lat="47.86308" lon="5.33408">
        <ele>471</ele>
        <time>2024-05-14T15:11:36.951Z</time>
      </trkpt>
      <trkpt lat="47.86308" lon="5.33408">
        <ele>471</ele>
        <time>2024-05-14T15:11:41.952Z</time>
      </trkpt>
      <trkpt lat="47.86308" lon="5.33408">
        <ele>471</ele>
        <time>2024-05-14T15:11:46.951Z</time>
      </trkpt>
      <trkpt lat="47.86283" lon="5.3342">
        <ele>471</ele>
        <time>2024-05-14T15:11:51.951Z</time>
      </trkpt>
      <trkpt lat="47.86281" lon="5.33421">
        <ele>471</ele>
        <time>2024-05-14T15:11:56.952Z</time>
      </trkpt>
      <trkpt lat="47.86282" lon="5.3342">
        <ele>471</ele>
        <time>2024-05-14T15:12:01.951Z</time>
      </trkpt>
      <trkpt lat="47.86282" lon="5.33422">
        <ele>471</ele>
        <time>2024-05-14T15:12:06.951Z</time>
      </trkpt>
      <trkpt lat="47.86282" lon="5.33411">
        <ele>471</ele>
        <time>2024-05-14T15:12:20.952Z</time>
      </trkpt>
      <trkpt lat="47.8628" lon="5.33404">
        <ele>471</ele>
        <time>2024-05-14T15:15:37.980Z</time>
      </trkpt>
      <trkpt lat="47.86283" lon="5.33401">
        <ele>472</ele>
        <time>2024-05-14T15:15:48.041Z</time>
      </trkpt>
      <trkpt lat="47.86284" lon="5.33417">
        <ele>471</ele>
        <time>2024-05-14T15:15:54.951Z</time>
      </trkpt>
      <trkpt lat="47.86282" lon="5.3342">
        <ele>471</ele>
        <time>2024-05-14T15:15:59.952Z</time>
      </trkpt>
      <trkpt lat="47.86282" lon="5.33422">
        <ele>471</ele>
        <time>2024-05-14T15:16:03.951Z</time>
      </trkpt>
      <trkpt lat="47.86284" lon="5.33422">
        <ele>471</ele>
        <time>2024-05-14T15:18:56.950Z</time>
      </trkpt>
      <trkpt lat="47.86284" lon="5.33423">
        <ele>471</ele>
        <time>2024-05-14T15:19:00.950Z</time>
      </trkpt>
      <trkpt lat="47.86281" lon="5.33416">
        <ele>471</ele>
        <time>2024-05-14T15:19:05.950Z</time>
      </trkpt>
      <trkpt lat="47.86279" lon="5.33412">
        <ele>471</ele>
        <time>2024-05-14T15:19:10.950Z</time>
      </trkpt>
      <trkpt lat="47.86279" lon="5.3341">
        <ele>471</ele>
        <time>2024-05-14T15:19:15.950Z</time>
      </trkpt>
      <trkpt lat="47.86277" lon="5.33407">
        <ele>471</ele>
        <time>2024-05-14T15:19:30.950Z</time>
      </trkpt>
      <trkpt lat="47.86273" lon="5.33406">
        <ele>471</ele>
        <time>2024-05-14T15:19:34.950Z</time>
      </trkpt>
      <trkpt lat="47.86268" lon="5.33404">
        <ele>471</ele>
        <time>2024-05-14T15:19:39.950Z</time>
      </trkpt>
      <trkpt lat="47.86267" lon="5.33402">
        <ele>472</ele>
        <time>2024-05-14T15:19:44.950Z</time>
      </trkpt>
      <trkpt lat="47.86267" lon="5.33402">
        <ele>472</ele>
        <time>2024-05-14T15:19:49.950Z</time>
      </trkpt>
      <trkpt lat="47.86261" lon="5.33401">
        <ele>471</ele>
        <time>2024-05-14T15:19:58.950Z</time>
      </trkpt>
      <trkpt lat="47.86256" lon="5.334">
        <ele>471</ele>
        <time>2024-05-14T15:20:03.950Z</time>
      </trkpt>
      <trkpt lat="47.86252" lon="5.33396">
        <ele>471</ele>
        <time>2024-05-14T15:20:08.950Z</time>
      </trkpt>
      <trkpt lat="47.86247" lon="5.33395">
        <ele>471</ele>
        <time>2024-05-14T15:20:13.951Z</time>
      </trkpt>
      <trkpt lat="47.86244" lon="5.3339">
        <ele>471</ele>
        <time>2024-05-14T15:20:18.950Z</time>
      </trkpt>
      <trkpt lat="47.86243" lon="5.33386">
        <ele>471</ele>
        <time>2024-05-14T15:20:23.950Z</time>
      </trkpt>
      <trkpt lat="47.86242" lon="5.33384">
        <ele>471</ele>
        <time>2024-05-14T15:20:28.950Z</time>
      </trkpt>
      <trkpt lat="47.86242" lon="5.33383">
        <ele>471</ele>
        <time>2024-05-14T15:20:33.951Z</time>
      </trkpt>
      <trkpt lat="47.86243" lon="5.33383">
        <ele>471</ele>
        <time>2024-05-14T15:20:38.951Z</time>
      </trkpt>
      <trkpt lat="47.86243" lon="5.33383">
        <ele>471</ele>
        <time>2024-05-14T15:20:43.950Z</time>
      </trkpt>
      <trkpt lat="47.86254" lon="5.33414">
        <ele>471</ele>
        <time>2024-05-14T15:20:48.950Z</time>
      </trkpt>
      <trkpt lat="47.86248" lon="5.33412">
        <ele>471</ele>
        <time>2024-05-14T15:20:53.950Z</time>
      </trkpt>
      <trkpt lat="47.86249" lon="5.33412">
        <ele>471</ele>
        <time>2024-05-14T15:20:58.950Z</time>
      </trkpt>
      <trkpt lat="47.86248" lon="5.33411">
        <ele>471</ele>
        <time>2024-05-14T15:21:03.951Z</time>
      </trkpt>
      <trkpt lat="47.86247" lon="5.33408">
        <ele>471</ele>
        <time>2024-05-14T15:21:08.950Z</time>
      </trkpt>
      <trkpt lat="47.86247" lon="5.33407">
        <ele>471</ele>
        <time>2024-05-14T15:21:13.950Z</time>
      </trkpt>
      <trkpt lat="47.86249" lon="5.33403">
        <ele>471</ele>
        <time>2024-05-14T15:21:18.950Z</time>
      </trkpt>
      <trkpt lat="47.86248" lon="5.33397">
        <ele>471</ele>
        <time>2024-05-14T15:21:23.950Z</time>
      </trkpt>
      <trkpt lat="47.86246" lon="5.33394">
        <ele>471</ele>
        <time>2024-05-14T15:21:28.950Z</time>
      </trkpt>
      <trkpt lat="47.86247" lon="5.33393">
        <ele>471</ele>
        <time>2024-05-14T15:21:33.950Z</time>
      </trkpt>
      <trkpt lat="47.86246" lon="5.33392">
        <ele>471</ele>
        <time>2024-05-14T15:21:38.950Z</time>
      </trkpt>
      <trkpt lat="47.86246" lon="5.33391">
        <ele>471</ele>
        <time>2024-05-14T15:21:43.950Z</time>
      </trkpt>
      <trkpt lat="47.86248" lon="5.33391">
        <ele>471</ele>
        <time>2024-05-14T15:21:47.950Z</time>
      </trkpt>
      <trkpt lat="47.86255" lon="5.33392">
        <ele>471</ele>
        <time>2024-05-14T15:21:52.951Z</time>
      </trkpt>
      <trkpt lat="47.86261" lon="5.33395">
        <ele>471</ele>
        <time>2024-05-14T15:21:57.950Z</time>
      </trkpt>
      <trkpt lat="47.86264" lon="5.33407">
        <ele>471</ele>
        <time>2024-05-14T15:22:02.951Z</time>
      </trkpt>
      <trkpt lat="47.86266" lon="5.33408">
        <ele>471</ele>
        <time>2024-05-14T15:22:07.950Z</time>
      </trkpt>
      <trkpt lat="47.86267" lon="5.33408">
        <ele>471</ele>
        <time>2024-05-14T15:22:11.951Z</time>
      </trkpt>
      <trkpt lat="47.8627" lon="5.33409">
        <ele>471</ele>
        <time>2024-05-14T15:22:16.950Z</time>
      </trkpt>
      <trkpt lat="47.86274" lon="5.33409">
        <ele>471</ele>
        <time>2024-05-14T15:22:21.950Z</time>
      </trkpt>
      <trkpt lat="47.86278" lon="5.33404">
        <ele>471</ele>
        <time>2024-05-14T15:22:26.951Z</time>
      </trkpt>
      <trkpt lat="47.86283" lon="5.33403">
        <ele>471</ele>
        <time>2024-05-14T15:22:31.950Z</time>
      </trkpt>
      <trkpt lat="47.86285" lon="5.3341">
        <ele>471</ele>
        <time>2024-05-14T15:22:35.950Z</time>
      </trkpt>
      <trkpt lat="47.86289" lon="5.33414">
        <ele>471</ele>
        <time>2024-05-14T15:22:40.950Z</time>
      </trkpt>
      <trkpt lat="47.86293" lon="5.33417">
        <ele>471</ele>
        <time>2024-05-14T15:22:45.950Z</time>
      </trkpt>
      <trkpt lat="47.86297" lon="5.3342">
        <ele>471</ele>
        <time>2024-05-14T15:22:50.950Z</time>
      </trkpt>
      <trkpt lat="47.86302" lon="5.3342">
        <ele>471</ele>
        <time>2024-05-14T15:22:55.950Z</time>
      </trkpt>
      <trkpt lat="47.86307" lon="5.33419">
        <ele>471</ele>
        <time>2024-05-14T15:23:00.951Z</time>
      </trkpt>
      <trkpt lat="47.86312" lon="5.33418">
        <ele>471</ele>
        <time>2024-05-14T15:23:05.951Z</time>
      </trkpt>
      <trkpt lat="47.86317" lon="5.33417">
        <ele>471</ele>
        <time>2024-05-14T15:23:10.951Z</time>
      </trkpt>
      <trkpt lat="47.86322" lon="5.33417">
        <ele>471</ele>
        <time>2024-05-14T15:23:15.950Z</time>
      </trkpt>
      <trkpt lat="47.86327" lon="5.33418">
        <ele>471</ele>
        <time>2024-05-14T15:23:20.950Z</time>
      </trkpt>
      <trkpt lat="47.86332" lon="5.33419">
        <ele>471</ele>
        <time>2024-05-14T15:23:25.950Z</time>
      </trkpt>
      <trkpt lat="47.86337" lon="5.3342">
        <ele>471</ele>
        <time>2024-05-14T15:23:30.951Z</time>
      </trkpt>
      <trkpt lat="47.86342" lon="5.33421">
        <ele>471</ele>
        <time>2024-05-14T15:23:35.950Z</time>
      </trkpt>
      <trkpt lat="47.86348" lon="5.33422">
        <ele>472</ele>
        <time>2024-05-14T15:23:40.951Z</time>
      </trkpt>
      <trkpt lat="47.86353" lon="5.33424">
        <ele>472</ele>
        <time>2024-05-14T15:23:45.950Z</time>
      </trkpt>
      <trkpt lat="47.86356" lon="5.33424">
        <ele>472</ele>
        <time>2024-05-14T15:23:50.951Z</time>
      </trkpt>
      <trkpt lat="47.86359" lon="5.33423">
        <ele>472</ele>
        <time>2024-05-14T15:23:55.951Z</time>
      </trkpt>
      <trkpt lat="47.86364" lon="5.33424">
        <ele>472</ele>
        <time>2024-05-14T15:23:59.950Z</time>
      </trkpt>
      <trkpt lat="47.86367" lon="5.33427">
        <ele>472</ele>
        <time>2024-05-14T15:24:04.950Z</time>
      </trkpt>
      <trkpt lat="47.8637" lon="5.33429">
        <ele>472</ele>
        <time>2024-05-14T15:24:09.950Z</time>
      </trkpt>
      <trkpt lat="47.86375" lon="5.33431">
        <ele>473</ele>
        <time>2024-05-14T15:24:14.950Z</time>
      </trkpt>
      <trkpt lat="47.86379" lon="5.33432">
        <ele>474</ele>
        <time>2024-05-14T15:24:19.951Z</time>
      </trkpt>
      <trkpt lat="47.86384" lon="5.33434">
        <ele>474</ele>
        <time>2024-05-14T15:24:24.951Z</time>
      </trkpt>
      <trkpt lat="47.86389" lon="5.33436">
        <ele>474</ele>
        <time>2024-05-14T15:24:29.951Z</time>
      </trkpt>
      <trkpt lat="47.86394" lon="5.33435">
        <ele>474</ele>
        <time>2024-05-14T15:24:34.950Z</time>
      </trkpt>
      <trkpt lat="47.86397" lon="5.33439">
        <ele>474</ele>
        <time>2024-05-14T15:24:39.950Z</time>
      </trkpt>
      <trkpt lat="47.864" lon="5.33444">
        <ele>474</ele>
        <time>2024-05-14T15:24:44.950Z</time>
      </trkpt>
      <trkpt lat="47.86405" lon="5.33449">
        <ele>474</ele>
        <time>2024-05-14T15:24:49.951Z</time>
      </trkpt>
      <trkpt lat="47.8641" lon="5.3345">
        <ele>474</ele>
        <time>2024-05-14T15:24:54.950Z</time>
      </trkpt>
      <trkpt lat="47.86416" lon="5.3345">
        <ele>474</ele>
        <time>2024-05-14T15:24:58.950Z</time>
      </trkpt>
      <trkpt lat="47.86422" lon="5.3345">
        <ele>474</ele>
        <time>2024-05-14T15:25:03.950Z</time>
      </trkpt>
      <trkpt lat="47.86427" lon="5.33451">
        <ele>474</ele>
        <time>2024-05-14T15:25:08.950Z</time>
      </trkpt>
      <trkpt lat="47.86433" lon="5.33454">
        <ele>473</ele>
        <time>2024-05-14T15:25:13.950Z</time>
      </trkpt>
      <trkpt lat="47.86438" lon="5.33459">
        <ele>472</ele>
        <time>2024-05-14T15:25:18.950Z</time>
      </trkpt>
      <trkpt lat="47.86444" lon="5.3346">
        <ele>472</ele>
        <time>2024-05-14T15:25:23.951Z</time>
      </trkpt>
      <trkpt lat="47.8645" lon="5.33461">
        <ele>472</ele>
        <time>2024-05-14T15:25:28.950Z</time>
      </trkpt>
      <trkpt lat="47.86455" lon="5.33462">
        <ele>472</ele>
        <time>2024-05-14T15:25:33.950Z</time>
      </trkpt>
      <trkpt lat="47.86459" lon="5.33464">
        <ele>473</ele>
        <time>2024-05-14T15:25:38.950Z</time>
      </trkpt>
      <trkpt lat="47.86465" lon="5.33466">
        <ele>473</ele>
        <time>2024-05-14T15:25:43.950Z</time>
      </trkpt>
      <trkpt lat="47.86469" lon="5.33468">
        <ele>473</ele>
        <time>2024-05-14T15:25:48.951Z</time>
      </trkpt>
      <trkpt lat="47.86475" lon="5.33469">
        <ele>473</ele>
        <time>2024-05-14T15:25:53.950Z</time>
      </trkpt>
      <trkpt lat="47.8648" lon="5.33471">
        <ele>473</ele>
        <time>2024-05-14T15:25:58.950Z</time>
      </trkpt>
      <trkpt lat="47.86486" lon="5.33474">
        <ele>473</ele>
        <time>2024-05-14T15:26:02.951Z</time>
      </trkpt>
      <trkpt lat="47.8649" lon="5.33477">
        <ele>474</ele>
        <time>2024-05-14T15:26:07.950Z</time>
      </trkpt>
      <trkpt lat="47.86496" lon="5.33479">
        <ele>474</ele>
        <time>2024-05-14T15:26:12.950Z</time>
      </trkpt>
      <trkpt lat="47.86502" lon="5.33483">
        <ele>474</ele>
        <time>2024-05-14T15:26:17.950Z</time>
      </trkpt>
      <trkpt lat="47.86508" lon="5.33487">
        <ele>474</ele>
        <time>2024-05-14T15:26:21.950Z</time>
      </trkpt>
      <trkpt lat="47.86514" lon="5.3349">
        <ele>474</ele>
        <time>2024-05-14T15:26:26.951Z</time>
      </trkpt>
      <trkpt lat="47.86515" lon="5.335">
        <ele>474</ele>
        <time>2024-05-14T15:26:31.950Z</time>
      </trkpt>
      <trkpt lat="47.86515" lon="5.33508">
        <ele>474</ele>
        <time>2024-05-14T15:26:36.951Z</time>
      </trkpt>
      <trkpt lat="47.8652" lon="5.33509">
        <ele>474</ele>
        <time>2024-05-14T15:26:41.950Z</time>
      </trkpt>
      <trkpt lat="47.86522" lon="5.33516">
        <ele>473</ele>
        <time>2024-05-14T15:26:46.951Z</time>
      </trkpt>
      <trkpt lat="47.86519" lon="5.33506">
        <ele>474</ele>
        <time>2024-05-14T15:26:51.950Z</time>
      </trkpt>
      <trkpt lat="47.86521" lon="5.33501">
        <ele>474</ele>
        <time>2024-05-14T15:26:56.950Z</time>
      </trkpt>
      <trkpt lat="47.86526" lon="5.33501">
        <ele>474</ele>
        <time>2024-05-14T15:27:01.950Z</time>
      </trkpt>
      <trkpt lat="47.86529" lon="5.33499">
        <ele>474</ele>
        <time>2024-05-14T15:27:04.951Z</time>
      </trkpt>
      <trkpt lat="47.86535" lon="5.33498">
        <ele>474</ele>
        <time>2024-05-14T15:27:13.951Z</time>
      </trkpt>
      <trkpt lat="47.8654" lon="5.33496">
        <ele>474</ele>
        <time>2024-05-14T15:27:18.950Z</time>
      </trkpt>
      <trkpt lat="47.86546" lon="5.33496">
        <ele>475</ele>
        <time>2024-05-14T15:27:23.950Z</time>
      </trkpt>
      <trkpt lat="47.86551" lon="5.33494">
        <ele>475</ele>
        <time>2024-05-14T15:27:28.951Z</time>
      </trkpt>
      <trkpt lat="47.86555" lon="5.33493">
        <ele>475</ele>
        <time>2024-05-14T15:27:33.951Z</time>
      </trkpt>
      <trkpt lat="47.8656" lon="5.33493">
        <ele>475</ele>
        <time>2024-05-14T15:27:38.950Z</time>
      </trkpt>
      <trkpt lat="47.86564" lon="5.33493">
        <ele>475</ele>
        <time>2024-05-14T15:27:43.949Z</time>
      </trkpt>
      <trkpt lat="47.86569" lon="5.33495">
        <ele>475</ele>
        <time>2024-05-14T15:27:48.949Z</time>
      </trkpt>
      <trkpt lat="47.86575" lon="5.33497">
        <ele>475</ele>
        <time>2024-05-14T15:27:53.950Z</time>
      </trkpt>
      <trkpt lat="47.86579" lon="5.33502">
        <ele>475</ele>
        <time>2024-05-14T15:27:58.949Z</time>
      </trkpt>
      <trkpt lat="47.86585" lon="5.33504">
        <ele>475</ele>
        <time>2024-05-14T15:28:03.950Z</time>
      </trkpt>
      <trkpt lat="47.86591" lon="5.33507">
        <ele>475</ele>
        <time>2024-05-14T15:28:08.949Z</time>
      </trkpt>
      <trkpt lat="47.86595" lon="5.3351">
        <ele>475</ele>
        <time>2024-05-14T15:28:13.949Z</time>
      </trkpt>
      <trkpt lat="47.86601" lon="5.33515">
        <ele>474</ele>
        <time>2024-05-14T15:28:18.949Z</time>
      </trkpt>
      <trkpt lat="47.86604" lon="5.33514">
        <ele>475</ele>
        <time>2024-05-14T15:28:23.949Z</time>
      </trkpt>
      <trkpt lat="47.86604" lon="5.33515">
        <ele>474</ele>
        <time>2024-05-14T15:28:28.950Z</time>
      </trkpt>
      <trkpt lat="47.86608" lon="5.33516">
        <ele>474</ele>
        <time>2024-05-14T15:28:33.949Z</time>
      </trkpt>
      <trkpt lat="47.86612" lon="5.33518">
        <ele>474</ele>
        <time>2024-05-14T15:28:38.950Z</time>
      </trkpt>
      <trkpt lat="47.86617" lon="5.33518">
        <ele>474</ele>
        <time>2024-05-14T15:28:42.950Z</time>
      </trkpt>
      <trkpt lat="47.86621" lon="5.33515">
        <ele>474</ele>
        <time>2024-05-14T15:28:47.950Z</time>
      </trkpt>
      <trkpt lat="47.86621" lon="5.33508">
        <ele>475</ele>
        <time>2024-05-14T15:28:51.950Z</time>
      </trkpt>
      <trkpt lat="47.86622" lon="5.33504">
        <ele>475</ele>
        <time>2024-05-14T15:28:56.949Z</time>
      </trkpt>
      <trkpt lat="47.86626" lon="5.33504">
        <ele>474</ele>
        <time>2024-05-14T15:29:01.949Z</time>
      </trkpt>
      <trkpt lat="47.86627" lon="5.33508">
        <ele>474</ele>
        <time>2024-05-14T15:29:06.950Z</time>
      </trkpt>
      <trkpt lat="47.86627" lon="5.33514">
        <ele>474</ele>
        <time>2024-05-14T15:29:10.950Z</time>
      </trkpt>
      <trkpt lat="47.86627" lon="5.33514">
        <ele>474</ele>
        <time>2024-05-14T15:29:15.949Z</time>
      </trkpt>
      <trkpt lat="47.86631" lon="5.33519">
        <ele>473</ele>
        <time>2024-05-14T15:29:20.949Z</time>
      </trkpt>
      <trkpt lat="47.86636" lon="5.33523">
        <ele>473</ele>
        <time>2024-05-14T15:29:24.949Z</time>
      </trkpt>
      <trkpt lat="47.8664" lon="5.33527">
        <ele>473</ele>
        <time>2024-05-14T15:29:29.949Z</time>
      </trkpt>
      <trkpt lat="47.86645" lon="5.33529">
        <ele>473</ele>
        <time>2024-05-14T15:29:34.949Z</time>
      </trkpt>
      <trkpt lat="47.8665" lon="5.3353">
        <ele>473</ele>
        <time>2024-05-14T15:29:39.950Z</time>
      </trkpt>
      <trkpt lat="47.86654" lon="5.33529">
        <ele>471</ele>
        <time>2024-05-14T15:29:44.950Z</time>
      </trkpt>
      <trkpt lat="47.86659" lon="5.33532">
        <ele>471</ele>
        <time>2024-05-14T15:29:49.949Z</time>
      </trkpt>
      <trkpt lat="47.86658" lon="5.33538">
        <ele>471</ele>
        <time>2024-05-14T15:29:54.950Z</time>
      </trkpt>
      <trkpt lat="47.86663" lon="5.33532">
        <ele>471</ele>
        <time>2024-05-14T15:29:59.949Z</time>
      </trkpt>
      <trkpt lat="47.8667" lon="5.33531">
        <ele>471</ele>
        <time>2024-05-14T15:30:03.949Z</time>
      </trkpt>
      <trkpt lat="47.86677" lon="5.33533">
        <ele>471</ele>
        <time>2024-05-14T15:30:08.949Z</time>
      </trkpt>
      <trkpt lat="47.86683" lon="5.33532">
        <ele>469</ele>
        <time>2024-05-14T15:30:13.950Z</time>
      </trkpt>
      <trkpt lat="47.86691" lon="5.33532">
        <ele>469</ele>
        <time>2024-05-14T15:30:46.950Z</time>
      </trkpt>
      <trkpt lat="47.86698" lon="5.33533">
        <ele>469</ele>
        <time>2024-05-14T15:30:50.949Z</time>
      </trkpt>
      <trkpt lat="47.86703" lon="5.33532">
        <ele>469</ele>
        <time>2024-05-14T15:30:55.949Z</time>
      </trkpt>
      <trkpt lat="47.86705" lon="5.33529">
        <ele>469</ele>
        <time>2024-05-14T15:30:59.949Z</time>
      </trkpt>
      <trkpt lat="47.86709" lon="5.33533">
        <ele>469</ele>
        <time>2024-05-14T15:31:03.949Z</time>
      </trkpt>
      <trkpt lat="47.86715" lon="5.33536">
        <ele>469</ele>
        <time>2024-05-14T15:31:08.949Z</time>
      </trkpt>
      <trkpt lat="47.86717" lon="5.33541">
        <ele>469</ele>
        <time>2024-05-14T15:31:13.949Z</time>
      </trkpt>
      <trkpt lat="47.86722" lon="5.33547">
        <ele>469</ele>
        <time>2024-05-14T15:31:18.950Z</time>
      </trkpt>
      <trkpt lat="47.86727" lon="5.33546">
        <ele>469</ele>
        <time>2024-05-14T15:31:23.950Z</time>
      </trkpt>
      <trkpt lat="47.86733" lon="5.33548">
        <ele>469</ele>
        <time>2024-05-14T15:31:28.949Z</time>
      </trkpt>
      <trkpt lat="47.86738" lon="5.33549">
        <ele>467</ele>
        <time>2024-05-14T15:31:33.950Z</time>
      </trkpt>
      <trkpt lat="47.86743" lon="5.33552">
        <ele>467</ele>
        <time>2024-05-14T15:31:38.950Z</time>
      </trkpt>
      <trkpt lat="47.86747" lon="5.33552">
        <ele>467</ele>
        <time>2024-05-14T15:31:43.950Z</time>
      </trkpt>
      <trkpt lat="47.86753" lon="5.33552">
        <ele>467</ele>
        <time>2024-05-14T15:31:48.949Z</time>
      </trkpt>
      <trkpt lat="47.8676" lon="5.33552">
        <ele>467</ele>
        <time>2024-05-14T15:31:53.950Z</time>
      </trkpt>
      <trkpt lat="47.86766" lon="5.33552">
        <ele>464</ele>
        <time>2024-05-14T15:31:58.949Z</time>
      </trkpt>
      <trkpt lat="47.8677" lon="5.33555">
        <ele>464</ele>
        <time>2024-05-14T15:32:03.950Z</time>
      </trkpt>
      <trkpt lat="47.86778" lon="5.33557">
        <ele>464</ele>
        <time>2024-05-14T15:32:47.950Z</time>
      </trkpt>
      <trkpt lat="47.86777" lon="5.33563">
        <ele>464</ele>
        <time>2024-05-14T15:32:51.949Z</time>
      </trkpt>
      <trkpt lat="47.86774" lon="5.33572">
        <ele>461</ele>
        <time>2024-05-14T15:32:54.950Z</time>
      </trkpt>
      <trkpt lat="47.86771" lon="5.3358">
        <ele>461</ele>
        <time>2024-05-14T15:33:03.949Z</time>
      </trkpt>
      <trkpt lat="47.86768" lon="5.33589">
        <ele>461</ele>
        <time>2024-05-14T15:33:07.949Z</time>
      </trkpt>
      <trkpt lat="47.86767" lon="5.33598">
        <ele>461</ele>
        <time>2024-05-14T15:33:12.949Z</time>
      </trkpt>
      <trkpt lat="47.86765" lon="5.33604">
        <ele>461</ele>
        <time>2024-05-14T15:33:17.949Z</time>
      </trkpt>
      <trkpt lat="47.8676" lon="5.33611">
        <ele>463</ele>
        <time>2024-05-14T15:33:22.950Z</time>
      </trkpt>
      <trkpt lat="47.86755" lon="5.33617">
        <ele>463</ele>
        <time>2024-05-14T15:33:27.949Z</time>
      </trkpt>
      <trkpt lat="47.86751" lon="5.33627">
        <ele>463</ele>
        <time>2024-05-14T15:33:32.949Z</time>
      </trkpt>
      <trkpt lat="47.86755" lon="5.33624">
        <ele>463</ele>
        <time>2024-05-14T15:33:37.950Z</time>
      </trkpt>
      <trkpt lat="47.86762" lon="5.33621">
        <ele>463</ele>
        <time>2024-05-14T15:33:42.950Z</time>
      </trkpt>
      <trkpt lat="47.86767" lon="5.33614">
        <ele>461</ele>
        <time>2024-05-14T15:33:47.950Z</time>
      </trkpt>
      <trkpt lat="47.8677" lon="5.33608">
        <ele>461</ele>
        <time>2024-05-14T15:33:52.949Z</time>
      </trkpt>
      <trkpt lat="47.86774" lon="5.33599">
        <ele>461</ele>
        <time>2024-05-14T15:33:57.950Z</time>
      </trkpt>
      <trkpt lat="47.86777" lon="5.3359">
        <ele>461</ele>
        <time>2024-05-14T15:34:02.949Z</time>
      </trkpt>
      <trkpt lat="47.86781" lon="5.33581">
        <ele>461</ele>
        <time>2024-05-14T15:34:07.949Z</time>
      </trkpt>
      <trkpt lat="47.86786" lon="5.33574">
        <ele>461</ele>
        <time>2024-05-14T15:34:12.950Z</time>
      </trkpt>
      <trkpt lat="47.86785" lon="5.33573">
        <ele>461</ele>
        <time>2024-05-14T15:34:17.949Z</time>
      </trkpt>
      <trkpt lat="47.86786" lon="5.33572">
        <ele>461</ele>
        <time>2024-05-14T15:34:22.950Z</time>
      </trkpt>
      <trkpt lat="47.86792" lon="5.33569">
        <ele>458</ele>
        <time>2024-05-14T15:34:27.949Z</time>
      </trkpt>
      <trkpt lat="47.86797" lon="5.33568">
        <ele>458</ele>
        <time>2024-05-14T15:34:32.950Z</time>
      </trkpt>
      <trkpt lat="47.86801" lon="5.33568">
        <ele>458</ele>
        <time>2024-05-14T15:34:36.949Z</time>
      </trkpt>
      <trkpt lat="47.86804" lon="5.33568">
        <ele>458</ele>
        <time>2024-05-14T15:34:41.950Z</time>
      </trkpt>
      <trkpt lat="47.8681" lon="5.33569">
        <ele>458</ele>
        <time>2024-05-14T15:34:46.949Z</time>
      </trkpt>
      <trkpt lat="47.86815" lon="5.33569">
        <ele>458</ele>
      </trkpt>
      <trkpt lat="47.86821" lon="5.33569">
        <ele>450</ele>
      </trkpt>
      <trkpt lat="47.86821" lon="5.33568">
        <ele>450</ele>
      </trkpt>
      <trkpt lat="47.86821" lon="5.33567">
        <ele>450</ele>
      </trkpt>
      <trkpt lat="47.8682" lon="5.33559">
        <ele>450</ele>
      </trkpt>
      <trkpt lat="47.86819" lon="5.33553">
        <ele>458</ele>
      </trkpt>
      <trkpt lat="47.8682" lon="5.33545">
        <ele>450</ele>
      </trkpt>
      <trkpt lat="47.86821" lon="5.33536">
        <ele>449</ele>
      </trkpt>
      <trkpt lat="47.86821" lon="5.33528">
        <ele>449</ele>
      </trkpt>
      <trkpt lat="47.86821" lon="5.33521">
        <ele>449</ele>
      </trkpt>
      <trkpt lat="47.86821" lon="5.33514">
        <ele>449</ele>
      </trkpt>
      <trkpt lat="47.86821" lon="5.33507">
        <ele>449</ele>
      </trkpt>
      <trkpt lat="47.86821" lon="5.33498">
        <ele>449</ele>
      </trkpt>
      <trkpt lat="47.86822" lon="5.3349">
        <ele>449</ele>
      </trkpt>
      <trkpt lat="47.86823" lon="5.33483">
        <ele>449</ele>
      </trkpt>
      <trkpt lat="47.86823" lon="5.33475">
        <ele>449</ele>
      </trkpt>
      <trkpt lat="47.86823" lon="5.33467">
        <ele>449</ele>
      </trkpt>
      <trkpt lat="47.86822" lon="5.33458">
        <ele>448</ele>
      </trkpt>
      <trkpt lat="47.86823" lon="5.33449">
        <ele>448</ele>
      </trkpt>
      <trkpt lat="47.86824" lon="5.33438">
        <ele>448</ele>
      </trkpt>
      <trkpt lat="47.86825" lon="5.33427">
        <ele>446</ele>
      </trkpt>
      <trkpt lat="47.86826" lon="5.33417">
        <ele>446</ele>
      </trkpt>
      <trkpt lat="47.86826" lon="5.33408">
        <ele>446</ele>
      </trkpt>
      <trkpt lat="47.86825" lon="5.33401">
        <ele>443</ele>
      </trkpt>
      <trkpt lat="47.86825" lon="5.33391">
        <ele>443</ele>
      </trkpt>
      <trkpt lat="47.86824" lon="5.33382">
        <ele>443</ele>
      </trkpt>
    </trkseg>
  </trk>
</gpx>